<?xml version="1.0" encoding="UTF-8"?>
<gpx xmlns="http://www.topografix.com/GPX/1/1"
     creator="GpsDumpMac 0.36"
     version="1.1"
     xmlns:xsi="http://www.w3.org/2001/XMLSchema-instance"
     xsi:schemaLocation="http://www.topografix.com/GPX/1/1 http://www.topografix.com/GPX/1/1/gpx.xsd">
  <metadata>
    <link href="http://www.gethome.no/stein.sorensen/">
      <text>GPS dump for www.flightlog.org</text>
    </link>
    <time>2015-08-29T11:55:38Z</time>
    <bounds minlat="40.420967" minlon="-5.317017" maxlat="40.664417" maxlon="-4.747083"/>
  </metadata>
  <trk>
    <name>Track 001</name>
    <trkseg>
      <trkpt lat="40.421933" lon="-5.301200">
        <ele>1922.0</ele>
        <time>2015-08-15T11:55:52Z</time>
      </trkpt>
      <trkpt lat="40.422017" lon="-5.301217">
        <ele>1922.0</ele>
        <time>2015-08-15T11:55:54Z</time>
      </trkpt>
      <trkpt lat="40.422100" lon="-5.301233">
        <ele>1922.0</ele>
        <time>2015-08-15T11:55:56Z</time>
      </trkpt>
      <trkpt lat="40.422217" lon="-5.301183">
        <ele>1924.0</ele>
        <time>2015-08-15T11:55:58Z</time>
      </trkpt>
      <trkpt lat="40.422317" lon="-5.301133">
        <ele>1927.0</ele>
        <time>2015-08-15T11:56:00Z</time>
      </trkpt>
      <trkpt lat="40.422367" lon="-5.301200">
        <ele>1929.0</ele>
        <time>2015-08-15T11:56:02Z</time>
      </trkpt>
      <trkpt lat="40.422333" lon="-5.301383">
        <ele>1928.0</ele>
        <time>2015-08-15T11:56:04Z</time>
      </trkpt>
      <trkpt lat="40.422233" lon="-5.301600">
        <ele>1931.0</ele>
        <time>2015-08-15T11:56:06Z</time>
      </trkpt>
      <trkpt lat="40.422217" lon="-5.301733">
        <ele>1930.0</ele>
        <time>2015-08-15T11:56:08Z</time>
      </trkpt>
      <trkpt lat="40.422283" lon="-5.301833">
        <ele>1928.0</ele>
        <time>2015-08-15T11:56:10Z</time>
      </trkpt>
      <trkpt lat="40.422383" lon="-5.301833">
        <ele>1928.0</ele>
        <time>2015-08-15T11:56:12Z</time>
      </trkpt>
      <trkpt lat="40.422467" lon="-5.301783">
        <ele>1929.0</ele>
        <time>2015-08-15T11:56:14Z</time>
      </trkpt>
      <trkpt lat="40.422533" lon="-5.301717">
        <ele>1931.0</ele>
        <time>2015-08-15T11:56:16Z</time>
      </trkpt>
      <trkpt lat="40.422583" lon="-5.301633">
        <ele>1931.0</ele>
        <time>2015-08-15T11:56:18Z</time>
      </trkpt>
      <trkpt lat="40.422633" lon="-5.301583">
        <ele>1929.0</ele>
        <time>2015-08-15T11:56:20Z</time>
      </trkpt>
      <trkpt lat="40.422733" lon="-5.301533">
        <ele>1928.0</ele>
        <time>2015-08-15T11:56:22Z</time>
      </trkpt>
      <trkpt lat="40.422833" lon="-5.301517">
        <ele>1930.0</ele>
        <time>2015-08-15T11:56:24Z</time>
      </trkpt>
      <trkpt lat="40.422883" lon="-5.301533">
        <ele>1931.0</ele>
        <time>2015-08-15T11:56:26Z</time>
      </trkpt>
      <trkpt lat="40.422933" lon="-5.301650">
        <ele>1930.0</ele>
        <time>2015-08-15T11:56:28Z</time>
      </trkpt>
      <trkpt lat="40.422933" lon="-5.301850">
        <ele>1927.0</ele>
        <time>2015-08-15T11:56:30Z</time>
      </trkpt>
      <trkpt lat="40.422833" lon="-5.302067">
        <ele>1930.0</ele>
        <time>2015-08-15T11:56:32Z</time>
      </trkpt>
      <trkpt lat="40.422700" lon="-5.302217">
        <ele>1931.0</ele>
        <time>2015-08-15T11:56:34Z</time>
      </trkpt>
      <trkpt lat="40.422550" lon="-5.302433">
        <ele>1927.0</ele>
        <time>2015-08-15T11:56:36Z</time>
      </trkpt>
      <trkpt lat="40.422433" lon="-5.302717">
        <ele>1927.0</ele>
        <time>2015-08-15T11:56:38Z</time>
      </trkpt>
      <trkpt lat="40.422333" lon="-5.302900">
        <ele>1928.0</ele>
        <time>2015-08-15T11:56:40Z</time>
      </trkpt>
      <trkpt lat="40.422233" lon="-5.303117">
        <ele>1922.0</ele>
        <time>2015-08-15T11:56:42Z</time>
      </trkpt>
      <trkpt lat="40.422133" lon="-5.303400">
        <ele>1917.0</ele>
        <time>2015-08-15T11:56:44Z</time>
      </trkpt>
      <trkpt lat="40.422117" lon="-5.303633">
        <ele>1917.0</ele>
        <time>2015-08-15T11:56:46Z</time>
      </trkpt>
      <trkpt lat="40.422067" lon="-5.303867">
        <ele>1917.0</ele>
        <time>2015-08-15T11:56:48Z</time>
      </trkpt>
      <trkpt lat="40.421983" lon="-5.304117">
        <ele>1915.0</ele>
        <time>2015-08-15T11:56:50Z</time>
      </trkpt>
      <trkpt lat="40.421917" lon="-5.304350">
        <ele>1912.0</ele>
        <time>2015-08-15T11:56:52Z</time>
      </trkpt>
      <trkpt lat="40.421867" lon="-5.304633">
        <ele>1907.0</ele>
        <time>2015-08-15T11:56:54Z</time>
      </trkpt>
      <trkpt lat="40.421867" lon="-5.304917">
        <ele>1902.0</ele>
        <time>2015-08-15T11:56:56Z</time>
      </trkpt>
      <trkpt lat="40.421883" lon="-5.305200">
        <ele>1901.0</ele>
        <time>2015-08-15T11:56:58Z</time>
      </trkpt>
      <trkpt lat="40.421933" lon="-5.305417">
        <ele>1902.0</ele>
        <time>2015-08-15T11:57:00Z</time>
      </trkpt>
      <trkpt lat="40.421967" lon="-5.305583">
        <ele>1900.0</ele>
        <time>2015-08-15T11:57:02Z</time>
      </trkpt>
      <trkpt lat="40.422017" lon="-5.305800">
        <ele>1898.0</ele>
        <time>2015-08-15T11:57:04Z</time>
      </trkpt>
      <trkpt lat="40.422067" lon="-5.306033">
        <ele>1897.0</ele>
        <time>2015-08-15T11:57:06Z</time>
      </trkpt>
      <trkpt lat="40.422133" lon="-5.306267">
        <ele>1897.0</ele>
        <time>2015-08-15T11:57:08Z</time>
      </trkpt>
      <trkpt lat="40.422183" lon="-5.306467">
        <ele>1898.0</ele>
        <time>2015-08-15T11:57:10Z</time>
      </trkpt>
      <trkpt lat="40.422250" lon="-5.306667">
        <ele>1898.0</ele>
        <time>2015-08-15T11:57:12Z</time>
      </trkpt>
      <trkpt lat="40.422300" lon="-5.306883">
        <ele>1898.0</ele>
        <time>2015-08-15T11:57:14Z</time>
      </trkpt>
      <trkpt lat="40.422367" lon="-5.307083">
        <ele>1901.0</ele>
        <time>2015-08-15T11:57:16Z</time>
      </trkpt>
      <trkpt lat="40.422400" lon="-5.307267">
        <ele>1904.0</ele>
        <time>2015-08-15T11:57:18Z</time>
      </trkpt>
      <trkpt lat="40.422400" lon="-5.307483">
        <ele>1908.0</ele>
        <time>2015-08-15T11:57:20Z</time>
      </trkpt>
      <trkpt lat="40.422433" lon="-5.307650">
        <ele>1915.0</ele>
        <time>2015-08-15T11:57:22Z</time>
      </trkpt>
      <trkpt lat="40.422500" lon="-5.307683">
        <ele>1916.0</ele>
        <time>2015-08-15T11:57:24Z</time>
      </trkpt>
      <trkpt lat="40.422583" lon="-5.307617">
        <ele>1917.0</ele>
        <time>2015-08-15T11:57:26Z</time>
      </trkpt>
      <trkpt lat="40.422617" lon="-5.307433">
        <ele>1917.0</ele>
        <time>2015-08-15T11:57:28Z</time>
      </trkpt>
      <trkpt lat="40.422683" lon="-5.307233">
        <ele>1920.0</ele>
        <time>2015-08-15T11:57:30Z</time>
      </trkpt>
      <trkpt lat="40.422750" lon="-5.307133">
        <ele>1926.0</ele>
        <time>2015-08-15T11:57:32Z</time>
      </trkpt>
      <trkpt lat="40.422783" lon="-5.307100">
        <ele>1929.0</ele>
        <time>2015-08-15T11:57:34Z</time>
      </trkpt>
      <trkpt lat="40.422883" lon="-5.307150">
        <ele>1928.0</ele>
        <time>2015-08-15T11:57:36Z</time>
      </trkpt>
      <trkpt lat="40.422983" lon="-5.307283">
        <ele>1930.0</ele>
        <time>2015-08-15T11:57:38Z</time>
      </trkpt>
      <trkpt lat="40.423017" lon="-5.307400">
        <ele>1932.0</ele>
        <time>2015-08-15T11:57:40Z</time>
      </trkpt>
      <trkpt lat="40.423000" lon="-5.307617">
        <ele>1929.0</ele>
        <time>2015-08-15T11:57:42Z</time>
      </trkpt>
      <trkpt lat="40.422883" lon="-5.307883">
        <ele>1930.0</ele>
        <time>2015-08-15T11:57:44Z</time>
      </trkpt>
      <trkpt lat="40.422750" lon="-5.308100">
        <ele>1936.0</ele>
        <time>2015-08-15T11:57:46Z</time>
      </trkpt>
      <trkpt lat="40.422650" lon="-5.308300">
        <ele>1937.0</ele>
        <time>2015-08-15T11:57:48Z</time>
      </trkpt>
      <trkpt lat="40.422583" lon="-5.308533">
        <ele>1935.0</ele>
        <time>2015-08-15T11:57:50Z</time>
      </trkpt>
      <trkpt lat="40.422517" lon="-5.308783">
        <ele>1934.0</ele>
        <time>2015-08-15T11:57:52Z</time>
      </trkpt>
      <trkpt lat="40.422467" lon="-5.309033">
        <ele>1935.0</ele>
        <time>2015-08-15T11:57:54Z</time>
      </trkpt>
      <trkpt lat="40.422417" lon="-5.309233">
        <ele>1938.0</ele>
        <time>2015-08-15T11:57:56Z</time>
      </trkpt>
      <trkpt lat="40.422417" lon="-5.309383">
        <ele>1941.0</ele>
        <time>2015-08-15T11:57:58Z</time>
      </trkpt>
      <trkpt lat="40.422467" lon="-5.309483">
        <ele>1942.0</ele>
        <time>2015-08-15T11:58:00Z</time>
      </trkpt>
      <trkpt lat="40.422567" lon="-5.309500">
        <ele>1942.0</ele>
        <time>2015-08-15T11:58:02Z</time>
      </trkpt>
      <trkpt lat="40.422650" lon="-5.309350">
        <ele>1944.0</ele>
        <time>2015-08-15T11:58:04Z</time>
      </trkpt>
      <trkpt lat="40.422683" lon="-5.309150">
        <ele>1946.0</ele>
        <time>2015-08-15T11:58:06Z</time>
      </trkpt>
      <trkpt lat="40.422633" lon="-5.308917">
        <ele>1945.0</ele>
        <time>2015-08-15T11:58:08Z</time>
      </trkpt>
      <trkpt lat="40.422517" lon="-5.308633">
        <ele>1945.0</ele>
        <time>2015-08-15T11:58:10Z</time>
      </trkpt>
      <trkpt lat="40.422450" lon="-5.308433">
        <ele>1948.0</ele>
        <time>2015-08-15T11:58:12Z</time>
      </trkpt>
      <trkpt lat="40.422433" lon="-5.308267">
        <ele>1946.0</ele>
        <time>2015-08-15T11:58:14Z</time>
      </trkpt>
      <trkpt lat="40.422433" lon="-5.308083">
        <ele>1945.0</ele>
        <time>2015-08-15T11:58:16Z</time>
      </trkpt>
      <trkpt lat="40.422500" lon="-5.307950">
        <ele>1943.0</ele>
        <time>2015-08-15T11:58:18Z</time>
      </trkpt>
      <trkpt lat="40.422583" lon="-5.307867">
        <ele>1941.0</ele>
        <time>2015-08-15T11:58:20Z</time>
      </trkpt>
      <trkpt lat="40.422683" lon="-5.307883">
        <ele>1939.0</ele>
        <time>2015-08-15T11:58:22Z</time>
      </trkpt>
      <trkpt lat="40.422767" lon="-5.308017">
        <ele>1936.0</ele>
        <time>2015-08-15T11:58:24Z</time>
      </trkpt>
      <trkpt lat="40.422783" lon="-5.308200">
        <ele>1935.0</ele>
        <time>2015-08-15T11:58:26Z</time>
      </trkpt>
      <trkpt lat="40.422750" lon="-5.308417">
        <ele>1933.0</ele>
        <time>2015-08-15T11:58:28Z</time>
      </trkpt>
      <trkpt lat="40.422700" lon="-5.308633">
        <ele>1930.0</ele>
        <time>2015-08-15T11:58:30Z</time>
      </trkpt>
      <trkpt lat="40.422683" lon="-5.308900">
        <ele>1926.0</ele>
        <time>2015-08-15T11:58:32Z</time>
      </trkpt>
      <trkpt lat="40.422717" lon="-5.309117">
        <ele>1929.0</ele>
        <time>2015-08-15T11:58:34Z</time>
      </trkpt>
      <trkpt lat="40.422767" lon="-5.309267">
        <ele>1936.0</ele>
        <time>2015-08-15T11:58:36Z</time>
      </trkpt>
      <trkpt lat="40.422700" lon="-5.309433">
        <ele>1939.0</ele>
        <time>2015-08-15T11:58:38Z</time>
      </trkpt>
      <trkpt lat="40.422583" lon="-5.309633">
        <ele>1942.0</ele>
        <time>2015-08-15T11:58:40Z</time>
      </trkpt>
      <trkpt lat="40.422517" lon="-5.309833">
        <ele>1944.0</ele>
        <time>2015-08-15T11:58:42Z</time>
      </trkpt>
      <trkpt lat="40.422517" lon="-5.309983">
        <ele>1947.0</ele>
        <time>2015-08-15T11:58:44Z</time>
      </trkpt>
      <trkpt lat="40.422550" lon="-5.310050">
        <ele>1948.0</ele>
        <time>2015-08-15T11:58:46Z</time>
      </trkpt>
      <trkpt lat="40.422617" lon="-5.310067">
        <ele>1948.0</ele>
        <time>2015-08-15T11:58:48Z</time>
      </trkpt>
      <trkpt lat="40.422683" lon="-5.309900">
        <ele>1949.0</ele>
        <time>2015-08-15T11:58:50Z</time>
      </trkpt>
      <trkpt lat="40.422650" lon="-5.309683">
        <ele>1956.0</ele>
        <time>2015-08-15T11:58:52Z</time>
      </trkpt>
      <trkpt lat="40.422583" lon="-5.309517">
        <ele>1961.0</ele>
        <time>2015-08-15T11:58:54Z</time>
      </trkpt>
      <trkpt lat="40.422450" lon="-5.309317">
        <ele>1961.0</ele>
        <time>2015-08-15T11:58:56Z</time>
      </trkpt>
      <trkpt lat="40.422233" lon="-5.309117">
        <ele>1962.0</ele>
        <time>2015-08-15T11:58:58Z</time>
      </trkpt>
      <trkpt lat="40.421967" lon="-5.309100">
        <ele>1965.0</ele>
        <time>2015-08-15T11:59:00Z</time>
      </trkpt>
      <trkpt lat="40.421733" lon="-5.309317">
        <ele>1967.0</ele>
        <time>2015-08-15T11:59:02Z</time>
      </trkpt>
      <trkpt lat="40.421600" lon="-5.309550">
        <ele>1975.0</ele>
        <time>2015-08-15T11:59:04Z</time>
      </trkpt>
      <trkpt lat="40.421550" lon="-5.309733">
        <ele>1979.0</ele>
        <time>2015-08-15T11:59:06Z</time>
      </trkpt>
      <trkpt lat="40.421550" lon="-5.309900">
        <ele>1979.0</ele>
        <time>2015-08-15T11:59:08Z</time>
      </trkpt>
      <trkpt lat="40.421617" lon="-5.310033">
        <ele>1981.0</ele>
        <time>2015-08-15T11:59:10Z</time>
      </trkpt>
      <trkpt lat="40.421667" lon="-5.310100">
        <ele>1983.0</ele>
        <time>2015-08-15T11:59:12Z</time>
      </trkpt>
      <trkpt lat="40.421733" lon="-5.310117">
        <ele>1984.0</ele>
        <time>2015-08-15T11:59:14Z</time>
      </trkpt>
      <trkpt lat="40.421800" lon="-5.310033">
        <ele>1988.0</ele>
        <time>2015-08-15T11:59:16Z</time>
      </trkpt>
      <trkpt lat="40.421833" lon="-5.309933">
        <ele>1993.0</ele>
        <time>2015-08-15T11:59:18Z</time>
      </trkpt>
      <trkpt lat="40.421867" lon="-5.309817">
        <ele>1995.0</ele>
        <time>2015-08-15T11:59:20Z</time>
      </trkpt>
      <trkpt lat="40.421883" lon="-5.309633">
        <ele>1997.0</ele>
        <time>2015-08-15T11:59:22Z</time>
      </trkpt>
      <trkpt lat="40.421867" lon="-5.309450">
        <ele>2005.0</ele>
        <time>2015-08-15T11:59:24Z</time>
      </trkpt>
      <trkpt lat="40.421800" lon="-5.309283">
        <ele>2010.0</ele>
        <time>2015-08-15T11:59:26Z</time>
      </trkpt>
      <trkpt lat="40.421717" lon="-5.309017">
        <ele>2010.0</ele>
        <time>2015-08-15T11:59:28Z</time>
      </trkpt>
      <trkpt lat="40.421700" lon="-5.308767">
        <ele>2014.0</ele>
        <time>2015-08-15T11:59:30Z</time>
      </trkpt>
      <trkpt lat="40.421767" lon="-5.308683">
        <ele>2015.0</ele>
        <time>2015-08-15T11:59:32Z</time>
      </trkpt>
      <trkpt lat="40.421800" lon="-5.308717">
        <ele>2016.0</ele>
        <time>2015-08-15T11:59:34Z</time>
      </trkpt>
      <trkpt lat="40.421833" lon="-5.308817">
        <ele>2017.0</ele>
        <time>2015-08-15T11:59:36Z</time>
      </trkpt>
      <trkpt lat="40.421867" lon="-5.308900">
        <ele>2018.0</ele>
        <time>2015-08-15T11:59:38Z</time>
      </trkpt>
      <trkpt lat="40.421917" lon="-5.308950">
        <ele>2017.0</ele>
        <time>2015-08-15T11:59:40Z</time>
      </trkpt>
      <trkpt lat="40.421983" lon="-5.309067">
        <ele>2014.0</ele>
        <time>2015-08-15T11:59:42Z</time>
      </trkpt>
      <trkpt lat="40.422067" lon="-5.309167">
        <ele>2014.0</ele>
        <time>2015-08-15T11:59:44Z</time>
      </trkpt>
      <trkpt lat="40.422117" lon="-5.309250">
        <ele>2017.0</ele>
        <time>2015-08-15T11:59:46Z</time>
      </trkpt>
      <trkpt lat="40.422167" lon="-5.309317">
        <ele>2017.0</ele>
        <time>2015-08-15T11:59:48Z</time>
      </trkpt>
      <trkpt lat="40.422233" lon="-5.309417">
        <ele>2015.0</ele>
        <time>2015-08-15T11:59:50Z</time>
      </trkpt>
      <trkpt lat="40.422317" lon="-5.309517">
        <ele>2017.0</ele>
        <time>2015-08-15T11:59:52Z</time>
      </trkpt>
      <trkpt lat="40.422367" lon="-5.309583">
        <ele>2015.0</ele>
        <time>2015-08-15T11:59:54Z</time>
      </trkpt>
      <trkpt lat="40.422417" lon="-5.309733">
        <ele>2010.0</ele>
        <time>2015-08-15T11:59:56Z</time>
      </trkpt>
      <trkpt lat="40.422450" lon="-5.309883">
        <ele>2006.0</ele>
        <time>2015-08-15T11:59:58Z</time>
      </trkpt>
      <trkpt lat="40.422500" lon="-5.310017">
        <ele>1999.0</ele>
        <time>2015-08-15T12:00:00Z</time>
      </trkpt>
      <trkpt lat="40.422567" lon="-5.310217">
        <ele>1992.0</ele>
        <time>2015-08-15T12:00:02Z</time>
      </trkpt>
      <trkpt lat="40.422567" lon="-5.310433">
        <ele>1990.0</ele>
        <time>2015-08-15T12:00:04Z</time>
      </trkpt>
      <trkpt lat="40.422517" lon="-5.310633">
        <ele>1986.0</ele>
        <time>2015-08-15T12:00:06Z</time>
      </trkpt>
      <trkpt lat="40.422483" lon="-5.310917">
        <ele>1980.0</ele>
        <time>2015-08-15T12:00:08Z</time>
      </trkpt>
      <trkpt lat="40.422450" lon="-5.311183">
        <ele>1980.0</ele>
        <time>2015-08-15T12:00:10Z</time>
      </trkpt>
      <trkpt lat="40.422417" lon="-5.311400">
        <ele>1978.0</ele>
        <time>2015-08-15T12:00:12Z</time>
      </trkpt>
      <trkpt lat="40.422400" lon="-5.311667">
        <ele>1974.0</ele>
        <time>2015-08-15T12:00:14Z</time>
      </trkpt>
      <trkpt lat="40.422383" lon="-5.311967">
        <ele>1971.0</ele>
        <time>2015-08-15T12:00:16Z</time>
      </trkpt>
      <trkpt lat="40.422400" lon="-5.312183">
        <ele>1974.0</ele>
        <time>2015-08-15T12:00:18Z</time>
      </trkpt>
      <trkpt lat="40.422467" lon="-5.312350">
        <ele>1979.0</ele>
        <time>2015-08-15T12:00:20Z</time>
      </trkpt>
      <trkpt lat="40.422517" lon="-5.312483">
        <ele>1986.0</ele>
        <time>2015-08-15T12:00:22Z</time>
      </trkpt>
      <trkpt lat="40.422583" lon="-5.312567">
        <ele>1990.0</ele>
        <time>2015-08-15T12:00:24Z</time>
      </trkpt>
      <trkpt lat="40.422683" lon="-5.312617">
        <ele>1992.0</ele>
        <time>2015-08-15T12:00:26Z</time>
      </trkpt>
      <trkpt lat="40.422783" lon="-5.312583">
        <ele>1995.0</ele>
        <time>2015-08-15T12:00:28Z</time>
      </trkpt>
      <trkpt lat="40.422850" lon="-5.312433">
        <ele>2003.0</ele>
        <time>2015-08-15T12:00:30Z</time>
      </trkpt>
      <trkpt lat="40.422850" lon="-5.312300">
        <ele>2010.0</ele>
        <time>2015-08-15T12:00:32Z</time>
      </trkpt>
      <trkpt lat="40.422783" lon="-5.312050">
        <ele>2011.0</ele>
        <time>2015-08-15T12:00:34Z</time>
      </trkpt>
      <trkpt lat="40.422583" lon="-5.311817">
        <ele>2014.0</ele>
        <time>2015-08-15T12:00:36Z</time>
      </trkpt>
      <trkpt lat="40.422350" lon="-5.311783">
        <ele>2019.0</ele>
        <time>2015-08-15T12:00:38Z</time>
      </trkpt>
      <trkpt lat="40.422100" lon="-5.311900">
        <ele>2020.0</ele>
        <time>2015-08-15T12:00:40Z</time>
      </trkpt>
      <trkpt lat="40.421883" lon="-5.312083">
        <ele>2020.0</ele>
        <time>2015-08-15T12:00:42Z</time>
      </trkpt>
      <trkpt lat="40.421783" lon="-5.312367">
        <ele>2020.0</ele>
        <time>2015-08-15T12:00:44Z</time>
      </trkpt>
      <trkpt lat="40.421767" lon="-5.312633">
        <ele>2025.0</ele>
        <time>2015-08-15T12:00:46Z</time>
      </trkpt>
      <trkpt lat="40.421767" lon="-5.312850">
        <ele>2031.0</ele>
        <time>2015-08-15T12:00:48Z</time>
      </trkpt>
      <trkpt lat="40.421800" lon="-5.313033">
        <ele>2036.0</ele>
        <time>2015-08-15T12:00:50Z</time>
      </trkpt>
      <trkpt lat="40.421883" lon="-5.313117">
        <ele>2042.0</ele>
        <time>2015-08-15T12:00:52Z</time>
      </trkpt>
      <trkpt lat="40.421983" lon="-5.313150">
        <ele>2049.0</ele>
        <time>2015-08-15T12:00:54Z</time>
      </trkpt>
      <trkpt lat="40.422067" lon="-5.313050">
        <ele>2053.0</ele>
        <time>2015-08-15T12:00:56Z</time>
      </trkpt>
      <trkpt lat="40.422117" lon="-5.312850">
        <ele>2057.0</ele>
        <time>2015-08-15T12:00:58Z</time>
      </trkpt>
      <trkpt lat="40.422083" lon="-5.312617">
        <ele>2064.0</ele>
        <time>2015-08-15T12:01:00Z</time>
      </trkpt>
      <trkpt lat="40.421900" lon="-5.312417">
        <ele>2069.0</ele>
        <time>2015-08-15T12:01:02Z</time>
      </trkpt>
      <trkpt lat="40.421600" lon="-5.312417">
        <ele>2074.0</ele>
        <time>2015-08-15T12:01:04Z</time>
      </trkpt>
      <trkpt lat="40.421383" lon="-5.312583">
        <ele>2081.0</ele>
        <time>2015-08-15T12:01:06Z</time>
      </trkpt>
      <trkpt lat="40.421283" lon="-5.312783">
        <ele>2087.0</ele>
        <time>2015-08-15T12:01:08Z</time>
      </trkpt>
      <trkpt lat="40.421283" lon="-5.312983">
        <ele>2093.0</ele>
        <time>2015-08-15T12:01:10Z</time>
      </trkpt>
      <trkpt lat="40.421300" lon="-5.313133">
        <ele>2101.0</ele>
        <time>2015-08-15T12:01:12Z</time>
      </trkpt>
      <trkpt lat="40.421317" lon="-5.313233">
        <ele>2105.0</ele>
        <time>2015-08-15T12:01:14Z</time>
      </trkpt>
      <trkpt lat="40.421417" lon="-5.313250">
        <ele>2105.0</ele>
        <time>2015-08-15T12:01:16Z</time>
      </trkpt>
      <trkpt lat="40.421533" lon="-5.313183">
        <ele>2110.0</ele>
        <time>2015-08-15T12:01:18Z</time>
      </trkpt>
      <trkpt lat="40.421600" lon="-5.313150">
        <ele>2116.0</ele>
        <time>2015-08-15T12:01:20Z</time>
      </trkpt>
      <trkpt lat="40.421667" lon="-5.313033">
        <ele>2116.0</ele>
        <time>2015-08-15T12:01:22Z</time>
      </trkpt>
      <trkpt lat="40.421733" lon="-5.312833">
        <ele>2115.0</ele>
        <time>2015-08-15T12:01:24Z</time>
      </trkpt>
      <trkpt lat="40.421700" lon="-5.312617">
        <ele>2116.0</ele>
        <time>2015-08-15T12:01:26Z</time>
      </trkpt>
      <trkpt lat="40.421633" lon="-5.312400">
        <ele>2115.0</ele>
        <time>2015-08-15T12:01:28Z</time>
      </trkpt>
      <trkpt lat="40.421583" lon="-5.312150">
        <ele>2116.0</ele>
        <time>2015-08-15T12:01:30Z</time>
      </trkpt>
      <trkpt lat="40.421583" lon="-5.311950">
        <ele>2121.0</ele>
        <time>2015-08-15T12:01:32Z</time>
      </trkpt>
      <trkpt lat="40.421600" lon="-5.311800">
        <ele>2119.0</ele>
        <time>2015-08-15T12:01:34Z</time>
      </trkpt>
      <trkpt lat="40.421683" lon="-5.311683">
        <ele>2113.0</ele>
        <time>2015-08-15T12:01:36Z</time>
      </trkpt>
      <trkpt lat="40.421800" lon="-5.311667">
        <ele>2110.0</ele>
        <time>2015-08-15T12:01:38Z</time>
      </trkpt>
      <trkpt lat="40.421867" lon="-5.311733">
        <ele>2108.0</ele>
        <time>2015-08-15T12:01:40Z</time>
      </trkpt>
      <trkpt lat="40.421900" lon="-5.311850">
        <ele>2103.0</ele>
        <time>2015-08-15T12:01:42Z</time>
      </trkpt>
      <trkpt lat="40.421950" lon="-5.312017">
        <ele>2098.0</ele>
        <time>2015-08-15T12:01:44Z</time>
      </trkpt>
      <trkpt lat="40.421983" lon="-5.312167">
        <ele>2099.0</ele>
        <time>2015-08-15T12:01:46Z</time>
      </trkpt>
      <trkpt lat="40.422000" lon="-5.312300">
        <ele>2097.0</ele>
        <time>2015-08-15T12:01:48Z</time>
      </trkpt>
      <trkpt lat="40.422050" lon="-5.312483">
        <ele>2094.0</ele>
        <time>2015-08-15T12:01:50Z</time>
      </trkpt>
      <trkpt lat="40.422067" lon="-5.312683">
        <ele>2095.0</ele>
        <time>2015-08-15T12:01:52Z</time>
      </trkpt>
      <trkpt lat="40.422083" lon="-5.312850">
        <ele>2096.0</ele>
        <time>2015-08-15T12:01:54Z</time>
      </trkpt>
      <trkpt lat="40.422100" lon="-5.313033">
        <ele>2096.0</ele>
        <time>2015-08-15T12:01:56Z</time>
      </trkpt>
      <trkpt lat="40.422133" lon="-5.313217">
        <ele>2096.0</ele>
        <time>2015-08-15T12:01:58Z</time>
      </trkpt>
      <trkpt lat="40.422167" lon="-5.313400">
        <ele>2097.0</ele>
        <time>2015-08-15T12:02:00Z</time>
      </trkpt>
      <trkpt lat="40.422217" lon="-5.313550">
        <ele>2097.0</ele>
        <time>2015-08-15T12:02:02Z</time>
      </trkpt>
      <trkpt lat="40.422267" lon="-5.313683">
        <ele>2098.0</ele>
        <time>2015-08-15T12:02:04Z</time>
      </trkpt>
      <trkpt lat="40.422317" lon="-5.313817">
        <ele>2099.0</ele>
        <time>2015-08-15T12:02:06Z</time>
      </trkpt>
      <trkpt lat="40.422367" lon="-5.313967">
        <ele>2099.0</ele>
        <time>2015-08-15T12:02:08Z</time>
      </trkpt>
      <trkpt lat="40.422450" lon="-5.314083">
        <ele>2100.0</ele>
        <time>2015-08-15T12:02:10Z</time>
      </trkpt>
      <trkpt lat="40.422517" lon="-5.314183">
        <ele>2102.0</ele>
        <time>2015-08-15T12:02:12Z</time>
      </trkpt>
      <trkpt lat="40.422567" lon="-5.314250">
        <ele>2102.0</ele>
        <time>2015-08-15T12:02:14Z</time>
      </trkpt>
      <trkpt lat="40.422650" lon="-5.314350">
        <ele>2100.0</ele>
        <time>2015-08-15T12:02:16Z</time>
      </trkpt>
      <trkpt lat="40.422700" lon="-5.314450">
        <ele>2101.0</ele>
        <time>2015-08-15T12:02:18Z</time>
      </trkpt>
      <trkpt lat="40.422750" lon="-5.314533">
        <ele>2103.0</ele>
        <time>2015-08-15T12:02:20Z</time>
      </trkpt>
      <trkpt lat="40.422783" lon="-5.314650">
        <ele>2102.0</ele>
        <time>2015-08-15T12:02:22Z</time>
      </trkpt>
      <trkpt lat="40.422800" lon="-5.314800">
        <ele>2103.0</ele>
        <time>2015-08-15T12:02:24Z</time>
      </trkpt>
      <trkpt lat="40.422800" lon="-5.314983">
        <ele>2103.0</ele>
        <time>2015-08-15T12:02:26Z</time>
      </trkpt>
      <trkpt lat="40.422817" lon="-5.315167">
        <ele>2107.0</ele>
        <time>2015-08-15T12:02:28Z</time>
      </trkpt>
      <trkpt lat="40.422850" lon="-5.315350">
        <ele>2113.0</ele>
        <time>2015-08-15T12:02:30Z</time>
      </trkpt>
      <trkpt lat="40.422883" lon="-5.315500">
        <ele>2120.0</ele>
        <time>2015-08-15T12:02:32Z</time>
      </trkpt>
      <trkpt lat="40.422950" lon="-5.315567">
        <ele>2126.0</ele>
        <time>2015-08-15T12:02:34Z</time>
      </trkpt>
      <trkpt lat="40.423017" lon="-5.315650">
        <ele>2133.0</ele>
        <time>2015-08-15T12:02:36Z</time>
      </trkpt>
      <trkpt lat="40.423117" lon="-5.315617">
        <ele>2141.0</ele>
        <time>2015-08-15T12:02:38Z</time>
      </trkpt>
      <trkpt lat="40.423183" lon="-5.315417">
        <ele>2146.0</ele>
        <time>2015-08-15T12:02:40Z</time>
      </trkpt>
      <trkpt lat="40.423133" lon="-5.315133">
        <ele>2152.0</ele>
        <time>2015-08-15T12:02:42Z</time>
      </trkpt>
      <trkpt lat="40.422967" lon="-5.314850">
        <ele>2157.0</ele>
        <time>2015-08-15T12:02:44Z</time>
      </trkpt>
      <trkpt lat="40.422667" lon="-5.314717">
        <ele>2164.0</ele>
        <time>2015-08-15T12:02:46Z</time>
      </trkpt>
      <trkpt lat="40.422433" lon="-5.314817">
        <ele>2171.0</ele>
        <time>2015-08-15T12:02:48Z</time>
      </trkpt>
      <trkpt lat="40.422267" lon="-5.314967">
        <ele>2177.0</ele>
        <time>2015-08-15T12:02:50Z</time>
      </trkpt>
      <trkpt lat="40.422133" lon="-5.315200">
        <ele>2180.0</ele>
        <time>2015-08-15T12:02:52Z</time>
      </trkpt>
      <trkpt lat="40.422117" lon="-5.315417">
        <ele>2186.0</ele>
        <time>2015-08-15T12:02:54Z</time>
      </trkpt>
      <trkpt lat="40.422167" lon="-5.315567">
        <ele>2192.0</ele>
        <time>2015-08-15T12:02:56Z</time>
      </trkpt>
      <trkpt lat="40.422250" lon="-5.315667">
        <ele>2197.0</ele>
        <time>2015-08-15T12:02:58Z</time>
      </trkpt>
      <trkpt lat="40.422400" lon="-5.315683">
        <ele>2204.0</ele>
        <time>2015-08-15T12:03:00Z</time>
      </trkpt>
      <trkpt lat="40.422500" lon="-5.315583">
        <ele>2215.0</ele>
        <time>2015-08-15T12:03:02Z</time>
      </trkpt>
      <trkpt lat="40.422550" lon="-5.315483">
        <ele>2224.0</ele>
        <time>2015-08-15T12:03:04Z</time>
      </trkpt>
      <trkpt lat="40.422617" lon="-5.315250">
        <ele>2227.0</ele>
        <time>2015-08-15T12:03:06Z</time>
      </trkpt>
      <trkpt lat="40.422583" lon="-5.314933">
        <ele>2234.0</ele>
        <time>2015-08-15T12:03:08Z</time>
      </trkpt>
      <trkpt lat="40.422450" lon="-5.314700">
        <ele>2241.0</ele>
        <time>2015-08-15T12:03:10Z</time>
      </trkpt>
      <trkpt lat="40.422250" lon="-5.314517">
        <ele>2243.0</ele>
        <time>2015-08-15T12:03:12Z</time>
      </trkpt>
      <trkpt lat="40.421950" lon="-5.314483">
        <ele>2245.0</ele>
        <time>2015-08-15T12:03:14Z</time>
      </trkpt>
      <trkpt lat="40.421733" lon="-5.314617">
        <ele>2249.0</ele>
        <time>2015-08-15T12:03:16Z</time>
      </trkpt>
      <trkpt lat="40.421583" lon="-5.314783">
        <ele>2257.0</ele>
        <time>2015-08-15T12:03:18Z</time>
      </trkpt>
      <trkpt lat="40.421533" lon="-5.314983">
        <ele>2263.0</ele>
        <time>2015-08-15T12:03:20Z</time>
      </trkpt>
      <trkpt lat="40.421583" lon="-5.315117">
        <ele>2268.0</ele>
        <time>2015-08-15T12:03:22Z</time>
      </trkpt>
      <trkpt lat="40.421683" lon="-5.315200">
        <ele>2275.0</ele>
        <time>2015-08-15T12:03:24Z</time>
      </trkpt>
      <trkpt lat="40.421817" lon="-5.315233">
        <ele>2281.0</ele>
        <time>2015-08-15T12:03:26Z</time>
      </trkpt>
      <trkpt lat="40.421900" lon="-5.315133">
        <ele>2285.0</ele>
        <time>2015-08-15T12:03:28Z</time>
      </trkpt>
      <trkpt lat="40.421967" lon="-5.314950">
        <ele>2288.0</ele>
        <time>2015-08-15T12:03:30Z</time>
      </trkpt>
      <trkpt lat="40.421983" lon="-5.314700">
        <ele>2291.0</ele>
        <time>2015-08-15T12:03:32Z</time>
      </trkpt>
      <trkpt lat="40.421900" lon="-5.314383">
        <ele>2293.0</ele>
        <time>2015-08-15T12:03:34Z</time>
      </trkpt>
      <trkpt lat="40.421733" lon="-5.314117">
        <ele>2296.0</ele>
        <time>2015-08-15T12:03:36Z</time>
      </trkpt>
      <trkpt lat="40.421483" lon="-5.313967">
        <ele>2300.0</ele>
        <time>2015-08-15T12:03:38Z</time>
      </trkpt>
      <trkpt lat="40.421233" lon="-5.313950">
        <ele>2303.0</ele>
        <time>2015-08-15T12:03:40Z</time>
      </trkpt>
      <trkpt lat="40.421033" lon="-5.314083">
        <ele>2306.0</ele>
        <time>2015-08-15T12:03:42Z</time>
      </trkpt>
      <trkpt lat="40.420967" lon="-5.314250">
        <ele>2310.0</ele>
        <time>2015-08-15T12:03:44Z</time>
      </trkpt>
      <trkpt lat="40.421000" lon="-5.314350">
        <ele>2315.0</ele>
        <time>2015-08-15T12:03:46Z</time>
      </trkpt>
      <trkpt lat="40.421033" lon="-5.314417">
        <ele>2318.0</ele>
        <time>2015-08-15T12:03:48Z</time>
      </trkpt>
      <trkpt lat="40.421117" lon="-5.314433">
        <ele>2318.0</ele>
        <time>2015-08-15T12:03:50Z</time>
      </trkpt>
      <trkpt lat="40.421250" lon="-5.314467">
        <ele>2318.0</ele>
        <time>2015-08-15T12:03:52Z</time>
      </trkpt>
      <trkpt lat="40.421383" lon="-5.314533">
        <ele>2326.0</ele>
        <time>2015-08-15T12:03:54Z</time>
      </trkpt>
      <trkpt lat="40.421467" lon="-5.314517">
        <ele>2334.0</ele>
        <time>2015-08-15T12:03:56Z</time>
      </trkpt>
      <trkpt lat="40.421550" lon="-5.314483">
        <ele>2336.0</ele>
        <time>2015-08-15T12:03:58Z</time>
      </trkpt>
      <trkpt lat="40.421683" lon="-5.314517">
        <ele>2335.0</ele>
        <time>2015-08-15T12:04:00Z</time>
      </trkpt>
      <trkpt lat="40.421800" lon="-5.314550">
        <ele>2338.0</ele>
        <time>2015-08-15T12:04:02Z</time>
      </trkpt>
      <trkpt lat="40.421917" lon="-5.314583">
        <ele>2341.0</ele>
        <time>2015-08-15T12:04:04Z</time>
      </trkpt>
      <trkpt lat="40.422033" lon="-5.314633">
        <ele>2344.0</ele>
        <time>2015-08-15T12:04:06Z</time>
      </trkpt>
      <trkpt lat="40.422167" lon="-5.314700">
        <ele>2347.0</ele>
        <time>2015-08-15T12:04:08Z</time>
      </trkpt>
      <trkpt lat="40.422317" lon="-5.314733">
        <ele>2349.0</ele>
        <time>2015-08-15T12:04:10Z</time>
      </trkpt>
      <trkpt lat="40.422450" lon="-5.314767">
        <ele>2352.0</ele>
        <time>2015-08-15T12:04:12Z</time>
      </trkpt>
      <trkpt lat="40.422600" lon="-5.314800">
        <ele>2355.0</ele>
        <time>2015-08-15T12:04:14Z</time>
      </trkpt>
      <trkpt lat="40.422733" lon="-5.314800">
        <ele>2359.0</ele>
        <time>2015-08-15T12:04:16Z</time>
      </trkpt>
      <trkpt lat="40.422850" lon="-5.314800">
        <ele>2364.0</ele>
        <time>2015-08-15T12:04:18Z</time>
      </trkpt>
      <trkpt lat="40.422967" lon="-5.314783">
        <ele>2366.0</ele>
        <time>2015-08-15T12:04:20Z</time>
      </trkpt>
      <trkpt lat="40.423117" lon="-5.314633">
        <ele>2368.0</ele>
        <time>2015-08-15T12:04:22Z</time>
      </trkpt>
      <trkpt lat="40.423183" lon="-5.314400">
        <ele>2376.0</ele>
        <time>2015-08-15T12:04:24Z</time>
      </trkpt>
      <trkpt lat="40.423183" lon="-5.314183">
        <ele>2379.0</ele>
        <time>2015-08-15T12:04:26Z</time>
      </trkpt>
      <trkpt lat="40.423117" lon="-5.313883">
        <ele>2377.0</ele>
        <time>2015-08-15T12:04:28Z</time>
      </trkpt>
      <trkpt lat="40.422933" lon="-5.313617">
        <ele>2376.0</ele>
        <time>2015-08-15T12:04:30Z</time>
      </trkpt>
      <trkpt lat="40.422700" lon="-5.313483">
        <ele>2377.0</ele>
        <time>2015-08-15T12:04:32Z</time>
      </trkpt>
      <trkpt lat="40.422467" lon="-5.313500">
        <ele>2378.0</ele>
        <time>2015-08-15T12:04:34Z</time>
      </trkpt>
      <trkpt lat="40.422317" lon="-5.313600">
        <ele>2386.0</ele>
        <time>2015-08-15T12:04:36Z</time>
      </trkpt>
      <trkpt lat="40.422233" lon="-5.313700">
        <ele>2389.0</ele>
        <time>2015-08-15T12:04:38Z</time>
      </trkpt>
      <trkpt lat="40.422200" lon="-5.313867">
        <ele>2391.0</ele>
        <time>2015-08-15T12:04:40Z</time>
      </trkpt>
      <trkpt lat="40.422200" lon="-5.314050">
        <ele>2394.0</ele>
        <time>2015-08-15T12:04:42Z</time>
      </trkpt>
      <trkpt lat="40.422217" lon="-5.314233">
        <ele>2399.0</ele>
        <time>2015-08-15T12:04:44Z</time>
      </trkpt>
      <trkpt lat="40.422250" lon="-5.314400">
        <ele>2403.0</ele>
        <time>2015-08-15T12:04:46Z</time>
      </trkpt>
      <trkpt lat="40.422267" lon="-5.314567">
        <ele>2405.0</ele>
        <time>2015-08-15T12:04:48Z</time>
      </trkpt>
      <trkpt lat="40.422333" lon="-5.314767">
        <ele>2409.0</ele>
        <time>2015-08-15T12:04:50Z</time>
      </trkpt>
      <trkpt lat="40.422383" lon="-5.314933">
        <ele>2416.0</ele>
        <time>2015-08-15T12:04:52Z</time>
      </trkpt>
      <trkpt lat="40.422450" lon="-5.315033">
        <ele>2420.0</ele>
        <time>2015-08-15T12:04:54Z</time>
      </trkpt>
      <trkpt lat="40.422550" lon="-5.315050">
        <ele>2424.0</ele>
        <time>2015-08-15T12:04:56Z</time>
      </trkpt>
      <trkpt lat="40.422650" lon="-5.314983">
        <ele>2426.0</ele>
        <time>2015-08-15T12:04:58Z</time>
      </trkpt>
      <trkpt lat="40.422717" lon="-5.314867">
        <ele>2430.0</ele>
        <time>2015-08-15T12:05:00Z</time>
      </trkpt>
      <trkpt lat="40.422767" lon="-5.314667">
        <ele>2433.0</ele>
        <time>2015-08-15T12:05:02Z</time>
      </trkpt>
      <trkpt lat="40.422733" lon="-5.314417">
        <ele>2436.0</ele>
        <time>2015-08-15T12:05:04Z</time>
      </trkpt>
      <trkpt lat="40.422600" lon="-5.314183">
        <ele>2438.0</ele>
        <time>2015-08-15T12:05:06Z</time>
      </trkpt>
      <trkpt lat="40.422383" lon="-5.314017">
        <ele>2436.0</ele>
        <time>2015-08-15T12:05:08Z</time>
      </trkpt>
      <trkpt lat="40.422100" lon="-5.314017">
        <ele>2438.0</ele>
        <time>2015-08-15T12:05:10Z</time>
      </trkpt>
      <trkpt lat="40.421883" lon="-5.314083">
        <ele>2446.0</ele>
        <time>2015-08-15T12:05:12Z</time>
      </trkpt>
      <trkpt lat="40.421733" lon="-5.314150">
        <ele>2451.0</ele>
        <time>2015-08-15T12:05:14Z</time>
      </trkpt>
      <trkpt lat="40.421567" lon="-5.314283">
        <ele>2453.0</ele>
        <time>2015-08-15T12:05:16Z</time>
      </trkpt>
      <trkpt lat="40.421450" lon="-5.314483">
        <ele>2457.0</ele>
        <time>2015-08-15T12:05:18Z</time>
      </trkpt>
      <trkpt lat="40.421433" lon="-5.314683">
        <ele>2461.0</ele>
        <time>2015-08-15T12:05:20Z</time>
      </trkpt>
      <trkpt lat="40.421433" lon="-5.314867">
        <ele>2462.0</ele>
        <time>2015-08-15T12:05:22Z</time>
      </trkpt>
      <trkpt lat="40.421433" lon="-5.315083">
        <ele>2463.0</ele>
        <time>2015-08-15T12:05:24Z</time>
      </trkpt>
      <trkpt lat="40.421417" lon="-5.315317">
        <ele>2465.0</ele>
        <time>2015-08-15T12:05:26Z</time>
      </trkpt>
      <trkpt lat="40.421333" lon="-5.315567">
        <ele>2467.0</ele>
        <time>2015-08-15T12:05:28Z</time>
      </trkpt>
      <trkpt lat="40.421233" lon="-5.315783">
        <ele>2471.0</ele>
        <time>2015-08-15T12:05:30Z</time>
      </trkpt>
      <trkpt lat="40.421133" lon="-5.316000">
        <ele>2472.0</ele>
        <time>2015-08-15T12:05:32Z</time>
      </trkpt>
      <trkpt lat="40.421033" lon="-5.316217">
        <ele>2472.0</ele>
        <time>2015-08-15T12:05:34Z</time>
      </trkpt>
      <trkpt lat="40.420983" lon="-5.316500">
        <ele>2472.0</ele>
        <time>2015-08-15T12:05:36Z</time>
      </trkpt>
      <trkpt lat="40.421000" lon="-5.316717">
        <ele>2474.0</ele>
        <time>2015-08-15T12:05:38Z</time>
      </trkpt>
      <trkpt lat="40.421067" lon="-5.316850">
        <ele>2474.0</ele>
        <time>2015-08-15T12:05:40Z</time>
      </trkpt>
      <trkpt lat="40.421167" lon="-5.316950">
        <ele>2473.0</ele>
        <time>2015-08-15T12:05:42Z</time>
      </trkpt>
      <trkpt lat="40.421283" lon="-5.317017">
        <ele>2472.0</ele>
        <time>2015-08-15T12:05:44Z</time>
      </trkpt>
      <trkpt lat="40.421383" lon="-5.317000">
        <ele>2470.0</ele>
        <time>2015-08-15T12:05:46Z</time>
      </trkpt>
      <trkpt lat="40.421483" lon="-5.316900">
        <ele>2469.0</ele>
        <time>2015-08-15T12:05:48Z</time>
      </trkpt>
      <trkpt lat="40.421567" lon="-5.316800">
        <ele>2466.0</ele>
        <time>2015-08-15T12:05:50Z</time>
      </trkpt>
      <trkpt lat="40.421683" lon="-5.316667">
        <ele>2464.0</ele>
        <time>2015-08-15T12:05:52Z</time>
      </trkpt>
      <trkpt lat="40.421767" lon="-5.316517">
        <ele>2465.0</ele>
        <time>2015-08-15T12:05:54Z</time>
      </trkpt>
      <trkpt lat="40.421817" lon="-5.316333">
        <ele>2462.0</ele>
        <time>2015-08-15T12:05:56Z</time>
      </trkpt>
      <trkpt lat="40.421883" lon="-5.316133">
        <ele>2459.0</ele>
        <time>2015-08-15T12:05:58Z</time>
      </trkpt>
      <trkpt lat="40.421950" lon="-5.315933">
        <ele>2459.0</ele>
        <time>2015-08-15T12:06:00Z</time>
      </trkpt>
      <trkpt lat="40.422017" lon="-5.315750">
        <ele>2457.0</ele>
        <time>2015-08-15T12:06:02Z</time>
      </trkpt>
      <trkpt lat="40.422100" lon="-5.315600">
        <ele>2456.0</ele>
        <time>2015-08-15T12:06:04Z</time>
      </trkpt>
      <trkpt lat="40.422183" lon="-5.315500">
        <ele>2456.0</ele>
        <time>2015-08-15T12:06:06Z</time>
      </trkpt>
      <trkpt lat="40.422283" lon="-5.315417">
        <ele>2454.0</ele>
        <time>2015-08-15T12:06:08Z</time>
      </trkpt>
      <trkpt lat="40.422400" lon="-5.315400">
        <ele>2452.0</ele>
        <time>2015-08-15T12:06:10Z</time>
      </trkpt>
      <trkpt lat="40.422517" lon="-5.315417">
        <ele>2451.0</ele>
        <time>2015-08-15T12:06:12Z</time>
      </trkpt>
      <trkpt lat="40.422650" lon="-5.315417">
        <ele>2450.0</ele>
        <time>2015-08-15T12:06:14Z</time>
      </trkpt>
      <trkpt lat="40.422800" lon="-5.315467">
        <ele>2449.0</ele>
        <time>2015-08-15T12:06:16Z</time>
      </trkpt>
      <trkpt lat="40.422917" lon="-5.315567">
        <ele>2448.0</ele>
        <time>2015-08-15T12:06:18Z</time>
      </trkpt>
      <trkpt lat="40.423033" lon="-5.315667">
        <ele>2448.0</ele>
        <time>2015-08-15T12:06:20Z</time>
      </trkpt>
      <trkpt lat="40.423167" lon="-5.315800">
        <ele>2448.0</ele>
        <time>2015-08-15T12:06:22Z</time>
      </trkpt>
      <trkpt lat="40.423250" lon="-5.315933">
        <ele>2451.0</ele>
        <time>2015-08-15T12:06:24Z</time>
      </trkpt>
      <trkpt lat="40.423350" lon="-5.316033">
        <ele>2454.0</ele>
        <time>2015-08-15T12:06:26Z</time>
      </trkpt>
      <trkpt lat="40.423467" lon="-5.316150">
        <ele>2459.0</ele>
        <time>2015-08-15T12:06:28Z</time>
      </trkpt>
      <trkpt lat="40.423617" lon="-5.316267">
        <ele>2466.0</ele>
        <time>2015-08-15T12:06:30Z</time>
      </trkpt>
      <trkpt lat="40.423733" lon="-5.316317">
        <ele>2472.0</ele>
        <time>2015-08-15T12:06:32Z</time>
      </trkpt>
      <trkpt lat="40.423817" lon="-5.316300">
        <ele>2473.0</ele>
        <time>2015-08-15T12:06:34Z</time>
      </trkpt>
      <trkpt lat="40.423917" lon="-5.316233">
        <ele>2469.0</ele>
        <time>2015-08-15T12:06:36Z</time>
      </trkpt>
      <trkpt lat="40.424017" lon="-5.316100">
        <ele>2467.0</ele>
        <time>2015-08-15T12:06:38Z</time>
      </trkpt>
      <trkpt lat="40.424050" lon="-5.315883">
        <ele>2465.0</ele>
        <time>2015-08-15T12:06:40Z</time>
      </trkpt>
      <trkpt lat="40.424050" lon="-5.315633">
        <ele>2463.0</ele>
        <time>2015-08-15T12:06:42Z</time>
      </trkpt>
      <trkpt lat="40.424033" lon="-5.315383">
        <ele>2464.0</ele>
        <time>2015-08-15T12:06:44Z</time>
      </trkpt>
      <trkpt lat="40.423983" lon="-5.315183">
        <ele>2465.0</ele>
        <time>2015-08-15T12:06:46Z</time>
      </trkpt>
      <trkpt lat="40.423900" lon="-5.314983">
        <ele>2461.0</ele>
        <time>2015-08-15T12:06:48Z</time>
      </trkpt>
      <trkpt lat="40.423733" lon="-5.314817">
        <ele>2454.0</ele>
        <time>2015-08-15T12:06:50Z</time>
      </trkpt>
      <trkpt lat="40.423517" lon="-5.314683">
        <ele>2452.0</ele>
        <time>2015-08-15T12:06:52Z</time>
      </trkpt>
      <trkpt lat="40.423300" lon="-5.314633">
        <ele>2452.0</ele>
        <time>2015-08-15T12:06:54Z</time>
      </trkpt>
      <trkpt lat="40.423067" lon="-5.314650">
        <ele>2454.0</ele>
        <time>2015-08-15T12:06:56Z</time>
      </trkpt>
      <trkpt lat="40.422867" lon="-5.314717">
        <ele>2457.0</ele>
        <time>2015-08-15T12:06:58Z</time>
      </trkpt>
      <trkpt lat="40.422683" lon="-5.314833">
        <ele>2458.0</ele>
        <time>2015-08-15T12:07:00Z</time>
      </trkpt>
      <trkpt lat="40.422517" lon="-5.314967">
        <ele>2463.0</ele>
        <time>2015-08-15T12:07:02Z</time>
      </trkpt>
      <trkpt lat="40.422417" lon="-5.315083">
        <ele>2467.0</ele>
        <time>2015-08-15T12:07:04Z</time>
      </trkpt>
      <trkpt lat="40.422383" lon="-5.315283">
        <ele>2466.0</ele>
        <time>2015-08-15T12:07:06Z</time>
      </trkpt>
      <trkpt lat="40.422417" lon="-5.315533">
        <ele>2469.0</ele>
        <time>2015-08-15T12:07:08Z</time>
      </trkpt>
      <trkpt lat="40.422483" lon="-5.315717">
        <ele>2476.0</ele>
        <time>2015-08-15T12:07:10Z</time>
      </trkpt>
      <trkpt lat="40.422550" lon="-5.315833">
        <ele>2479.0</ele>
        <time>2015-08-15T12:07:12Z</time>
      </trkpt>
      <trkpt lat="40.422667" lon="-5.315933">
        <ele>2481.0</ele>
        <time>2015-08-15T12:07:14Z</time>
      </trkpt>
      <trkpt lat="40.422817" lon="-5.315950">
        <ele>2482.0</ele>
        <time>2015-08-15T12:07:16Z</time>
      </trkpt>
      <trkpt lat="40.422950" lon="-5.315933">
        <ele>2482.0</ele>
        <time>2015-08-15T12:07:18Z</time>
      </trkpt>
      <trkpt lat="40.423100" lon="-5.315933">
        <ele>2478.0</ele>
        <time>2015-08-15T12:07:20Z</time>
      </trkpt>
      <trkpt lat="40.423250" lon="-5.315967">
        <ele>2477.0</ele>
        <time>2015-08-15T12:07:22Z</time>
      </trkpt>
      <trkpt lat="40.423367" lon="-5.315983">
        <ele>2477.0</ele>
        <time>2015-08-15T12:07:24Z</time>
      </trkpt>
      <trkpt lat="40.423483" lon="-5.315983">
        <ele>2474.0</ele>
        <time>2015-08-15T12:07:26Z</time>
      </trkpt>
      <trkpt lat="40.423650" lon="-5.316000">
        <ele>2471.0</ele>
        <time>2015-08-15T12:07:28Z</time>
      </trkpt>
      <trkpt lat="40.423783" lon="-5.315983">
        <ele>2470.0</ele>
        <time>2015-08-15T12:07:30Z</time>
      </trkpt>
      <trkpt lat="40.423900" lon="-5.315983">
        <ele>2469.0</ele>
        <time>2015-08-15T12:07:32Z</time>
      </trkpt>
      <trkpt lat="40.424033" lon="-5.316017">
        <ele>2466.0</ele>
        <time>2015-08-15T12:07:34Z</time>
      </trkpt>
      <trkpt lat="40.424200" lon="-5.316017">
        <ele>2465.0</ele>
        <time>2015-08-15T12:07:36Z</time>
      </trkpt>
      <trkpt lat="40.424350" lon="-5.316000">
        <ele>2468.0</ele>
        <time>2015-08-15T12:07:38Z</time>
      </trkpt>
      <trkpt lat="40.424467" lon="-5.316017">
        <ele>2470.0</ele>
        <time>2015-08-15T12:07:40Z</time>
      </trkpt>
      <trkpt lat="40.424583" lon="-5.316000">
        <ele>2469.0</ele>
        <time>2015-08-15T12:07:42Z</time>
      </trkpt>
      <trkpt lat="40.424700" lon="-5.315950">
        <ele>2465.0</ele>
        <time>2015-08-15T12:07:44Z</time>
      </trkpt>
      <trkpt lat="40.424867" lon="-5.315833">
        <ele>2459.0</ele>
        <time>2015-08-15T12:07:46Z</time>
      </trkpt>
      <trkpt lat="40.425017" lon="-5.315733">
        <ele>2459.0</ele>
        <time>2015-08-15T12:07:48Z</time>
      </trkpt>
      <trkpt lat="40.425133" lon="-5.315683">
        <ele>2458.0</ele>
        <time>2015-08-15T12:07:50Z</time>
      </trkpt>
      <trkpt lat="40.425250" lon="-5.315617">
        <ele>2453.0</ele>
        <time>2015-08-15T12:07:52Z</time>
      </trkpt>
      <trkpt lat="40.425417" lon="-5.315550">
        <ele>2448.0</ele>
        <time>2015-08-15T12:07:54Z</time>
      </trkpt>
      <trkpt lat="40.425550" lon="-5.315500">
        <ele>2446.0</ele>
        <time>2015-08-15T12:07:56Z</time>
      </trkpt>
      <trkpt lat="40.425683" lon="-5.315467">
        <ele>2442.0</ele>
        <time>2015-08-15T12:07:58Z</time>
      </trkpt>
      <trkpt lat="40.425817" lon="-5.315433">
        <ele>2435.0</ele>
        <time>2015-08-15T12:08:00Z</time>
      </trkpt>
      <trkpt lat="40.425983" lon="-5.315450">
        <ele>2431.0</ele>
        <time>2015-08-15T12:08:02Z</time>
      </trkpt>
      <trkpt lat="40.426133" lon="-5.315483">
        <ele>2431.0</ele>
        <time>2015-08-15T12:08:04Z</time>
      </trkpt>
      <trkpt lat="40.426250" lon="-5.315483">
        <ele>2430.0</ele>
        <time>2015-08-15T12:08:06Z</time>
      </trkpt>
      <trkpt lat="40.426400" lon="-5.315500">
        <ele>2424.0</ele>
        <time>2015-08-15T12:08:08Z</time>
      </trkpt>
      <trkpt lat="40.426567" lon="-5.315500">
        <ele>2420.0</ele>
        <time>2015-08-15T12:08:10Z</time>
      </trkpt>
      <trkpt lat="40.426717" lon="-5.315533">
        <ele>2417.0</ele>
        <time>2015-08-15T12:08:12Z</time>
      </trkpt>
      <trkpt lat="40.426867" lon="-5.315600">
        <ele>2414.0</ele>
        <time>2015-08-15T12:08:14Z</time>
      </trkpt>
      <trkpt lat="40.427017" lon="-5.315683">
        <ele>2410.0</ele>
        <time>2015-08-15T12:08:16Z</time>
      </trkpt>
      <trkpt lat="40.427183" lon="-5.315717">
        <ele>2407.0</ele>
        <time>2015-08-15T12:08:18Z</time>
      </trkpt>
      <trkpt lat="40.427317" lon="-5.315767">
        <ele>2403.0</ele>
        <time>2015-08-15T12:08:20Z</time>
      </trkpt>
      <trkpt lat="40.427483" lon="-5.315817">
        <ele>2397.0</ele>
        <time>2015-08-15T12:08:22Z</time>
      </trkpt>
      <trkpt lat="40.427650" lon="-5.315833">
        <ele>2394.0</ele>
        <time>2015-08-15T12:08:24Z</time>
      </trkpt>
      <trkpt lat="40.427783" lon="-5.315867">
        <ele>2390.0</ele>
        <time>2015-08-15T12:08:26Z</time>
      </trkpt>
      <trkpt lat="40.427950" lon="-5.315883">
        <ele>2385.0</ele>
        <time>2015-08-15T12:08:28Z</time>
      </trkpt>
      <trkpt lat="40.428117" lon="-5.315933">
        <ele>2380.0</ele>
        <time>2015-08-15T12:08:30Z</time>
      </trkpt>
      <trkpt lat="40.428267" lon="-5.316000">
        <ele>2377.0</ele>
        <time>2015-08-15T12:08:32Z</time>
      </trkpt>
      <trkpt lat="40.428417" lon="-5.316050">
        <ele>2373.0</ele>
        <time>2015-08-15T12:08:34Z</time>
      </trkpt>
      <trkpt lat="40.428583" lon="-5.316083">
        <ele>2369.0</ele>
        <time>2015-08-15T12:08:36Z</time>
      </trkpt>
      <trkpt lat="40.428750" lon="-5.316100">
        <ele>2366.0</ele>
        <time>2015-08-15T12:08:38Z</time>
      </trkpt>
      <trkpt lat="40.428917" lon="-5.316083">
        <ele>2361.0</ele>
        <time>2015-08-15T12:08:40Z</time>
      </trkpt>
      <trkpt lat="40.429083" lon="-5.316050">
        <ele>2357.0</ele>
        <time>2015-08-15T12:08:42Z</time>
      </trkpt>
      <trkpt lat="40.429233" lon="-5.316017">
        <ele>2353.0</ele>
        <time>2015-08-15T12:08:44Z</time>
      </trkpt>
      <trkpt lat="40.429400" lon="-5.315983">
        <ele>2348.0</ele>
        <time>2015-08-15T12:08:46Z</time>
      </trkpt>
      <trkpt lat="40.429567" lon="-5.315933">
        <ele>2343.0</ele>
        <time>2015-08-15T12:08:48Z</time>
      </trkpt>
      <trkpt lat="40.429733" lon="-5.315867">
        <ele>2339.0</ele>
        <time>2015-08-15T12:08:50Z</time>
      </trkpt>
      <trkpt lat="40.429900" lon="-5.315800">
        <ele>2335.0</ele>
        <time>2015-08-15T12:08:52Z</time>
      </trkpt>
      <trkpt lat="40.430067" lon="-5.315750">
        <ele>2331.0</ele>
        <time>2015-08-15T12:08:54Z</time>
      </trkpt>
      <trkpt lat="40.430217" lon="-5.315683">
        <ele>2327.0</ele>
        <time>2015-08-15T12:08:56Z</time>
      </trkpt>
      <trkpt lat="40.430400" lon="-5.315617">
        <ele>2323.0</ele>
        <time>2015-08-15T12:08:58Z</time>
      </trkpt>
      <trkpt lat="40.430583" lon="-5.315567">
        <ele>2318.0</ele>
        <time>2015-08-15T12:09:00Z</time>
      </trkpt>
      <trkpt lat="40.430767" lon="-5.315517">
        <ele>2315.0</ele>
        <time>2015-08-15T12:09:02Z</time>
      </trkpt>
      <trkpt lat="40.430933" lon="-5.315450">
        <ele>2312.0</ele>
        <time>2015-08-15T12:09:04Z</time>
      </trkpt>
      <trkpt lat="40.431117" lon="-5.315383">
        <ele>2308.0</ele>
        <time>2015-08-15T12:09:06Z</time>
      </trkpt>
      <trkpt lat="40.431283" lon="-5.315317">
        <ele>2306.0</ele>
        <time>2015-08-15T12:09:08Z</time>
      </trkpt>
      <trkpt lat="40.431450" lon="-5.315250">
        <ele>2301.0</ele>
        <time>2015-08-15T12:09:10Z</time>
      </trkpt>
      <trkpt lat="40.431617" lon="-5.315233">
        <ele>2295.0</ele>
        <time>2015-08-15T12:09:12Z</time>
      </trkpt>
      <trkpt lat="40.431833" lon="-5.315250">
        <ele>2289.0</ele>
        <time>2015-08-15T12:09:14Z</time>
      </trkpt>
      <trkpt lat="40.432017" lon="-5.315267">
        <ele>2285.0</ele>
        <time>2015-08-15T12:09:16Z</time>
      </trkpt>
      <trkpt lat="40.432200" lon="-5.315283">
        <ele>2279.0</ele>
        <time>2015-08-15T12:09:18Z</time>
      </trkpt>
      <trkpt lat="40.432400" lon="-5.315283">
        <ele>2273.0</ele>
        <time>2015-08-15T12:09:20Z</time>
      </trkpt>
      <trkpt lat="40.432600" lon="-5.315267">
        <ele>2269.0</ele>
        <time>2015-08-15T12:09:22Z</time>
      </trkpt>
      <trkpt lat="40.432800" lon="-5.315283">
        <ele>2265.0</ele>
        <time>2015-08-15T12:09:24Z</time>
      </trkpt>
      <trkpt lat="40.433000" lon="-5.315300">
        <ele>2262.0</ele>
        <time>2015-08-15T12:09:26Z</time>
      </trkpt>
      <trkpt lat="40.433200" lon="-5.315350">
        <ele>2259.0</ele>
        <time>2015-08-15T12:09:28Z</time>
      </trkpt>
      <trkpt lat="40.433383" lon="-5.315383">
        <ele>2259.0</ele>
        <time>2015-08-15T12:09:30Z</time>
      </trkpt>
      <trkpt lat="40.433567" lon="-5.315383">
        <ele>2259.0</ele>
        <time>2015-08-15T12:09:32Z</time>
      </trkpt>
      <trkpt lat="40.433733" lon="-5.315400">
        <ele>2258.0</ele>
        <time>2015-08-15T12:09:34Z</time>
      </trkpt>
      <trkpt lat="40.433950" lon="-5.315433">
        <ele>2259.0</ele>
        <time>2015-08-15T12:09:36Z</time>
      </trkpt>
      <trkpt lat="40.434150" lon="-5.315500">
        <ele>2264.0</ele>
        <time>2015-08-15T12:09:38Z</time>
      </trkpt>
      <trkpt lat="40.434267" lon="-5.315533">
        <ele>2270.0</ele>
        <time>2015-08-15T12:09:40Z</time>
      </trkpt>
      <trkpt lat="40.434383" lon="-5.315550">
        <ele>2270.0</ele>
        <time>2015-08-15T12:09:42Z</time>
      </trkpt>
      <trkpt lat="40.434533" lon="-5.315550">
        <ele>2266.0</ele>
        <time>2015-08-15T12:09:44Z</time>
      </trkpt>
      <trkpt lat="40.434717" lon="-5.315567">
        <ele>2265.0</ele>
        <time>2015-08-15T12:09:46Z</time>
      </trkpt>
      <trkpt lat="40.434900" lon="-5.315550">
        <ele>2264.0</ele>
        <time>2015-08-15T12:09:48Z</time>
      </trkpt>
      <trkpt lat="40.435133" lon="-5.315517">
        <ele>2261.0</ele>
        <time>2015-08-15T12:09:50Z</time>
      </trkpt>
      <trkpt lat="40.435367" lon="-5.315533">
        <ele>2260.0</ele>
        <time>2015-08-15T12:09:52Z</time>
      </trkpt>
      <trkpt lat="40.435567" lon="-5.315517">
        <ele>2258.0</ele>
        <time>2015-08-15T12:09:54Z</time>
      </trkpt>
      <trkpt lat="40.435750" lon="-5.315400">
        <ele>2258.0</ele>
        <time>2015-08-15T12:09:56Z</time>
      </trkpt>
      <trkpt lat="40.435917" lon="-5.315283">
        <ele>2259.0</ele>
        <time>2015-08-15T12:09:58Z</time>
      </trkpt>
      <trkpt lat="40.436050" lon="-5.315100">
        <ele>2256.0</ele>
        <time>2015-08-15T12:10:00Z</time>
      </trkpt>
      <trkpt lat="40.436150" lon="-5.314817">
        <ele>2252.0</ele>
        <time>2015-08-15T12:10:02Z</time>
      </trkpt>
      <trkpt lat="40.436233" lon="-5.314533">
        <ele>2252.0</ele>
        <time>2015-08-15T12:10:04Z</time>
      </trkpt>
      <trkpt lat="40.436333" lon="-5.314300">
        <ele>2250.0</ele>
        <time>2015-08-15T12:10:06Z</time>
      </trkpt>
      <trkpt lat="40.436433" lon="-5.314033">
        <ele>2245.0</ele>
        <time>2015-08-15T12:10:08Z</time>
      </trkpt>
      <trkpt lat="40.436517" lon="-5.313750">
        <ele>2240.0</ele>
        <time>2015-08-15T12:10:10Z</time>
      </trkpt>
      <trkpt lat="40.436583" lon="-5.313483">
        <ele>2237.0</ele>
        <time>2015-08-15T12:10:12Z</time>
      </trkpt>
      <trkpt lat="40.436667" lon="-5.313217">
        <ele>2233.0</ele>
        <time>2015-08-15T12:10:14Z</time>
      </trkpt>
      <trkpt lat="40.436750" lon="-5.312917">
        <ele>2230.0</ele>
        <time>2015-08-15T12:10:16Z</time>
      </trkpt>
      <trkpt lat="40.436833" lon="-5.312667">
        <ele>2228.0</ele>
        <time>2015-08-15T12:10:18Z</time>
      </trkpt>
      <trkpt lat="40.436917" lon="-5.312433">
        <ele>2224.0</ele>
        <time>2015-08-15T12:10:20Z</time>
      </trkpt>
      <trkpt lat="40.437017" lon="-5.312167">
        <ele>2220.0</ele>
        <time>2015-08-15T12:10:22Z</time>
      </trkpt>
      <trkpt lat="40.437133" lon="-5.311900">
        <ele>2219.0</ele>
        <time>2015-08-15T12:10:24Z</time>
      </trkpt>
      <trkpt lat="40.437217" lon="-5.311683">
        <ele>2220.0</ele>
        <time>2015-08-15T12:10:26Z</time>
      </trkpt>
      <trkpt lat="40.437300" lon="-5.311500">
        <ele>2217.0</ele>
        <time>2015-08-15T12:10:28Z</time>
      </trkpt>
      <trkpt lat="40.437400" lon="-5.311300">
        <ele>2213.0</ele>
        <time>2015-08-15T12:10:30Z</time>
      </trkpt>
      <trkpt lat="40.437467" lon="-5.311100">
        <ele>2208.0</ele>
        <time>2015-08-15T12:10:32Z</time>
      </trkpt>
      <trkpt lat="40.437517" lon="-5.310850">
        <ele>2202.0</ele>
        <time>2015-08-15T12:10:34Z</time>
      </trkpt>
      <trkpt lat="40.437583" lon="-5.310617">
        <ele>2199.0</ele>
        <time>2015-08-15T12:10:36Z</time>
      </trkpt>
      <trkpt lat="40.437650" lon="-5.310417">
        <ele>2195.0</ele>
        <time>2015-08-15T12:10:38Z</time>
      </trkpt>
      <trkpt lat="40.437783" lon="-5.310183">
        <ele>2190.0</ele>
        <time>2015-08-15T12:10:40Z</time>
      </trkpt>
      <trkpt lat="40.437900" lon="-5.309950">
        <ele>2185.0</ele>
        <time>2015-08-15T12:10:42Z</time>
      </trkpt>
      <trkpt lat="40.437983" lon="-5.309717">
        <ele>2183.0</ele>
        <time>2015-08-15T12:10:44Z</time>
      </trkpt>
      <trkpt lat="40.438100" lon="-5.309550">
        <ele>2179.0</ele>
        <time>2015-08-15T12:10:46Z</time>
      </trkpt>
      <trkpt lat="40.438200" lon="-5.309350">
        <ele>2173.0</ele>
        <time>2015-08-15T12:10:48Z</time>
      </trkpt>
      <trkpt lat="40.438317" lon="-5.309133">
        <ele>2169.0</ele>
        <time>2015-08-15T12:10:50Z</time>
      </trkpt>
      <trkpt lat="40.438400" lon="-5.308933">
        <ele>2167.0</ele>
        <time>2015-08-15T12:10:52Z</time>
      </trkpt>
      <trkpt lat="40.438483" lon="-5.308733">
        <ele>2162.0</ele>
        <time>2015-08-15T12:10:54Z</time>
      </trkpt>
      <trkpt lat="40.438583" lon="-5.308500">
        <ele>2156.0</ele>
        <time>2015-08-15T12:10:56Z</time>
      </trkpt>
      <trkpt lat="40.438667" lon="-5.308267">
        <ele>2153.0</ele>
        <time>2015-08-15T12:10:58Z</time>
      </trkpt>
      <trkpt lat="40.438750" lon="-5.308050">
        <ele>2150.0</ele>
        <time>2015-08-15T12:11:00Z</time>
      </trkpt>
      <trkpt lat="40.438833" lon="-5.307833">
        <ele>2145.0</ele>
        <time>2015-08-15T12:11:02Z</time>
      </trkpt>
      <trkpt lat="40.438917" lon="-5.307617">
        <ele>2142.0</ele>
        <time>2015-08-15T12:11:04Z</time>
      </trkpt>
      <trkpt lat="40.439000" lon="-5.307417">
        <ele>2139.0</ele>
        <time>2015-08-15T12:11:06Z</time>
      </trkpt>
      <trkpt lat="40.439100" lon="-5.307200">
        <ele>2135.0</ele>
        <time>2015-08-15T12:11:08Z</time>
      </trkpt>
      <trkpt lat="40.439183" lon="-5.306967">
        <ele>2132.0</ele>
        <time>2015-08-15T12:11:10Z</time>
      </trkpt>
      <trkpt lat="40.439283" lon="-5.306783">
        <ele>2132.0</ele>
        <time>2015-08-15T12:11:12Z</time>
      </trkpt>
      <trkpt lat="40.439400" lon="-5.306617">
        <ele>2130.0</ele>
        <time>2015-08-15T12:11:14Z</time>
      </trkpt>
      <trkpt lat="40.439500" lon="-5.306417">
        <ele>2127.0</ele>
        <time>2015-08-15T12:11:16Z</time>
      </trkpt>
      <trkpt lat="40.439633" lon="-5.306200">
        <ele>2123.0</ele>
        <time>2015-08-15T12:11:18Z</time>
      </trkpt>
      <trkpt lat="40.439750" lon="-5.306000">
        <ele>2122.0</ele>
        <time>2015-08-15T12:11:20Z</time>
      </trkpt>
      <trkpt lat="40.439883" lon="-5.305783">
        <ele>2120.0</ele>
        <time>2015-08-15T12:11:22Z</time>
      </trkpt>
      <trkpt lat="40.440017" lon="-5.305583">
        <ele>2118.0</ele>
        <time>2015-08-15T12:11:24Z</time>
      </trkpt>
      <trkpt lat="40.440150" lon="-5.305367">
        <ele>2117.0</ele>
        <time>2015-08-15T12:11:26Z</time>
      </trkpt>
      <trkpt lat="40.440283" lon="-5.305183">
        <ele>2116.0</ele>
        <time>2015-08-15T12:11:28Z</time>
      </trkpt>
      <trkpt lat="40.440417" lon="-5.305017">
        <ele>2114.0</ele>
        <time>2015-08-15T12:11:30Z</time>
      </trkpt>
      <trkpt lat="40.440550" lon="-5.304833">
        <ele>2111.0</ele>
        <time>2015-08-15T12:11:32Z</time>
      </trkpt>
      <trkpt lat="40.440667" lon="-5.304650">
        <ele>2108.0</ele>
        <time>2015-08-15T12:11:34Z</time>
      </trkpt>
      <trkpt lat="40.440800" lon="-5.304467">
        <ele>2106.0</ele>
        <time>2015-08-15T12:11:36Z</time>
      </trkpt>
      <trkpt lat="40.440917" lon="-5.304267">
        <ele>2102.0</ele>
        <time>2015-08-15T12:11:38Z</time>
      </trkpt>
      <trkpt lat="40.441067" lon="-5.304067">
        <ele>2099.0</ele>
        <time>2015-08-15T12:11:40Z</time>
      </trkpt>
      <trkpt lat="40.441183" lon="-5.303900">
        <ele>2097.0</ele>
        <time>2015-08-15T12:11:42Z</time>
      </trkpt>
      <trkpt lat="40.441300" lon="-5.303733">
        <ele>2093.0</ele>
        <time>2015-08-15T12:11:44Z</time>
      </trkpt>
      <trkpt lat="40.441450" lon="-5.303567">
        <ele>2087.0</ele>
        <time>2015-08-15T12:11:46Z</time>
      </trkpt>
      <trkpt lat="40.441583" lon="-5.303383">
        <ele>2082.0</ele>
        <time>2015-08-15T12:11:48Z</time>
      </trkpt>
      <trkpt lat="40.441717" lon="-5.303217">
        <ele>2078.0</ele>
        <time>2015-08-15T12:11:50Z</time>
      </trkpt>
      <trkpt lat="40.441833" lon="-5.303050">
        <ele>2074.0</ele>
        <time>2015-08-15T12:11:52Z</time>
      </trkpt>
      <trkpt lat="40.441950" lon="-5.302850">
        <ele>2070.0</ele>
        <time>2015-08-15T12:11:54Z</time>
      </trkpt>
      <trkpt lat="40.442067" lon="-5.302633">
        <ele>2066.0</ele>
        <time>2015-08-15T12:11:56Z</time>
      </trkpt>
      <trkpt lat="40.442183" lon="-5.302433">
        <ele>2063.0</ele>
        <time>2015-08-15T12:11:58Z</time>
      </trkpt>
      <trkpt lat="40.442317" lon="-5.302217">
        <ele>2061.0</ele>
        <time>2015-08-15T12:12:00Z</time>
      </trkpt>
      <trkpt lat="40.442450" lon="-5.302017">
        <ele>2063.0</ele>
        <time>2015-08-15T12:12:02Z</time>
      </trkpt>
      <trkpt lat="40.442567" lon="-5.301833">
        <ele>2063.0</ele>
        <time>2015-08-15T12:12:04Z</time>
      </trkpt>
      <trkpt lat="40.442717" lon="-5.301650">
        <ele>2061.0</ele>
        <time>2015-08-15T12:12:06Z</time>
      </trkpt>
      <trkpt lat="40.442867" lon="-5.301467">
        <ele>2060.0</ele>
        <time>2015-08-15T12:12:08Z</time>
      </trkpt>
      <trkpt lat="40.443017" lon="-5.301317">
        <ele>2060.0</ele>
        <time>2015-08-15T12:12:10Z</time>
      </trkpt>
      <trkpt lat="40.443150" lon="-5.301133">
        <ele>2061.0</ele>
        <time>2015-08-15T12:12:12Z</time>
      </trkpt>
      <trkpt lat="40.443267" lon="-5.300917">
        <ele>2062.0</ele>
        <time>2015-08-15T12:12:14Z</time>
      </trkpt>
      <trkpt lat="40.443350" lon="-5.300650">
        <ele>2064.0</ele>
        <time>2015-08-15T12:12:16Z</time>
      </trkpt>
      <trkpt lat="40.443350" lon="-5.300383">
        <ele>2063.0</ele>
        <time>2015-08-15T12:12:18Z</time>
      </trkpt>
      <trkpt lat="40.443300" lon="-5.300100">
        <ele>2057.0</ele>
        <time>2015-08-15T12:12:20Z</time>
      </trkpt>
      <trkpt lat="40.443300" lon="-5.299767">
        <ele>2050.0</ele>
        <time>2015-08-15T12:12:22Z</time>
      </trkpt>
      <trkpt lat="40.443350" lon="-5.299483">
        <ele>2048.0</ele>
        <time>2015-08-15T12:12:24Z</time>
      </trkpt>
      <trkpt lat="40.443400" lon="-5.299233">
        <ele>2042.0</ele>
        <time>2015-08-15T12:12:26Z</time>
      </trkpt>
      <trkpt lat="40.443517" lon="-5.298983">
        <ele>2035.0</ele>
        <time>2015-08-15T12:12:28Z</time>
      </trkpt>
      <trkpt lat="40.443633" lon="-5.298733">
        <ele>2030.0</ele>
        <time>2015-08-15T12:12:30Z</time>
      </trkpt>
      <trkpt lat="40.443700" lon="-5.298467">
        <ele>2026.0</ele>
        <time>2015-08-15T12:12:32Z</time>
      </trkpt>
      <trkpt lat="40.443783" lon="-5.298217">
        <ele>2022.0</ele>
        <time>2015-08-15T12:12:34Z</time>
      </trkpt>
      <trkpt lat="40.443867" lon="-5.297983">
        <ele>2019.0</ele>
        <time>2015-08-15T12:12:36Z</time>
      </trkpt>
      <trkpt lat="40.443967" lon="-5.297750">
        <ele>2017.0</ele>
        <time>2015-08-15T12:12:38Z</time>
      </trkpt>
      <trkpt lat="40.444067" lon="-5.297533">
        <ele>2016.0</ele>
        <time>2015-08-15T12:12:40Z</time>
      </trkpt>
      <trkpt lat="40.444150" lon="-5.297317">
        <ele>2013.0</ele>
        <time>2015-08-15T12:12:42Z</time>
      </trkpt>
      <trkpt lat="40.444217" lon="-5.297050">
        <ele>2008.0</ele>
        <time>2015-08-15T12:12:44Z</time>
      </trkpt>
      <trkpt lat="40.444300" lon="-5.296833">
        <ele>2006.0</ele>
        <time>2015-08-15T12:12:46Z</time>
      </trkpt>
      <trkpt lat="40.444417" lon="-5.296650">
        <ele>2003.0</ele>
        <time>2015-08-15T12:12:48Z</time>
      </trkpt>
      <trkpt lat="40.444533" lon="-5.296417">
        <ele>1999.0</ele>
        <time>2015-08-15T12:12:50Z</time>
      </trkpt>
      <trkpt lat="40.444633" lon="-5.296183">
        <ele>1998.0</ele>
        <time>2015-08-15T12:12:52Z</time>
      </trkpt>
      <trkpt lat="40.444733" lon="-5.295967">
        <ele>1997.0</ele>
        <time>2015-08-15T12:12:54Z</time>
      </trkpt>
      <trkpt lat="40.444850" lon="-5.295733">
        <ele>1995.0</ele>
        <time>2015-08-15T12:12:56Z</time>
      </trkpt>
      <trkpt lat="40.444933" lon="-5.295483">
        <ele>1993.0</ele>
        <time>2015-08-15T12:12:58Z</time>
      </trkpt>
      <trkpt lat="40.444983" lon="-5.295267">
        <ele>1990.0</ele>
        <time>2015-08-15T12:13:00Z</time>
      </trkpt>
      <trkpt lat="40.445067" lon="-5.295017">
        <ele>1984.0</ele>
        <time>2015-08-15T12:13:02Z</time>
      </trkpt>
      <trkpt lat="40.445150" lon="-5.294767">
        <ele>1979.0</ele>
        <time>2015-08-15T12:13:04Z</time>
      </trkpt>
      <trkpt lat="40.445217" lon="-5.294583">
        <ele>1977.0</ele>
        <time>2015-08-15T12:13:06Z</time>
      </trkpt>
      <trkpt lat="40.445283" lon="-5.294400">
        <ele>1971.0</ele>
        <time>2015-08-15T12:13:08Z</time>
      </trkpt>
      <trkpt lat="40.445383" lon="-5.294167">
        <ele>1964.0</ele>
        <time>2015-08-15T12:13:10Z</time>
      </trkpt>
      <trkpt lat="40.445483" lon="-5.293950">
        <ele>1961.0</ele>
        <time>2015-08-15T12:13:12Z</time>
      </trkpt>
      <trkpt lat="40.445583" lon="-5.293750">
        <ele>1958.0</ele>
        <time>2015-08-15T12:13:14Z</time>
      </trkpt>
      <trkpt lat="40.445667" lon="-5.293533">
        <ele>1952.0</ele>
        <time>2015-08-15T12:13:16Z</time>
      </trkpt>
      <trkpt lat="40.445750" lon="-5.293283">
        <ele>1946.0</ele>
        <time>2015-08-15T12:13:18Z</time>
      </trkpt>
      <trkpt lat="40.445833" lon="-5.293033">
        <ele>1944.0</ele>
        <time>2015-08-15T12:13:20Z</time>
      </trkpt>
      <trkpt lat="40.445917" lon="-5.292833">
        <ele>1939.0</ele>
        <time>2015-08-15T12:13:22Z</time>
      </trkpt>
      <trkpt lat="40.446000" lon="-5.292617">
        <ele>1932.0</ele>
        <time>2015-08-15T12:13:24Z</time>
      </trkpt>
      <trkpt lat="40.446083" lon="-5.292383">
        <ele>1928.0</ele>
        <time>2015-08-15T12:13:26Z</time>
      </trkpt>
      <trkpt lat="40.446150" lon="-5.292183">
        <ele>1923.0</ele>
        <time>2015-08-15T12:13:28Z</time>
      </trkpt>
      <trkpt lat="40.446233" lon="-5.291950">
        <ele>1916.0</ele>
        <time>2015-08-15T12:13:30Z</time>
      </trkpt>
      <trkpt lat="40.446300" lon="-5.291683">
        <ele>1910.0</ele>
        <time>2015-08-15T12:13:32Z</time>
      </trkpt>
      <trkpt lat="40.446367" lon="-5.291433">
        <ele>1906.0</ele>
        <time>2015-08-15T12:13:34Z</time>
      </trkpt>
      <trkpt lat="40.446467" lon="-5.291200">
        <ele>1899.0</ele>
        <time>2015-08-15T12:13:36Z</time>
      </trkpt>
      <trkpt lat="40.446567" lon="-5.290967">
        <ele>1892.0</ele>
        <time>2015-08-15T12:13:38Z</time>
      </trkpt>
      <trkpt lat="40.446683" lon="-5.290733">
        <ele>1887.0</ele>
        <time>2015-08-15T12:13:40Z</time>
      </trkpt>
      <trkpt lat="40.446800" lon="-5.290533">
        <ele>1881.0</ele>
        <time>2015-08-15T12:13:42Z</time>
      </trkpt>
      <trkpt lat="40.446917" lon="-5.290333">
        <ele>1875.0</ele>
        <time>2015-08-15T12:13:44Z</time>
      </trkpt>
      <trkpt lat="40.447050" lon="-5.290117">
        <ele>1869.0</ele>
        <time>2015-08-15T12:13:46Z</time>
      </trkpt>
      <trkpt lat="40.447183" lon="-5.289900">
        <ele>1865.0</ele>
        <time>2015-08-15T12:13:48Z</time>
      </trkpt>
      <trkpt lat="40.447317" lon="-5.289717">
        <ele>1862.0</ele>
        <time>2015-08-15T12:13:50Z</time>
      </trkpt>
      <trkpt lat="40.447433" lon="-5.289567">
        <ele>1859.0</ele>
        <time>2015-08-15T12:13:52Z</time>
      </trkpt>
      <trkpt lat="40.447550" lon="-5.289383">
        <ele>1853.0</ele>
        <time>2015-08-15T12:13:54Z</time>
      </trkpt>
      <trkpt lat="40.447700" lon="-5.289200">
        <ele>1849.0</ele>
        <time>2015-08-15T12:13:56Z</time>
      </trkpt>
      <trkpt lat="40.447850" lon="-5.289017">
        <ele>1848.0</ele>
        <time>2015-08-15T12:13:58Z</time>
      </trkpt>
      <trkpt lat="40.448000" lon="-5.288867">
        <ele>1845.0</ele>
        <time>2015-08-15T12:14:00Z</time>
      </trkpt>
      <trkpt lat="40.448150" lon="-5.288700">
        <ele>1842.0</ele>
        <time>2015-08-15T12:14:02Z</time>
      </trkpt>
      <trkpt lat="40.448300" lon="-5.288533">
        <ele>1843.0</ele>
        <time>2015-08-15T12:14:04Z</time>
      </trkpt>
      <trkpt lat="40.448417" lon="-5.288383">
        <ele>1844.0</ele>
        <time>2015-08-15T12:14:06Z</time>
      </trkpt>
      <trkpt lat="40.448567" lon="-5.288200">
        <ele>1842.0</ele>
        <time>2015-08-15T12:14:08Z</time>
      </trkpt>
      <trkpt lat="40.448733" lon="-5.288017">
        <ele>1844.0</ele>
        <time>2015-08-15T12:14:10Z</time>
      </trkpt>
      <trkpt lat="40.448883" lon="-5.287867">
        <ele>1851.0</ele>
        <time>2015-08-15T12:14:12Z</time>
      </trkpt>
      <trkpt lat="40.449000" lon="-5.287717">
        <ele>1859.0</ele>
        <time>2015-08-15T12:14:14Z</time>
      </trkpt>
      <trkpt lat="40.449067" lon="-5.287550">
        <ele>1865.0</ele>
        <time>2015-08-15T12:14:16Z</time>
      </trkpt>
      <trkpt lat="40.449117" lon="-5.287300">
        <ele>1869.0</ele>
        <time>2015-08-15T12:14:18Z</time>
      </trkpt>
      <trkpt lat="40.449100" lon="-5.287000">
        <ele>1874.0</ele>
        <time>2015-08-15T12:14:20Z</time>
      </trkpt>
      <trkpt lat="40.448933" lon="-5.286750">
        <ele>1880.0</ele>
        <time>2015-08-15T12:14:22Z</time>
      </trkpt>
      <trkpt lat="40.448717" lon="-5.286683">
        <ele>1888.0</ele>
        <time>2015-08-15T12:14:24Z</time>
      </trkpt>
      <trkpt lat="40.448567" lon="-5.286717">
        <ele>1896.0</ele>
        <time>2015-08-15T12:14:26Z</time>
      </trkpt>
      <trkpt lat="40.448467" lon="-5.286800">
        <ele>1900.0</ele>
        <time>2015-08-15T12:14:28Z</time>
      </trkpt>
      <trkpt lat="40.448433" lon="-5.286917">
        <ele>1903.0</ele>
        <time>2015-08-15T12:14:30Z</time>
      </trkpt>
      <trkpt lat="40.448517" lon="-5.287033">
        <ele>1906.0</ele>
        <time>2015-08-15T12:14:32Z</time>
      </trkpt>
      <trkpt lat="40.448633" lon="-5.287033">
        <ele>1915.0</ele>
        <time>2015-08-15T12:14:34Z</time>
      </trkpt>
      <trkpt lat="40.448733" lon="-5.286967">
        <ele>1920.0</ele>
        <time>2015-08-15T12:14:36Z</time>
      </trkpt>
      <trkpt lat="40.448833" lon="-5.286800">
        <ele>1924.0</ele>
        <time>2015-08-15T12:14:38Z</time>
      </trkpt>
      <trkpt lat="40.448933" lon="-5.286517">
        <ele>1928.0</ele>
        <time>2015-08-15T12:14:40Z</time>
      </trkpt>
      <trkpt lat="40.448933" lon="-5.286217">
        <ele>1938.0</ele>
        <time>2015-08-15T12:14:42Z</time>
      </trkpt>
      <trkpt lat="40.448850" lon="-5.285950">
        <ele>1944.0</ele>
        <time>2015-08-15T12:14:44Z</time>
      </trkpt>
      <trkpt lat="40.448667" lon="-5.285683">
        <ele>1948.0</ele>
        <time>2015-08-15T12:14:46Z</time>
      </trkpt>
      <trkpt lat="40.448467" lon="-5.285583">
        <ele>1958.0</ele>
        <time>2015-08-15T12:14:48Z</time>
      </trkpt>
      <trkpt lat="40.448333" lon="-5.285600">
        <ele>1965.0</ele>
        <time>2015-08-15T12:14:50Z</time>
      </trkpt>
      <trkpt lat="40.448200" lon="-5.285650">
        <ele>1968.0</ele>
        <time>2015-08-15T12:14:52Z</time>
      </trkpt>
      <trkpt lat="40.448150" lon="-5.285817">
        <ele>1970.0</ele>
        <time>2015-08-15T12:14:54Z</time>
      </trkpt>
      <trkpt lat="40.448217" lon="-5.285967">
        <ele>1976.0</ele>
        <time>2015-08-15T12:14:56Z</time>
      </trkpt>
      <trkpt lat="40.448317" lon="-5.286017">
        <ele>1985.0</ele>
        <time>2015-08-15T12:14:58Z</time>
      </trkpt>
      <trkpt lat="40.448383" lon="-5.286017">
        <ele>1990.0</ele>
        <time>2015-08-15T12:15:00Z</time>
      </trkpt>
      <trkpt lat="40.448533" lon="-5.286067">
        <ele>1995.0</ele>
        <time>2015-08-15T12:15:02Z</time>
      </trkpt>
      <trkpt lat="40.448667" lon="-5.286050">
        <ele>2006.0</ele>
        <time>2015-08-15T12:15:04Z</time>
      </trkpt>
      <trkpt lat="40.448750" lon="-5.285950">
        <ele>2015.0</ele>
        <time>2015-08-15T12:15:06Z</time>
      </trkpt>
      <trkpt lat="40.448833" lon="-5.285767">
        <ele>2019.0</ele>
        <time>2015-08-15T12:15:08Z</time>
      </trkpt>
      <trkpt lat="40.448917" lon="-5.285483">
        <ele>2025.0</ele>
        <time>2015-08-15T12:15:10Z</time>
      </trkpt>
      <trkpt lat="40.448883" lon="-5.285183">
        <ele>2032.0</ele>
        <time>2015-08-15T12:15:12Z</time>
      </trkpt>
      <trkpt lat="40.448750" lon="-5.284967">
        <ele>2041.0</ele>
        <time>2015-08-15T12:15:14Z</time>
      </trkpt>
      <trkpt lat="40.448600" lon="-5.284883">
        <ele>2049.0</ele>
        <time>2015-08-15T12:15:16Z</time>
      </trkpt>
      <trkpt lat="40.448467" lon="-5.284883">
        <ele>2055.0</ele>
        <time>2015-08-15T12:15:18Z</time>
      </trkpt>
      <trkpt lat="40.448367" lon="-5.284983">
        <ele>2061.0</ele>
        <time>2015-08-15T12:15:20Z</time>
      </trkpt>
      <trkpt lat="40.448267" lon="-5.285083">
        <ele>2065.0</ele>
        <time>2015-08-15T12:15:22Z</time>
      </trkpt>
      <trkpt lat="40.448117" lon="-5.285167">
        <ele>2069.0</ele>
        <time>2015-08-15T12:15:24Z</time>
      </trkpt>
      <trkpt lat="40.447983" lon="-5.285267">
        <ele>2076.0</ele>
        <time>2015-08-15T12:15:26Z</time>
      </trkpt>
      <trkpt lat="40.447933" lon="-5.285417">
        <ele>2083.0</ele>
        <time>2015-08-15T12:15:28Z</time>
      </trkpt>
      <trkpt lat="40.447917" lon="-5.285600">
        <ele>2092.0</ele>
        <time>2015-08-15T12:15:30Z</time>
      </trkpt>
      <trkpt lat="40.448000" lon="-5.285717">
        <ele>2100.0</ele>
        <time>2015-08-15T12:15:32Z</time>
      </trkpt>
      <trkpt lat="40.448133" lon="-5.285667">
        <ele>2107.0</ele>
        <time>2015-08-15T12:15:34Z</time>
      </trkpt>
      <trkpt lat="40.448250" lon="-5.285583">
        <ele>2115.0</ele>
        <time>2015-08-15T12:15:36Z</time>
      </trkpt>
      <trkpt lat="40.448300" lon="-5.285417">
        <ele>2121.0</ele>
        <time>2015-08-15T12:15:38Z</time>
      </trkpt>
      <trkpt lat="40.448400" lon="-5.285183">
        <ele>2124.0</ele>
        <time>2015-08-15T12:15:40Z</time>
      </trkpt>
      <trkpt lat="40.448483" lon="-5.284900">
        <ele>2132.0</ele>
        <time>2015-08-15T12:15:42Z</time>
      </trkpt>
      <trkpt lat="40.448417" lon="-5.284617">
        <ele>2139.0</ele>
        <time>2015-08-15T12:15:44Z</time>
      </trkpt>
      <trkpt lat="40.448283" lon="-5.284367">
        <ele>2145.0</ele>
        <time>2015-08-15T12:15:46Z</time>
      </trkpt>
      <trkpt lat="40.448100" lon="-5.284183">
        <ele>2152.0</ele>
        <time>2015-08-15T12:15:48Z</time>
      </trkpt>
      <trkpt lat="40.447950" lon="-5.284150">
        <ele>2159.0</ele>
        <time>2015-08-15T12:15:50Z</time>
      </trkpt>
      <trkpt lat="40.447850" lon="-5.284183">
        <ele>2164.0</ele>
        <time>2015-08-15T12:15:52Z</time>
      </trkpt>
      <trkpt lat="40.447783" lon="-5.284317">
        <ele>2166.0</ele>
        <time>2015-08-15T12:15:54Z</time>
      </trkpt>
      <trkpt lat="40.447817" lon="-5.284517">
        <ele>2174.0</ele>
        <time>2015-08-15T12:15:56Z</time>
      </trkpt>
      <trkpt lat="40.447900" lon="-5.284633">
        <ele>2185.0</ele>
        <time>2015-08-15T12:15:58Z</time>
      </trkpt>
      <trkpt lat="40.448000" lon="-5.284700">
        <ele>2192.0</ele>
        <time>2015-08-15T12:16:00Z</time>
      </trkpt>
      <trkpt lat="40.448150" lon="-5.284683">
        <ele>2196.0</ele>
        <time>2015-08-15T12:16:02Z</time>
      </trkpt>
      <trkpt lat="40.448283" lon="-5.284567">
        <ele>2199.0</ele>
        <time>2015-08-15T12:16:04Z</time>
      </trkpt>
      <trkpt lat="40.448400" lon="-5.284417">
        <ele>2202.0</ele>
        <time>2015-08-15T12:16:06Z</time>
      </trkpt>
      <trkpt lat="40.448533" lon="-5.284400">
        <ele>2201.0</ele>
        <time>2015-08-15T12:16:08Z</time>
      </trkpt>
      <trkpt lat="40.448667" lon="-5.284467">
        <ele>2202.0</ele>
        <time>2015-08-15T12:16:10Z</time>
      </trkpt>
      <trkpt lat="40.448750" lon="-5.284550">
        <ele>2205.0</ele>
        <time>2015-08-15T12:16:12Z</time>
      </trkpt>
      <trkpt lat="40.448783" lon="-5.284683">
        <ele>2206.0</ele>
        <time>2015-08-15T12:16:14Z</time>
      </trkpt>
      <trkpt lat="40.448767" lon="-5.284850">
        <ele>2208.0</ele>
        <time>2015-08-15T12:16:16Z</time>
      </trkpt>
      <trkpt lat="40.448733" lon="-5.285017">
        <ele>2213.0</ele>
        <time>2015-08-15T12:16:18Z</time>
      </trkpt>
      <trkpt lat="40.448683" lon="-5.285167">
        <ele>2217.0</ele>
        <time>2015-08-15T12:16:20Z</time>
      </trkpt>
      <trkpt lat="40.448600" lon="-5.285317">
        <ele>2222.0</ele>
        <time>2015-08-15T12:16:22Z</time>
      </trkpt>
      <trkpt lat="40.448483" lon="-5.285450">
        <ele>2226.0</ele>
        <time>2015-08-15T12:16:24Z</time>
      </trkpt>
      <trkpt lat="40.448317" lon="-5.285533">
        <ele>2232.0</ele>
        <time>2015-08-15T12:16:26Z</time>
      </trkpt>
      <trkpt lat="40.448133" lon="-5.285533">
        <ele>2239.0</ele>
        <time>2015-08-15T12:16:28Z</time>
      </trkpt>
      <trkpt lat="40.447933" lon="-5.285483">
        <ele>2246.0</ele>
        <time>2015-08-15T12:16:30Z</time>
      </trkpt>
      <trkpt lat="40.447767" lon="-5.285333">
        <ele>2253.0</ele>
        <time>2015-08-15T12:16:32Z</time>
      </trkpt>
      <trkpt lat="40.447700" lon="-5.285117">
        <ele>2255.0</ele>
        <time>2015-08-15T12:16:34Z</time>
      </trkpt>
      <trkpt lat="40.447683" lon="-5.284883">
        <ele>2256.0</ele>
        <time>2015-08-15T12:16:36Z</time>
      </trkpt>
      <trkpt lat="40.447733" lon="-5.284667">
        <ele>2258.0</ele>
        <time>2015-08-15T12:16:38Z</time>
      </trkpt>
      <trkpt lat="40.447867" lon="-5.284517">
        <ele>2259.0</ele>
        <time>2015-08-15T12:16:40Z</time>
      </trkpt>
      <trkpt lat="40.448000" lon="-5.284483">
        <ele>2262.0</ele>
        <time>2015-08-15T12:16:42Z</time>
      </trkpt>
      <trkpt lat="40.448133" lon="-5.284500">
        <ele>2264.0</ele>
        <time>2015-08-15T12:16:44Z</time>
      </trkpt>
      <trkpt lat="40.448250" lon="-5.284567">
        <ele>2268.0</ele>
        <time>2015-08-15T12:16:46Z</time>
      </trkpt>
      <trkpt lat="40.448350" lon="-5.284650">
        <ele>2272.0</ele>
        <time>2015-08-15T12:16:48Z</time>
      </trkpt>
      <trkpt lat="40.448433" lon="-5.284767">
        <ele>2276.0</ele>
        <time>2015-08-15T12:16:50Z</time>
      </trkpt>
      <trkpt lat="40.448483" lon="-5.284933">
        <ele>2280.0</ele>
        <time>2015-08-15T12:16:52Z</time>
      </trkpt>
      <trkpt lat="40.448500" lon="-5.285117">
        <ele>2286.0</ele>
        <time>2015-08-15T12:16:54Z</time>
      </trkpt>
      <trkpt lat="40.448467" lon="-5.285283">
        <ele>2292.0</ele>
        <time>2015-08-15T12:16:56Z</time>
      </trkpt>
      <trkpt lat="40.448383" lon="-5.285467">
        <ele>2297.0</ele>
        <time>2015-08-15T12:16:58Z</time>
      </trkpt>
      <trkpt lat="40.448267" lon="-5.285617">
        <ele>2302.0</ele>
        <time>2015-08-15T12:17:00Z</time>
      </trkpt>
      <trkpt lat="40.448067" lon="-5.285683">
        <ele>2307.0</ele>
        <time>2015-08-15T12:17:02Z</time>
      </trkpt>
      <trkpt lat="40.447867" lon="-5.285683">
        <ele>2315.0</ele>
        <time>2015-08-15T12:17:04Z</time>
      </trkpt>
      <trkpt lat="40.447700" lon="-5.285583">
        <ele>2322.0</ele>
        <time>2015-08-15T12:17:06Z</time>
      </trkpt>
      <trkpt lat="40.447550" lon="-5.285383">
        <ele>2327.0</ele>
        <time>2015-08-15T12:17:08Z</time>
      </trkpt>
      <trkpt lat="40.447450" lon="-5.285133">
        <ele>2334.0</ele>
        <time>2015-08-15T12:17:10Z</time>
      </trkpt>
      <trkpt lat="40.447450" lon="-5.284867">
        <ele>2342.0</ele>
        <time>2015-08-15T12:17:12Z</time>
      </trkpt>
      <trkpt lat="40.447500" lon="-5.284650">
        <ele>2350.0</ele>
        <time>2015-08-15T12:17:14Z</time>
      </trkpt>
      <trkpt lat="40.447567" lon="-5.284450">
        <ele>2354.0</ele>
        <time>2015-08-15T12:17:16Z</time>
      </trkpt>
      <trkpt lat="40.447700" lon="-5.284267">
        <ele>2356.0</ele>
        <time>2015-08-15T12:17:18Z</time>
      </trkpt>
      <trkpt lat="40.447867" lon="-5.284150">
        <ele>2361.0</ele>
        <time>2015-08-15T12:17:20Z</time>
      </trkpt>
      <trkpt lat="40.448017" lon="-5.284133">
        <ele>2365.0</ele>
        <time>2015-08-15T12:17:22Z</time>
      </trkpt>
      <trkpt lat="40.448200" lon="-5.284167">
        <ele>2370.0</ele>
        <time>2015-08-15T12:17:24Z</time>
      </trkpt>
      <trkpt lat="40.448350" lon="-5.284200">
        <ele>2376.0</ele>
        <time>2015-08-15T12:17:26Z</time>
      </trkpt>
      <trkpt lat="40.448450" lon="-5.284283">
        <ele>2380.0</ele>
        <time>2015-08-15T12:17:28Z</time>
      </trkpt>
      <trkpt lat="40.448533" lon="-5.284433">
        <ele>2384.0</ele>
        <time>2015-08-15T12:17:30Z</time>
      </trkpt>
      <trkpt lat="40.448550" lon="-5.284583">
        <ele>2387.0</ele>
        <time>2015-08-15T12:17:32Z</time>
      </trkpt>
      <trkpt lat="40.448500" lon="-5.284717">
        <ele>2388.0</ele>
        <time>2015-08-15T12:17:34Z</time>
      </trkpt>
      <trkpt lat="40.448367" lon="-5.284850">
        <ele>2388.0</ele>
        <time>2015-08-15T12:17:36Z</time>
      </trkpt>
      <trkpt lat="40.448133" lon="-5.284917">
        <ele>2392.0</ele>
        <time>2015-08-15T12:17:38Z</time>
      </trkpt>
      <trkpt lat="40.447933" lon="-5.284950">
        <ele>2403.0</ele>
        <time>2015-08-15T12:17:40Z</time>
      </trkpt>
      <trkpt lat="40.447767" lon="-5.284917">
        <ele>2407.0</ele>
        <time>2015-08-15T12:17:42Z</time>
      </trkpt>
      <trkpt lat="40.447567" lon="-5.284750">
        <ele>2407.0</ele>
        <time>2015-08-15T12:17:44Z</time>
      </trkpt>
      <trkpt lat="40.447417" lon="-5.284483">
        <ele>2414.0</ele>
        <time>2015-08-15T12:17:46Z</time>
      </trkpt>
      <trkpt lat="40.447367" lon="-5.284250">
        <ele>2420.0</ele>
        <time>2015-08-15T12:17:48Z</time>
      </trkpt>
      <trkpt lat="40.447367" lon="-5.283983">
        <ele>2423.0</ele>
        <time>2015-08-15T12:17:50Z</time>
      </trkpt>
      <trkpt lat="40.447450" lon="-5.283667">
        <ele>2430.0</ele>
        <time>2015-08-15T12:17:52Z</time>
      </trkpt>
      <trkpt lat="40.447550" lon="-5.283433">
        <ele>2441.0</ele>
        <time>2015-08-15T12:17:54Z</time>
      </trkpt>
      <trkpt lat="40.447667" lon="-5.283267">
        <ele>2446.0</ele>
        <time>2015-08-15T12:17:56Z</time>
      </trkpt>
      <trkpt lat="40.447850" lon="-5.283117">
        <ele>2448.0</ele>
        <time>2015-08-15T12:17:58Z</time>
      </trkpt>
      <trkpt lat="40.448017" lon="-5.283050">
        <ele>2451.0</ele>
        <time>2015-08-15T12:18:00Z</time>
      </trkpt>
      <trkpt lat="40.448167" lon="-5.283050">
        <ele>2453.0</ele>
        <time>2015-08-15T12:18:02Z</time>
      </trkpt>
      <trkpt lat="40.448300" lon="-5.283167">
        <ele>2452.0</ele>
        <time>2015-08-15T12:18:04Z</time>
      </trkpt>
      <trkpt lat="40.448383" lon="-5.283300">
        <ele>2454.0</ele>
        <time>2015-08-15T12:18:06Z</time>
      </trkpt>
      <trkpt lat="40.448417" lon="-5.283417">
        <ele>2456.0</ele>
        <time>2015-08-15T12:18:08Z</time>
      </trkpt>
      <trkpt lat="40.448433" lon="-5.283533">
        <ele>2454.0</ele>
        <time>2015-08-15T12:18:10Z</time>
      </trkpt>
      <trkpt lat="40.448417" lon="-5.283700">
        <ele>2451.0</ele>
        <time>2015-08-15T12:18:12Z</time>
      </trkpt>
      <trkpt lat="40.448367" lon="-5.283883">
        <ele>2451.0</ele>
        <time>2015-08-15T12:18:14Z</time>
      </trkpt>
      <trkpt lat="40.448283" lon="-5.284017">
        <ele>2451.0</ele>
        <time>2015-08-15T12:18:16Z</time>
      </trkpt>
      <trkpt lat="40.448233" lon="-5.284183">
        <ele>2451.0</ele>
        <time>2015-08-15T12:18:18Z</time>
      </trkpt>
      <trkpt lat="40.448267" lon="-5.284350">
        <ele>2451.0</ele>
        <time>2015-08-15T12:18:20Z</time>
      </trkpt>
      <trkpt lat="40.448367" lon="-5.284450">
        <ele>2453.0</ele>
        <time>2015-08-15T12:18:22Z</time>
      </trkpt>
      <trkpt lat="40.448500" lon="-5.284467">
        <ele>2455.0</ele>
        <time>2015-08-15T12:18:24Z</time>
      </trkpt>
      <trkpt lat="40.448650" lon="-5.284417">
        <ele>2454.0</ele>
        <time>2015-08-15T12:18:26Z</time>
      </trkpt>
      <trkpt lat="40.448833" lon="-5.284350">
        <ele>2455.0</ele>
        <time>2015-08-15T12:18:28Z</time>
      </trkpt>
      <trkpt lat="40.449017" lon="-5.284267">
        <ele>2457.0</ele>
        <time>2015-08-15T12:18:30Z</time>
      </trkpt>
      <trkpt lat="40.449200" lon="-5.284167">
        <ele>2457.0</ele>
        <time>2015-08-15T12:18:32Z</time>
      </trkpt>
      <trkpt lat="40.449383" lon="-5.284050">
        <ele>2460.0</ele>
        <time>2015-08-15T12:18:34Z</time>
      </trkpt>
      <trkpt lat="40.449567" lon="-5.283950">
        <ele>2463.0</ele>
        <time>2015-08-15T12:18:36Z</time>
      </trkpt>
      <trkpt lat="40.449717" lon="-5.283817">
        <ele>2465.0</ele>
        <time>2015-08-15T12:18:38Z</time>
      </trkpt>
      <trkpt lat="40.449867" lon="-5.283633">
        <ele>2465.0</ele>
        <time>2015-08-15T12:18:40Z</time>
      </trkpt>
      <trkpt lat="40.450000" lon="-5.283450">
        <ele>2463.0</ele>
        <time>2015-08-15T12:18:42Z</time>
      </trkpt>
      <trkpt lat="40.450150" lon="-5.283283">
        <ele>2459.0</ele>
        <time>2015-08-15T12:18:44Z</time>
      </trkpt>
      <trkpt lat="40.450333" lon="-5.283083">
        <ele>2453.0</ele>
        <time>2015-08-15T12:18:46Z</time>
      </trkpt>
      <trkpt lat="40.450517" lon="-5.282883">
        <ele>2450.0</ele>
        <time>2015-08-15T12:18:48Z</time>
      </trkpt>
      <trkpt lat="40.450683" lon="-5.282683">
        <ele>2448.0</ele>
        <time>2015-08-15T12:18:50Z</time>
      </trkpt>
      <trkpt lat="40.450850" lon="-5.282533">
        <ele>2446.0</ele>
        <time>2015-08-15T12:18:52Z</time>
      </trkpt>
      <trkpt lat="40.451033" lon="-5.282400">
        <ele>2441.0</ele>
        <time>2015-08-15T12:18:54Z</time>
      </trkpt>
      <trkpt lat="40.451217" lon="-5.282250">
        <ele>2438.0</ele>
        <time>2015-08-15T12:18:56Z</time>
      </trkpt>
      <trkpt lat="40.451400" lon="-5.282100">
        <ele>2438.0</ele>
        <time>2015-08-15T12:18:58Z</time>
      </trkpt>
      <trkpt lat="40.451567" lon="-5.281967">
        <ele>2436.0</ele>
        <time>2015-08-15T12:19:00Z</time>
      </trkpt>
      <trkpt lat="40.451750" lon="-5.281867">
        <ele>2434.0</ele>
        <time>2015-08-15T12:19:02Z</time>
      </trkpt>
      <trkpt lat="40.451933" lon="-5.281767">
        <ele>2432.0</ele>
        <time>2015-08-15T12:19:04Z</time>
      </trkpt>
      <trkpt lat="40.452100" lon="-5.281683">
        <ele>2434.0</ele>
        <time>2015-08-15T12:19:06Z</time>
      </trkpt>
      <trkpt lat="40.452233" lon="-5.281617">
        <ele>2433.0</ele>
        <time>2015-08-15T12:19:08Z</time>
      </trkpt>
      <trkpt lat="40.452400" lon="-5.281517">
        <ele>2431.0</ele>
        <time>2015-08-15T12:19:10Z</time>
      </trkpt>
      <trkpt lat="40.452567" lon="-5.281383">
        <ele>2432.0</ele>
        <time>2015-08-15T12:19:12Z</time>
      </trkpt>
      <trkpt lat="40.452717" lon="-5.281267">
        <ele>2434.0</ele>
        <time>2015-08-15T12:19:14Z</time>
      </trkpt>
      <trkpt lat="40.452883" lon="-5.281150">
        <ele>2436.0</ele>
        <time>2015-08-15T12:19:16Z</time>
      </trkpt>
      <trkpt lat="40.453033" lon="-5.281000">
        <ele>2437.0</ele>
        <time>2015-08-15T12:19:18Z</time>
      </trkpt>
      <trkpt lat="40.453167" lon="-5.280833">
        <ele>2440.0</ele>
        <time>2015-08-15T12:19:20Z</time>
      </trkpt>
      <trkpt lat="40.453300" lon="-5.280683">
        <ele>2445.0</ele>
        <time>2015-08-15T12:19:22Z</time>
      </trkpt>
      <trkpt lat="40.453417" lon="-5.280483">
        <ele>2448.0</ele>
        <time>2015-08-15T12:19:24Z</time>
      </trkpt>
      <trkpt lat="40.453517" lon="-5.280233">
        <ele>2453.0</ele>
        <time>2015-08-15T12:19:26Z</time>
      </trkpt>
      <trkpt lat="40.453667" lon="-5.280083">
        <ele>2460.0</ele>
        <time>2015-08-15T12:19:28Z</time>
      </trkpt>
      <trkpt lat="40.453850" lon="-5.280067">
        <ele>2464.0</ele>
        <time>2015-08-15T12:19:30Z</time>
      </trkpt>
      <trkpt lat="40.454033" lon="-5.280150">
        <ele>2467.0</ele>
        <time>2015-08-15T12:19:32Z</time>
      </trkpt>
      <trkpt lat="40.454150" lon="-5.280317">
        <ele>2469.0</ele>
        <time>2015-08-15T12:19:34Z</time>
      </trkpt>
      <trkpt lat="40.454217" lon="-5.280517">
        <ele>2469.0</ele>
        <time>2015-08-15T12:19:36Z</time>
      </trkpt>
      <trkpt lat="40.454217" lon="-5.280733">
        <ele>2469.0</ele>
        <time>2015-08-15T12:19:38Z</time>
      </trkpt>
      <trkpt lat="40.454167" lon="-5.280900">
        <ele>2469.0</ele>
        <time>2015-08-15T12:19:40Z</time>
      </trkpt>
      <trkpt lat="40.454067" lon="-5.281017">
        <ele>2469.0</ele>
        <time>2015-08-15T12:19:42Z</time>
      </trkpt>
      <trkpt lat="40.453933" lon="-5.281067">
        <ele>2467.0</ele>
        <time>2015-08-15T12:19:44Z</time>
      </trkpt>
      <trkpt lat="40.453767" lon="-5.281000">
        <ele>2466.0</ele>
        <time>2015-08-15T12:19:46Z</time>
      </trkpt>
      <trkpt lat="40.453617" lon="-5.280883">
        <ele>2469.0</ele>
        <time>2015-08-15T12:19:48Z</time>
      </trkpt>
      <trkpt lat="40.453550" lon="-5.280700">
        <ele>2473.0</ele>
        <time>2015-08-15T12:19:50Z</time>
      </trkpt>
      <trkpt lat="40.453533" lon="-5.280467">
        <ele>2475.0</ele>
        <time>2015-08-15T12:19:52Z</time>
      </trkpt>
      <trkpt lat="40.453567" lon="-5.280183">
        <ele>2479.0</ele>
        <time>2015-08-15T12:19:54Z</time>
      </trkpt>
      <trkpt lat="40.453617" lon="-5.279950">
        <ele>2486.0</ele>
        <time>2015-08-15T12:19:56Z</time>
      </trkpt>
      <trkpt lat="40.453700" lon="-5.279767">
        <ele>2490.0</ele>
        <time>2015-08-15T12:19:58Z</time>
      </trkpt>
      <trkpt lat="40.453817" lon="-5.279567">
        <ele>2490.0</ele>
        <time>2015-08-15T12:20:00Z</time>
      </trkpt>
      <trkpt lat="40.453950" lon="-5.279367">
        <ele>2492.0</ele>
        <time>2015-08-15T12:20:02Z</time>
      </trkpt>
      <trkpt lat="40.454117" lon="-5.279250">
        <ele>2494.0</ele>
        <time>2015-08-15T12:20:04Z</time>
      </trkpt>
      <trkpt lat="40.454283" lon="-5.279183">
        <ele>2494.0</ele>
        <time>2015-08-15T12:20:06Z</time>
      </trkpt>
      <trkpt lat="40.454483" lon="-5.279150">
        <ele>2491.0</ele>
        <time>2015-08-15T12:20:08Z</time>
      </trkpt>
      <trkpt lat="40.454683" lon="-5.279133">
        <ele>2488.0</ele>
        <time>2015-08-15T12:20:10Z</time>
      </trkpt>
      <trkpt lat="40.454850" lon="-5.279117">
        <ele>2485.0</ele>
        <time>2015-08-15T12:20:12Z</time>
      </trkpt>
      <trkpt lat="40.455017" lon="-5.279083">
        <ele>2479.0</ele>
        <time>2015-08-15T12:20:14Z</time>
      </trkpt>
      <trkpt lat="40.455217" lon="-5.279050">
        <ele>2471.0</ele>
        <time>2015-08-15T12:20:16Z</time>
      </trkpt>
      <trkpt lat="40.455400" lon="-5.278983">
        <ele>2469.0</ele>
        <time>2015-08-15T12:20:18Z</time>
      </trkpt>
      <trkpt lat="40.455550" lon="-5.278933">
        <ele>2465.0</ele>
        <time>2015-08-15T12:20:20Z</time>
      </trkpt>
      <trkpt lat="40.455717" lon="-5.278867">
        <ele>2456.0</ele>
        <time>2015-08-15T12:20:22Z</time>
      </trkpt>
      <trkpt lat="40.455900" lon="-5.278783">
        <ele>2452.0</ele>
        <time>2015-08-15T12:20:24Z</time>
      </trkpt>
      <trkpt lat="40.456067" lon="-5.278717">
        <ele>2449.0</ele>
        <time>2015-08-15T12:20:26Z</time>
      </trkpt>
      <trkpt lat="40.456200" lon="-5.278633">
        <ele>2444.0</ele>
        <time>2015-08-15T12:20:28Z</time>
      </trkpt>
      <trkpt lat="40.456333" lon="-5.278550">
        <ele>2438.0</ele>
        <time>2015-08-15T12:20:30Z</time>
      </trkpt>
      <trkpt lat="40.456483" lon="-5.278467">
        <ele>2431.0</ele>
        <time>2015-08-15T12:20:32Z</time>
      </trkpt>
      <trkpt lat="40.456633" lon="-5.278350">
        <ele>2425.0</ele>
        <time>2015-08-15T12:20:34Z</time>
      </trkpt>
      <trkpt lat="40.456767" lon="-5.278250">
        <ele>2420.0</ele>
        <time>2015-08-15T12:20:36Z</time>
      </trkpt>
      <trkpt lat="40.456917" lon="-5.278117">
        <ele>2414.0</ele>
        <time>2015-08-15T12:20:38Z</time>
      </trkpt>
      <trkpt lat="40.457067" lon="-5.278000">
        <ele>2409.0</ele>
        <time>2015-08-15T12:20:40Z</time>
      </trkpt>
      <trkpt lat="40.457217" lon="-5.277883">
        <ele>2404.0</ele>
        <time>2015-08-15T12:20:42Z</time>
      </trkpt>
      <trkpt lat="40.457367" lon="-5.277783">
        <ele>2401.0</ele>
        <time>2015-08-15T12:20:44Z</time>
      </trkpt>
      <trkpt lat="40.457517" lon="-5.277683">
        <ele>2398.0</ele>
        <time>2015-08-15T12:20:46Z</time>
      </trkpt>
      <trkpt lat="40.457667" lon="-5.277600">
        <ele>2394.0</ele>
        <time>2015-08-15T12:20:48Z</time>
      </trkpt>
      <trkpt lat="40.457833" lon="-5.277533">
        <ele>2390.0</ele>
        <time>2015-08-15T12:20:50Z</time>
      </trkpt>
      <trkpt lat="40.457983" lon="-5.277433">
        <ele>2385.0</ele>
        <time>2015-08-15T12:20:52Z</time>
      </trkpt>
      <trkpt lat="40.458150" lon="-5.277317">
        <ele>2381.0</ele>
        <time>2015-08-15T12:20:54Z</time>
      </trkpt>
      <trkpt lat="40.458333" lon="-5.277183">
        <ele>2377.0</ele>
        <time>2015-08-15T12:20:56Z</time>
      </trkpt>
      <trkpt lat="40.458517" lon="-5.277067">
        <ele>2375.0</ele>
        <time>2015-08-15T12:20:58Z</time>
      </trkpt>
      <trkpt lat="40.458700" lon="-5.276950">
        <ele>2374.0</ele>
        <time>2015-08-15T12:21:00Z</time>
      </trkpt>
      <trkpt lat="40.458867" lon="-5.276800">
        <ele>2371.0</ele>
        <time>2015-08-15T12:21:02Z</time>
      </trkpt>
      <trkpt lat="40.459050" lon="-5.276667">
        <ele>2367.0</ele>
        <time>2015-08-15T12:21:04Z</time>
      </trkpt>
      <trkpt lat="40.459217" lon="-5.276533">
        <ele>2364.0</ele>
        <time>2015-08-15T12:21:06Z</time>
      </trkpt>
      <trkpt lat="40.459367" lon="-5.276417">
        <ele>2359.0</ele>
        <time>2015-08-15T12:21:08Z</time>
      </trkpt>
      <trkpt lat="40.459550" lon="-5.276300">
        <ele>2354.0</ele>
        <time>2015-08-15T12:21:10Z</time>
      </trkpt>
      <trkpt lat="40.459750" lon="-5.276183">
        <ele>2352.0</ele>
        <time>2015-08-15T12:21:12Z</time>
      </trkpt>
      <trkpt lat="40.459917" lon="-5.276067">
        <ele>2350.0</ele>
        <time>2015-08-15T12:21:14Z</time>
      </trkpt>
      <trkpt lat="40.460100" lon="-5.275983">
        <ele>2347.0</ele>
        <time>2015-08-15T12:21:16Z</time>
      </trkpt>
      <trkpt lat="40.460300" lon="-5.275883">
        <ele>2344.0</ele>
        <time>2015-08-15T12:21:18Z</time>
      </trkpt>
      <trkpt lat="40.460467" lon="-5.275767">
        <ele>2341.0</ele>
        <time>2015-08-15T12:21:20Z</time>
      </trkpt>
      <trkpt lat="40.460633" lon="-5.275667">
        <ele>2337.0</ele>
        <time>2015-08-15T12:21:22Z</time>
      </trkpt>
      <trkpt lat="40.460817" lon="-5.275550">
        <ele>2334.0</ele>
        <time>2015-08-15T12:21:24Z</time>
      </trkpt>
      <trkpt lat="40.460967" lon="-5.275450">
        <ele>2334.0</ele>
        <time>2015-08-15T12:21:26Z</time>
      </trkpt>
      <trkpt lat="40.461117" lon="-5.275333">
        <ele>2331.0</ele>
        <time>2015-08-15T12:21:28Z</time>
      </trkpt>
      <trkpt lat="40.461283" lon="-5.275233">
        <ele>2327.0</ele>
        <time>2015-08-15T12:21:30Z</time>
      </trkpt>
      <trkpt lat="40.461433" lon="-5.275100">
        <ele>2325.0</ele>
        <time>2015-08-15T12:21:32Z</time>
      </trkpt>
      <trkpt lat="40.461583" lon="-5.274983">
        <ele>2322.0</ele>
        <time>2015-08-15T12:21:34Z</time>
      </trkpt>
      <trkpt lat="40.461750" lon="-5.274867">
        <ele>2319.0</ele>
        <time>2015-08-15T12:21:36Z</time>
      </trkpt>
      <trkpt lat="40.461917" lon="-5.274767">
        <ele>2318.0</ele>
        <time>2015-08-15T12:21:38Z</time>
      </trkpt>
      <trkpt lat="40.462083" lon="-5.274700">
        <ele>2319.0</ele>
        <time>2015-08-15T12:21:40Z</time>
      </trkpt>
      <trkpt lat="40.462250" lon="-5.274683">
        <ele>2317.0</ele>
        <time>2015-08-15T12:21:42Z</time>
      </trkpt>
      <trkpt lat="40.462433" lon="-5.274650">
        <ele>2313.0</ele>
        <time>2015-08-15T12:21:44Z</time>
      </trkpt>
      <trkpt lat="40.462617" lon="-5.274567">
        <ele>2311.0</ele>
        <time>2015-08-15T12:21:46Z</time>
      </trkpt>
      <trkpt lat="40.462783" lon="-5.274450">
        <ele>2309.0</ele>
        <time>2015-08-15T12:21:48Z</time>
      </trkpt>
      <trkpt lat="40.462917" lon="-5.274350">
        <ele>2304.0</ele>
        <time>2015-08-15T12:21:50Z</time>
      </trkpt>
      <trkpt lat="40.463100" lon="-5.274217">
        <ele>2300.0</ele>
        <time>2015-08-15T12:21:52Z</time>
      </trkpt>
      <trkpt lat="40.463250" lon="-5.274100">
        <ele>2297.0</ele>
        <time>2015-08-15T12:21:54Z</time>
      </trkpt>
      <trkpt lat="40.463400" lon="-5.273983">
        <ele>2293.0</ele>
        <time>2015-08-15T12:21:56Z</time>
      </trkpt>
      <trkpt lat="40.463550" lon="-5.273867">
        <ele>2288.0</ele>
        <time>2015-08-15T12:21:58Z</time>
      </trkpt>
      <trkpt lat="40.463683" lon="-5.273700">
        <ele>2285.0</ele>
        <time>2015-08-15T12:22:00Z</time>
      </trkpt>
      <trkpt lat="40.463817" lon="-5.273567">
        <ele>2281.0</ele>
        <time>2015-08-15T12:22:02Z</time>
      </trkpt>
      <trkpt lat="40.463950" lon="-5.273417">
        <ele>2277.0</ele>
        <time>2015-08-15T12:22:04Z</time>
      </trkpt>
      <trkpt lat="40.464050" lon="-5.273233">
        <ele>2274.0</ele>
        <time>2015-08-15T12:22:06Z</time>
      </trkpt>
      <trkpt lat="40.464183" lon="-5.273117">
        <ele>2271.0</ele>
        <time>2015-08-15T12:22:08Z</time>
      </trkpt>
      <trkpt lat="40.464317" lon="-5.273033">
        <ele>2266.0</ele>
        <time>2015-08-15T12:22:10Z</time>
      </trkpt>
      <trkpt lat="40.464467" lon="-5.272950">
        <ele>2261.0</ele>
        <time>2015-08-15T12:22:12Z</time>
      </trkpt>
      <trkpt lat="40.464617" lon="-5.272867">
        <ele>2257.0</ele>
        <time>2015-08-15T12:22:14Z</time>
      </trkpt>
      <trkpt lat="40.464750" lon="-5.272783">
        <ele>2250.0</ele>
        <time>2015-08-15T12:22:16Z</time>
      </trkpt>
      <trkpt lat="40.464917" lon="-5.272683">
        <ele>2246.0</ele>
        <time>2015-08-15T12:22:18Z</time>
      </trkpt>
      <trkpt lat="40.465100" lon="-5.272617">
        <ele>2244.0</ele>
        <time>2015-08-15T12:22:20Z</time>
      </trkpt>
      <trkpt lat="40.465300" lon="-5.272533">
        <ele>2244.0</ele>
        <time>2015-08-15T12:22:22Z</time>
      </trkpt>
      <trkpt lat="40.465433" lon="-5.272383">
        <ele>2243.0</ele>
        <time>2015-08-15T12:22:24Z</time>
      </trkpt>
      <trkpt lat="40.465600" lon="-5.272233">
        <ele>2241.0</ele>
        <time>2015-08-15T12:22:26Z</time>
      </trkpt>
      <trkpt lat="40.465750" lon="-5.272117">
        <ele>2239.0</ele>
        <time>2015-08-15T12:22:28Z</time>
      </trkpt>
      <trkpt lat="40.465867" lon="-5.272017">
        <ele>2238.0</ele>
        <time>2015-08-15T12:22:30Z</time>
      </trkpt>
      <trkpt lat="40.465983" lon="-5.271917">
        <ele>2237.0</ele>
        <time>2015-08-15T12:22:32Z</time>
      </trkpt>
      <trkpt lat="40.466100" lon="-5.271800">
        <ele>2235.0</ele>
        <time>2015-08-15T12:22:34Z</time>
      </trkpt>
      <trkpt lat="40.466300" lon="-5.271617">
        <ele>2233.0</ele>
        <time>2015-08-15T12:22:37Z</time>
      </trkpt>
      <trkpt lat="40.466433" lon="-5.271483">
        <ele>2231.0</ele>
        <time>2015-08-15T12:22:39Z</time>
      </trkpt>
      <trkpt lat="40.466567" lon="-5.271350">
        <ele>2227.0</ele>
        <time>2015-08-15T12:22:41Z</time>
      </trkpt>
      <trkpt lat="40.466733" lon="-5.271200">
        <ele>2226.0</ele>
        <time>2015-08-15T12:22:43Z</time>
      </trkpt>
      <trkpt lat="40.466867" lon="-5.271033">
        <ele>2229.0</ele>
        <time>2015-08-15T12:22:45Z</time>
      </trkpt>
      <trkpt lat="40.467017" lon="-5.270883">
        <ele>2232.0</ele>
        <time>2015-08-15T12:22:47Z</time>
      </trkpt>
      <trkpt lat="40.467150" lon="-5.270700">
        <ele>2234.0</ele>
        <time>2015-08-15T12:22:49Z</time>
      </trkpt>
      <trkpt lat="40.467300" lon="-5.270550">
        <ele>2234.0</ele>
        <time>2015-08-15T12:22:51Z</time>
      </trkpt>
      <trkpt lat="40.467450" lon="-5.270400">
        <ele>2236.0</ele>
        <time>2015-08-15T12:22:53Z</time>
      </trkpt>
      <trkpt lat="40.467567" lon="-5.270183">
        <ele>2241.0</ele>
        <time>2015-08-15T12:22:55Z</time>
      </trkpt>
      <trkpt lat="40.467600" lon="-5.270000">
        <ele>2247.0</ele>
        <time>2015-08-15T12:22:57Z</time>
      </trkpt>
      <trkpt lat="40.467567" lon="-5.269850">
        <ele>2248.0</ele>
        <time>2015-08-15T12:22:59Z</time>
      </trkpt>
      <trkpt lat="40.467417" lon="-5.269717">
        <ele>2246.0</ele>
        <time>2015-08-15T12:23:01Z</time>
      </trkpt>
      <trkpt lat="40.467250" lon="-5.269717">
        <ele>2248.0</ele>
        <time>2015-08-15T12:23:03Z</time>
      </trkpt>
      <trkpt lat="40.467117" lon="-5.269800">
        <ele>2252.0</ele>
        <time>2015-08-15T12:23:05Z</time>
      </trkpt>
      <trkpt lat="40.467050" lon="-5.269967">
        <ele>2253.0</ele>
        <time>2015-08-15T12:23:07Z</time>
      </trkpt>
      <trkpt lat="40.467083" lon="-5.270150">
        <ele>2255.0</ele>
        <time>2015-08-15T12:23:09Z</time>
      </trkpt>
      <trkpt lat="40.467183" lon="-5.270267">
        <ele>2260.0</ele>
        <time>2015-08-15T12:23:11Z</time>
      </trkpt>
      <trkpt lat="40.467300" lon="-5.270333">
        <ele>2262.0</ele>
        <time>2015-08-15T12:23:13Z</time>
      </trkpt>
      <trkpt lat="40.467483" lon="-5.270383">
        <ele>2265.0</ele>
        <time>2015-08-15T12:23:15Z</time>
      </trkpt>
      <trkpt lat="40.467700" lon="-5.270333">
        <ele>2270.0</ele>
        <time>2015-08-15T12:23:17Z</time>
      </trkpt>
      <trkpt lat="40.467883" lon="-5.270250">
        <ele>2278.0</ele>
        <time>2015-08-15T12:23:19Z</time>
      </trkpt>
      <trkpt lat="40.468033" lon="-5.270200">
        <ele>2281.0</ele>
        <time>2015-08-15T12:23:21Z</time>
      </trkpt>
      <trkpt lat="40.468167" lon="-5.270083">
        <ele>2279.0</ele>
        <time>2015-08-15T12:23:23Z</time>
      </trkpt>
      <trkpt lat="40.468317" lon="-5.269917">
        <ele>2278.0</ele>
        <time>2015-08-15T12:23:25Z</time>
      </trkpt>
      <trkpt lat="40.468450" lon="-5.269800">
        <ele>2278.0</ele>
        <time>2015-08-15T12:23:27Z</time>
      </trkpt>
      <trkpt lat="40.468583" lon="-5.269633">
        <ele>2273.0</ele>
        <time>2015-08-15T12:23:29Z</time>
      </trkpt>
      <trkpt lat="40.468733" lon="-5.269433">
        <ele>2271.0</ele>
        <time>2015-08-15T12:23:31Z</time>
      </trkpt>
      <trkpt lat="40.468883" lon="-5.269250">
        <ele>2270.0</ele>
        <time>2015-08-15T12:23:33Z</time>
      </trkpt>
      <trkpt lat="40.469050" lon="-5.269067">
        <ele>2270.0</ele>
        <time>2015-08-15T12:23:35Z</time>
      </trkpt>
      <trkpt lat="40.469200" lon="-5.268917">
        <ele>2274.0</ele>
        <time>2015-08-15T12:23:37Z</time>
      </trkpt>
      <trkpt lat="40.469300" lon="-5.268833">
        <ele>2272.0</ele>
        <time>2015-08-15T12:23:39Z</time>
      </trkpt>
      <trkpt lat="40.469417" lon="-5.268733">
        <ele>2266.0</ele>
        <time>2015-08-15T12:23:41Z</time>
      </trkpt>
      <trkpt lat="40.469583" lon="-5.268600">
        <ele>2260.0</ele>
        <time>2015-08-15T12:23:43Z</time>
      </trkpt>
      <trkpt lat="40.469750" lon="-5.268483">
        <ele>2258.0</ele>
        <time>2015-08-15T12:23:45Z</time>
      </trkpt>
      <trkpt lat="40.469883" lon="-5.268400">
        <ele>2256.0</ele>
        <time>2015-08-15T12:23:47Z</time>
      </trkpt>
      <trkpt lat="40.470017" lon="-5.268283">
        <ele>2251.0</ele>
        <time>2015-08-15T12:23:49Z</time>
      </trkpt>
      <trkpt lat="40.470150" lon="-5.268150">
        <ele>2248.0</ele>
        <time>2015-08-15T12:23:51Z</time>
      </trkpt>
      <trkpt lat="40.470267" lon="-5.268050">
        <ele>2245.0</ele>
        <time>2015-08-15T12:23:53Z</time>
      </trkpt>
      <trkpt lat="40.470383" lon="-5.267917">
        <ele>2241.0</ele>
        <time>2015-08-15T12:23:55Z</time>
      </trkpt>
      <trkpt lat="40.470517" lon="-5.267733">
        <ele>2241.0</ele>
        <time>2015-08-15T12:23:57Z</time>
      </trkpt>
      <trkpt lat="40.470617" lon="-5.267583">
        <ele>2243.0</ele>
        <time>2015-08-15T12:23:59Z</time>
      </trkpt>
      <trkpt lat="40.470683" lon="-5.267433">
        <ele>2240.0</ele>
        <time>2015-08-15T12:24:01Z</time>
      </trkpt>
      <trkpt lat="40.470783" lon="-5.267267">
        <ele>2235.0</ele>
        <time>2015-08-15T12:24:03Z</time>
      </trkpt>
      <trkpt lat="40.470883" lon="-5.267100">
        <ele>2231.0</ele>
        <time>2015-08-15T12:24:05Z</time>
      </trkpt>
      <trkpt lat="40.471000" lon="-5.266933">
        <ele>2229.0</ele>
        <time>2015-08-15T12:24:07Z</time>
      </trkpt>
      <trkpt lat="40.471100" lon="-5.266750">
        <ele>2229.0</ele>
        <time>2015-08-15T12:24:09Z</time>
      </trkpt>
      <trkpt lat="40.471200" lon="-5.266567">
        <ele>2230.0</ele>
        <time>2015-08-15T12:24:11Z</time>
      </trkpt>
      <trkpt lat="40.471300" lon="-5.266383">
        <ele>2232.0</ele>
        <time>2015-08-15T12:24:13Z</time>
      </trkpt>
      <trkpt lat="40.471383" lon="-5.266233">
        <ele>2233.0</ele>
        <time>2015-08-15T12:24:15Z</time>
      </trkpt>
      <trkpt lat="40.471517" lon="-5.266083">
        <ele>2232.0</ele>
        <time>2015-08-15T12:24:17Z</time>
      </trkpt>
      <trkpt lat="40.471650" lon="-5.265917">
        <ele>2234.0</ele>
        <time>2015-08-15T12:24:19Z</time>
      </trkpt>
      <trkpt lat="40.471750" lon="-5.265783">
        <ele>2237.0</ele>
        <time>2015-08-15T12:24:21Z</time>
      </trkpt>
      <trkpt lat="40.471867" lon="-5.265650">
        <ele>2237.0</ele>
        <time>2015-08-15T12:24:23Z</time>
      </trkpt>
      <trkpt lat="40.472000" lon="-5.265517">
        <ele>2240.0</ele>
        <time>2015-08-15T12:24:25Z</time>
      </trkpt>
      <trkpt lat="40.472117" lon="-5.265417">
        <ele>2244.0</ele>
        <time>2015-08-15T12:24:27Z</time>
      </trkpt>
      <trkpt lat="40.472250" lon="-5.265317">
        <ele>2246.0</ele>
        <time>2015-08-15T12:24:29Z</time>
      </trkpt>
      <trkpt lat="40.472367" lon="-5.265167">
        <ele>2250.0</ele>
        <time>2015-08-15T12:24:31Z</time>
      </trkpt>
      <trkpt lat="40.472433" lon="-5.264983">
        <ele>2253.0</ele>
        <time>2015-08-15T12:24:33Z</time>
      </trkpt>
      <trkpt lat="40.472517" lon="-5.264833">
        <ele>2255.0</ele>
        <time>2015-08-15T12:24:35Z</time>
      </trkpt>
      <trkpt lat="40.472650" lon="-5.264700">
        <ele>2256.0</ele>
        <time>2015-08-15T12:24:37Z</time>
      </trkpt>
      <trkpt lat="40.472783" lon="-5.264583">
        <ele>2259.0</ele>
        <time>2015-08-15T12:24:39Z</time>
      </trkpt>
      <trkpt lat="40.472900" lon="-5.264417">
        <ele>2261.0</ele>
        <time>2015-08-15T12:24:41Z</time>
      </trkpt>
      <trkpt lat="40.472967" lon="-5.264183">
        <ele>2263.0</ele>
        <time>2015-08-15T12:24:43Z</time>
      </trkpt>
      <trkpt lat="40.472917" lon="-5.263917">
        <ele>2266.0</ele>
        <time>2015-08-15T12:24:45Z</time>
      </trkpt>
      <trkpt lat="40.472800" lon="-5.263717">
        <ele>2268.0</ele>
        <time>2015-08-15T12:24:47Z</time>
      </trkpt>
      <trkpt lat="40.472633" lon="-5.263583">
        <ele>2268.0</ele>
        <time>2015-08-15T12:24:49Z</time>
      </trkpt>
      <trkpt lat="40.472417" lon="-5.263533">
        <ele>2264.0</ele>
        <time>2015-08-15T12:24:51Z</time>
      </trkpt>
      <trkpt lat="40.472200" lon="-5.263617">
        <ele>2263.0</ele>
        <time>2015-08-15T12:24:53Z</time>
      </trkpt>
      <trkpt lat="40.472067" lon="-5.263783">
        <ele>2262.0</ele>
        <time>2015-08-15T12:24:55Z</time>
      </trkpt>
      <trkpt lat="40.471983" lon="-5.264000">
        <ele>2262.0</ele>
        <time>2015-08-15T12:24:57Z</time>
      </trkpt>
      <trkpt lat="40.471983" lon="-5.264250">
        <ele>2263.0</ele>
        <time>2015-08-15T12:24:59Z</time>
      </trkpt>
      <trkpt lat="40.472067" lon="-5.264450">
        <ele>2267.0</ele>
        <time>2015-08-15T12:25:01Z</time>
      </trkpt>
      <trkpt lat="40.472150" lon="-5.264550">
        <ele>2271.0</ele>
        <time>2015-08-15T12:25:03Z</time>
      </trkpt>
      <trkpt lat="40.472250" lon="-5.264600">
        <ele>2271.0</ele>
        <time>2015-08-15T12:25:05Z</time>
      </trkpt>
      <trkpt lat="40.472400" lon="-5.264650">
        <ele>2270.0</ele>
        <time>2015-08-15T12:25:07Z</time>
      </trkpt>
      <trkpt lat="40.472517" lon="-5.264633">
        <ele>2273.0</ele>
        <time>2015-08-15T12:25:09Z</time>
      </trkpt>
      <trkpt lat="40.472617" lon="-5.264600">
        <ele>2275.0</ele>
        <time>2015-08-15T12:25:11Z</time>
      </trkpt>
      <trkpt lat="40.472733" lon="-5.264533">
        <ele>2275.0</ele>
        <time>2015-08-15T12:25:13Z</time>
      </trkpt>
      <trkpt lat="40.472867" lon="-5.264433">
        <ele>2277.0</ele>
        <time>2015-08-15T12:25:15Z</time>
      </trkpt>
      <trkpt lat="40.472950" lon="-5.264333">
        <ele>2277.0</ele>
        <time>2015-08-15T12:25:17Z</time>
      </trkpt>
      <trkpt lat="40.473050" lon="-5.264217">
        <ele>2272.0</ele>
        <time>2015-08-15T12:25:19Z</time>
      </trkpt>
      <trkpt lat="40.473183" lon="-5.264083">
        <ele>2265.0</ele>
        <time>2015-08-15T12:25:21Z</time>
      </trkpt>
      <trkpt lat="40.473333" lon="-5.263933">
        <ele>2263.0</ele>
        <time>2015-08-15T12:25:23Z</time>
      </trkpt>
      <trkpt lat="40.473450" lon="-5.263783">
        <ele>2262.0</ele>
        <time>2015-08-15T12:25:25Z</time>
      </trkpt>
      <trkpt lat="40.473583" lon="-5.263650">
        <ele>2261.0</ele>
        <time>2015-08-15T12:25:27Z</time>
      </trkpt>
      <trkpt lat="40.473750" lon="-5.263517">
        <ele>2260.0</ele>
        <time>2015-08-15T12:25:29Z</time>
      </trkpt>
      <trkpt lat="40.473900" lon="-5.263367">
        <ele>2259.0</ele>
        <time>2015-08-15T12:25:31Z</time>
      </trkpt>
      <trkpt lat="40.474067" lon="-5.263217">
        <ele>2258.0</ele>
        <time>2015-08-15T12:25:33Z</time>
      </trkpt>
      <trkpt lat="40.474217" lon="-5.263067">
        <ele>2257.0</ele>
        <time>2015-08-15T12:25:35Z</time>
      </trkpt>
      <trkpt lat="40.474350" lon="-5.262900">
        <ele>2256.0</ele>
        <time>2015-08-15T12:25:37Z</time>
      </trkpt>
      <trkpt lat="40.474467" lon="-5.262700">
        <ele>2254.0</ele>
        <time>2015-08-15T12:25:39Z</time>
      </trkpt>
      <trkpt lat="40.474600" lon="-5.262517">
        <ele>2252.0</ele>
        <time>2015-08-15T12:25:41Z</time>
      </trkpt>
      <trkpt lat="40.474750" lon="-5.262300">
        <ele>2250.0</ele>
        <time>2015-08-15T12:25:43Z</time>
      </trkpt>
      <trkpt lat="40.474900" lon="-5.262067">
        <ele>2248.0</ele>
        <time>2015-08-15T12:25:45Z</time>
      </trkpt>
      <trkpt lat="40.475033" lon="-5.261867">
        <ele>2251.0</ele>
        <time>2015-08-15T12:25:47Z</time>
      </trkpt>
      <trkpt lat="40.475150" lon="-5.261717">
        <ele>2254.0</ele>
        <time>2015-08-15T12:25:49Z</time>
      </trkpt>
      <trkpt lat="40.475267" lon="-5.261517">
        <ele>2255.0</ele>
        <time>2015-08-15T12:25:51Z</time>
      </trkpt>
      <trkpt lat="40.475383" lon="-5.261267">
        <ele>2259.0</ele>
        <time>2015-08-15T12:25:53Z</time>
      </trkpt>
      <trkpt lat="40.475467" lon="-5.261033">
        <ele>2265.0</ele>
        <time>2015-08-15T12:25:55Z</time>
      </trkpt>
      <trkpt lat="40.475500" lon="-5.260783">
        <ele>2270.0</ele>
        <time>2015-08-15T12:25:57Z</time>
      </trkpt>
      <trkpt lat="40.475467" lon="-5.260517">
        <ele>2272.0</ele>
        <time>2015-08-15T12:25:59Z</time>
      </trkpt>
      <trkpt lat="40.475367" lon="-5.260250">
        <ele>2276.0</ele>
        <time>2015-08-15T12:26:01Z</time>
      </trkpt>
      <trkpt lat="40.475167" lon="-5.260083">
        <ele>2280.0</ele>
        <time>2015-08-15T12:26:03Z</time>
      </trkpt>
      <trkpt lat="40.474933" lon="-5.260017">
        <ele>2288.0</ele>
        <time>2015-08-15T12:26:05Z</time>
      </trkpt>
      <trkpt lat="40.474767" lon="-5.260050">
        <ele>2295.0</ele>
        <time>2015-08-15T12:26:07Z</time>
      </trkpt>
      <trkpt lat="40.474633" lon="-5.260167">
        <ele>2301.0</ele>
        <time>2015-08-15T12:26:09Z</time>
      </trkpt>
      <trkpt lat="40.474550" lon="-5.260367">
        <ele>2305.0</ele>
        <time>2015-08-15T12:26:11Z</time>
      </trkpt>
      <trkpt lat="40.474550" lon="-5.260550">
        <ele>2309.0</ele>
        <time>2015-08-15T12:26:13Z</time>
      </trkpt>
      <trkpt lat="40.474617" lon="-5.260683">
        <ele>2311.0</ele>
        <time>2015-08-15T12:26:15Z</time>
      </trkpt>
      <trkpt lat="40.474733" lon="-5.260767">
        <ele>2311.0</ele>
        <time>2015-08-15T12:26:17Z</time>
      </trkpt>
      <trkpt lat="40.474900" lon="-5.260800">
        <ele>2314.0</ele>
        <time>2015-08-15T12:26:19Z</time>
      </trkpt>
      <trkpt lat="40.475050" lon="-5.260750">
        <ele>2320.0</ele>
        <time>2015-08-15T12:26:21Z</time>
      </trkpt>
      <trkpt lat="40.475183" lon="-5.260667">
        <ele>2323.0</ele>
        <time>2015-08-15T12:26:23Z</time>
      </trkpt>
      <trkpt lat="40.475333" lon="-5.260517">
        <ele>2329.0</ele>
        <time>2015-08-15T12:26:25Z</time>
      </trkpt>
      <trkpt lat="40.475450" lon="-5.260367">
        <ele>2342.0</ele>
        <time>2015-08-15T12:26:27Z</time>
      </trkpt>
      <trkpt lat="40.475533" lon="-5.260233">
        <ele>2353.0</ele>
        <time>2015-08-15T12:26:29Z</time>
      </trkpt>
      <trkpt lat="40.475633" lon="-5.260050">
        <ele>2361.0</ele>
        <time>2015-08-15T12:26:31Z</time>
      </trkpt>
      <trkpt lat="40.475683" lon="-5.259800">
        <ele>2372.0</ele>
        <time>2015-08-15T12:26:33Z</time>
      </trkpt>
      <trkpt lat="40.475650" lon="-5.259567">
        <ele>2378.0</ele>
        <time>2015-08-15T12:26:35Z</time>
      </trkpt>
      <trkpt lat="40.475600" lon="-5.259300">
        <ele>2381.0</ele>
        <time>2015-08-15T12:26:37Z</time>
      </trkpt>
      <trkpt lat="40.475450" lon="-5.259050">
        <ele>2386.0</ele>
        <time>2015-08-15T12:26:39Z</time>
      </trkpt>
      <trkpt lat="40.475250" lon="-5.258933">
        <ele>2393.0</ele>
        <time>2015-08-15T12:26:41Z</time>
      </trkpt>
      <trkpt lat="40.475067" lon="-5.258917">
        <ele>2400.0</ele>
        <time>2015-08-15T12:26:43Z</time>
      </trkpt>
      <trkpt lat="40.474917" lon="-5.258983">
        <ele>2405.0</ele>
        <time>2015-08-15T12:26:45Z</time>
      </trkpt>
      <trkpt lat="40.474833" lon="-5.259150">
        <ele>2410.0</ele>
        <time>2015-08-15T12:26:47Z</time>
      </trkpt>
      <trkpt lat="40.474833" lon="-5.259350">
        <ele>2414.0</ele>
        <time>2015-08-15T12:26:49Z</time>
      </trkpt>
      <trkpt lat="40.474933" lon="-5.259467">
        <ele>2420.0</ele>
        <time>2015-08-15T12:26:51Z</time>
      </trkpt>
      <trkpt lat="40.475067" lon="-5.259533">
        <ele>2424.0</ele>
        <time>2015-08-15T12:26:53Z</time>
      </trkpt>
      <trkpt lat="40.475250" lon="-5.259567">
        <ele>2430.0</ele>
        <time>2015-08-15T12:26:55Z</time>
      </trkpt>
      <trkpt lat="40.475400" lon="-5.259550">
        <ele>2442.0</ele>
        <time>2015-08-15T12:26:57Z</time>
      </trkpt>
      <trkpt lat="40.475533" lon="-5.259500">
        <ele>2454.0</ele>
        <time>2015-08-15T12:26:59Z</time>
      </trkpt>
      <trkpt lat="40.475667" lon="-5.259400">
        <ele>2461.0</ele>
        <time>2015-08-15T12:27:01Z</time>
      </trkpt>
      <trkpt lat="40.475850" lon="-5.259267">
        <ele>2469.0</ele>
        <time>2015-08-15T12:27:03Z</time>
      </trkpt>
      <trkpt lat="40.475983" lon="-5.259150">
        <ele>2480.0</ele>
        <time>2015-08-15T12:27:05Z</time>
      </trkpt>
      <trkpt lat="40.476133" lon="-5.259033">
        <ele>2489.0</ele>
        <time>2015-08-15T12:27:07Z</time>
      </trkpt>
      <trkpt lat="40.476283" lon="-5.258900">
        <ele>2502.0</ele>
        <time>2015-08-15T12:27:09Z</time>
      </trkpt>
      <trkpt lat="40.476417" lon="-5.258817">
        <ele>2514.0</ele>
        <time>2015-08-15T12:27:11Z</time>
      </trkpt>
      <trkpt lat="40.476567" lon="-5.258750">
        <ele>2523.0</ele>
        <time>2015-08-15T12:27:13Z</time>
      </trkpt>
      <trkpt lat="40.476717" lon="-5.258633">
        <ele>2533.0</ele>
        <time>2015-08-15T12:27:15Z</time>
      </trkpt>
      <trkpt lat="40.476867" lon="-5.258550">
        <ele>2544.0</ele>
        <time>2015-08-15T12:27:17Z</time>
      </trkpt>
      <trkpt lat="40.477033" lon="-5.258450">
        <ele>2552.0</ele>
        <time>2015-08-15T12:27:19Z</time>
      </trkpt>
      <trkpt lat="40.477233" lon="-5.258317">
        <ele>2564.0</ele>
        <time>2015-08-15T12:27:21Z</time>
      </trkpt>
      <trkpt lat="40.477400" lon="-5.258283">
        <ele>2579.0</ele>
        <time>2015-08-15T12:27:23Z</time>
      </trkpt>
      <trkpt lat="40.477550" lon="-5.258233">
        <ele>2592.0</ele>
        <time>2015-08-15T12:27:25Z</time>
      </trkpt>
      <trkpt lat="40.477717" lon="-5.258150">
        <ele>2604.0</ele>
        <time>2015-08-15T12:27:27Z</time>
      </trkpt>
      <trkpt lat="40.477883" lon="-5.258100">
        <ele>2616.0</ele>
        <time>2015-08-15T12:27:29Z</time>
      </trkpt>
      <trkpt lat="40.478017" lon="-5.258067">
        <ele>2625.0</ele>
        <time>2015-08-15T12:27:31Z</time>
      </trkpt>
      <trkpt lat="40.478150" lon="-5.258017">
        <ele>2633.0</ele>
        <time>2015-08-15T12:27:33Z</time>
      </trkpt>
      <trkpt lat="40.478300" lon="-5.257933">
        <ele>2639.0</ele>
        <time>2015-08-15T12:27:35Z</time>
      </trkpt>
      <trkpt lat="40.478467" lon="-5.257867">
        <ele>2645.0</ele>
        <time>2015-08-15T12:27:37Z</time>
      </trkpt>
      <trkpt lat="40.478633" lon="-5.257850">
        <ele>2649.0</ele>
        <time>2015-08-15T12:27:39Z</time>
      </trkpt>
      <trkpt lat="40.478783" lon="-5.257800">
        <ele>2654.0</ele>
        <time>2015-08-15T12:27:41Z</time>
      </trkpt>
      <trkpt lat="40.478917" lon="-5.257717">
        <ele>2656.0</ele>
        <time>2015-08-15T12:27:43Z</time>
      </trkpt>
      <trkpt lat="40.479050" lon="-5.257633">
        <ele>2655.0</ele>
        <time>2015-08-15T12:27:45Z</time>
      </trkpt>
      <trkpt lat="40.479200" lon="-5.257550">
        <ele>2654.0</ele>
        <time>2015-08-15T12:27:47Z</time>
      </trkpt>
      <trkpt lat="40.479333" lon="-5.257450">
        <ele>2654.0</ele>
        <time>2015-08-15T12:27:49Z</time>
      </trkpt>
      <trkpt lat="40.479483" lon="-5.257333">
        <ele>2652.0</ele>
        <time>2015-08-15T12:27:51Z</time>
      </trkpt>
      <trkpt lat="40.479633" lon="-5.257233">
        <ele>2652.0</ele>
        <time>2015-08-15T12:27:53Z</time>
      </trkpt>
      <trkpt lat="40.479783" lon="-5.257150">
        <ele>2652.0</ele>
        <time>2015-08-15T12:27:55Z</time>
      </trkpt>
      <trkpt lat="40.479917" lon="-5.257050">
        <ele>2652.0</ele>
        <time>2015-08-15T12:27:57Z</time>
      </trkpt>
      <trkpt lat="40.480033" lon="-5.256950">
        <ele>2652.0</ele>
        <time>2015-08-15T12:27:59Z</time>
      </trkpt>
      <trkpt lat="40.480183" lon="-5.256817">
        <ele>2650.0</ele>
        <time>2015-08-15T12:28:01Z</time>
      </trkpt>
      <trkpt lat="40.480333" lon="-5.256700">
        <ele>2647.0</ele>
        <time>2015-08-15T12:28:03Z</time>
      </trkpt>
      <trkpt lat="40.480517" lon="-5.256583">
        <ele>2645.0</ele>
        <time>2015-08-15T12:28:05Z</time>
      </trkpt>
      <trkpt lat="40.480683" lon="-5.256467">
        <ele>2645.0</ele>
        <time>2015-08-15T12:28:07Z</time>
      </trkpt>
      <trkpt lat="40.480833" lon="-5.256333">
        <ele>2646.0</ele>
        <time>2015-08-15T12:28:09Z</time>
      </trkpt>
      <trkpt lat="40.480983" lon="-5.256183">
        <ele>2646.0</ele>
        <time>2015-08-15T12:28:11Z</time>
      </trkpt>
      <trkpt lat="40.481117" lon="-5.256017">
        <ele>2645.0</ele>
        <time>2015-08-15T12:28:13Z</time>
      </trkpt>
      <trkpt lat="40.481283" lon="-5.255867">
        <ele>2643.0</ele>
        <time>2015-08-15T12:28:15Z</time>
      </trkpt>
      <trkpt lat="40.481433" lon="-5.255700">
        <ele>2641.0</ele>
        <time>2015-08-15T12:28:17Z</time>
      </trkpt>
      <trkpt lat="40.481567" lon="-5.255500">
        <ele>2635.0</ele>
        <time>2015-08-15T12:28:19Z</time>
      </trkpt>
      <trkpt lat="40.481733" lon="-5.255300">
        <ele>2629.0</ele>
        <time>2015-08-15T12:28:21Z</time>
      </trkpt>
      <trkpt lat="40.481867" lon="-5.255133">
        <ele>2626.0</ele>
        <time>2015-08-15T12:28:23Z</time>
      </trkpt>
      <trkpt lat="40.481983" lon="-5.254950">
        <ele>2620.0</ele>
        <time>2015-08-15T12:28:25Z</time>
      </trkpt>
      <trkpt lat="40.482117" lon="-5.254717">
        <ele>2611.0</ele>
        <time>2015-08-15T12:28:27Z</time>
      </trkpt>
      <trkpt lat="40.482250" lon="-5.254517">
        <ele>2605.0</ele>
        <time>2015-08-15T12:28:29Z</time>
      </trkpt>
      <trkpt lat="40.482383" lon="-5.254333">
        <ele>2599.0</ele>
        <time>2015-08-15T12:28:31Z</time>
      </trkpt>
      <trkpt lat="40.482533" lon="-5.254117">
        <ele>2592.0</ele>
        <time>2015-08-15T12:28:33Z</time>
      </trkpt>
      <trkpt lat="40.482667" lon="-5.253900">
        <ele>2586.0</ele>
        <time>2015-08-15T12:28:35Z</time>
      </trkpt>
      <trkpt lat="40.482800" lon="-5.253833">
        <ele>2580.0</ele>
        <time>2015-08-15T12:28:37Z</time>
      </trkpt>
      <trkpt lat="40.482950" lon="-5.253650">
        <ele>2577.0</ele>
        <time>2015-08-15T12:28:39Z</time>
      </trkpt>
      <trkpt lat="40.483083" lon="-5.253467">
        <ele>2578.0</ele>
        <time>2015-08-15T12:28:41Z</time>
      </trkpt>
      <trkpt lat="40.483200" lon="-5.253350">
        <ele>2577.0</ele>
        <time>2015-08-15T12:28:43Z</time>
      </trkpt>
      <trkpt lat="40.483333" lon="-5.253217">
        <ele>2571.0</ele>
        <time>2015-08-15T12:28:45Z</time>
      </trkpt>
      <trkpt lat="40.483467" lon="-5.253050">
        <ele>2568.0</ele>
        <time>2015-08-15T12:28:47Z</time>
      </trkpt>
      <trkpt lat="40.483600" lon="-5.252933">
        <ele>2566.0</ele>
        <time>2015-08-15T12:28:49Z</time>
      </trkpt>
      <trkpt lat="40.483717" lon="-5.252800">
        <ele>2561.0</ele>
        <time>2015-08-15T12:28:51Z</time>
      </trkpt>
      <trkpt lat="40.483850" lon="-5.252633">
        <ele>2556.0</ele>
        <time>2015-08-15T12:28:53Z</time>
      </trkpt>
      <trkpt lat="40.483983" lon="-5.252450">
        <ele>2554.0</ele>
        <time>2015-08-15T12:28:55Z</time>
      </trkpt>
      <trkpt lat="40.484133" lon="-5.252267">
        <ele>2554.0</ele>
        <time>2015-08-15T12:28:57Z</time>
      </trkpt>
      <trkpt lat="40.484250" lon="-5.252133">
        <ele>2551.0</ele>
        <time>2015-08-15T12:28:59Z</time>
      </trkpt>
      <trkpt lat="40.484383" lon="-5.251967">
        <ele>2546.0</ele>
        <time>2015-08-15T12:29:01Z</time>
      </trkpt>
      <trkpt lat="40.484517" lon="-5.251767">
        <ele>2541.0</ele>
        <time>2015-08-15T12:29:03Z</time>
      </trkpt>
      <trkpt lat="40.484650" lon="-5.251583">
        <ele>2539.0</ele>
        <time>2015-08-15T12:29:05Z</time>
      </trkpt>
      <trkpt lat="40.484767" lon="-5.251400">
        <ele>2536.0</ele>
        <time>2015-08-15T12:29:07Z</time>
      </trkpt>
      <trkpt lat="40.484900" lon="-5.251183">
        <ele>2531.0</ele>
        <time>2015-08-15T12:29:09Z</time>
      </trkpt>
      <trkpt lat="40.485050" lon="-5.251000">
        <ele>2527.0</ele>
        <time>2015-08-15T12:29:11Z</time>
      </trkpt>
      <trkpt lat="40.485200" lon="-5.250817">
        <ele>2525.0</ele>
        <time>2015-08-15T12:29:13Z</time>
      </trkpt>
      <trkpt lat="40.485333" lon="-5.250633">
        <ele>2522.0</ele>
        <time>2015-08-15T12:29:15Z</time>
      </trkpt>
      <trkpt lat="40.485483" lon="-5.250450">
        <ele>2520.0</ele>
        <time>2015-08-15T12:29:17Z</time>
      </trkpt>
      <trkpt lat="40.485633" lon="-5.250283">
        <ele>2518.0</ele>
        <time>2015-08-15T12:29:19Z</time>
      </trkpt>
      <trkpt lat="40.485783" lon="-5.250117">
        <ele>2516.0</ele>
        <time>2015-08-15T12:29:21Z</time>
      </trkpt>
      <trkpt lat="40.485933" lon="-5.249933">
        <ele>2514.0</ele>
        <time>2015-08-15T12:29:23Z</time>
      </trkpt>
      <trkpt lat="40.486083" lon="-5.249800">
        <ele>2514.0</ele>
        <time>2015-08-15T12:29:25Z</time>
      </trkpt>
      <trkpt lat="40.486200" lon="-5.249683">
        <ele>2513.0</ele>
        <time>2015-08-15T12:29:27Z</time>
      </trkpt>
      <trkpt lat="40.486333" lon="-5.249533">
        <ele>2508.0</ele>
        <time>2015-08-15T12:29:29Z</time>
      </trkpt>
      <trkpt lat="40.486467" lon="-5.249383">
        <ele>2505.0</ele>
        <time>2015-08-15T12:29:31Z</time>
      </trkpt>
      <trkpt lat="40.486583" lon="-5.249233">
        <ele>2502.0</ele>
        <time>2015-08-15T12:29:33Z</time>
      </trkpt>
      <trkpt lat="40.486717" lon="-5.249083">
        <ele>2497.0</ele>
        <time>2015-08-15T12:29:35Z</time>
      </trkpt>
      <trkpt lat="40.486850" lon="-5.248917">
        <ele>2492.0</ele>
        <time>2015-08-15T12:29:37Z</time>
      </trkpt>
      <trkpt lat="40.486983" lon="-5.248750">
        <ele>2489.0</ele>
        <time>2015-08-15T12:29:39Z</time>
      </trkpt>
      <trkpt lat="40.487117" lon="-5.248600">
        <ele>2485.0</ele>
        <time>2015-08-15T12:29:41Z</time>
      </trkpt>
      <trkpt lat="40.487250" lon="-5.248467">
        <ele>2480.0</ele>
        <time>2015-08-15T12:29:43Z</time>
      </trkpt>
      <trkpt lat="40.487400" lon="-5.248317">
        <ele>2473.0</ele>
        <time>2015-08-15T12:29:45Z</time>
      </trkpt>
      <trkpt lat="40.487567" lon="-5.248167">
        <ele>2469.0</ele>
        <time>2015-08-15T12:29:47Z</time>
      </trkpt>
      <trkpt lat="40.487700" lon="-5.248050">
        <ele>2466.0</ele>
        <time>2015-08-15T12:29:49Z</time>
      </trkpt>
      <trkpt lat="40.487833" lon="-5.247917">
        <ele>2461.0</ele>
        <time>2015-08-15T12:29:51Z</time>
      </trkpt>
      <trkpt lat="40.487967" lon="-5.247767">
        <ele>2455.0</ele>
        <time>2015-08-15T12:29:53Z</time>
      </trkpt>
      <trkpt lat="40.488117" lon="-5.247617">
        <ele>2451.0</ele>
        <time>2015-08-15T12:29:55Z</time>
      </trkpt>
      <trkpt lat="40.488233" lon="-5.247450">
        <ele>2446.0</ele>
        <time>2015-08-15T12:29:57Z</time>
      </trkpt>
      <trkpt lat="40.488367" lon="-5.247283">
        <ele>2439.0</ele>
        <time>2015-08-15T12:29:59Z</time>
      </trkpt>
      <trkpt lat="40.488517" lon="-5.247133">
        <ele>2436.0</ele>
        <time>2015-08-15T12:30:01Z</time>
      </trkpt>
      <trkpt lat="40.488667" lon="-5.246967">
        <ele>2432.0</ele>
        <time>2015-08-15T12:30:03Z</time>
      </trkpt>
      <trkpt lat="40.488833" lon="-5.246800">
        <ele>2428.0</ele>
        <time>2015-08-15T12:30:05Z</time>
      </trkpt>
      <trkpt lat="40.489000" lon="-5.246667">
        <ele>2425.0</ele>
        <time>2015-08-15T12:30:07Z</time>
      </trkpt>
      <trkpt lat="40.489167" lon="-5.246533">
        <ele>2422.0</ele>
        <time>2015-08-15T12:30:09Z</time>
      </trkpt>
      <trkpt lat="40.489317" lon="-5.246417">
        <ele>2418.0</ele>
        <time>2015-08-15T12:30:11Z</time>
      </trkpt>
      <trkpt lat="40.489483" lon="-5.246267">
        <ele>2413.0</ele>
        <time>2015-08-15T12:30:13Z</time>
      </trkpt>
      <trkpt lat="40.489617" lon="-5.246100">
        <ele>2410.0</ele>
        <time>2015-08-15T12:30:15Z</time>
      </trkpt>
      <trkpt lat="40.489750" lon="-5.245967">
        <ele>2406.0</ele>
        <time>2015-08-15T12:30:17Z</time>
      </trkpt>
      <trkpt lat="40.489917" lon="-5.245800">
        <ele>2399.0</ele>
        <time>2015-08-15T12:30:19Z</time>
      </trkpt>
      <trkpt lat="40.490117" lon="-5.245667">
        <ele>2396.0</ele>
        <time>2015-08-15T12:30:21Z</time>
      </trkpt>
      <trkpt lat="40.490283" lon="-5.245533">
        <ele>2392.0</ele>
        <time>2015-08-15T12:30:23Z</time>
      </trkpt>
      <trkpt lat="40.490483" lon="-5.245400">
        <ele>2386.0</ele>
        <time>2015-08-15T12:30:25Z</time>
      </trkpt>
      <trkpt lat="40.490683" lon="-5.245250">
        <ele>2383.0</ele>
        <time>2015-08-15T12:30:27Z</time>
      </trkpt>
      <trkpt lat="40.490850" lon="-5.245083">
        <ele>2381.0</ele>
        <time>2015-08-15T12:30:29Z</time>
      </trkpt>
      <trkpt lat="40.490983" lon="-5.244933">
        <ele>2378.0</ele>
        <time>2015-08-15T12:30:31Z</time>
      </trkpt>
      <trkpt lat="40.491117" lon="-5.244783">
        <ele>2373.0</ele>
        <time>2015-08-15T12:30:33Z</time>
      </trkpt>
      <trkpt lat="40.491300" lon="-5.244617">
        <ele>2367.0</ele>
        <time>2015-08-15T12:30:35Z</time>
      </trkpt>
      <trkpt lat="40.491483" lon="-5.244467">
        <ele>2362.0</ele>
        <time>2015-08-15T12:30:37Z</time>
      </trkpt>
      <trkpt lat="40.491650" lon="-5.244317">
        <ele>2359.0</ele>
        <time>2015-08-15T12:30:39Z</time>
      </trkpt>
      <trkpt lat="40.491817" lon="-5.244150">
        <ele>2357.0</ele>
        <time>2015-08-15T12:30:41Z</time>
      </trkpt>
      <trkpt lat="40.491950" lon="-5.243983">
        <ele>2354.0</ele>
        <time>2015-08-15T12:30:43Z</time>
      </trkpt>
      <trkpt lat="40.492100" lon="-5.243867">
        <ele>2352.0</ele>
        <time>2015-08-15T12:30:45Z</time>
      </trkpt>
      <trkpt lat="40.492233" lon="-5.243767">
        <ele>2349.0</ele>
        <time>2015-08-15T12:30:47Z</time>
      </trkpt>
      <trkpt lat="40.492333" lon="-5.243667">
        <ele>2343.0</ele>
        <time>2015-08-15T12:30:49Z</time>
      </trkpt>
      <trkpt lat="40.492450" lon="-5.243533">
        <ele>2335.0</ele>
        <time>2015-08-15T12:30:51Z</time>
      </trkpt>
      <trkpt lat="40.492600" lon="-5.243383">
        <ele>2328.0</ele>
        <time>2015-08-15T12:30:53Z</time>
      </trkpt>
      <trkpt lat="40.492750" lon="-5.243200">
        <ele>2325.0</ele>
        <time>2015-08-15T12:30:55Z</time>
      </trkpt>
      <trkpt lat="40.492883" lon="-5.243083">
        <ele>2321.0</ele>
        <time>2015-08-15T12:30:57Z</time>
      </trkpt>
      <trkpt lat="40.493033" lon="-5.242950">
        <ele>2316.0</ele>
        <time>2015-08-15T12:30:59Z</time>
      </trkpt>
      <trkpt lat="40.493167" lon="-5.242800">
        <ele>2314.0</ele>
        <time>2015-08-15T12:31:01Z</time>
      </trkpt>
      <trkpt lat="40.493267" lon="-5.242667">
        <ele>2311.0</ele>
        <time>2015-08-15T12:31:03Z</time>
      </trkpt>
      <trkpt lat="40.493350" lon="-5.242517">
        <ele>2305.0</ele>
        <time>2015-08-15T12:31:05Z</time>
      </trkpt>
      <trkpt lat="40.493467" lon="-5.242333">
        <ele>2298.0</ele>
        <time>2015-08-15T12:31:07Z</time>
      </trkpt>
      <trkpt lat="40.493583" lon="-5.242150">
        <ele>2296.0</ele>
        <time>2015-08-15T12:31:09Z</time>
      </trkpt>
      <trkpt lat="40.493683" lon="-5.242000">
        <ele>2293.0</ele>
        <time>2015-08-15T12:31:11Z</time>
      </trkpt>
      <trkpt lat="40.493800" lon="-5.241817">
        <ele>2288.0</ele>
        <time>2015-08-15T12:31:13Z</time>
      </trkpt>
      <trkpt lat="40.493933" lon="-5.241617">
        <ele>2285.0</ele>
        <time>2015-08-15T12:31:15Z</time>
      </trkpt>
      <trkpt lat="40.494067" lon="-5.241450">
        <ele>2283.0</ele>
        <time>2015-08-15T12:31:17Z</time>
      </trkpt>
      <trkpt lat="40.494200" lon="-5.241283">
        <ele>2280.0</ele>
        <time>2015-08-15T12:31:19Z</time>
      </trkpt>
      <trkpt lat="40.494350" lon="-5.241083">
        <ele>2276.0</ele>
        <time>2015-08-15T12:31:21Z</time>
      </trkpt>
      <trkpt lat="40.494483" lon="-5.240900">
        <ele>2276.0</ele>
        <time>2015-08-15T12:31:23Z</time>
      </trkpt>
      <trkpt lat="40.494617" lon="-5.240750">
        <ele>2273.0</ele>
        <time>2015-08-15T12:31:25Z</time>
      </trkpt>
      <trkpt lat="40.494767" lon="-5.240567">
        <ele>2271.0</ele>
        <time>2015-08-15T12:31:27Z</time>
      </trkpt>
      <trkpt lat="40.494900" lon="-5.240417">
        <ele>2269.0</ele>
        <time>2015-08-15T12:31:29Z</time>
      </trkpt>
      <trkpt lat="40.495050" lon="-5.240267">
        <ele>2265.0</ele>
        <time>2015-08-15T12:31:31Z</time>
      </trkpt>
      <trkpt lat="40.495217" lon="-5.240067">
        <ele>2263.0</ele>
        <time>2015-08-15T12:31:33Z</time>
      </trkpt>
      <trkpt lat="40.495367" lon="-5.239900">
        <ele>2265.0</ele>
        <time>2015-08-15T12:31:35Z</time>
      </trkpt>
      <trkpt lat="40.495483" lon="-5.239767">
        <ele>2267.0</ele>
        <time>2015-08-15T12:31:37Z</time>
      </trkpt>
      <trkpt lat="40.495600" lon="-5.239633">
        <ele>2268.0</ele>
        <time>2015-08-15T12:31:39Z</time>
      </trkpt>
      <trkpt lat="40.495700" lon="-5.239467">
        <ele>2267.0</ele>
        <time>2015-08-15T12:31:41Z</time>
      </trkpt>
      <trkpt lat="40.495833" lon="-5.239300">
        <ele>2265.0</ele>
        <time>2015-08-15T12:31:43Z</time>
      </trkpt>
      <trkpt lat="40.495983" lon="-5.239183">
        <ele>2265.0</ele>
        <time>2015-08-15T12:31:45Z</time>
      </trkpt>
      <trkpt lat="40.496167" lon="-5.239017">
        <ele>2266.0</ele>
        <time>2015-08-15T12:31:47Z</time>
      </trkpt>
      <trkpt lat="40.496333" lon="-5.238833">
        <ele>2272.0</ele>
        <time>2015-08-15T12:31:49Z</time>
      </trkpt>
      <trkpt lat="40.496483" lon="-5.238683">
        <ele>2280.0</ele>
        <time>2015-08-15T12:31:51Z</time>
      </trkpt>
      <trkpt lat="40.496617" lon="-5.238500">
        <ele>2286.0</ele>
        <time>2015-08-15T12:31:53Z</time>
      </trkpt>
      <trkpt lat="40.496717" lon="-5.238267">
        <ele>2291.0</ele>
        <time>2015-08-15T12:31:55Z</time>
      </trkpt>
      <trkpt lat="40.496717" lon="-5.238017">
        <ele>2296.0</ele>
        <time>2015-08-15T12:31:57Z</time>
      </trkpt>
      <trkpt lat="40.496600" lon="-5.237783">
        <ele>2300.0</ele>
        <time>2015-08-15T12:31:59Z</time>
      </trkpt>
      <trkpt lat="40.496433" lon="-5.237667">
        <ele>2308.0</ele>
        <time>2015-08-15T12:32:01Z</time>
      </trkpt>
      <trkpt lat="40.496250" lon="-5.237667">
        <ele>2316.0</ele>
        <time>2015-08-15T12:32:03Z</time>
      </trkpt>
      <trkpt lat="40.496100" lon="-5.237767">
        <ele>2323.0</ele>
        <time>2015-08-15T12:32:05Z</time>
      </trkpt>
      <trkpt lat="40.496017" lon="-5.237967">
        <ele>2329.0</ele>
        <time>2015-08-15T12:32:07Z</time>
      </trkpt>
      <trkpt lat="40.496000" lon="-5.238183">
        <ele>2339.0</ele>
        <time>2015-08-15T12:32:09Z</time>
      </trkpt>
      <trkpt lat="40.496050" lon="-5.238367">
        <ele>2348.0</ele>
        <time>2015-08-15T12:32:11Z</time>
      </trkpt>
      <trkpt lat="40.496150" lon="-5.238517">
        <ele>2355.0</ele>
        <time>2015-08-15T12:32:13Z</time>
      </trkpt>
      <trkpt lat="40.496283" lon="-5.238617">
        <ele>2362.0</ele>
        <time>2015-08-15T12:32:15Z</time>
      </trkpt>
      <trkpt lat="40.496450" lon="-5.238583">
        <ele>2368.0</ele>
        <time>2015-08-15T12:32:17Z</time>
      </trkpt>
      <trkpt lat="40.496617" lon="-5.238483">
        <ele>2373.0</ele>
        <time>2015-08-15T12:32:19Z</time>
      </trkpt>
      <trkpt lat="40.496750" lon="-5.238317">
        <ele>2379.0</ele>
        <time>2015-08-15T12:32:21Z</time>
      </trkpt>
      <trkpt lat="40.496833" lon="-5.238083">
        <ele>2383.0</ele>
        <time>2015-08-15T12:32:23Z</time>
      </trkpt>
      <trkpt lat="40.496867" lon="-5.237800">
        <ele>2387.0</ele>
        <time>2015-08-15T12:32:25Z</time>
      </trkpt>
      <trkpt lat="40.496800" lon="-5.237533">
        <ele>2391.0</ele>
        <time>2015-08-15T12:32:27Z</time>
      </trkpt>
      <trkpt lat="40.496667" lon="-5.237333">
        <ele>2393.0</ele>
        <time>2015-08-15T12:32:29Z</time>
      </trkpt>
      <trkpt lat="40.496483" lon="-5.237183">
        <ele>2397.0</ele>
        <time>2015-08-15T12:32:31Z</time>
      </trkpt>
      <trkpt lat="40.496283" lon="-5.237150">
        <ele>2401.0</ele>
        <time>2015-08-15T12:32:33Z</time>
      </trkpt>
      <trkpt lat="40.496117" lon="-5.237233">
        <ele>2407.0</ele>
        <time>2015-08-15T12:32:35Z</time>
      </trkpt>
      <trkpt lat="40.495983" lon="-5.237400">
        <ele>2416.0</ele>
        <time>2015-08-15T12:32:37Z</time>
      </trkpt>
      <trkpt lat="40.495950" lon="-5.237583">
        <ele>2424.0</ele>
        <time>2015-08-15T12:32:39Z</time>
      </trkpt>
      <trkpt lat="40.495967" lon="-5.237767">
        <ele>2428.0</ele>
        <time>2015-08-15T12:32:41Z</time>
      </trkpt>
      <trkpt lat="40.496067" lon="-5.237933">
        <ele>2433.0</ele>
        <time>2015-08-15T12:32:43Z</time>
      </trkpt>
      <trkpt lat="40.496267" lon="-5.238000">
        <ele>2438.0</ele>
        <time>2015-08-15T12:32:45Z</time>
      </trkpt>
      <trkpt lat="40.496450" lon="-5.237933">
        <ele>2445.0</ele>
        <time>2015-08-15T12:32:47Z</time>
      </trkpt>
      <trkpt lat="40.496583" lon="-5.237833">
        <ele>2451.0</ele>
        <time>2015-08-15T12:32:49Z</time>
      </trkpt>
      <trkpt lat="40.496733" lon="-5.237683">
        <ele>2454.0</ele>
        <time>2015-08-15T12:32:51Z</time>
      </trkpt>
      <trkpt lat="40.496833" lon="-5.237450">
        <ele>2459.0</ele>
        <time>2015-08-15T12:32:53Z</time>
      </trkpt>
      <trkpt lat="40.496833" lon="-5.237200">
        <ele>2466.0</ele>
        <time>2015-08-15T12:32:55Z</time>
      </trkpt>
      <trkpt lat="40.496800" lon="-5.236950">
        <ele>2469.0</ele>
        <time>2015-08-15T12:32:57Z</time>
      </trkpt>
      <trkpt lat="40.496717" lon="-5.236683">
        <ele>2470.0</ele>
        <time>2015-08-15T12:32:59Z</time>
      </trkpt>
      <trkpt lat="40.496550" lon="-5.236483">
        <ele>2474.0</ele>
        <time>2015-08-15T12:33:01Z</time>
      </trkpt>
      <trkpt lat="40.496350" lon="-5.236417">
        <ele>2476.0</ele>
        <time>2015-08-15T12:33:03Z</time>
      </trkpt>
      <trkpt lat="40.496150" lon="-5.236450">
        <ele>2479.0</ele>
        <time>2015-08-15T12:33:05Z</time>
      </trkpt>
      <trkpt lat="40.496000" lon="-5.236583">
        <ele>2482.0</ele>
        <time>2015-08-15T12:33:07Z</time>
      </trkpt>
      <trkpt lat="40.495917" lon="-5.236767">
        <ele>2485.0</ele>
        <time>2015-08-15T12:33:09Z</time>
      </trkpt>
      <trkpt lat="40.495883" lon="-5.236983">
        <ele>2489.0</ele>
        <time>2015-08-15T12:33:11Z</time>
      </trkpt>
      <trkpt lat="40.495967" lon="-5.237183">
        <ele>2494.0</ele>
        <time>2015-08-15T12:33:13Z</time>
      </trkpt>
      <trkpt lat="40.496100" lon="-5.237317">
        <ele>2504.0</ele>
        <time>2015-08-15T12:33:15Z</time>
      </trkpt>
      <trkpt lat="40.496200" lon="-5.237383">
        <ele>2510.0</ele>
        <time>2015-08-15T12:33:17Z</time>
      </trkpt>
      <trkpt lat="40.496367" lon="-5.237400">
        <ele>2512.0</ele>
        <time>2015-08-15T12:33:19Z</time>
      </trkpt>
      <trkpt lat="40.496550" lon="-5.237367">
        <ele>2517.0</ele>
        <time>2015-08-15T12:33:21Z</time>
      </trkpt>
      <trkpt lat="40.496683" lon="-5.237300">
        <ele>2525.0</ele>
        <time>2015-08-15T12:33:23Z</time>
      </trkpt>
      <trkpt lat="40.496783" lon="-5.237183">
        <ele>2528.0</ele>
        <time>2015-08-15T12:33:25Z</time>
      </trkpt>
      <trkpt lat="40.496867" lon="-5.236967">
        <ele>2530.0</ele>
        <time>2015-08-15T12:33:27Z</time>
      </trkpt>
      <trkpt lat="40.496883" lon="-5.236717">
        <ele>2535.0</ele>
        <time>2015-08-15T12:33:29Z</time>
      </trkpt>
      <trkpt lat="40.496817" lon="-5.236467">
        <ele>2539.0</ele>
        <time>2015-08-15T12:33:31Z</time>
      </trkpt>
      <trkpt lat="40.496667" lon="-5.236267">
        <ele>2542.0</ele>
        <time>2015-08-15T12:33:33Z</time>
      </trkpt>
      <trkpt lat="40.496467" lon="-5.236133">
        <ele>2545.0</ele>
        <time>2015-08-15T12:33:35Z</time>
      </trkpt>
      <trkpt lat="40.496283" lon="-5.236117">
        <ele>2551.0</ele>
        <time>2015-08-15T12:33:37Z</time>
      </trkpt>
      <trkpt lat="40.496117" lon="-5.236183">
        <ele>2553.0</ele>
        <time>2015-08-15T12:33:39Z</time>
      </trkpt>
      <trkpt lat="40.496000" lon="-5.236350">
        <ele>2553.0</ele>
        <time>2015-08-15T12:33:41Z</time>
      </trkpt>
      <trkpt lat="40.495950" lon="-5.236533">
        <ele>2558.0</ele>
        <time>2015-08-15T12:33:43Z</time>
      </trkpt>
      <trkpt lat="40.496000" lon="-5.236683">
        <ele>2562.0</ele>
        <time>2015-08-15T12:33:45Z</time>
      </trkpt>
      <trkpt lat="40.496067" lon="-5.236817">
        <ele>2565.0</ele>
        <time>2015-08-15T12:33:47Z</time>
      </trkpt>
      <trkpt lat="40.496167" lon="-5.236900">
        <ele>2567.0</ele>
        <time>2015-08-15T12:33:49Z</time>
      </trkpt>
      <trkpt lat="40.496333" lon="-5.236883">
        <ele>2570.0</ele>
        <time>2015-08-15T12:33:51Z</time>
      </trkpt>
      <trkpt lat="40.496483" lon="-5.236850">
        <ele>2576.0</ele>
        <time>2015-08-15T12:33:53Z</time>
      </trkpt>
      <trkpt lat="40.496617" lon="-5.236767">
        <ele>2580.0</ele>
        <time>2015-08-15T12:33:55Z</time>
      </trkpt>
      <trkpt lat="40.496750" lon="-5.236600">
        <ele>2582.0</ele>
        <time>2015-08-15T12:33:57Z</time>
      </trkpt>
      <trkpt lat="40.496817" lon="-5.236383">
        <ele>2585.0</ele>
        <time>2015-08-15T12:33:59Z</time>
      </trkpt>
      <trkpt lat="40.496833" lon="-5.236133">
        <ele>2587.0</ele>
        <time>2015-08-15T12:34:01Z</time>
      </trkpt>
      <trkpt lat="40.496783" lon="-5.235883">
        <ele>2589.0</ele>
        <time>2015-08-15T12:34:03Z</time>
      </trkpt>
      <trkpt lat="40.496650" lon="-5.235650">
        <ele>2591.0</ele>
        <time>2015-08-15T12:34:05Z</time>
      </trkpt>
      <trkpt lat="40.496483" lon="-5.235517">
        <ele>2594.0</ele>
        <time>2015-08-15T12:34:07Z</time>
      </trkpt>
      <trkpt lat="40.496283" lon="-5.235500">
        <ele>2596.0</ele>
        <time>2015-08-15T12:34:09Z</time>
      </trkpt>
      <trkpt lat="40.496100" lon="-5.235567">
        <ele>2598.0</ele>
        <time>2015-08-15T12:34:11Z</time>
      </trkpt>
      <trkpt lat="40.495967" lon="-5.235717">
        <ele>2601.0</ele>
        <time>2015-08-15T12:34:13Z</time>
      </trkpt>
      <trkpt lat="40.495883" lon="-5.235867">
        <ele>2607.0</ele>
        <time>2015-08-15T12:34:15Z</time>
      </trkpt>
      <trkpt lat="40.495900" lon="-5.236033">
        <ele>2611.0</ele>
        <time>2015-08-15T12:34:17Z</time>
      </trkpt>
      <trkpt lat="40.495983" lon="-5.236133">
        <ele>2613.0</ele>
        <time>2015-08-15T12:34:19Z</time>
      </trkpt>
      <trkpt lat="40.496133" lon="-5.236133">
        <ele>2614.0</ele>
        <time>2015-08-15T12:34:21Z</time>
      </trkpt>
      <trkpt lat="40.496283" lon="-5.236033">
        <ele>2616.0</ele>
        <time>2015-08-15T12:34:23Z</time>
      </trkpt>
      <trkpt lat="40.496383" lon="-5.235867">
        <ele>2619.0</ele>
        <time>2015-08-15T12:34:25Z</time>
      </trkpt>
      <trkpt lat="40.496450" lon="-5.235650">
        <ele>2620.0</ele>
        <time>2015-08-15T12:34:27Z</time>
      </trkpt>
      <trkpt lat="40.496467" lon="-5.235417">
        <ele>2622.0</ele>
        <time>2015-08-15T12:34:29Z</time>
      </trkpt>
      <trkpt lat="40.496400" lon="-5.235167">
        <ele>2622.0</ele>
        <time>2015-08-15T12:34:31Z</time>
      </trkpt>
      <trkpt lat="40.496267" lon="-5.234933">
        <ele>2623.0</ele>
        <time>2015-08-15T12:34:33Z</time>
      </trkpt>
      <trkpt lat="40.496100" lon="-5.234767">
        <ele>2626.0</ele>
        <time>2015-08-15T12:34:35Z</time>
      </trkpt>
      <trkpt lat="40.495900" lon="-5.234750">
        <ele>2627.0</ele>
        <time>2015-08-15T12:34:37Z</time>
      </trkpt>
      <trkpt lat="40.495717" lon="-5.234883">
        <ele>2630.0</ele>
        <time>2015-08-15T12:34:39Z</time>
      </trkpt>
      <trkpt lat="40.495583" lon="-5.235017">
        <ele>2639.0</ele>
        <time>2015-08-15T12:34:41Z</time>
      </trkpt>
      <trkpt lat="40.495517" lon="-5.235183">
        <ele>2644.0</ele>
        <time>2015-08-15T12:34:43Z</time>
      </trkpt>
      <trkpt lat="40.495483" lon="-5.235383">
        <ele>2644.0</ele>
        <time>2015-08-15T12:34:45Z</time>
      </trkpt>
      <trkpt lat="40.495567" lon="-5.235567">
        <ele>2647.0</ele>
        <time>2015-08-15T12:34:47Z</time>
      </trkpt>
      <trkpt lat="40.495717" lon="-5.235617">
        <ele>2650.0</ele>
        <time>2015-08-15T12:34:49Z</time>
      </trkpt>
      <trkpt lat="40.495883" lon="-5.235617">
        <ele>2653.0</ele>
        <time>2015-08-15T12:34:51Z</time>
      </trkpt>
      <trkpt lat="40.496017" lon="-5.235583">
        <ele>2655.0</ele>
        <time>2015-08-15T12:34:53Z</time>
      </trkpt>
      <trkpt lat="40.496200" lon="-5.235517">
        <ele>2652.0</ele>
        <time>2015-08-15T12:34:55Z</time>
      </trkpt>
      <trkpt lat="40.496367" lon="-5.235483">
        <ele>2652.0</ele>
        <time>2015-08-15T12:34:57Z</time>
      </trkpt>
      <trkpt lat="40.496533" lon="-5.235483">
        <ele>2655.0</ele>
        <time>2015-08-15T12:34:59Z</time>
      </trkpt>
      <trkpt lat="40.496683" lon="-5.235417">
        <ele>2655.0</ele>
        <time>2015-08-15T12:35:01Z</time>
      </trkpt>
      <trkpt lat="40.496850" lon="-5.235333">
        <ele>2654.0</ele>
        <time>2015-08-15T12:35:03Z</time>
      </trkpt>
      <trkpt lat="40.496983" lon="-5.235217">
        <ele>2652.0</ele>
        <time>2015-08-15T12:35:05Z</time>
      </trkpt>
      <trkpt lat="40.497133" lon="-5.235050">
        <ele>2648.0</ele>
        <time>2015-08-15T12:35:07Z</time>
      </trkpt>
      <trkpt lat="40.497300" lon="-5.234917">
        <ele>2644.0</ele>
        <time>2015-08-15T12:35:09Z</time>
      </trkpt>
      <trkpt lat="40.497467" lon="-5.234800">
        <ele>2641.0</ele>
        <time>2015-08-15T12:35:11Z</time>
      </trkpt>
      <trkpt lat="40.497633" lon="-5.234667">
        <ele>2638.0</ele>
        <time>2015-08-15T12:35:13Z</time>
      </trkpt>
      <trkpt lat="40.497783" lon="-5.234533">
        <ele>2637.0</ele>
        <time>2015-08-15T12:35:15Z</time>
      </trkpt>
      <trkpt lat="40.497900" lon="-5.234350">
        <ele>2632.0</ele>
        <time>2015-08-15T12:35:17Z</time>
      </trkpt>
      <trkpt lat="40.498033" lon="-5.234150">
        <ele>2628.0</ele>
        <time>2015-08-15T12:35:19Z</time>
      </trkpt>
      <trkpt lat="40.498167" lon="-5.233983">
        <ele>2625.0</ele>
        <time>2015-08-15T12:35:21Z</time>
      </trkpt>
      <trkpt lat="40.498300" lon="-5.233817">
        <ele>2621.0</ele>
        <time>2015-08-15T12:35:23Z</time>
      </trkpt>
      <trkpt lat="40.498450" lon="-5.233650">
        <ele>2616.0</ele>
        <time>2015-08-15T12:35:25Z</time>
      </trkpt>
      <trkpt lat="40.498583" lon="-5.233467">
        <ele>2613.0</ele>
        <time>2015-08-15T12:35:27Z</time>
      </trkpt>
      <trkpt lat="40.498700" lon="-5.233283">
        <ele>2610.0</ele>
        <time>2015-08-15T12:35:29Z</time>
      </trkpt>
      <trkpt lat="40.498833" lon="-5.233133">
        <ele>2606.0</ele>
        <time>2015-08-15T12:35:31Z</time>
      </trkpt>
      <trkpt lat="40.498950" lon="-5.232967">
        <ele>2601.0</ele>
        <time>2015-08-15T12:35:33Z</time>
      </trkpt>
      <trkpt lat="40.499100" lon="-5.232783">
        <ele>2597.0</ele>
        <time>2015-08-15T12:35:35Z</time>
      </trkpt>
      <trkpt lat="40.499250" lon="-5.232600">
        <ele>2597.0</ele>
        <time>2015-08-15T12:35:37Z</time>
      </trkpt>
      <trkpt lat="40.499383" lon="-5.232450">
        <ele>2598.0</ele>
        <time>2015-08-15T12:35:39Z</time>
      </trkpt>
      <trkpt lat="40.499517" lon="-5.232283">
        <ele>2599.0</ele>
        <time>2015-08-15T12:35:41Z</time>
      </trkpt>
      <trkpt lat="40.499650" lon="-5.232133">
        <ele>2603.0</ele>
        <time>2015-08-15T12:35:43Z</time>
      </trkpt>
      <trkpt lat="40.499733" lon="-5.231983">
        <ele>2607.0</ele>
        <time>2015-08-15T12:35:45Z</time>
      </trkpt>
      <trkpt lat="40.499817" lon="-5.231800">
        <ele>2607.0</ele>
        <time>2015-08-15T12:35:47Z</time>
      </trkpt>
      <trkpt lat="40.499917" lon="-5.231550">
        <ele>2605.0</ele>
        <time>2015-08-15T12:35:49Z</time>
      </trkpt>
      <trkpt lat="40.500033" lon="-5.231350">
        <ele>2607.0</ele>
        <time>2015-08-15T12:35:51Z</time>
      </trkpt>
      <trkpt lat="40.500133" lon="-5.231183">
        <ele>2607.0</ele>
        <time>2015-08-15T12:35:53Z</time>
      </trkpt>
      <trkpt lat="40.500283" lon="-5.231017">
        <ele>2605.0</ele>
        <time>2015-08-15T12:35:55Z</time>
      </trkpt>
      <trkpt lat="40.500450" lon="-5.230833">
        <ele>2606.0</ele>
        <time>2015-08-15T12:35:57Z</time>
      </trkpt>
      <trkpt lat="40.500583" lon="-5.230683">
        <ele>2608.0</ele>
        <time>2015-08-15T12:35:59Z</time>
      </trkpt>
      <trkpt lat="40.500733" lon="-5.230517">
        <ele>2605.0</ele>
        <time>2015-08-15T12:36:01Z</time>
      </trkpt>
      <trkpt lat="40.500917" lon="-5.230350">
        <ele>2606.0</ele>
        <time>2015-08-15T12:36:03Z</time>
      </trkpt>
      <trkpt lat="40.501067" lon="-5.230217">
        <ele>2608.0</ele>
        <time>2015-08-15T12:36:05Z</time>
      </trkpt>
      <trkpt lat="40.501200" lon="-5.230050">
        <ele>2607.0</ele>
        <time>2015-08-15T12:36:07Z</time>
      </trkpt>
      <trkpt lat="40.501367" lon="-5.229867">
        <ele>2606.0</ele>
        <time>2015-08-15T12:36:09Z</time>
      </trkpt>
      <trkpt lat="40.501533" lon="-5.229683">
        <ele>2607.0</ele>
        <time>2015-08-15T12:36:11Z</time>
      </trkpt>
      <trkpt lat="40.501667" lon="-5.229500">
        <ele>2607.0</ele>
        <time>2015-08-15T12:36:13Z</time>
      </trkpt>
      <trkpt lat="40.501817" lon="-5.229300">
        <ele>2605.0</ele>
        <time>2015-08-15T12:36:15Z</time>
      </trkpt>
      <trkpt lat="40.501967" lon="-5.229067">
        <ele>2605.0</ele>
        <time>2015-08-15T12:36:17Z</time>
      </trkpt>
      <trkpt lat="40.502117" lon="-5.228867">
        <ele>2607.0</ele>
        <time>2015-08-15T12:36:19Z</time>
      </trkpt>
      <trkpt lat="40.502233" lon="-5.228683">
        <ele>2606.0</ele>
        <time>2015-08-15T12:36:21Z</time>
      </trkpt>
      <trkpt lat="40.502383" lon="-5.228500">
        <ele>2605.0</ele>
        <time>2015-08-15T12:36:23Z</time>
      </trkpt>
      <trkpt lat="40.502533" lon="-5.228317">
        <ele>2605.0</ele>
        <time>2015-08-15T12:36:25Z</time>
      </trkpt>
      <trkpt lat="40.502667" lon="-5.228150">
        <ele>2604.0</ele>
        <time>2015-08-15T12:36:27Z</time>
      </trkpt>
      <trkpt lat="40.502833" lon="-5.227950">
        <ele>2602.0</ele>
        <time>2015-08-15T12:36:29Z</time>
      </trkpt>
      <trkpt lat="40.502983" lon="-5.227767">
        <ele>2603.0</ele>
        <time>2015-08-15T12:36:31Z</time>
      </trkpt>
      <trkpt lat="40.503133" lon="-5.227583">
        <ele>2604.0</ele>
        <time>2015-08-15T12:36:33Z</time>
      </trkpt>
      <trkpt lat="40.503267" lon="-5.227417">
        <ele>2601.0</ele>
        <time>2015-08-15T12:36:35Z</time>
      </trkpt>
      <trkpt lat="40.503417" lon="-5.227233">
        <ele>2600.0</ele>
        <time>2015-08-15T12:36:37Z</time>
      </trkpt>
      <trkpt lat="40.503550" lon="-5.227050">
        <ele>2600.0</ele>
        <time>2015-08-15T12:36:39Z</time>
      </trkpt>
      <trkpt lat="40.503650" lon="-5.226867">
        <ele>2599.0</ele>
        <time>2015-08-15T12:36:41Z</time>
      </trkpt>
      <trkpt lat="40.503767" lon="-5.226700">
        <ele>2597.0</ele>
        <time>2015-08-15T12:36:43Z</time>
      </trkpt>
      <trkpt lat="40.503900" lon="-5.226533">
        <ele>2595.0</ele>
        <time>2015-08-15T12:36:45Z</time>
      </trkpt>
      <trkpt lat="40.504033" lon="-5.226367">
        <ele>2594.0</ele>
        <time>2015-08-15T12:36:47Z</time>
      </trkpt>
      <trkpt lat="40.504150" lon="-5.226183">
        <ele>2592.0</ele>
        <time>2015-08-15T12:36:49Z</time>
      </trkpt>
      <trkpt lat="40.504250" lon="-5.226017">
        <ele>2591.0</ele>
        <time>2015-08-15T12:36:51Z</time>
      </trkpt>
      <trkpt lat="40.504367" lon="-5.225817">
        <ele>2589.0</ele>
        <time>2015-08-15T12:36:53Z</time>
      </trkpt>
      <trkpt lat="40.504483" lon="-5.225633">
        <ele>2585.0</ele>
        <time>2015-08-15T12:36:55Z</time>
      </trkpt>
      <trkpt lat="40.504600" lon="-5.225450">
        <ele>2583.0</ele>
        <time>2015-08-15T12:36:57Z</time>
      </trkpt>
      <trkpt lat="40.504717" lon="-5.225250">
        <ele>2580.0</ele>
        <time>2015-08-15T12:36:59Z</time>
      </trkpt>
      <trkpt lat="40.504833" lon="-5.225067">
        <ele>2576.0</ele>
        <time>2015-08-15T12:37:01Z</time>
      </trkpt>
      <trkpt lat="40.504967" lon="-5.224867">
        <ele>2572.0</ele>
        <time>2015-08-15T12:37:03Z</time>
      </trkpt>
      <trkpt lat="40.505083" lon="-5.224683">
        <ele>2569.0</ele>
        <time>2015-08-15T12:37:05Z</time>
      </trkpt>
      <trkpt lat="40.505217" lon="-5.224533">
        <ele>2563.0</ele>
        <time>2015-08-15T12:37:07Z</time>
      </trkpt>
      <trkpt lat="40.505350" lon="-5.224367">
        <ele>2558.0</ele>
        <time>2015-08-15T12:37:09Z</time>
      </trkpt>
      <trkpt lat="40.505483" lon="-5.224183">
        <ele>2553.0</ele>
        <time>2015-08-15T12:37:11Z</time>
      </trkpt>
      <trkpt lat="40.505633" lon="-5.224000">
        <ele>2546.0</ele>
        <time>2015-08-15T12:37:13Z</time>
      </trkpt>
      <trkpt lat="40.505783" lon="-5.223767">
        <ele>2539.0</ele>
        <time>2015-08-15T12:37:15Z</time>
      </trkpt>
      <trkpt lat="40.505933" lon="-5.223533">
        <ele>2534.0</ele>
        <time>2015-08-15T12:37:17Z</time>
      </trkpt>
      <trkpt lat="40.506067" lon="-5.223317">
        <ele>2530.0</ele>
        <time>2015-08-15T12:37:19Z</time>
      </trkpt>
      <trkpt lat="40.506183" lon="-5.223083">
        <ele>2524.0</ele>
        <time>2015-08-15T12:37:21Z</time>
      </trkpt>
      <trkpt lat="40.506317" lon="-5.222850">
        <ele>2519.0</ele>
        <time>2015-08-15T12:37:23Z</time>
      </trkpt>
      <trkpt lat="40.506450" lon="-5.222617">
        <ele>2513.0</ele>
        <time>2015-08-15T12:37:25Z</time>
      </trkpt>
      <trkpt lat="40.506600" lon="-5.222383">
        <ele>2509.0</ele>
        <time>2015-08-15T12:37:27Z</time>
      </trkpt>
      <trkpt lat="40.506733" lon="-5.222167">
        <ele>2505.0</ele>
        <time>2015-08-15T12:37:29Z</time>
      </trkpt>
      <trkpt lat="40.506867" lon="-5.221950">
        <ele>2502.0</ele>
        <time>2015-08-15T12:37:31Z</time>
      </trkpt>
      <trkpt lat="40.506983" lon="-5.221767">
        <ele>2502.0</ele>
        <time>2015-08-15T12:37:33Z</time>
      </trkpt>
      <trkpt lat="40.507100" lon="-5.221617">
        <ele>2499.0</ele>
        <time>2015-08-15T12:37:35Z</time>
      </trkpt>
      <trkpt lat="40.507217" lon="-5.221433">
        <ele>2492.0</ele>
        <time>2015-08-15T12:37:37Z</time>
      </trkpt>
      <trkpt lat="40.507367" lon="-5.221183">
        <ele>2487.0</ele>
        <time>2015-08-15T12:37:39Z</time>
      </trkpt>
      <trkpt lat="40.507483" lon="-5.220967">
        <ele>2485.0</ele>
        <time>2015-08-15T12:37:41Z</time>
      </trkpt>
      <trkpt lat="40.507633" lon="-5.220767">
        <ele>2481.0</ele>
        <time>2015-08-15T12:37:43Z</time>
      </trkpt>
      <trkpt lat="40.507767" lon="-5.220600">
        <ele>2478.0</ele>
        <time>2015-08-15T12:37:45Z</time>
      </trkpt>
      <trkpt lat="40.507917" lon="-5.220433">
        <ele>2474.0</ele>
        <time>2015-08-15T12:37:47Z</time>
      </trkpt>
      <trkpt lat="40.508067" lon="-5.220283">
        <ele>2471.0</ele>
        <time>2015-08-15T12:37:49Z</time>
      </trkpt>
      <trkpt lat="40.508183" lon="-5.220133">
        <ele>2468.0</ele>
        <time>2015-08-15T12:37:51Z</time>
      </trkpt>
      <trkpt lat="40.508300" lon="-5.219967">
        <ele>2465.0</ele>
        <time>2015-08-15T12:37:53Z</time>
      </trkpt>
      <trkpt lat="40.508417" lon="-5.219800">
        <ele>2461.0</ele>
        <time>2015-08-15T12:37:55Z</time>
      </trkpt>
      <trkpt lat="40.508533" lon="-5.219633">
        <ele>2458.0</ele>
        <time>2015-08-15T12:37:57Z</time>
      </trkpt>
      <trkpt lat="40.508633" lon="-5.219483">
        <ele>2455.0</ele>
        <time>2015-08-15T12:37:59Z</time>
      </trkpt>
      <trkpt lat="40.508750" lon="-5.219317">
        <ele>2451.0</ele>
        <time>2015-08-15T12:38:01Z</time>
      </trkpt>
      <trkpt lat="40.508850" lon="-5.219167">
        <ele>2449.0</ele>
        <time>2015-08-15T12:38:03Z</time>
      </trkpt>
      <trkpt lat="40.508950" lon="-5.219000">
        <ele>2446.0</ele>
        <time>2015-08-15T12:38:05Z</time>
      </trkpt>
      <trkpt lat="40.509067" lon="-5.218850">
        <ele>2442.0</ele>
        <time>2015-08-15T12:38:07Z</time>
      </trkpt>
      <trkpt lat="40.509183" lon="-5.218717">
        <ele>2438.0</ele>
        <time>2015-08-15T12:38:09Z</time>
      </trkpt>
      <trkpt lat="40.509300" lon="-5.218550">
        <ele>2434.0</ele>
        <time>2015-08-15T12:38:11Z</time>
      </trkpt>
      <trkpt lat="40.509417" lon="-5.218367">
        <ele>2431.0</ele>
        <time>2015-08-15T12:38:13Z</time>
      </trkpt>
      <trkpt lat="40.509517" lon="-5.218217">
        <ele>2426.0</ele>
        <time>2015-08-15T12:38:15Z</time>
      </trkpt>
      <trkpt lat="40.509650" lon="-5.218000">
        <ele>2421.0</ele>
        <time>2015-08-15T12:38:17Z</time>
      </trkpt>
      <trkpt lat="40.509767" lon="-5.217800">
        <ele>2417.0</ele>
        <time>2015-08-15T12:38:19Z</time>
      </trkpt>
      <trkpt lat="40.509883" lon="-5.217583">
        <ele>2412.0</ele>
        <time>2015-08-15T12:38:21Z</time>
      </trkpt>
      <trkpt lat="40.510033" lon="-5.217350">
        <ele>2408.0</ele>
        <time>2015-08-15T12:38:23Z</time>
      </trkpt>
      <trkpt lat="40.510167" lon="-5.217117">
        <ele>2410.0</ele>
        <time>2015-08-15T12:38:25Z</time>
      </trkpt>
      <trkpt lat="40.510283" lon="-5.216950">
        <ele>2412.0</ele>
        <time>2015-08-15T12:38:27Z</time>
      </trkpt>
      <trkpt lat="40.510417" lon="-5.216767">
        <ele>2411.0</ele>
        <time>2015-08-15T12:38:29Z</time>
      </trkpt>
      <trkpt lat="40.510550" lon="-5.216550">
        <ele>2413.0</ele>
        <time>2015-08-15T12:38:31Z</time>
      </trkpt>
      <trkpt lat="40.510683" lon="-5.216367">
        <ele>2415.0</ele>
        <time>2015-08-15T12:38:33Z</time>
      </trkpt>
      <trkpt lat="40.510800" lon="-5.216183">
        <ele>2417.0</ele>
        <time>2015-08-15T12:38:35Z</time>
      </trkpt>
      <trkpt lat="40.510900" lon="-5.215950">
        <ele>2420.0</ele>
        <time>2015-08-15T12:38:37Z</time>
      </trkpt>
      <trkpt lat="40.510967" lon="-5.215733">
        <ele>2426.0</ele>
        <time>2015-08-15T12:38:39Z</time>
      </trkpt>
      <trkpt lat="40.511000" lon="-5.215533">
        <ele>2433.0</ele>
        <time>2015-08-15T12:38:41Z</time>
      </trkpt>
      <trkpt lat="40.510983" lon="-5.215317">
        <ele>2437.0</ele>
        <time>2015-08-15T12:38:43Z</time>
      </trkpt>
      <trkpt lat="40.510883" lon="-5.215083">
        <ele>2442.0</ele>
        <time>2015-08-15T12:38:45Z</time>
      </trkpt>
      <trkpt lat="40.510717" lon="-5.214967">
        <ele>2448.0</ele>
        <time>2015-08-15T12:38:47Z</time>
      </trkpt>
      <trkpt lat="40.510533" lon="-5.214983">
        <ele>2453.0</ele>
        <time>2015-08-15T12:38:49Z</time>
      </trkpt>
      <trkpt lat="40.510400" lon="-5.215083">
        <ele>2456.0</ele>
        <time>2015-08-15T12:38:51Z</time>
      </trkpt>
      <trkpt lat="40.510317" lon="-5.215283">
        <ele>2457.0</ele>
        <time>2015-08-15T12:38:53Z</time>
      </trkpt>
      <trkpt lat="40.510333" lon="-5.215500">
        <ele>2459.0</ele>
        <time>2015-08-15T12:38:55Z</time>
      </trkpt>
      <trkpt lat="40.510433" lon="-5.215667">
        <ele>2462.0</ele>
        <time>2015-08-15T12:38:57Z</time>
      </trkpt>
      <trkpt lat="40.510567" lon="-5.215750">
        <ele>2463.0</ele>
        <time>2015-08-15T12:38:59Z</time>
      </trkpt>
      <trkpt lat="40.510750" lon="-5.215767">
        <ele>2465.0</ele>
        <time>2015-08-15T12:39:01Z</time>
      </trkpt>
      <trkpt lat="40.510917" lon="-5.215717">
        <ele>2469.0</ele>
        <time>2015-08-15T12:39:03Z</time>
      </trkpt>
      <trkpt lat="40.511083" lon="-5.215650">
        <ele>2477.0</ele>
        <time>2015-08-15T12:39:05Z</time>
      </trkpt>
      <trkpt lat="40.511217" lon="-5.215600">
        <ele>2487.0</ele>
        <time>2015-08-15T12:39:07Z</time>
      </trkpt>
      <trkpt lat="40.511317" lon="-5.215533">
        <ele>2495.0</ele>
        <time>2015-08-15T12:39:09Z</time>
      </trkpt>
      <trkpt lat="40.511350" lon="-5.215467">
        <ele>2501.0</ele>
        <time>2015-08-15T12:39:11Z</time>
      </trkpt>
      <trkpt lat="40.511383" lon="-5.215350">
        <ele>2503.0</ele>
        <time>2015-08-15T12:39:13Z</time>
      </trkpt>
      <trkpt lat="40.511383" lon="-5.215150">
        <ele>2504.0</ele>
        <time>2015-08-15T12:39:15Z</time>
      </trkpt>
      <trkpt lat="40.511350" lon="-5.214933">
        <ele>2509.0</ele>
        <time>2015-08-15T12:39:17Z</time>
      </trkpt>
      <trkpt lat="40.511217" lon="-5.214767">
        <ele>2516.0</ele>
        <time>2015-08-15T12:39:19Z</time>
      </trkpt>
      <trkpt lat="40.511067" lon="-5.214667">
        <ele>2525.0</ele>
        <time>2015-08-15T12:39:21Z</time>
      </trkpt>
      <trkpt lat="40.510883" lon="-5.214700">
        <ele>2532.0</ele>
        <time>2015-08-15T12:39:23Z</time>
      </trkpt>
      <trkpt lat="40.510733" lon="-5.214833">
        <ele>2540.0</ele>
        <time>2015-08-15T12:39:25Z</time>
      </trkpt>
      <trkpt lat="40.510667" lon="-5.215017">
        <ele>2547.0</ele>
        <time>2015-08-15T12:39:27Z</time>
      </trkpt>
      <trkpt lat="40.510667" lon="-5.215217">
        <ele>2551.0</ele>
        <time>2015-08-15T12:39:29Z</time>
      </trkpt>
      <trkpt lat="40.510767" lon="-5.215417">
        <ele>2554.0</ele>
        <time>2015-08-15T12:39:31Z</time>
      </trkpt>
      <trkpt lat="40.510917" lon="-5.215583">
        <ele>2563.0</ele>
        <time>2015-08-15T12:39:33Z</time>
      </trkpt>
      <trkpt lat="40.510983" lon="-5.215650">
        <ele>2573.0</ele>
        <time>2015-08-15T12:39:35Z</time>
      </trkpt>
      <trkpt lat="40.511033" lon="-5.215700">
        <ele>2575.0</ele>
        <time>2015-08-15T12:39:37Z</time>
      </trkpt>
      <trkpt lat="40.511183" lon="-5.215733">
        <ele>2575.0</ele>
        <time>2015-08-15T12:39:39Z</time>
      </trkpt>
      <trkpt lat="40.511333" lon="-5.215700">
        <ele>2581.0</ele>
        <time>2015-08-15T12:39:41Z</time>
      </trkpt>
      <trkpt lat="40.511400" lon="-5.215583">
        <ele>2587.0</ele>
        <time>2015-08-15T12:39:43Z</time>
      </trkpt>
      <trkpt lat="40.511467" lon="-5.215433">
        <ele>2588.0</ele>
        <time>2015-08-15T12:39:45Z</time>
      </trkpt>
      <trkpt lat="40.511483" lon="-5.215183">
        <ele>2588.0</ele>
        <time>2015-08-15T12:39:47Z</time>
      </trkpt>
      <trkpt lat="40.511400" lon="-5.214950">
        <ele>2593.0</ele>
        <time>2015-08-15T12:39:49Z</time>
      </trkpt>
      <trkpt lat="40.511300" lon="-5.214783">
        <ele>2601.0</ele>
        <time>2015-08-15T12:39:51Z</time>
      </trkpt>
      <trkpt lat="40.511183" lon="-5.214650">
        <ele>2605.0</ele>
        <time>2015-08-15T12:39:53Z</time>
      </trkpt>
      <trkpt lat="40.511000" lon="-5.214617">
        <ele>2609.0</ele>
        <time>2015-08-15T12:39:55Z</time>
      </trkpt>
      <trkpt lat="40.510817" lon="-5.214733">
        <ele>2615.0</ele>
        <time>2015-08-15T12:39:57Z</time>
      </trkpt>
      <trkpt lat="40.510700" lon="-5.214883">
        <ele>2624.0</ele>
        <time>2015-08-15T12:39:59Z</time>
      </trkpt>
      <trkpt lat="40.510600" lon="-5.215067">
        <ele>2627.0</ele>
        <time>2015-08-15T12:40:01Z</time>
      </trkpt>
      <trkpt lat="40.510617" lon="-5.215283">
        <ele>2630.0</ele>
        <time>2015-08-15T12:40:03Z</time>
      </trkpt>
      <trkpt lat="40.510700" lon="-5.215400">
        <ele>2637.0</ele>
        <time>2015-08-15T12:40:05Z</time>
      </trkpt>
      <trkpt lat="40.510767" lon="-5.215483">
        <ele>2642.0</ele>
        <time>2015-08-15T12:40:07Z</time>
      </trkpt>
      <trkpt lat="40.510900" lon="-5.215517">
        <ele>2643.0</ele>
        <time>2015-08-15T12:40:09Z</time>
      </trkpt>
      <trkpt lat="40.511050" lon="-5.215433">
        <ele>2644.0</ele>
        <time>2015-08-15T12:40:11Z</time>
      </trkpt>
      <trkpt lat="40.511167" lon="-5.215350">
        <ele>2647.0</ele>
        <time>2015-08-15T12:40:13Z</time>
      </trkpt>
      <trkpt lat="40.511300" lon="-5.215233">
        <ele>2648.0</ele>
        <time>2015-08-15T12:40:15Z</time>
      </trkpt>
      <trkpt lat="40.511417" lon="-5.215083">
        <ele>2651.0</ele>
        <time>2015-08-15T12:40:17Z</time>
      </trkpt>
      <trkpt lat="40.511517" lon="-5.214917">
        <ele>2657.0</ele>
        <time>2015-08-15T12:40:19Z</time>
      </trkpt>
      <trkpt lat="40.511583" lon="-5.214717">
        <ele>2659.0</ele>
        <time>2015-08-15T12:40:21Z</time>
      </trkpt>
      <trkpt lat="40.511600" lon="-5.214467">
        <ele>2658.0</ele>
        <time>2015-08-15T12:40:23Z</time>
      </trkpt>
      <trkpt lat="40.511517" lon="-5.214250">
        <ele>2660.0</ele>
        <time>2015-08-15T12:40:25Z</time>
      </trkpt>
      <trkpt lat="40.511383" lon="-5.214100">
        <ele>2660.0</ele>
        <time>2015-08-15T12:40:27Z</time>
      </trkpt>
      <trkpt lat="40.511217" lon="-5.214000">
        <ele>2660.0</ele>
        <time>2015-08-15T12:40:29Z</time>
      </trkpt>
      <trkpt lat="40.511033" lon="-5.213950">
        <ele>2660.0</ele>
        <time>2015-08-15T12:40:31Z</time>
      </trkpt>
      <trkpt lat="40.510850" lon="-5.214050">
        <ele>2662.0</ele>
        <time>2015-08-15T12:40:33Z</time>
      </trkpt>
      <trkpt lat="40.510733" lon="-5.214233">
        <ele>2667.0</ele>
        <time>2015-08-15T12:40:35Z</time>
      </trkpt>
      <trkpt lat="40.510683" lon="-5.214433">
        <ele>2673.0</ele>
        <time>2015-08-15T12:40:37Z</time>
      </trkpt>
      <trkpt lat="40.510700" lon="-5.214600">
        <ele>2678.0</ele>
        <time>2015-08-15T12:40:39Z</time>
      </trkpt>
      <trkpt lat="40.510783" lon="-5.214767">
        <ele>2680.0</ele>
        <time>2015-08-15T12:40:41Z</time>
      </trkpt>
      <trkpt lat="40.510933" lon="-5.214867">
        <ele>2682.0</ele>
        <time>2015-08-15T12:40:43Z</time>
      </trkpt>
      <trkpt lat="40.511083" lon="-5.214850">
        <ele>2685.0</ele>
        <time>2015-08-15T12:40:45Z</time>
      </trkpt>
      <trkpt lat="40.511233" lon="-5.214800">
        <ele>2689.0</ele>
        <time>2015-08-15T12:40:47Z</time>
      </trkpt>
      <trkpt lat="40.511367" lon="-5.214733">
        <ele>2689.0</ele>
        <time>2015-08-15T12:40:49Z</time>
      </trkpt>
      <trkpt lat="40.511533" lon="-5.214633">
        <ele>2688.0</ele>
        <time>2015-08-15T12:40:51Z</time>
      </trkpt>
      <trkpt lat="40.511717" lon="-5.214567">
        <ele>2688.0</ele>
        <time>2015-08-15T12:40:53Z</time>
      </trkpt>
      <trkpt lat="40.511883" lon="-5.214500">
        <ele>2689.0</ele>
        <time>2015-08-15T12:40:55Z</time>
      </trkpt>
      <trkpt lat="40.512050" lon="-5.214433">
        <ele>2689.0</ele>
        <time>2015-08-15T12:40:57Z</time>
      </trkpt>
      <trkpt lat="40.512233" lon="-5.214350">
        <ele>2685.0</ele>
        <time>2015-08-15T12:40:59Z</time>
      </trkpt>
      <trkpt lat="40.512433" lon="-5.214267">
        <ele>2681.0</ele>
        <time>2015-08-15T12:41:01Z</time>
      </trkpt>
      <trkpt lat="40.512600" lon="-5.214200">
        <ele>2676.0</ele>
        <time>2015-08-15T12:41:03Z</time>
      </trkpt>
      <trkpt lat="40.512750" lon="-5.214100">
        <ele>2668.0</ele>
        <time>2015-08-15T12:41:05Z</time>
      </trkpt>
      <trkpt lat="40.512917" lon="-5.213983">
        <ele>2660.0</ele>
        <time>2015-08-15T12:41:07Z</time>
      </trkpt>
      <trkpt lat="40.513067" lon="-5.213850">
        <ele>2653.0</ele>
        <time>2015-08-15T12:41:09Z</time>
      </trkpt>
      <trkpt lat="40.513233" lon="-5.213733">
        <ele>2646.0</ele>
        <time>2015-08-15T12:41:11Z</time>
      </trkpt>
      <trkpt lat="40.513383" lon="-5.213583">
        <ele>2639.0</ele>
        <time>2015-08-15T12:41:13Z</time>
      </trkpt>
      <trkpt lat="40.513550" lon="-5.213433">
        <ele>2633.0</ele>
        <time>2015-08-15T12:41:15Z</time>
      </trkpt>
      <trkpt lat="40.513700" lon="-5.213300">
        <ele>2626.0</ele>
        <time>2015-08-15T12:41:17Z</time>
      </trkpt>
      <trkpt lat="40.513867" lon="-5.213117">
        <ele>2618.0</ele>
        <time>2015-08-15T12:41:19Z</time>
      </trkpt>
      <trkpt lat="40.514033" lon="-5.212933">
        <ele>2613.0</ele>
        <time>2015-08-15T12:41:21Z</time>
      </trkpt>
      <trkpt lat="40.514150" lon="-5.212800">
        <ele>2608.0</ele>
        <time>2015-08-15T12:41:23Z</time>
      </trkpt>
      <trkpt lat="40.514300" lon="-5.212650">
        <ele>2599.0</ele>
        <time>2015-08-15T12:41:25Z</time>
      </trkpt>
      <trkpt lat="40.514467" lon="-5.212467">
        <ele>2593.0</ele>
        <time>2015-08-15T12:41:27Z</time>
      </trkpt>
      <trkpt lat="40.514583" lon="-5.212317">
        <ele>2589.0</ele>
        <time>2015-08-15T12:41:29Z</time>
      </trkpt>
      <trkpt lat="40.514733" lon="-5.212183">
        <ele>2582.0</ele>
        <time>2015-08-15T12:41:31Z</time>
      </trkpt>
      <trkpt lat="40.514883" lon="-5.212017">
        <ele>2575.0</ele>
        <time>2015-08-15T12:41:33Z</time>
      </trkpt>
      <trkpt lat="40.515017" lon="-5.211900">
        <ele>2569.0</ele>
        <time>2015-08-15T12:41:35Z</time>
      </trkpt>
      <trkpt lat="40.515167" lon="-5.211767">
        <ele>2562.0</ele>
        <time>2015-08-15T12:41:37Z</time>
      </trkpt>
      <trkpt lat="40.515317" lon="-5.211600">
        <ele>2557.0</ele>
        <time>2015-08-15T12:41:39Z</time>
      </trkpt>
      <trkpt lat="40.515450" lon="-5.211467">
        <ele>2554.0</ele>
        <time>2015-08-15T12:41:41Z</time>
      </trkpt>
      <trkpt lat="40.515600" lon="-5.211333">
        <ele>2549.0</ele>
        <time>2015-08-15T12:41:43Z</time>
      </trkpt>
      <trkpt lat="40.515733" lon="-5.211183">
        <ele>2540.0</ele>
        <time>2015-08-15T12:41:45Z</time>
      </trkpt>
      <trkpt lat="40.515900" lon="-5.211033">
        <ele>2532.0</ele>
        <time>2015-08-15T12:41:47Z</time>
      </trkpt>
      <trkpt lat="40.516050" lon="-5.210883">
        <ele>2526.0</ele>
        <time>2015-08-15T12:41:49Z</time>
      </trkpt>
      <trkpt lat="40.516217" lon="-5.210717">
        <ele>2520.0</ele>
        <time>2015-08-15T12:41:51Z</time>
      </trkpt>
      <trkpt lat="40.516383" lon="-5.210533">
        <ele>2515.0</ele>
        <time>2015-08-15T12:41:53Z</time>
      </trkpt>
      <trkpt lat="40.516533" lon="-5.210383">
        <ele>2511.0</ele>
        <time>2015-08-15T12:41:55Z</time>
      </trkpt>
      <trkpt lat="40.516667" lon="-5.210217">
        <ele>2504.0</ele>
        <time>2015-08-15T12:41:57Z</time>
      </trkpt>
      <trkpt lat="40.516833" lon="-5.210017">
        <ele>2497.0</ele>
        <time>2015-08-15T12:41:59Z</time>
      </trkpt>
      <trkpt lat="40.516983" lon="-5.209850">
        <ele>2495.0</ele>
        <time>2015-08-15T12:42:01Z</time>
      </trkpt>
      <trkpt lat="40.517133" lon="-5.209717">
        <ele>2492.0</ele>
        <time>2015-08-15T12:42:03Z</time>
      </trkpt>
      <trkpt lat="40.517300" lon="-5.209583">
        <ele>2487.0</ele>
        <time>2015-08-15T12:42:05Z</time>
      </trkpt>
      <trkpt lat="40.517450" lon="-5.209450">
        <ele>2484.0</ele>
        <time>2015-08-15T12:42:07Z</time>
      </trkpt>
      <trkpt lat="40.517600" lon="-5.209317">
        <ele>2482.0</ele>
        <time>2015-08-15T12:42:09Z</time>
      </trkpt>
      <trkpt lat="40.517733" lon="-5.209167">
        <ele>2477.0</ele>
        <time>2015-08-15T12:42:11Z</time>
      </trkpt>
      <trkpt lat="40.517883" lon="-5.208983">
        <ele>2473.0</ele>
        <time>2015-08-15T12:42:13Z</time>
      </trkpt>
      <trkpt lat="40.518017" lon="-5.208783">
        <ele>2472.0</ele>
        <time>2015-08-15T12:42:15Z</time>
      </trkpt>
      <trkpt lat="40.518150" lon="-5.208617">
        <ele>2469.0</ele>
        <time>2015-08-15T12:42:17Z</time>
      </trkpt>
      <trkpt lat="40.518283" lon="-5.208433">
        <ele>2464.0</ele>
        <time>2015-08-15T12:42:19Z</time>
      </trkpt>
      <trkpt lat="40.518450" lon="-5.208233">
        <ele>2461.0</ele>
        <time>2015-08-15T12:42:21Z</time>
      </trkpt>
      <trkpt lat="40.518583" lon="-5.208050">
        <ele>2459.0</ele>
        <time>2015-08-15T12:42:23Z</time>
      </trkpt>
      <trkpt lat="40.518700" lon="-5.207867">
        <ele>2455.0</ele>
        <time>2015-08-15T12:42:25Z</time>
      </trkpt>
      <trkpt lat="40.518850" lon="-5.207667">
        <ele>2448.0</ele>
        <time>2015-08-15T12:42:27Z</time>
      </trkpt>
      <trkpt lat="40.519017" lon="-5.207467">
        <ele>2446.0</ele>
        <time>2015-08-15T12:42:29Z</time>
      </trkpt>
      <trkpt lat="40.519150" lon="-5.207317">
        <ele>2445.0</ele>
        <time>2015-08-15T12:42:31Z</time>
      </trkpt>
      <trkpt lat="40.519283" lon="-5.207167">
        <ele>2441.0</ele>
        <time>2015-08-15T12:42:33Z</time>
      </trkpt>
      <trkpt lat="40.519433" lon="-5.206983">
        <ele>2436.0</ele>
        <time>2015-08-15T12:42:35Z</time>
      </trkpt>
      <trkpt lat="40.519550" lon="-5.206817">
        <ele>2434.0</ele>
        <time>2015-08-15T12:42:37Z</time>
      </trkpt>
      <trkpt lat="40.519667" lon="-5.206633">
        <ele>2430.0</ele>
        <time>2015-08-15T12:42:39Z</time>
      </trkpt>
      <trkpt lat="40.519783" lon="-5.206433">
        <ele>2426.0</ele>
        <time>2015-08-15T12:42:41Z</time>
      </trkpt>
      <trkpt lat="40.519883" lon="-5.206217">
        <ele>2423.0</ele>
        <time>2015-08-15T12:42:43Z</time>
      </trkpt>
      <trkpt lat="40.520000" lon="-5.206017">
        <ele>2417.0</ele>
        <time>2015-08-15T12:42:45Z</time>
      </trkpt>
      <trkpt lat="40.520117" lon="-5.205783">
        <ele>2413.0</ele>
        <time>2015-08-15T12:42:47Z</time>
      </trkpt>
      <trkpt lat="40.520233" lon="-5.205583">
        <ele>2411.0</ele>
        <time>2015-08-15T12:42:49Z</time>
      </trkpt>
      <trkpt lat="40.520367" lon="-5.205400">
        <ele>2405.0</ele>
        <time>2015-08-15T12:42:51Z</time>
      </trkpt>
      <trkpt lat="40.520517" lon="-5.205200">
        <ele>2401.0</ele>
        <time>2015-08-15T12:42:53Z</time>
      </trkpt>
      <trkpt lat="40.520683" lon="-5.205050">
        <ele>2400.0</ele>
        <time>2015-08-15T12:42:55Z</time>
      </trkpt>
      <trkpt lat="40.520817" lon="-5.204883">
        <ele>2396.0</ele>
        <time>2015-08-15T12:42:57Z</time>
      </trkpt>
      <trkpt lat="40.520950" lon="-5.204700">
        <ele>2390.0</ele>
        <time>2015-08-15T12:42:59Z</time>
      </trkpt>
      <trkpt lat="40.521100" lon="-5.204500">
        <ele>2386.0</ele>
        <time>2015-08-15T12:43:01Z</time>
      </trkpt>
      <trkpt lat="40.521217" lon="-5.204333">
        <ele>2381.0</ele>
        <time>2015-08-15T12:43:03Z</time>
      </trkpt>
      <trkpt lat="40.521367" lon="-5.204150">
        <ele>2374.0</ele>
        <time>2015-08-15T12:43:05Z</time>
      </trkpt>
      <trkpt lat="40.521500" lon="-5.203967">
        <ele>2369.0</ele>
        <time>2015-08-15T12:43:07Z</time>
      </trkpt>
      <trkpt lat="40.521650" lon="-5.203800">
        <ele>2363.0</ele>
        <time>2015-08-15T12:43:09Z</time>
      </trkpt>
      <trkpt lat="40.521800" lon="-5.203600">
        <ele>2355.0</ele>
        <time>2015-08-15T12:43:11Z</time>
      </trkpt>
      <trkpt lat="40.521933" lon="-5.203367">
        <ele>2347.0</ele>
        <time>2015-08-15T12:43:13Z</time>
      </trkpt>
      <trkpt lat="40.522067" lon="-5.203133">
        <ele>2341.0</ele>
        <time>2015-08-15T12:43:15Z</time>
      </trkpt>
      <trkpt lat="40.522200" lon="-5.202917">
        <ele>2339.0</ele>
        <time>2015-08-15T12:43:17Z</time>
      </trkpt>
      <trkpt lat="40.522300" lon="-5.202683">
        <ele>2335.0</ele>
        <time>2015-08-15T12:43:19Z</time>
      </trkpt>
      <trkpt lat="40.522400" lon="-5.202467">
        <ele>2331.0</ele>
        <time>2015-08-15T12:43:21Z</time>
      </trkpt>
      <trkpt lat="40.522500" lon="-5.202267">
        <ele>2327.0</ele>
        <time>2015-08-15T12:43:23Z</time>
      </trkpt>
      <trkpt lat="40.522617" lon="-5.202050">
        <ele>2322.0</ele>
        <time>2015-08-15T12:43:25Z</time>
      </trkpt>
      <trkpt lat="40.522750" lon="-5.201833">
        <ele>2322.0</ele>
        <time>2015-08-15T12:43:27Z</time>
      </trkpt>
      <trkpt lat="40.522850" lon="-5.201633">
        <ele>2321.0</ele>
        <time>2015-08-15T12:43:29Z</time>
      </trkpt>
      <trkpt lat="40.522950" lon="-5.201433">
        <ele>2319.0</ele>
        <time>2015-08-15T12:43:31Z</time>
      </trkpt>
      <trkpt lat="40.523050" lon="-5.201200">
        <ele>2317.0</ele>
        <time>2015-08-15T12:43:33Z</time>
      </trkpt>
      <trkpt lat="40.523150" lon="-5.200983">
        <ele>2316.0</ele>
        <time>2015-08-15T12:43:35Z</time>
      </trkpt>
      <trkpt lat="40.523233" lon="-5.200767">
        <ele>2313.0</ele>
        <time>2015-08-15T12:43:37Z</time>
      </trkpt>
      <trkpt lat="40.523350" lon="-5.200517">
        <ele>2310.0</ele>
        <time>2015-08-15T12:43:39Z</time>
      </trkpt>
      <trkpt lat="40.523450" lon="-5.200267">
        <ele>2310.0</ele>
        <time>2015-08-15T12:43:41Z</time>
      </trkpt>
      <trkpt lat="40.523550" lon="-5.200050">
        <ele>2308.0</ele>
        <time>2015-08-15T12:43:43Z</time>
      </trkpt>
      <trkpt lat="40.523633" lon="-5.199833">
        <ele>2304.0</ele>
        <time>2015-08-15T12:43:45Z</time>
      </trkpt>
      <trkpt lat="40.523733" lon="-5.199583">
        <ele>2301.0</ele>
        <time>2015-08-15T12:43:47Z</time>
      </trkpt>
      <trkpt lat="40.523833" lon="-5.199383">
        <ele>2298.0</ele>
        <time>2015-08-15T12:43:49Z</time>
      </trkpt>
      <trkpt lat="40.523917" lon="-5.199183">
        <ele>2294.0</ele>
        <time>2015-08-15T12:43:51Z</time>
      </trkpt>
      <trkpt lat="40.524017" lon="-5.198950">
        <ele>2289.0</ele>
        <time>2015-08-15T12:43:53Z</time>
      </trkpt>
      <trkpt lat="40.524117" lon="-5.198750">
        <ele>2287.0</ele>
        <time>2015-08-15T12:43:55Z</time>
      </trkpt>
      <trkpt lat="40.524200" lon="-5.198567">
        <ele>2282.0</ele>
        <time>2015-08-15T12:43:57Z</time>
      </trkpt>
      <trkpt lat="40.524300" lon="-5.198350">
        <ele>2276.0</ele>
        <time>2015-08-15T12:43:59Z</time>
      </trkpt>
      <trkpt lat="40.524417" lon="-5.198117">
        <ele>2274.0</ele>
        <time>2015-08-15T12:44:01Z</time>
      </trkpt>
      <trkpt lat="40.524533" lon="-5.197950">
        <ele>2273.0</ele>
        <time>2015-08-15T12:44:03Z</time>
      </trkpt>
      <trkpt lat="40.524633" lon="-5.197800">
        <ele>2269.0</ele>
        <time>2015-08-15T12:44:05Z</time>
      </trkpt>
      <trkpt lat="40.524733" lon="-5.197600">
        <ele>2263.0</ele>
        <time>2015-08-15T12:44:07Z</time>
      </trkpt>
      <trkpt lat="40.524850" lon="-5.197350">
        <ele>2261.0</ele>
        <time>2015-08-15T12:44:09Z</time>
      </trkpt>
      <trkpt lat="40.524933" lon="-5.197133">
        <ele>2261.0</ele>
        <time>2015-08-15T12:44:11Z</time>
      </trkpt>
      <trkpt lat="40.525050" lon="-5.196950">
        <ele>2261.0</ele>
        <time>2015-08-15T12:44:13Z</time>
      </trkpt>
      <trkpt lat="40.525167" lon="-5.196733">
        <ele>2260.0</ele>
        <time>2015-08-15T12:44:15Z</time>
      </trkpt>
      <trkpt lat="40.525300" lon="-5.196550">
        <ele>2257.0</ele>
        <time>2015-08-15T12:44:17Z</time>
      </trkpt>
      <trkpt lat="40.525400" lon="-5.196367">
        <ele>2255.0</ele>
        <time>2015-08-15T12:44:19Z</time>
      </trkpt>
      <trkpt lat="40.525483" lon="-5.196183">
        <ele>2250.0</ele>
        <time>2015-08-15T12:44:21Z</time>
      </trkpt>
      <trkpt lat="40.525617" lon="-5.195967">
        <ele>2245.0</ele>
        <time>2015-08-15T12:44:23Z</time>
      </trkpt>
      <trkpt lat="40.525700" lon="-5.195767">
        <ele>2244.0</ele>
        <time>2015-08-15T12:44:25Z</time>
      </trkpt>
      <trkpt lat="40.525767" lon="-5.195583">
        <ele>2241.0</ele>
        <time>2015-08-15T12:44:27Z</time>
      </trkpt>
      <trkpt lat="40.525850" lon="-5.195400">
        <ele>2237.0</ele>
        <time>2015-08-15T12:44:29Z</time>
      </trkpt>
      <trkpt lat="40.525967" lon="-5.195233">
        <ele>2234.0</ele>
        <time>2015-08-15T12:44:31Z</time>
      </trkpt>
      <trkpt lat="40.526067" lon="-5.195083">
        <ele>2231.0</ele>
        <time>2015-08-15T12:44:33Z</time>
      </trkpt>
      <trkpt lat="40.526167" lon="-5.194917">
        <ele>2227.0</ele>
        <time>2015-08-15T12:44:35Z</time>
      </trkpt>
      <trkpt lat="40.526283" lon="-5.194733">
        <ele>2224.0</ele>
        <time>2015-08-15T12:44:37Z</time>
      </trkpt>
      <trkpt lat="40.526383" lon="-5.194583">
        <ele>2222.0</ele>
        <time>2015-08-15T12:44:39Z</time>
      </trkpt>
      <trkpt lat="40.526467" lon="-5.194417">
        <ele>2218.0</ele>
        <time>2015-08-15T12:44:41Z</time>
      </trkpt>
      <trkpt lat="40.526600" lon="-5.194267">
        <ele>2216.0</ele>
        <time>2015-08-15T12:44:43Z</time>
      </trkpt>
      <trkpt lat="40.526700" lon="-5.194100">
        <ele>2215.0</ele>
        <time>2015-08-15T12:44:45Z</time>
      </trkpt>
      <trkpt lat="40.526767" lon="-5.193950">
        <ele>2211.0</ele>
        <time>2015-08-15T12:44:47Z</time>
      </trkpt>
      <trkpt lat="40.526883" lon="-5.193783">
        <ele>2206.0</ele>
        <time>2015-08-15T12:44:49Z</time>
      </trkpt>
      <trkpt lat="40.526983" lon="-5.193617">
        <ele>2204.0</ele>
        <time>2015-08-15T12:44:51Z</time>
      </trkpt>
      <trkpt lat="40.527083" lon="-5.193467">
        <ele>2201.0</ele>
        <time>2015-08-15T12:44:53Z</time>
      </trkpt>
      <trkpt lat="40.527183" lon="-5.193300">
        <ele>2195.0</ele>
        <time>2015-08-15T12:44:55Z</time>
      </trkpt>
      <trkpt lat="40.527300" lon="-5.193117">
        <ele>2191.0</ele>
        <time>2015-08-15T12:44:57Z</time>
      </trkpt>
      <trkpt lat="40.527417" lon="-5.192950">
        <ele>2188.0</ele>
        <time>2015-08-15T12:44:59Z</time>
      </trkpt>
      <trkpt lat="40.527517" lon="-5.192783">
        <ele>2182.0</ele>
        <time>2015-08-15T12:45:01Z</time>
      </trkpt>
      <trkpt lat="40.527617" lon="-5.192600">
        <ele>2176.0</ele>
        <time>2015-08-15T12:45:03Z</time>
      </trkpt>
      <trkpt lat="40.527733" lon="-5.192467">
        <ele>2171.0</ele>
        <time>2015-08-15T12:45:05Z</time>
      </trkpt>
      <trkpt lat="40.527850" lon="-5.192350">
        <ele>2165.0</ele>
        <time>2015-08-15T12:45:07Z</time>
      </trkpt>
      <trkpt lat="40.527967" lon="-5.192200">
        <ele>2159.0</ele>
        <time>2015-08-15T12:45:09Z</time>
      </trkpt>
      <trkpt lat="40.528100" lon="-5.192050">
        <ele>2155.0</ele>
        <time>2015-08-15T12:45:11Z</time>
      </trkpt>
      <trkpt lat="40.528200" lon="-5.191917">
        <ele>2151.0</ele>
        <time>2015-08-15T12:45:13Z</time>
      </trkpt>
      <trkpt lat="40.528300" lon="-5.191767">
        <ele>2145.0</ele>
        <time>2015-08-15T12:45:15Z</time>
      </trkpt>
      <trkpt lat="40.528417" lon="-5.191583">
        <ele>2138.0</ele>
        <time>2015-08-15T12:45:17Z</time>
      </trkpt>
      <trkpt lat="40.528533" lon="-5.191417">
        <ele>2135.0</ele>
        <time>2015-08-15T12:45:19Z</time>
      </trkpt>
      <trkpt lat="40.528617" lon="-5.191267">
        <ele>2130.0</ele>
        <time>2015-08-15T12:45:21Z</time>
      </trkpt>
      <trkpt lat="40.528750" lon="-5.191117">
        <ele>2123.0</ele>
        <time>2015-08-15T12:45:23Z</time>
      </trkpt>
      <trkpt lat="40.528867" lon="-5.190933">
        <ele>2119.0</ele>
        <time>2015-08-15T12:45:25Z</time>
      </trkpt>
      <trkpt lat="40.528983" lon="-5.190767">
        <ele>2115.0</ele>
        <time>2015-08-15T12:45:27Z</time>
      </trkpt>
      <trkpt lat="40.529083" lon="-5.190600">
        <ele>2109.0</ele>
        <time>2015-08-15T12:45:29Z</time>
      </trkpt>
      <trkpt lat="40.529200" lon="-5.190400">
        <ele>2102.0</ele>
        <time>2015-08-15T12:45:31Z</time>
      </trkpt>
      <trkpt lat="40.529300" lon="-5.190183">
        <ele>2096.0</ele>
        <time>2015-08-15T12:45:33Z</time>
      </trkpt>
      <trkpt lat="40.529417" lon="-5.189983">
        <ele>2091.0</ele>
        <time>2015-08-15T12:45:35Z</time>
      </trkpt>
      <trkpt lat="40.529533" lon="-5.189800">
        <ele>2085.0</ele>
        <time>2015-08-15T12:45:37Z</time>
      </trkpt>
      <trkpt lat="40.529667" lon="-5.189617">
        <ele>2079.0</ele>
        <time>2015-08-15T12:45:39Z</time>
      </trkpt>
      <trkpt lat="40.529800" lon="-5.189433">
        <ele>2072.0</ele>
        <time>2015-08-15T12:45:41Z</time>
      </trkpt>
      <trkpt lat="40.529950" lon="-5.189250">
        <ele>2067.0</ele>
        <time>2015-08-15T12:45:43Z</time>
      </trkpt>
      <trkpt lat="40.530083" lon="-5.189067">
        <ele>2064.0</ele>
        <time>2015-08-15T12:45:45Z</time>
      </trkpt>
      <trkpt lat="40.530200" lon="-5.188917">
        <ele>2058.0</ele>
        <time>2015-08-15T12:45:47Z</time>
      </trkpt>
      <trkpt lat="40.530350" lon="-5.188767">
        <ele>2050.0</ele>
        <time>2015-08-15T12:45:49Z</time>
      </trkpt>
      <trkpt lat="40.530500" lon="-5.188617">
        <ele>2046.0</ele>
        <time>2015-08-15T12:45:51Z</time>
      </trkpt>
      <trkpt lat="40.530633" lon="-5.188450">
        <ele>2042.0</ele>
        <time>2015-08-15T12:45:53Z</time>
      </trkpt>
      <trkpt lat="40.530767" lon="-5.188283">
        <ele>2037.0</ele>
        <time>2015-08-15T12:45:55Z</time>
      </trkpt>
      <trkpt lat="40.530900" lon="-5.188100">
        <ele>2036.0</ele>
        <time>2015-08-15T12:45:57Z</time>
      </trkpt>
      <trkpt lat="40.530950" lon="-5.187933">
        <ele>2035.0</ele>
        <time>2015-08-15T12:45:59Z</time>
      </trkpt>
      <trkpt lat="40.531000" lon="-5.187733">
        <ele>2031.0</ele>
        <time>2015-08-15T12:46:01Z</time>
      </trkpt>
      <trkpt lat="40.531067" lon="-5.187467">
        <ele>2029.0</ele>
        <time>2015-08-15T12:46:03Z</time>
      </trkpt>
      <trkpt lat="40.531083" lon="-5.187200">
        <ele>2030.0</ele>
        <time>2015-08-15T12:46:05Z</time>
      </trkpt>
      <trkpt lat="40.531033" lon="-5.186933">
        <ele>2031.0</ele>
        <time>2015-08-15T12:46:07Z</time>
      </trkpt>
      <trkpt lat="40.530933" lon="-5.186717">
        <ele>2033.0</ele>
        <time>2015-08-15T12:46:09Z</time>
      </trkpt>
      <trkpt lat="40.530817" lon="-5.186533">
        <ele>2033.0</ele>
        <time>2015-08-15T12:46:11Z</time>
      </trkpt>
      <trkpt lat="40.530633" lon="-5.186383">
        <ele>2032.0</ele>
        <time>2015-08-15T12:46:13Z</time>
      </trkpt>
      <trkpt lat="40.530433" lon="-5.186333">
        <ele>2033.0</ele>
        <time>2015-08-15T12:46:15Z</time>
      </trkpt>
      <trkpt lat="40.530267" lon="-5.186383">
        <ele>2033.0</ele>
        <time>2015-08-15T12:46:17Z</time>
      </trkpt>
      <trkpt lat="40.530133" lon="-5.186500">
        <ele>2032.0</ele>
        <time>2015-08-15T12:46:19Z</time>
      </trkpt>
      <trkpt lat="40.530117" lon="-5.186683">
        <ele>2031.0</ele>
        <time>2015-08-15T12:46:21Z</time>
      </trkpt>
      <trkpt lat="40.530200" lon="-5.186817">
        <ele>2030.0</ele>
        <time>2015-08-15T12:46:23Z</time>
      </trkpt>
      <trkpt lat="40.530317" lon="-5.186850">
        <ele>2030.0</ele>
        <time>2015-08-15T12:46:25Z</time>
      </trkpt>
      <trkpt lat="40.530450" lon="-5.186850">
        <ele>2030.0</ele>
        <time>2015-08-15T12:46:27Z</time>
      </trkpt>
      <trkpt lat="40.530567" lon="-5.186767">
        <ele>2030.0</ele>
        <time>2015-08-15T12:46:29Z</time>
      </trkpt>
      <trkpt lat="40.530700" lon="-5.186633">
        <ele>2031.0</ele>
        <time>2015-08-15T12:46:31Z</time>
      </trkpt>
      <trkpt lat="40.530800" lon="-5.186467">
        <ele>2032.0</ele>
        <time>2015-08-15T12:46:33Z</time>
      </trkpt>
      <trkpt lat="40.530883" lon="-5.186267">
        <ele>2032.0</ele>
        <time>2015-08-15T12:46:35Z</time>
      </trkpt>
      <trkpt lat="40.530967" lon="-5.186050">
        <ele>2032.0</ele>
        <time>2015-08-15T12:46:37Z</time>
      </trkpt>
      <trkpt lat="40.531050" lon="-5.185850">
        <ele>2035.0</ele>
        <time>2015-08-15T12:46:39Z</time>
      </trkpt>
      <trkpt lat="40.531083" lon="-5.185650">
        <ele>2034.0</ele>
        <time>2015-08-15T12:46:41Z</time>
      </trkpt>
      <trkpt lat="40.531100" lon="-5.185400">
        <ele>2031.0</ele>
        <time>2015-08-15T12:46:43Z</time>
      </trkpt>
      <trkpt lat="40.531083" lon="-5.185150">
        <ele>2030.0</ele>
        <time>2015-08-15T12:46:45Z</time>
      </trkpt>
      <trkpt lat="40.531000" lon="-5.184933">
        <ele>2028.0</ele>
        <time>2015-08-15T12:46:47Z</time>
      </trkpt>
      <trkpt lat="40.530867" lon="-5.184717">
        <ele>2027.0</ele>
        <time>2015-08-15T12:46:49Z</time>
      </trkpt>
      <trkpt lat="40.530700" lon="-5.184583">
        <ele>2028.0</ele>
        <time>2015-08-15T12:46:51Z</time>
      </trkpt>
      <trkpt lat="40.530517" lon="-5.184567">
        <ele>2027.0</ele>
        <time>2015-08-15T12:46:53Z</time>
      </trkpt>
      <trkpt lat="40.530367" lon="-5.184600">
        <ele>2025.0</ele>
        <time>2015-08-15T12:46:55Z</time>
      </trkpt>
      <trkpt lat="40.530233" lon="-5.184733">
        <ele>2021.0</ele>
        <time>2015-08-15T12:46:57Z</time>
      </trkpt>
      <trkpt lat="40.530150" lon="-5.184917">
        <ele>2020.0</ele>
        <time>2015-08-15T12:46:59Z</time>
      </trkpt>
      <trkpt lat="40.530117" lon="-5.185100">
        <ele>2018.0</ele>
        <time>2015-08-15T12:47:01Z</time>
      </trkpt>
      <trkpt lat="40.530167" lon="-5.185283">
        <ele>2017.0</ele>
        <time>2015-08-15T12:47:03Z</time>
      </trkpt>
      <trkpt lat="40.530250" lon="-5.185433">
        <ele>2017.0</ele>
        <time>2015-08-15T12:47:05Z</time>
      </trkpt>
      <trkpt lat="40.530367" lon="-5.185533">
        <ele>2017.0</ele>
        <time>2015-08-15T12:47:07Z</time>
      </trkpt>
      <trkpt lat="40.530517" lon="-5.185567">
        <ele>2018.0</ele>
        <time>2015-08-15T12:47:09Z</time>
      </trkpt>
      <trkpt lat="40.530650" lon="-5.185583">
        <ele>2020.0</ele>
        <time>2015-08-15T12:47:11Z</time>
      </trkpt>
      <trkpt lat="40.530817" lon="-5.185550">
        <ele>2020.0</ele>
        <time>2015-08-15T12:47:13Z</time>
      </trkpt>
      <trkpt lat="40.531000" lon="-5.185450">
        <ele>2022.0</ele>
        <time>2015-08-15T12:47:15Z</time>
      </trkpt>
      <trkpt lat="40.531150" lon="-5.185383">
        <ele>2024.0</ele>
        <time>2015-08-15T12:47:17Z</time>
      </trkpt>
      <trkpt lat="40.531267" lon="-5.185233">
        <ele>2022.0</ele>
        <time>2015-08-15T12:47:19Z</time>
      </trkpt>
      <trkpt lat="40.531400" lon="-5.185033">
        <ele>2021.0</ele>
        <time>2015-08-15T12:47:21Z</time>
      </trkpt>
      <trkpt lat="40.531500" lon="-5.184850">
        <ele>2021.0</ele>
        <time>2015-08-15T12:47:23Z</time>
      </trkpt>
      <trkpt lat="40.531567" lon="-5.184600">
        <ele>2020.0</ele>
        <time>2015-08-15T12:47:25Z</time>
      </trkpt>
      <trkpt lat="40.531600" lon="-5.184333">
        <ele>2021.0</ele>
        <time>2015-08-15T12:47:27Z</time>
      </trkpt>
      <trkpt lat="40.531583" lon="-5.184067">
        <ele>2022.0</ele>
        <time>2015-08-15T12:47:29Z</time>
      </trkpt>
      <trkpt lat="40.531500" lon="-5.183817">
        <ele>2022.0</ele>
        <time>2015-08-15T12:47:31Z</time>
      </trkpt>
      <trkpt lat="40.531367" lon="-5.183617">
        <ele>2023.0</ele>
        <time>2015-08-15T12:47:33Z</time>
      </trkpt>
      <trkpt lat="40.531200" lon="-5.183483">
        <ele>2024.0</ele>
        <time>2015-08-15T12:47:35Z</time>
      </trkpt>
      <trkpt lat="40.531033" lon="-5.183450">
        <ele>2026.0</ele>
        <time>2015-08-15T12:47:37Z</time>
      </trkpt>
      <trkpt lat="40.530867" lon="-5.183483">
        <ele>2027.0</ele>
        <time>2015-08-15T12:47:39Z</time>
      </trkpt>
      <trkpt lat="40.530750" lon="-5.183583">
        <ele>2026.0</ele>
        <time>2015-08-15T12:47:41Z</time>
      </trkpt>
      <trkpt lat="40.530683" lon="-5.183750">
        <ele>2025.0</ele>
        <time>2015-08-15T12:47:43Z</time>
      </trkpt>
      <trkpt lat="40.530667" lon="-5.183950">
        <ele>2023.0</ele>
        <time>2015-08-15T12:47:45Z</time>
      </trkpt>
      <trkpt lat="40.530733" lon="-5.184133">
        <ele>2021.0</ele>
        <time>2015-08-15T12:47:47Z</time>
      </trkpt>
      <trkpt lat="40.530867" lon="-5.184250">
        <ele>2019.0</ele>
        <time>2015-08-15T12:47:49Z</time>
      </trkpt>
      <trkpt lat="40.531017" lon="-5.184333">
        <ele>2019.0</ele>
        <time>2015-08-15T12:47:51Z</time>
      </trkpt>
      <trkpt lat="40.531167" lon="-5.184400">
        <ele>2020.0</ele>
        <time>2015-08-15T12:47:53Z</time>
      </trkpt>
      <trkpt lat="40.531350" lon="-5.184433">
        <ele>2021.0</ele>
        <time>2015-08-15T12:47:55Z</time>
      </trkpt>
      <trkpt lat="40.531500" lon="-5.184467">
        <ele>2023.0</ele>
        <time>2015-08-15T12:47:57Z</time>
      </trkpt>
      <trkpt lat="40.531667" lon="-5.184450">
        <ele>2023.0</ele>
        <time>2015-08-15T12:47:59Z</time>
      </trkpt>
      <trkpt lat="40.531850" lon="-5.184383">
        <ele>2024.0</ele>
        <time>2015-08-15T12:48:01Z</time>
      </trkpt>
      <trkpt lat="40.532000" lon="-5.184300">
        <ele>2025.0</ele>
        <time>2015-08-15T12:48:03Z</time>
      </trkpt>
      <trkpt lat="40.532167" lon="-5.184200">
        <ele>2025.0</ele>
        <time>2015-08-15T12:48:05Z</time>
      </trkpt>
      <trkpt lat="40.532317" lon="-5.184083">
        <ele>2026.0</ele>
        <time>2015-08-15T12:48:07Z</time>
      </trkpt>
      <trkpt lat="40.532450" lon="-5.183950">
        <ele>2028.0</ele>
        <time>2015-08-15T12:48:09Z</time>
      </trkpt>
      <trkpt lat="40.532550" lon="-5.183767">
        <ele>2029.0</ele>
        <time>2015-08-15T12:48:11Z</time>
      </trkpt>
      <trkpt lat="40.532633" lon="-5.183550">
        <ele>2032.0</ele>
        <time>2015-08-15T12:48:13Z</time>
      </trkpt>
      <trkpt lat="40.532683" lon="-5.183333">
        <ele>2037.0</ele>
        <time>2015-08-15T12:48:15Z</time>
      </trkpt>
      <trkpt lat="40.532667" lon="-5.183133">
        <ele>2040.0</ele>
        <time>2015-08-15T12:48:17Z</time>
      </trkpt>
      <trkpt lat="40.532533" lon="-5.182917">
        <ele>2042.0</ele>
        <time>2015-08-15T12:48:19Z</time>
      </trkpt>
      <trkpt lat="40.532350" lon="-5.182783">
        <ele>2046.0</ele>
        <time>2015-08-15T12:48:21Z</time>
      </trkpt>
      <trkpt lat="40.532133" lon="-5.182783">
        <ele>2049.0</ele>
        <time>2015-08-15T12:48:23Z</time>
      </trkpt>
      <trkpt lat="40.531967" lon="-5.182917">
        <ele>2052.0</ele>
        <time>2015-08-15T12:48:25Z</time>
      </trkpt>
      <trkpt lat="40.531867" lon="-5.183083">
        <ele>2054.0</ele>
        <time>2015-08-15T12:48:27Z</time>
      </trkpt>
      <trkpt lat="40.531850" lon="-5.183300">
        <ele>2055.0</ele>
        <time>2015-08-15T12:48:29Z</time>
      </trkpt>
      <trkpt lat="40.531933" lon="-5.183467">
        <ele>2056.0</ele>
        <time>2015-08-15T12:48:31Z</time>
      </trkpt>
      <trkpt lat="40.532083" lon="-5.183550">
        <ele>2059.0</ele>
        <time>2015-08-15T12:48:33Z</time>
      </trkpt>
      <trkpt lat="40.532233" lon="-5.183550">
        <ele>2062.0</ele>
        <time>2015-08-15T12:48:35Z</time>
      </trkpt>
      <trkpt lat="40.532383" lon="-5.183467">
        <ele>2064.0</ele>
        <time>2015-08-15T12:48:37Z</time>
      </trkpt>
      <trkpt lat="40.532500" lon="-5.183333">
        <ele>2065.0</ele>
        <time>2015-08-15T12:48:39Z</time>
      </trkpt>
      <trkpt lat="40.532617" lon="-5.183133">
        <ele>2066.0</ele>
        <time>2015-08-15T12:48:41Z</time>
      </trkpt>
      <trkpt lat="40.532733" lon="-5.182883">
        <ele>2066.0</ele>
        <time>2015-08-15T12:48:43Z</time>
      </trkpt>
      <trkpt lat="40.532767" lon="-5.182600">
        <ele>2069.0</ele>
        <time>2015-08-15T12:48:45Z</time>
      </trkpt>
      <trkpt lat="40.532750" lon="-5.182317">
        <ele>2074.0</ele>
        <time>2015-08-15T12:48:47Z</time>
      </trkpt>
      <trkpt lat="40.532650" lon="-5.182033">
        <ele>2078.0</ele>
        <time>2015-08-15T12:48:49Z</time>
      </trkpt>
      <trkpt lat="40.532483" lon="-5.181850">
        <ele>2085.0</ele>
        <time>2015-08-15T12:48:51Z</time>
      </trkpt>
      <trkpt lat="40.532283" lon="-5.181750">
        <ele>2091.0</ele>
        <time>2015-08-15T12:48:53Z</time>
      </trkpt>
      <trkpt lat="40.532100" lon="-5.181783">
        <ele>2098.0</ele>
        <time>2015-08-15T12:48:55Z</time>
      </trkpt>
      <trkpt lat="40.531967" lon="-5.181967">
        <ele>2102.0</ele>
        <time>2015-08-15T12:48:57Z</time>
      </trkpt>
      <trkpt lat="40.531950" lon="-5.182200">
        <ele>2106.0</ele>
        <time>2015-08-15T12:48:59Z</time>
      </trkpt>
      <trkpt lat="40.532033" lon="-5.182383">
        <ele>2111.0</ele>
        <time>2015-08-15T12:49:01Z</time>
      </trkpt>
      <trkpt lat="40.532167" lon="-5.182467">
        <ele>2116.0</ele>
        <time>2015-08-15T12:49:03Z</time>
      </trkpt>
      <trkpt lat="40.532333" lon="-5.182433">
        <ele>2121.0</ele>
        <time>2015-08-15T12:49:05Z</time>
      </trkpt>
      <trkpt lat="40.532483" lon="-5.182283">
        <ele>2128.0</ele>
        <time>2015-08-15T12:49:07Z</time>
      </trkpt>
      <trkpt lat="40.532567" lon="-5.182033">
        <ele>2135.0</ele>
        <time>2015-08-15T12:49:09Z</time>
      </trkpt>
      <trkpt lat="40.532567" lon="-5.181750">
        <ele>2143.0</ele>
        <time>2015-08-15T12:49:11Z</time>
      </trkpt>
      <trkpt lat="40.532483" lon="-5.181500">
        <ele>2150.0</ele>
        <time>2015-08-15T12:49:13Z</time>
      </trkpt>
      <trkpt lat="40.532317" lon="-5.181317">
        <ele>2155.0</ele>
        <time>2015-08-15T12:49:15Z</time>
      </trkpt>
      <trkpt lat="40.532117" lon="-5.181233">
        <ele>2161.0</ele>
        <time>2015-08-15T12:49:17Z</time>
      </trkpt>
      <trkpt lat="40.531950" lon="-5.181283">
        <ele>2169.0</ele>
        <time>2015-08-15T12:49:19Z</time>
      </trkpt>
      <trkpt lat="40.531850" lon="-5.181417">
        <ele>2175.0</ele>
        <time>2015-08-15T12:49:21Z</time>
      </trkpt>
      <trkpt lat="40.531783" lon="-5.181600">
        <ele>2182.0</ele>
        <time>2015-08-15T12:49:23Z</time>
      </trkpt>
      <trkpt lat="40.531817" lon="-5.181733">
        <ele>2189.0</ele>
        <time>2015-08-15T12:49:25Z</time>
      </trkpt>
      <trkpt lat="40.531933" lon="-5.181833">
        <ele>2194.0</ele>
        <time>2015-08-15T12:49:27Z</time>
      </trkpt>
      <trkpt lat="40.532083" lon="-5.181850">
        <ele>2199.0</ele>
        <time>2015-08-15T12:49:29Z</time>
      </trkpt>
      <trkpt lat="40.532250" lon="-5.181783">
        <ele>2205.0</ele>
        <time>2015-08-15T12:49:31Z</time>
      </trkpt>
      <trkpt lat="40.532383" lon="-5.181650">
        <ele>2215.0</ele>
        <time>2015-08-15T12:49:33Z</time>
      </trkpt>
      <trkpt lat="40.532467" lon="-5.181450">
        <ele>2225.0</ele>
        <time>2015-08-15T12:49:35Z</time>
      </trkpt>
      <trkpt lat="40.532500" lon="-5.181267">
        <ele>2232.0</ele>
        <time>2015-08-15T12:49:37Z</time>
      </trkpt>
      <trkpt lat="40.532517" lon="-5.181033">
        <ele>2237.0</ele>
        <time>2015-08-15T12:49:39Z</time>
      </trkpt>
      <trkpt lat="40.532417" lon="-5.180783">
        <ele>2246.0</ele>
        <time>2015-08-15T12:49:41Z</time>
      </trkpt>
      <trkpt lat="40.532267" lon="-5.180667">
        <ele>2256.0</ele>
        <time>2015-08-15T12:49:43Z</time>
      </trkpt>
      <trkpt lat="40.532100" lon="-5.180583">
        <ele>2263.0</ele>
        <time>2015-08-15T12:49:45Z</time>
      </trkpt>
      <trkpt lat="40.531900" lon="-5.180550">
        <ele>2271.0</ele>
        <time>2015-08-15T12:49:47Z</time>
      </trkpt>
      <trkpt lat="40.531750" lon="-5.180650">
        <ele>2276.0</ele>
        <time>2015-08-15T12:49:49Z</time>
      </trkpt>
      <trkpt lat="40.531650" lon="-5.180817">
        <ele>2283.0</ele>
        <time>2015-08-15T12:49:51Z</time>
      </trkpt>
      <trkpt lat="40.531683" lon="-5.181000">
        <ele>2289.0</ele>
        <time>2015-08-15T12:49:53Z</time>
      </trkpt>
      <trkpt lat="40.531767" lon="-5.181117">
        <ele>2297.0</ele>
        <time>2015-08-15T12:49:55Z</time>
      </trkpt>
      <trkpt lat="40.531883" lon="-5.181133">
        <ele>2303.0</ele>
        <time>2015-08-15T12:49:57Z</time>
      </trkpt>
      <trkpt lat="40.532033" lon="-5.181050">
        <ele>2308.0</ele>
        <time>2015-08-15T12:49:59Z</time>
      </trkpt>
      <trkpt lat="40.532150" lon="-5.180883">
        <ele>2314.0</ele>
        <time>2015-08-15T12:50:01Z</time>
      </trkpt>
      <trkpt lat="40.532183" lon="-5.180633">
        <ele>2321.0</ele>
        <time>2015-08-15T12:50:03Z</time>
      </trkpt>
      <trkpt lat="40.532117" lon="-5.180417">
        <ele>2325.0</ele>
        <time>2015-08-15T12:50:05Z</time>
      </trkpt>
      <trkpt lat="40.532000" lon="-5.180200">
        <ele>2328.0</ele>
        <time>2015-08-15T12:50:07Z</time>
      </trkpt>
      <trkpt lat="40.531783" lon="-5.180033">
        <ele>2330.0</ele>
        <time>2015-08-15T12:50:09Z</time>
      </trkpt>
      <trkpt lat="40.531517" lon="-5.179967">
        <ele>2334.0</ele>
        <time>2015-08-15T12:50:11Z</time>
      </trkpt>
      <trkpt lat="40.531300" lon="-5.180017">
        <ele>2342.0</ele>
        <time>2015-08-15T12:50:13Z</time>
      </trkpt>
      <trkpt lat="40.531150" lon="-5.180150">
        <ele>2349.0</ele>
        <time>2015-08-15T12:50:15Z</time>
      </trkpt>
      <trkpt lat="40.531100" lon="-5.180367">
        <ele>2354.0</ele>
        <time>2015-08-15T12:50:17Z</time>
      </trkpt>
      <trkpt lat="40.531133" lon="-5.180567">
        <ele>2360.0</ele>
        <time>2015-08-15T12:50:19Z</time>
      </trkpt>
      <trkpt lat="40.531250" lon="-5.180667">
        <ele>2368.0</ele>
        <time>2015-08-15T12:50:21Z</time>
      </trkpt>
      <trkpt lat="40.531383" lon="-5.180683">
        <ele>2373.0</ele>
        <time>2015-08-15T12:50:23Z</time>
      </trkpt>
      <trkpt lat="40.531533" lon="-5.180617">
        <ele>2379.0</ele>
        <time>2015-08-15T12:50:25Z</time>
      </trkpt>
      <trkpt lat="40.531633" lon="-5.180450">
        <ele>2385.0</ele>
        <time>2015-08-15T12:50:27Z</time>
      </trkpt>
      <trkpt lat="40.531667" lon="-5.180233">
        <ele>2390.0</ele>
        <time>2015-08-15T12:50:29Z</time>
      </trkpt>
      <trkpt lat="40.531683" lon="-5.180017">
        <ele>2394.0</ele>
        <time>2015-08-15T12:50:31Z</time>
      </trkpt>
      <trkpt lat="40.531633" lon="-5.179783">
        <ele>2395.0</ele>
        <time>2015-08-15T12:50:33Z</time>
      </trkpt>
      <trkpt lat="40.531467" lon="-5.179517">
        <ele>2397.0</ele>
        <time>2015-08-15T12:50:35Z</time>
      </trkpt>
      <trkpt lat="40.531283" lon="-5.179283">
        <ele>2403.0</ele>
        <time>2015-08-15T12:50:37Z</time>
      </trkpt>
      <trkpt lat="40.531083" lon="-5.179200">
        <ele>2409.0</ele>
        <time>2015-08-15T12:50:39Z</time>
      </trkpt>
      <trkpt lat="40.530900" lon="-5.179250">
        <ele>2414.0</ele>
        <time>2015-08-15T12:50:41Z</time>
      </trkpt>
      <trkpt lat="40.530767" lon="-5.179367">
        <ele>2418.0</ele>
        <time>2015-08-15T12:50:43Z</time>
      </trkpt>
      <trkpt lat="40.530717" lon="-5.179567">
        <ele>2419.0</ele>
        <time>2015-08-15T12:50:45Z</time>
      </trkpt>
      <trkpt lat="40.530783" lon="-5.179783">
        <ele>2421.0</ele>
        <time>2015-08-15T12:50:47Z</time>
      </trkpt>
      <trkpt lat="40.530933" lon="-5.179900">
        <ele>2424.0</ele>
        <time>2015-08-15T12:50:49Z</time>
      </trkpt>
      <trkpt lat="40.531100" lon="-5.179867">
        <ele>2431.0</ele>
        <time>2015-08-15T12:50:51Z</time>
      </trkpt>
      <trkpt lat="40.531217" lon="-5.179783">
        <ele>2437.0</ele>
        <time>2015-08-15T12:50:53Z</time>
      </trkpt>
      <trkpt lat="40.531300" lon="-5.179633">
        <ele>2439.0</ele>
        <time>2015-08-15T12:50:55Z</time>
      </trkpt>
      <trkpt lat="40.531383" lon="-5.179417">
        <ele>2439.0</ele>
        <time>2015-08-15T12:50:57Z</time>
      </trkpt>
      <trkpt lat="40.531467" lon="-5.179183">
        <ele>2441.0</ele>
        <time>2015-08-15T12:50:59Z</time>
      </trkpt>
      <trkpt lat="40.531483" lon="-5.178950">
        <ele>2443.0</ele>
        <time>2015-08-15T12:51:01Z</time>
      </trkpt>
      <trkpt lat="40.531417" lon="-5.178650">
        <ele>2444.0</ele>
        <time>2015-08-15T12:51:03Z</time>
      </trkpt>
      <trkpt lat="40.531317" lon="-5.178367">
        <ele>2448.0</ele>
        <time>2015-08-15T12:51:05Z</time>
      </trkpt>
      <trkpt lat="40.531167" lon="-5.178167">
        <ele>2452.0</ele>
        <time>2015-08-15T12:51:07Z</time>
      </trkpt>
      <trkpt lat="40.530967" lon="-5.178083">
        <ele>2457.0</ele>
        <time>2015-08-15T12:51:09Z</time>
      </trkpt>
      <trkpt lat="40.530783" lon="-5.178117">
        <ele>2463.0</ele>
        <time>2015-08-15T12:51:11Z</time>
      </trkpt>
      <trkpt lat="40.530683" lon="-5.178233">
        <ele>2467.0</ele>
        <time>2015-08-15T12:51:13Z</time>
      </trkpt>
      <trkpt lat="40.530617" lon="-5.178417">
        <ele>2469.0</ele>
        <time>2015-08-15T12:51:15Z</time>
      </trkpt>
      <trkpt lat="40.530633" lon="-5.178633">
        <ele>2473.0</ele>
        <time>2015-08-15T12:51:17Z</time>
      </trkpt>
      <trkpt lat="40.530733" lon="-5.178767">
        <ele>2476.0</ele>
        <time>2015-08-15T12:51:19Z</time>
      </trkpt>
      <trkpt lat="40.530883" lon="-5.178817">
        <ele>2478.0</ele>
        <time>2015-08-15T12:51:21Z</time>
      </trkpt>
      <trkpt lat="40.531050" lon="-5.178733">
        <ele>2479.0</ele>
        <time>2015-08-15T12:51:23Z</time>
      </trkpt>
      <trkpt lat="40.531183" lon="-5.178583">
        <ele>2482.0</ele>
        <time>2015-08-15T12:51:25Z</time>
      </trkpt>
      <trkpt lat="40.531300" lon="-5.178350">
        <ele>2485.0</ele>
        <time>2015-08-15T12:51:27Z</time>
      </trkpt>
      <trkpt lat="40.531367" lon="-5.178083">
        <ele>2489.0</ele>
        <time>2015-08-15T12:51:29Z</time>
      </trkpt>
      <trkpt lat="40.531350" lon="-5.177800">
        <ele>2496.0</ele>
        <time>2015-08-15T12:51:31Z</time>
      </trkpt>
      <trkpt lat="40.531267" lon="-5.177550">
        <ele>2502.0</ele>
        <time>2015-08-15T12:51:33Z</time>
      </trkpt>
      <trkpt lat="40.531133" lon="-5.177350">
        <ele>2505.0</ele>
        <time>2015-08-15T12:51:35Z</time>
      </trkpt>
      <trkpt lat="40.530933" lon="-5.177200">
        <ele>2508.0</ele>
        <time>2015-08-15T12:51:37Z</time>
      </trkpt>
      <trkpt lat="40.530733" lon="-5.177167">
        <ele>2514.0</ele>
        <time>2015-08-15T12:51:39Z</time>
      </trkpt>
      <trkpt lat="40.530567" lon="-5.177217">
        <ele>2519.0</ele>
        <time>2015-08-15T12:51:41Z</time>
      </trkpt>
      <trkpt lat="40.530450" lon="-5.177367">
        <ele>2522.0</ele>
        <time>2015-08-15T12:51:43Z</time>
      </trkpt>
      <trkpt lat="40.530417" lon="-5.177567">
        <ele>2525.0</ele>
        <time>2015-08-15T12:51:45Z</time>
      </trkpt>
      <trkpt lat="40.530500" lon="-5.177750">
        <ele>2527.0</ele>
        <time>2015-08-15T12:51:47Z</time>
      </trkpt>
      <trkpt lat="40.530650" lon="-5.177850">
        <ele>2530.0</ele>
        <time>2015-08-15T12:51:49Z</time>
      </trkpt>
      <trkpt lat="40.530817" lon="-5.177833">
        <ele>2532.0</ele>
        <time>2015-08-15T12:51:51Z</time>
      </trkpt>
      <trkpt lat="40.531000" lon="-5.177700">
        <ele>2534.0</ele>
        <time>2015-08-15T12:51:53Z</time>
      </trkpt>
      <trkpt lat="40.531150" lon="-5.177500">
        <ele>2537.0</ele>
        <time>2015-08-15T12:51:55Z</time>
      </trkpt>
      <trkpt lat="40.531250" lon="-5.177233">
        <ele>2541.0</ele>
        <time>2015-08-15T12:51:57Z</time>
      </trkpt>
      <trkpt lat="40.531267" lon="-5.176950">
        <ele>2546.0</ele>
        <time>2015-08-15T12:51:59Z</time>
      </trkpt>
      <trkpt lat="40.531200" lon="-5.176683">
        <ele>2549.0</ele>
        <time>2015-08-15T12:52:01Z</time>
      </trkpt>
      <trkpt lat="40.531083" lon="-5.176450">
        <ele>2550.0</ele>
        <time>2015-08-15T12:52:03Z</time>
      </trkpt>
      <trkpt lat="40.530883" lon="-5.176300">
        <ele>2549.0</ele>
        <time>2015-08-15T12:52:05Z</time>
      </trkpt>
      <trkpt lat="40.530650" lon="-5.176267">
        <ele>2550.0</ele>
        <time>2015-08-15T12:52:07Z</time>
      </trkpt>
      <trkpt lat="40.530483" lon="-5.176367">
        <ele>2552.0</ele>
        <time>2015-08-15T12:52:09Z</time>
      </trkpt>
      <trkpt lat="40.530383" lon="-5.176533">
        <ele>2555.0</ele>
        <time>2015-08-15T12:52:11Z</time>
      </trkpt>
      <trkpt lat="40.530367" lon="-5.176733">
        <ele>2555.0</ele>
        <time>2015-08-15T12:52:13Z</time>
      </trkpt>
      <trkpt lat="40.530450" lon="-5.176933">
        <ele>2557.0</ele>
        <time>2015-08-15T12:52:15Z</time>
      </trkpt>
      <trkpt lat="40.530600" lon="-5.176983">
        <ele>2563.0</ele>
        <time>2015-08-15T12:52:17Z</time>
      </trkpt>
      <trkpt lat="40.530750" lon="-5.176917">
        <ele>2567.0</ele>
        <time>2015-08-15T12:52:19Z</time>
      </trkpt>
      <trkpt lat="40.530883" lon="-5.176817">
        <ele>2569.0</ele>
        <time>2015-08-15T12:52:21Z</time>
      </trkpt>
      <trkpt lat="40.531017" lon="-5.176683">
        <ele>2571.0</ele>
        <time>2015-08-15T12:52:23Z</time>
      </trkpt>
      <trkpt lat="40.531117" lon="-5.176517">
        <ele>2575.0</ele>
        <time>2015-08-15T12:52:25Z</time>
      </trkpt>
      <trkpt lat="40.531167" lon="-5.176283">
        <ele>2579.0</ele>
        <time>2015-08-15T12:52:27Z</time>
      </trkpt>
      <trkpt lat="40.531150" lon="-5.176033">
        <ele>2581.0</ele>
        <time>2015-08-15T12:52:29Z</time>
      </trkpt>
      <trkpt lat="40.531033" lon="-5.175800">
        <ele>2584.0</ele>
        <time>2015-08-15T12:52:31Z</time>
      </trkpt>
      <trkpt lat="40.530867" lon="-5.175600">
        <ele>2586.0</ele>
        <time>2015-08-15T12:52:33Z</time>
      </trkpt>
      <trkpt lat="40.530650" lon="-5.175467">
        <ele>2590.0</ele>
        <time>2015-08-15T12:52:35Z</time>
      </trkpt>
      <trkpt lat="40.530433" lon="-5.175467">
        <ele>2593.0</ele>
        <time>2015-08-15T12:52:37Z</time>
      </trkpt>
      <trkpt lat="40.530233" lon="-5.175550">
        <ele>2595.0</ele>
        <time>2015-08-15T12:52:39Z</time>
      </trkpt>
      <trkpt lat="40.530100" lon="-5.175700">
        <ele>2594.0</ele>
        <time>2015-08-15T12:52:41Z</time>
      </trkpt>
      <trkpt lat="40.530067" lon="-5.175883">
        <ele>2596.0</ele>
        <time>2015-08-15T12:52:43Z</time>
      </trkpt>
      <trkpt lat="40.530100" lon="-5.176017">
        <ele>2596.0</ele>
        <time>2015-08-15T12:52:45Z</time>
      </trkpt>
      <trkpt lat="40.530217" lon="-5.176150">
        <ele>2593.0</ele>
        <time>2015-08-15T12:52:47Z</time>
      </trkpt>
      <trkpt lat="40.530383" lon="-5.176250">
        <ele>2591.0</ele>
        <time>2015-08-15T12:52:49Z</time>
      </trkpt>
      <trkpt lat="40.530567" lon="-5.176267">
        <ele>2594.0</ele>
        <time>2015-08-15T12:52:51Z</time>
      </trkpt>
      <trkpt lat="40.530733" lon="-5.176317">
        <ele>2598.0</ele>
        <time>2015-08-15T12:52:53Z</time>
      </trkpt>
      <trkpt lat="40.530883" lon="-5.176333">
        <ele>2598.0</ele>
        <time>2015-08-15T12:52:55Z</time>
      </trkpt>
      <trkpt lat="40.531083" lon="-5.176233">
        <ele>2599.0</ele>
        <time>2015-08-15T12:52:57Z</time>
      </trkpt>
      <trkpt lat="40.531250" lon="-5.176133">
        <ele>2604.0</ele>
        <time>2015-08-15T12:52:59Z</time>
      </trkpt>
      <trkpt lat="40.531417" lon="-5.176017">
        <ele>2607.0</ele>
        <time>2015-08-15T12:53:01Z</time>
      </trkpt>
      <trkpt lat="40.531567" lon="-5.175867">
        <ele>2611.0</ele>
        <time>2015-08-15T12:53:03Z</time>
      </trkpt>
      <trkpt lat="40.531683" lon="-5.175733">
        <ele>2616.0</ele>
        <time>2015-08-15T12:53:05Z</time>
      </trkpt>
      <trkpt lat="40.531783" lon="-5.175550">
        <ele>2618.0</ele>
        <time>2015-08-15T12:53:07Z</time>
      </trkpt>
      <trkpt lat="40.531850" lon="-5.175300">
        <ele>2620.0</ele>
        <time>2015-08-15T12:53:09Z</time>
      </trkpt>
      <trkpt lat="40.531883" lon="-5.175050">
        <ele>2627.0</ele>
        <time>2015-08-15T12:53:11Z</time>
      </trkpt>
      <trkpt lat="40.531867" lon="-5.174850">
        <ele>2631.0</ele>
        <time>2015-08-15T12:53:13Z</time>
      </trkpt>
      <trkpt lat="40.531767" lon="-5.174650">
        <ele>2632.0</ele>
        <time>2015-08-15T12:53:15Z</time>
      </trkpt>
      <trkpt lat="40.531617" lon="-5.174500">
        <ele>2633.0</ele>
        <time>2015-08-15T12:53:17Z</time>
      </trkpt>
      <trkpt lat="40.531433" lon="-5.174450">
        <ele>2634.0</ele>
        <time>2015-08-15T12:53:19Z</time>
      </trkpt>
      <trkpt lat="40.531250" lon="-5.174517">
        <ele>2634.0</ele>
        <time>2015-08-15T12:53:21Z</time>
      </trkpt>
      <trkpt lat="40.531067" lon="-5.174633">
        <ele>2638.0</ele>
        <time>2015-08-15T12:53:23Z</time>
      </trkpt>
      <trkpt lat="40.530917" lon="-5.174750">
        <ele>2643.0</ele>
        <time>2015-08-15T12:53:25Z</time>
      </trkpt>
      <trkpt lat="40.530817" lon="-5.174917">
        <ele>2644.0</ele>
        <time>2015-08-15T12:53:27Z</time>
      </trkpt>
      <trkpt lat="40.530767" lon="-5.175133">
        <ele>2643.0</ele>
        <time>2015-08-15T12:53:29Z</time>
      </trkpt>
      <trkpt lat="40.530833" lon="-5.175350">
        <ele>2645.0</ele>
        <time>2015-08-15T12:53:31Z</time>
      </trkpt>
      <trkpt lat="40.530950" lon="-5.175467">
        <ele>2647.0</ele>
        <time>2015-08-15T12:53:33Z</time>
      </trkpt>
      <trkpt lat="40.531100" lon="-5.175517">
        <ele>2650.0</ele>
        <time>2015-08-15T12:53:35Z</time>
      </trkpt>
      <trkpt lat="40.531267" lon="-5.175483">
        <ele>2652.0</ele>
        <time>2015-08-15T12:53:37Z</time>
      </trkpt>
      <trkpt lat="40.531400" lon="-5.175400">
        <ele>2656.0</ele>
        <time>2015-08-15T12:53:39Z</time>
      </trkpt>
      <trkpt lat="40.531500" lon="-5.175267">
        <ele>2657.0</ele>
        <time>2015-08-15T12:53:41Z</time>
      </trkpt>
      <trkpt lat="40.531633" lon="-5.175117">
        <ele>2657.0</ele>
        <time>2015-08-15T12:53:43Z</time>
      </trkpt>
      <trkpt lat="40.531750" lon="-5.174950">
        <ele>2660.0</ele>
        <time>2015-08-15T12:53:45Z</time>
      </trkpt>
      <trkpt lat="40.531833" lon="-5.174783">
        <ele>2663.0</ele>
        <time>2015-08-15T12:53:47Z</time>
      </trkpt>
      <trkpt lat="40.531900" lon="-5.174583">
        <ele>2662.0</ele>
        <time>2015-08-15T12:53:49Z</time>
      </trkpt>
      <trkpt lat="40.531950" lon="-5.174367">
        <ele>2663.0</ele>
        <time>2015-08-15T12:53:51Z</time>
      </trkpt>
      <trkpt lat="40.531933" lon="-5.174150">
        <ele>2662.0</ele>
        <time>2015-08-15T12:53:53Z</time>
      </trkpt>
      <trkpt lat="40.531867" lon="-5.173900">
        <ele>2662.0</ele>
        <time>2015-08-15T12:53:55Z</time>
      </trkpt>
      <trkpt lat="40.531783" lon="-5.173700">
        <ele>2662.0</ele>
        <time>2015-08-15T12:53:57Z</time>
      </trkpt>
      <trkpt lat="40.531683" lon="-5.173467">
        <ele>2659.0</ele>
        <time>2015-08-15T12:53:59Z</time>
      </trkpt>
      <trkpt lat="40.531633" lon="-5.173217">
        <ele>2659.0</ele>
        <time>2015-08-15T12:54:01Z</time>
      </trkpt>
      <trkpt lat="40.531700" lon="-5.172967">
        <ele>2659.0</ele>
        <time>2015-08-15T12:54:03Z</time>
      </trkpt>
      <trkpt lat="40.531817" lon="-5.172783">
        <ele>2662.0</ele>
        <time>2015-08-15T12:54:05Z</time>
      </trkpt>
      <trkpt lat="40.531933" lon="-5.172633">
        <ele>2663.0</ele>
        <time>2015-08-15T12:54:07Z</time>
      </trkpt>
      <trkpt lat="40.532083" lon="-5.172500">
        <ele>2663.0</ele>
        <time>2015-08-15T12:54:09Z</time>
      </trkpt>
      <trkpt lat="40.532250" lon="-5.172350">
        <ele>2666.0</ele>
        <time>2015-08-15T12:54:11Z</time>
      </trkpt>
      <trkpt lat="40.532400" lon="-5.172217">
        <ele>2672.0</ele>
        <time>2015-08-15T12:54:13Z</time>
      </trkpt>
      <trkpt lat="40.532517" lon="-5.172100">
        <ele>2676.0</ele>
        <time>2015-08-15T12:54:15Z</time>
      </trkpt>
      <trkpt lat="40.532617" lon="-5.171933">
        <ele>2678.0</ele>
        <time>2015-08-15T12:54:17Z</time>
      </trkpt>
      <trkpt lat="40.532717" lon="-5.171733">
        <ele>2682.0</ele>
        <time>2015-08-15T12:54:19Z</time>
      </trkpt>
      <trkpt lat="40.532817" lon="-5.171533">
        <ele>2684.0</ele>
        <time>2015-08-15T12:54:21Z</time>
      </trkpt>
      <trkpt lat="40.532967" lon="-5.171400">
        <ele>2685.0</ele>
        <time>2015-08-15T12:54:23Z</time>
      </trkpt>
      <trkpt lat="40.533100" lon="-5.171267">
        <ele>2690.0</ele>
        <time>2015-08-15T12:54:25Z</time>
      </trkpt>
      <trkpt lat="40.533250" lon="-5.171133">
        <ele>2692.0</ele>
        <time>2015-08-15T12:54:27Z</time>
      </trkpt>
      <trkpt lat="40.533400" lon="-5.171017">
        <ele>2692.0</ele>
        <time>2015-08-15T12:54:29Z</time>
      </trkpt>
      <trkpt lat="40.533567" lon="-5.170833">
        <ele>2693.0</ele>
        <time>2015-08-15T12:54:31Z</time>
      </trkpt>
      <trkpt lat="40.533733" lon="-5.170650">
        <ele>2697.0</ele>
        <time>2015-08-15T12:54:33Z</time>
      </trkpt>
      <trkpt lat="40.533883" lon="-5.170517">
        <ele>2699.0</ele>
        <time>2015-08-15T12:54:35Z</time>
      </trkpt>
      <trkpt lat="40.534017" lon="-5.170383">
        <ele>2698.0</ele>
        <time>2015-08-15T12:54:37Z</time>
      </trkpt>
      <trkpt lat="40.534183" lon="-5.170217">
        <ele>2692.0</ele>
        <time>2015-08-15T12:54:39Z</time>
      </trkpt>
      <trkpt lat="40.534367" lon="-5.170033">
        <ele>2691.0</ele>
        <time>2015-08-15T12:54:41Z</time>
      </trkpt>
      <trkpt lat="40.534517" lon="-5.169883">
        <ele>2690.0</ele>
        <time>2015-08-15T12:54:43Z</time>
      </trkpt>
      <trkpt lat="40.534683" lon="-5.169767">
        <ele>2686.0</ele>
        <time>2015-08-15T12:54:45Z</time>
      </trkpt>
      <trkpt lat="40.534883" lon="-5.169633">
        <ele>2684.0</ele>
        <time>2015-08-15T12:54:47Z</time>
      </trkpt>
      <trkpt lat="40.535033" lon="-5.169500">
        <ele>2686.0</ele>
        <time>2015-08-15T12:54:49Z</time>
      </trkpt>
      <trkpt lat="40.535183" lon="-5.169383">
        <ele>2683.0</ele>
        <time>2015-08-15T12:54:51Z</time>
      </trkpt>
      <trkpt lat="40.535383" lon="-5.169233">
        <ele>2681.0</ele>
        <time>2015-08-15T12:54:53Z</time>
      </trkpt>
      <trkpt lat="40.535550" lon="-5.169133">
        <ele>2680.0</ele>
        <time>2015-08-15T12:54:55Z</time>
      </trkpt>
      <trkpt lat="40.535733" lon="-5.169017">
        <ele>2678.0</ele>
        <time>2015-08-15T12:54:57Z</time>
      </trkpt>
      <trkpt lat="40.535933" lon="-5.168867">
        <ele>2680.0</ele>
        <time>2015-08-15T12:54:59Z</time>
      </trkpt>
      <trkpt lat="40.536083" lon="-5.168783">
        <ele>2688.0</ele>
        <time>2015-08-15T12:55:01Z</time>
      </trkpt>
      <trkpt lat="40.536217" lon="-5.168717">
        <ele>2689.0</ele>
        <time>2015-08-15T12:55:03Z</time>
      </trkpt>
      <trkpt lat="40.536400" lon="-5.168617">
        <ele>2688.0</ele>
        <time>2015-08-15T12:55:05Z</time>
      </trkpt>
      <trkpt lat="40.536550" lon="-5.168483">
        <ele>2688.0</ele>
        <time>2015-08-15T12:55:07Z</time>
      </trkpt>
      <trkpt lat="40.536717" lon="-5.168367">
        <ele>2686.0</ele>
        <time>2015-08-15T12:55:09Z</time>
      </trkpt>
      <trkpt lat="40.536883" lon="-5.168200">
        <ele>2683.0</ele>
        <time>2015-08-15T12:55:11Z</time>
      </trkpt>
      <trkpt lat="40.537050" lon="-5.168050">
        <ele>2679.0</ele>
        <time>2015-08-15T12:55:13Z</time>
      </trkpt>
      <trkpt lat="40.537233" lon="-5.167900">
        <ele>2676.0</ele>
        <time>2015-08-15T12:55:15Z</time>
      </trkpt>
      <trkpt lat="40.537417" lon="-5.167767">
        <ele>2674.0</ele>
        <time>2015-08-15T12:55:17Z</time>
      </trkpt>
      <trkpt lat="40.537600" lon="-5.167617">
        <ele>2672.0</ele>
        <time>2015-08-15T12:55:19Z</time>
      </trkpt>
      <trkpt lat="40.537750" lon="-5.167450">
        <ele>2672.0</ele>
        <time>2015-08-15T12:55:21Z</time>
      </trkpt>
      <trkpt lat="40.537917" lon="-5.167300">
        <ele>2669.0</ele>
        <time>2015-08-15T12:55:23Z</time>
      </trkpt>
      <trkpt lat="40.538100" lon="-5.167133">
        <ele>2665.0</ele>
        <time>2015-08-15T12:55:25Z</time>
      </trkpt>
      <trkpt lat="40.538300" lon="-5.166967">
        <ele>2664.0</ele>
        <time>2015-08-15T12:55:27Z</time>
      </trkpt>
      <trkpt lat="40.538483" lon="-5.166850">
        <ele>2663.0</ele>
        <time>2015-08-15T12:55:29Z</time>
      </trkpt>
      <trkpt lat="40.538667" lon="-5.166750">
        <ele>2659.0</ele>
        <time>2015-08-15T12:55:31Z</time>
      </trkpt>
      <trkpt lat="40.538867" lon="-5.166633">
        <ele>2654.0</ele>
        <time>2015-08-15T12:55:33Z</time>
      </trkpt>
      <trkpt lat="40.539100" lon="-5.166533">
        <ele>2653.0</ele>
        <time>2015-08-15T12:55:35Z</time>
      </trkpt>
      <trkpt lat="40.539283" lon="-5.166450">
        <ele>2653.0</ele>
        <time>2015-08-15T12:55:37Z</time>
      </trkpt>
      <trkpt lat="40.539450" lon="-5.166333">
        <ele>2648.0</ele>
        <time>2015-08-15T12:55:39Z</time>
      </trkpt>
      <trkpt lat="40.539650" lon="-5.166233">
        <ele>2638.0</ele>
        <time>2015-08-15T12:55:41Z</time>
      </trkpt>
      <trkpt lat="40.539883" lon="-5.166117">
        <ele>2631.0</ele>
        <time>2015-08-15T12:55:43Z</time>
      </trkpt>
      <trkpt lat="40.540067" lon="-5.165967">
        <ele>2627.0</ele>
        <time>2015-08-15T12:55:45Z</time>
      </trkpt>
      <trkpt lat="40.540267" lon="-5.165833">
        <ele>2621.0</ele>
        <time>2015-08-15T12:55:47Z</time>
      </trkpt>
      <trkpt lat="40.540467" lon="-5.165667">
        <ele>2616.0</ele>
        <time>2015-08-15T12:55:49Z</time>
      </trkpt>
      <trkpt lat="40.540617" lon="-5.165517">
        <ele>2613.0</ele>
        <time>2015-08-15T12:55:51Z</time>
      </trkpt>
      <trkpt lat="40.540767" lon="-5.165350">
        <ele>2608.0</ele>
        <time>2015-08-15T12:55:53Z</time>
      </trkpt>
      <trkpt lat="40.540933" lon="-5.165217">
        <ele>2603.0</ele>
        <time>2015-08-15T12:55:55Z</time>
      </trkpt>
      <trkpt lat="40.541117" lon="-5.165133">
        <ele>2600.0</ele>
        <time>2015-08-15T12:55:57Z</time>
      </trkpt>
      <trkpt lat="40.541283" lon="-5.165033">
        <ele>2599.0</ele>
        <time>2015-08-15T12:55:59Z</time>
      </trkpt>
      <trkpt lat="40.541433" lon="-5.164917">
        <ele>2597.0</ele>
        <time>2015-08-15T12:56:01Z</time>
      </trkpt>
      <trkpt lat="40.541583" lon="-5.164750">
        <ele>2594.0</ele>
        <time>2015-08-15T12:56:03Z</time>
      </trkpt>
      <trkpt lat="40.541733" lon="-5.164567">
        <ele>2591.0</ele>
        <time>2015-08-15T12:56:05Z</time>
      </trkpt>
      <trkpt lat="40.541883" lon="-5.164400">
        <ele>2591.0</ele>
        <time>2015-08-15T12:56:07Z</time>
      </trkpt>
      <trkpt lat="40.542033" lon="-5.164250">
        <ele>2588.0</ele>
        <time>2015-08-15T12:56:09Z</time>
      </trkpt>
      <trkpt lat="40.542200" lon="-5.164083">
        <ele>2585.0</ele>
        <time>2015-08-15T12:56:11Z</time>
      </trkpt>
      <trkpt lat="40.542367" lon="-5.163917">
        <ele>2584.0</ele>
        <time>2015-08-15T12:56:13Z</time>
      </trkpt>
      <trkpt lat="40.542533" lon="-5.163750">
        <ele>2585.0</ele>
        <time>2015-08-15T12:56:15Z</time>
      </trkpt>
      <trkpt lat="40.542683" lon="-5.163600">
        <ele>2583.0</ele>
        <time>2015-08-15T12:56:17Z</time>
      </trkpt>
      <trkpt lat="40.542850" lon="-5.163467">
        <ele>2581.0</ele>
        <time>2015-08-15T12:56:19Z</time>
      </trkpt>
      <trkpt lat="40.543033" lon="-5.163333">
        <ele>2581.0</ele>
        <time>2015-08-15T12:56:21Z</time>
      </trkpt>
      <trkpt lat="40.543217" lon="-5.163200">
        <ele>2581.0</ele>
        <time>2015-08-15T12:56:23Z</time>
      </trkpt>
      <trkpt lat="40.543383" lon="-5.163033">
        <ele>2578.0</ele>
        <time>2015-08-15T12:56:25Z</time>
      </trkpt>
      <trkpt lat="40.543567" lon="-5.162850">
        <ele>2575.0</ele>
        <time>2015-08-15T12:56:27Z</time>
      </trkpt>
      <trkpt lat="40.543733" lon="-5.162700">
        <ele>2575.0</ele>
        <time>2015-08-15T12:56:29Z</time>
      </trkpt>
      <trkpt lat="40.543900" lon="-5.162550">
        <ele>2574.0</ele>
        <time>2015-08-15T12:56:31Z</time>
      </trkpt>
      <trkpt lat="40.544050" lon="-5.162383">
        <ele>2571.0</ele>
        <time>2015-08-15T12:56:33Z</time>
      </trkpt>
      <trkpt lat="40.544217" lon="-5.162217">
        <ele>2570.0</ele>
        <time>2015-08-15T12:56:35Z</time>
      </trkpt>
      <trkpt lat="40.544367" lon="-5.162050">
        <ele>2568.0</ele>
        <time>2015-08-15T12:56:37Z</time>
      </trkpt>
      <trkpt lat="40.544517" lon="-5.161883">
        <ele>2563.0</ele>
        <time>2015-08-15T12:56:39Z</time>
      </trkpt>
      <trkpt lat="40.544683" lon="-5.161717">
        <ele>2560.0</ele>
        <time>2015-08-15T12:56:41Z</time>
      </trkpt>
      <trkpt lat="40.544833" lon="-5.161550">
        <ele>2558.0</ele>
        <time>2015-08-15T12:56:43Z</time>
      </trkpt>
      <trkpt lat="40.544983" lon="-5.161367">
        <ele>2553.0</ele>
        <time>2015-08-15T12:56:45Z</time>
      </trkpt>
      <trkpt lat="40.545167" lon="-5.161200">
        <ele>2549.0</ele>
        <time>2015-08-15T12:56:47Z</time>
      </trkpt>
      <trkpt lat="40.545333" lon="-5.161017">
        <ele>2549.0</ele>
        <time>2015-08-15T12:56:49Z</time>
      </trkpt>
      <trkpt lat="40.545483" lon="-5.160867">
        <ele>2546.0</ele>
        <time>2015-08-15T12:56:51Z</time>
      </trkpt>
      <trkpt lat="40.545633" lon="-5.160700">
        <ele>2541.0</ele>
        <time>2015-08-15T12:56:53Z</time>
      </trkpt>
      <trkpt lat="40.545800" lon="-5.160533">
        <ele>2537.0</ele>
        <time>2015-08-15T12:56:55Z</time>
      </trkpt>
      <trkpt lat="40.545950" lon="-5.160367">
        <ele>2533.0</ele>
        <time>2015-08-15T12:56:57Z</time>
      </trkpt>
      <trkpt lat="40.546133" lon="-5.160200">
        <ele>2530.0</ele>
        <time>2015-08-15T12:56:59Z</time>
      </trkpt>
      <trkpt lat="40.546283" lon="-5.160033">
        <ele>2527.0</ele>
        <time>2015-08-15T12:57:01Z</time>
      </trkpt>
      <trkpt lat="40.546433" lon="-5.159917">
        <ele>2523.0</ele>
        <time>2015-08-15T12:57:03Z</time>
      </trkpt>
      <trkpt lat="40.546600" lon="-5.159767">
        <ele>2519.0</ele>
        <time>2015-08-15T12:57:05Z</time>
      </trkpt>
      <trkpt lat="40.546767" lon="-5.159633">
        <ele>2516.0</ele>
        <time>2015-08-15T12:57:07Z</time>
      </trkpt>
      <trkpt lat="40.546917" lon="-5.159500">
        <ele>2512.0</ele>
        <time>2015-08-15T12:57:09Z</time>
      </trkpt>
      <trkpt lat="40.547067" lon="-5.159367">
        <ele>2507.0</ele>
        <time>2015-08-15T12:57:11Z</time>
      </trkpt>
      <trkpt lat="40.547233" lon="-5.159233">
        <ele>2504.0</ele>
        <time>2015-08-15T12:57:13Z</time>
      </trkpt>
      <trkpt lat="40.547400" lon="-5.159100">
        <ele>2500.0</ele>
        <time>2015-08-15T12:57:15Z</time>
      </trkpt>
      <trkpt lat="40.547583" lon="-5.158983">
        <ele>2495.0</ele>
        <time>2015-08-15T12:57:17Z</time>
      </trkpt>
      <trkpt lat="40.547767" lon="-5.158867">
        <ele>2490.0</ele>
        <time>2015-08-15T12:57:19Z</time>
      </trkpt>
      <trkpt lat="40.547950" lon="-5.158750">
        <ele>2484.0</ele>
        <time>2015-08-15T12:57:21Z</time>
      </trkpt>
      <trkpt lat="40.548183" lon="-5.158617">
        <ele>2479.0</ele>
        <time>2015-08-15T12:57:23Z</time>
      </trkpt>
      <trkpt lat="40.548383" lon="-5.158500">
        <ele>2478.0</ele>
        <time>2015-08-15T12:57:25Z</time>
      </trkpt>
      <trkpt lat="40.548567" lon="-5.158417">
        <ele>2474.0</ele>
        <time>2015-08-15T12:57:27Z</time>
      </trkpt>
      <trkpt lat="40.548767" lon="-5.158300">
        <ele>2468.0</ele>
        <time>2015-08-15T12:57:29Z</time>
      </trkpt>
      <trkpt lat="40.548967" lon="-5.158167">
        <ele>2464.0</ele>
        <time>2015-08-15T12:57:31Z</time>
      </trkpt>
      <trkpt lat="40.549150" lon="-5.158067">
        <ele>2460.0</ele>
        <time>2015-08-15T12:57:33Z</time>
      </trkpt>
      <trkpt lat="40.549333" lon="-5.157933">
        <ele>2454.0</ele>
        <time>2015-08-15T12:57:35Z</time>
      </trkpt>
      <trkpt lat="40.549533" lon="-5.157800">
        <ele>2449.0</ele>
        <time>2015-08-15T12:57:37Z</time>
      </trkpt>
      <trkpt lat="40.549717" lon="-5.157650">
        <ele>2444.0</ele>
        <time>2015-08-15T12:57:39Z</time>
      </trkpt>
      <trkpt lat="40.549883" lon="-5.157517">
        <ele>2439.0</ele>
        <time>2015-08-15T12:57:41Z</time>
      </trkpt>
      <trkpt lat="40.550033" lon="-5.157367">
        <ele>2433.0</ele>
        <time>2015-08-15T12:57:43Z</time>
      </trkpt>
      <trkpt lat="40.550217" lon="-5.157233">
        <ele>2428.0</ele>
        <time>2015-08-15T12:57:45Z</time>
      </trkpt>
      <trkpt lat="40.550383" lon="-5.157117">
        <ele>2424.0</ele>
        <time>2015-08-15T12:57:47Z</time>
      </trkpt>
      <trkpt lat="40.550550" lon="-5.156983">
        <ele>2419.0</ele>
        <time>2015-08-15T12:57:49Z</time>
      </trkpt>
      <trkpt lat="40.550717" lon="-5.156850">
        <ele>2415.0</ele>
        <time>2015-08-15T12:57:51Z</time>
      </trkpt>
      <trkpt lat="40.550883" lon="-5.156717">
        <ele>2411.0</ele>
        <time>2015-08-15T12:57:53Z</time>
      </trkpt>
      <trkpt lat="40.551067" lon="-5.156567">
        <ele>2407.0</ele>
        <time>2015-08-15T12:57:55Z</time>
      </trkpt>
      <trkpt lat="40.551233" lon="-5.156417">
        <ele>2404.0</ele>
        <time>2015-08-15T12:57:57Z</time>
      </trkpt>
      <trkpt lat="40.551417" lon="-5.156267">
        <ele>2400.0</ele>
        <time>2015-08-15T12:57:59Z</time>
      </trkpt>
      <trkpt lat="40.551600" lon="-5.156150">
        <ele>2397.0</ele>
        <time>2015-08-15T12:58:01Z</time>
      </trkpt>
      <trkpt lat="40.551767" lon="-5.156017">
        <ele>2393.0</ele>
        <time>2015-08-15T12:58:03Z</time>
      </trkpt>
      <trkpt lat="40.551933" lon="-5.155867">
        <ele>2390.0</ele>
        <time>2015-08-15T12:58:05Z</time>
      </trkpt>
      <trkpt lat="40.552117" lon="-5.155733">
        <ele>2386.0</ele>
        <time>2015-08-15T12:58:07Z</time>
      </trkpt>
      <trkpt lat="40.552283" lon="-5.155600">
        <ele>2384.0</ele>
        <time>2015-08-15T12:58:09Z</time>
      </trkpt>
      <trkpt lat="40.552433" lon="-5.155483">
        <ele>2382.0</ele>
        <time>2015-08-15T12:58:11Z</time>
      </trkpt>
      <trkpt lat="40.552600" lon="-5.155367">
        <ele>2378.0</ele>
        <time>2015-08-15T12:58:13Z</time>
      </trkpt>
      <trkpt lat="40.552767" lon="-5.155233">
        <ele>2373.0</ele>
        <time>2015-08-15T12:58:15Z</time>
      </trkpt>
      <trkpt lat="40.552900" lon="-5.155050">
        <ele>2370.0</ele>
        <time>2015-08-15T12:58:17Z</time>
      </trkpt>
      <trkpt lat="40.553033" lon="-5.154883">
        <ele>2367.0</ele>
        <time>2015-08-15T12:58:19Z</time>
      </trkpt>
      <trkpt lat="40.553167" lon="-5.154717">
        <ele>2363.0</ele>
        <time>2015-08-15T12:58:21Z</time>
      </trkpt>
      <trkpt lat="40.553317" lon="-5.154533">
        <ele>2359.0</ele>
        <time>2015-08-15T12:58:23Z</time>
      </trkpt>
      <trkpt lat="40.553467" lon="-5.154383">
        <ele>2356.0</ele>
        <time>2015-08-15T12:58:25Z</time>
      </trkpt>
      <trkpt lat="40.553617" lon="-5.154233">
        <ele>2352.0</ele>
        <time>2015-08-15T12:58:27Z</time>
      </trkpt>
      <trkpt lat="40.553767" lon="-5.154067">
        <ele>2349.0</ele>
        <time>2015-08-15T12:58:29Z</time>
      </trkpt>
      <trkpt lat="40.553917" lon="-5.153900">
        <ele>2347.0</ele>
        <time>2015-08-15T12:58:31Z</time>
      </trkpt>
      <trkpt lat="40.554050" lon="-5.153700">
        <ele>2343.0</ele>
        <time>2015-08-15T12:58:33Z</time>
      </trkpt>
      <trkpt lat="40.554200" lon="-5.153500">
        <ele>2340.0</ele>
        <time>2015-08-15T12:58:35Z</time>
      </trkpt>
      <trkpt lat="40.554350" lon="-5.153317">
        <ele>2337.0</ele>
        <time>2015-08-15T12:58:37Z</time>
      </trkpt>
      <trkpt lat="40.554517" lon="-5.153133">
        <ele>2333.0</ele>
        <time>2015-08-15T12:58:39Z</time>
      </trkpt>
      <trkpt lat="40.554667" lon="-5.152917">
        <ele>2331.0</ele>
        <time>2015-08-15T12:58:41Z</time>
      </trkpt>
      <trkpt lat="40.554800" lon="-5.152750">
        <ele>2329.0</ele>
        <time>2015-08-15T12:58:43Z</time>
      </trkpt>
      <trkpt lat="40.554967" lon="-5.152567">
        <ele>2324.0</ele>
        <time>2015-08-15T12:58:45Z</time>
      </trkpt>
      <trkpt lat="40.555133" lon="-5.152350">
        <ele>2322.0</ele>
        <time>2015-08-15T12:58:47Z</time>
      </trkpt>
      <trkpt lat="40.555300" lon="-5.152167">
        <ele>2322.0</ele>
        <time>2015-08-15T12:58:49Z</time>
      </trkpt>
      <trkpt lat="40.555450" lon="-5.152000">
        <ele>2321.0</ele>
        <time>2015-08-15T12:58:51Z</time>
      </trkpt>
      <trkpt lat="40.555583" lon="-5.151800">
        <ele>2318.0</ele>
        <time>2015-08-15T12:58:53Z</time>
      </trkpt>
      <trkpt lat="40.555717" lon="-5.151583">
        <ele>2314.0</ele>
        <time>2015-08-15T12:58:55Z</time>
      </trkpt>
      <trkpt lat="40.555867" lon="-5.151383">
        <ele>2313.0</ele>
        <time>2015-08-15T12:58:57Z</time>
      </trkpt>
      <trkpt lat="40.556000" lon="-5.151200">
        <ele>2312.0</ele>
        <time>2015-08-15T12:58:59Z</time>
      </trkpt>
      <trkpt lat="40.556150" lon="-5.151017">
        <ele>2309.0</ele>
        <time>2015-08-15T12:59:01Z</time>
      </trkpt>
      <trkpt lat="40.556283" lon="-5.150800">
        <ele>2308.0</ele>
        <time>2015-08-15T12:59:03Z</time>
      </trkpt>
      <trkpt lat="40.556433" lon="-5.150633">
        <ele>2307.0</ele>
        <time>2015-08-15T12:59:05Z</time>
      </trkpt>
      <trkpt lat="40.556567" lon="-5.150450">
        <ele>2304.0</ele>
        <time>2015-08-15T12:59:07Z</time>
      </trkpt>
      <trkpt lat="40.556733" lon="-5.150267">
        <ele>2302.0</ele>
        <time>2015-08-15T12:59:09Z</time>
      </trkpt>
      <trkpt lat="40.556867" lon="-5.150083">
        <ele>2303.0</ele>
        <time>2015-08-15T12:59:11Z</time>
      </trkpt>
      <trkpt lat="40.557000" lon="-5.149917">
        <ele>2302.0</ele>
        <time>2015-08-15T12:59:13Z</time>
      </trkpt>
      <trkpt lat="40.557133" lon="-5.149750">
        <ele>2297.0</ele>
        <time>2015-08-15T12:59:15Z</time>
      </trkpt>
      <trkpt lat="40.557267" lon="-5.149533">
        <ele>2292.0</ele>
        <time>2015-08-15T12:59:17Z</time>
      </trkpt>
      <trkpt lat="40.557417" lon="-5.149300">
        <ele>2289.0</ele>
        <time>2015-08-15T12:59:19Z</time>
      </trkpt>
      <trkpt lat="40.557550" lon="-5.149050">
        <ele>2288.0</ele>
        <time>2015-08-15T12:59:21Z</time>
      </trkpt>
      <trkpt lat="40.557667" lon="-5.148850">
        <ele>2289.0</ele>
        <time>2015-08-15T12:59:23Z</time>
      </trkpt>
      <trkpt lat="40.557767" lon="-5.148717">
        <ele>2288.0</ele>
        <time>2015-08-15T12:59:25Z</time>
      </trkpt>
      <trkpt lat="40.557900" lon="-5.148500">
        <ele>2287.0</ele>
        <time>2015-08-15T12:59:27Z</time>
      </trkpt>
      <trkpt lat="40.558050" lon="-5.148300">
        <ele>2290.0</ele>
        <time>2015-08-15T12:59:29Z</time>
      </trkpt>
      <trkpt lat="40.558167" lon="-5.148133">
        <ele>2292.0</ele>
        <time>2015-08-15T12:59:31Z</time>
      </trkpt>
      <trkpt lat="40.558283" lon="-5.147950">
        <ele>2288.0</ele>
        <time>2015-08-15T12:59:33Z</time>
      </trkpt>
      <trkpt lat="40.558433" lon="-5.147733">
        <ele>2285.0</ele>
        <time>2015-08-15T12:59:35Z</time>
      </trkpt>
      <trkpt lat="40.558533" lon="-5.147533">
        <ele>2284.0</ele>
        <time>2015-08-15T12:59:37Z</time>
      </trkpt>
      <trkpt lat="40.558650" lon="-5.147350">
        <ele>2283.0</ele>
        <time>2015-08-15T12:59:39Z</time>
      </trkpt>
      <trkpt lat="40.558767" lon="-5.147200">
        <ele>2281.0</ele>
        <time>2015-08-15T12:59:41Z</time>
      </trkpt>
      <trkpt lat="40.558900" lon="-5.147017">
        <ele>2278.0</ele>
        <time>2015-08-15T12:59:43Z</time>
      </trkpt>
      <trkpt lat="40.559017" lon="-5.146867">
        <ele>2277.0</ele>
        <time>2015-08-15T12:59:45Z</time>
      </trkpt>
      <trkpt lat="40.559150" lon="-5.146767">
        <ele>2275.0</ele>
        <time>2015-08-15T12:59:47Z</time>
      </trkpt>
      <trkpt lat="40.559283" lon="-5.146683">
        <ele>2269.0</ele>
        <time>2015-08-15T12:59:49Z</time>
      </trkpt>
      <trkpt lat="40.559450" lon="-5.146567">
        <ele>2265.0</ele>
        <time>2015-08-15T12:59:51Z</time>
      </trkpt>
      <trkpt lat="40.559600" lon="-5.146417">
        <ele>2262.0</ele>
        <time>2015-08-15T12:59:53Z</time>
      </trkpt>
      <trkpt lat="40.559717" lon="-5.146283">
        <ele>2261.0</ele>
        <time>2015-08-15T12:59:55Z</time>
      </trkpt>
      <trkpt lat="40.559833" lon="-5.146117">
        <ele>2261.0</ele>
        <time>2015-08-15T12:59:57Z</time>
      </trkpt>
      <trkpt lat="40.559950" lon="-5.145917">
        <ele>2260.0</ele>
        <time>2015-08-15T12:59:59Z</time>
      </trkpt>
      <trkpt lat="40.560067" lon="-5.145733">
        <ele>2260.0</ele>
        <time>2015-08-15T13:00:01Z</time>
      </trkpt>
      <trkpt lat="40.560183" lon="-5.145617">
        <ele>2260.0</ele>
        <time>2015-08-15T13:00:03Z</time>
      </trkpt>
      <trkpt lat="40.560283" lon="-5.145450">
        <ele>2258.0</ele>
        <time>2015-08-15T13:00:05Z</time>
      </trkpt>
      <trkpt lat="40.560400" lon="-5.145267">
        <ele>2256.0</ele>
        <time>2015-08-15T13:00:07Z</time>
      </trkpt>
      <trkpt lat="40.560483" lon="-5.145083">
        <ele>2253.0</ele>
        <time>2015-08-15T13:00:09Z</time>
      </trkpt>
      <trkpt lat="40.560583" lon="-5.144900">
        <ele>2249.0</ele>
        <time>2015-08-15T13:00:11Z</time>
      </trkpt>
      <trkpt lat="40.560667" lon="-5.144750">
        <ele>2249.0</ele>
        <time>2015-08-15T13:00:13Z</time>
      </trkpt>
      <trkpt lat="40.560750" lon="-5.144667">
        <ele>2244.0</ele>
        <time>2015-08-15T13:00:15Z</time>
      </trkpt>
      <trkpt lat="40.560900" lon="-5.144617">
        <ele>2240.0</ele>
        <time>2015-08-15T13:00:17Z</time>
      </trkpt>
      <trkpt lat="40.561000" lon="-5.144583">
        <ele>2242.0</ele>
        <time>2015-08-15T13:00:19Z</time>
      </trkpt>
      <trkpt lat="40.561050" lon="-5.144533">
        <ele>2239.0</ele>
        <time>2015-08-15T13:00:21Z</time>
      </trkpt>
      <trkpt lat="40.561133" lon="-5.144500">
        <ele>2231.0</ele>
        <time>2015-08-15T13:00:23Z</time>
      </trkpt>
      <trkpt lat="40.561267" lon="-5.144450">
        <ele>2226.0</ele>
        <time>2015-08-15T13:00:25Z</time>
      </trkpt>
      <trkpt lat="40.561383" lon="-5.144400">
        <ele>2224.0</ele>
        <time>2015-08-15T13:00:27Z</time>
      </trkpt>
      <trkpt lat="40.561467" lon="-5.144333">
        <ele>2220.0</ele>
        <time>2015-08-15T13:00:29Z</time>
      </trkpt>
      <trkpt lat="40.561583" lon="-5.144250">
        <ele>2216.0</ele>
        <time>2015-08-15T13:00:31Z</time>
      </trkpt>
      <trkpt lat="40.561667" lon="-5.144100">
        <ele>2213.0</ele>
        <time>2015-08-15T13:00:33Z</time>
      </trkpt>
      <trkpt lat="40.561750" lon="-5.143950">
        <ele>2209.0</ele>
        <time>2015-08-15T13:00:35Z</time>
      </trkpt>
      <trkpt lat="40.561850" lon="-5.143767">
        <ele>2203.0</ele>
        <time>2015-08-15T13:00:37Z</time>
      </trkpt>
      <trkpt lat="40.561917" lon="-5.143617">
        <ele>2200.0</ele>
        <time>2015-08-15T13:00:39Z</time>
      </trkpt>
      <trkpt lat="40.561983" lon="-5.143517">
        <ele>2194.0</ele>
        <time>2015-08-15T13:00:41Z</time>
      </trkpt>
      <trkpt lat="40.562100" lon="-5.143400">
        <ele>2186.0</ele>
        <time>2015-08-15T13:00:43Z</time>
      </trkpt>
      <trkpt lat="40.562217" lon="-5.143250">
        <ele>2180.0</ele>
        <time>2015-08-15T13:00:45Z</time>
      </trkpt>
      <trkpt lat="40.562317" lon="-5.143150">
        <ele>2175.0</ele>
        <time>2015-08-15T13:00:47Z</time>
      </trkpt>
      <trkpt lat="40.562433" lon="-5.143017">
        <ele>2169.0</ele>
        <time>2015-08-15T13:00:49Z</time>
      </trkpt>
      <trkpt lat="40.562533" lon="-5.142850">
        <ele>2165.0</ele>
        <time>2015-08-15T13:00:51Z</time>
      </trkpt>
      <trkpt lat="40.562617" lon="-5.142650">
        <ele>2162.0</ele>
        <time>2015-08-15T13:00:53Z</time>
      </trkpt>
      <trkpt lat="40.562717" lon="-5.142467">
        <ele>2155.0</ele>
        <time>2015-08-15T13:00:55Z</time>
      </trkpt>
      <trkpt lat="40.562817" lon="-5.142267">
        <ele>2150.0</ele>
        <time>2015-08-15T13:00:57Z</time>
      </trkpt>
      <trkpt lat="40.562917" lon="-5.142083">
        <ele>2145.0</ele>
        <time>2015-08-15T13:00:59Z</time>
      </trkpt>
      <trkpt lat="40.563033" lon="-5.141900">
        <ele>2138.0</ele>
        <time>2015-08-15T13:01:01Z</time>
      </trkpt>
      <trkpt lat="40.563167" lon="-5.141717">
        <ele>2130.0</ele>
        <time>2015-08-15T13:01:03Z</time>
      </trkpt>
      <trkpt lat="40.563300" lon="-5.141550">
        <ele>2124.0</ele>
        <time>2015-08-15T13:01:05Z</time>
      </trkpt>
      <trkpt lat="40.563417" lon="-5.141433">
        <ele>2120.0</ele>
        <time>2015-08-15T13:01:07Z</time>
      </trkpt>
      <trkpt lat="40.563533" lon="-5.141350">
        <ele>2114.0</ele>
        <time>2015-08-15T13:01:09Z</time>
      </trkpt>
      <trkpt lat="40.563650" lon="-5.141200">
        <ele>2109.0</ele>
        <time>2015-08-15T13:01:11Z</time>
      </trkpt>
      <trkpt lat="40.563733" lon="-5.141000">
        <ele>2104.0</ele>
        <time>2015-08-15T13:01:13Z</time>
      </trkpt>
      <trkpt lat="40.563867" lon="-5.140833">
        <ele>2098.0</ele>
        <time>2015-08-15T13:01:15Z</time>
      </trkpt>
      <trkpt lat="40.564000" lon="-5.140650">
        <ele>2093.0</ele>
        <time>2015-08-15T13:01:17Z</time>
      </trkpt>
      <trkpt lat="40.564100" lon="-5.140467">
        <ele>2088.0</ele>
        <time>2015-08-15T13:01:19Z</time>
      </trkpt>
      <trkpt lat="40.564217" lon="-5.140283">
        <ele>2080.0</ele>
        <time>2015-08-15T13:01:21Z</time>
      </trkpt>
      <trkpt lat="40.564367" lon="-5.140100">
        <ele>2071.0</ele>
        <time>2015-08-15T13:01:23Z</time>
      </trkpt>
      <trkpt lat="40.564550" lon="-5.139933">
        <ele>2066.0</ele>
        <time>2015-08-15T13:01:25Z</time>
      </trkpt>
      <trkpt lat="40.564700" lon="-5.139783">
        <ele>2064.0</ele>
        <time>2015-08-15T13:01:27Z</time>
      </trkpt>
      <trkpt lat="40.564833" lon="-5.139650">
        <ele>2060.0</ele>
        <time>2015-08-15T13:01:29Z</time>
      </trkpt>
      <trkpt lat="40.564967" lon="-5.139500">
        <ele>2055.0</ele>
        <time>2015-08-15T13:01:31Z</time>
      </trkpt>
      <trkpt lat="40.565100" lon="-5.139317">
        <ele>2053.0</ele>
        <time>2015-08-15T13:01:33Z</time>
      </trkpt>
      <trkpt lat="40.565217" lon="-5.139150">
        <ele>2053.0</ele>
        <time>2015-08-15T13:01:35Z</time>
      </trkpt>
      <trkpt lat="40.565283" lon="-5.138967">
        <ele>2051.0</ele>
        <time>2015-08-15T13:01:37Z</time>
      </trkpt>
      <trkpt lat="40.565317" lon="-5.138717">
        <ele>2044.0</ele>
        <time>2015-08-15T13:01:39Z</time>
      </trkpt>
      <trkpt lat="40.565367" lon="-5.138433">
        <ele>2042.0</ele>
        <time>2015-08-15T13:01:41Z</time>
      </trkpt>
      <trkpt lat="40.565383" lon="-5.138217">
        <ele>2040.0</ele>
        <time>2015-08-15T13:01:43Z</time>
      </trkpt>
      <trkpt lat="40.565400" lon="-5.138000">
        <ele>2034.0</ele>
        <time>2015-08-15T13:01:45Z</time>
      </trkpt>
      <trkpt lat="40.565417" lon="-5.137717">
        <ele>2029.0</ele>
        <time>2015-08-15T13:01:47Z</time>
      </trkpt>
      <trkpt lat="40.565433" lon="-5.137417">
        <ele>2031.0</ele>
        <time>2015-08-15T13:01:49Z</time>
      </trkpt>
      <trkpt lat="40.565417" lon="-5.137150">
        <ele>2038.0</ele>
        <time>2015-08-15T13:01:51Z</time>
      </trkpt>
      <trkpt lat="40.565350" lon="-5.136933">
        <ele>2044.0</ele>
        <time>2015-08-15T13:01:53Z</time>
      </trkpt>
      <trkpt lat="40.565200" lon="-5.136733">
        <ele>2048.0</ele>
        <time>2015-08-15T13:01:55Z</time>
      </trkpt>
      <trkpt lat="40.564967" lon="-5.136667">
        <ele>2055.0</ele>
        <time>2015-08-15T13:01:57Z</time>
      </trkpt>
      <trkpt lat="40.564767" lon="-5.136700">
        <ele>2060.0</ele>
        <time>2015-08-15T13:01:59Z</time>
      </trkpt>
      <trkpt lat="40.564550" lon="-5.136800">
        <ele>2063.0</ele>
        <time>2015-08-15T13:02:01Z</time>
      </trkpt>
      <trkpt lat="40.564350" lon="-5.137017">
        <ele>2066.0</ele>
        <time>2015-08-15T13:02:03Z</time>
      </trkpt>
      <trkpt lat="40.564233" lon="-5.137283">
        <ele>2073.0</ele>
        <time>2015-08-15T13:02:05Z</time>
      </trkpt>
      <trkpt lat="40.564200" lon="-5.137483">
        <ele>2078.0</ele>
        <time>2015-08-15T13:02:07Z</time>
      </trkpt>
      <trkpt lat="40.564233" lon="-5.137600">
        <ele>2077.0</ele>
        <time>2015-08-15T13:02:09Z</time>
      </trkpt>
      <trkpt lat="40.564317" lon="-5.137633">
        <ele>2073.0</ele>
        <time>2015-08-15T13:02:11Z</time>
      </trkpt>
      <trkpt lat="40.564433" lon="-5.137517">
        <ele>2070.0</ele>
        <time>2015-08-15T13:02:13Z</time>
      </trkpt>
      <trkpt lat="40.564517" lon="-5.137350">
        <ele>2070.0</ele>
        <time>2015-08-15T13:02:15Z</time>
      </trkpt>
      <trkpt lat="40.564583" lon="-5.137183">
        <ele>2070.0</ele>
        <time>2015-08-15T13:02:17Z</time>
      </trkpt>
      <trkpt lat="40.564683" lon="-5.137033">
        <ele>2069.0</ele>
        <time>2015-08-15T13:02:19Z</time>
      </trkpt>
      <trkpt lat="40.564817" lon="-5.136883">
        <ele>2070.0</ele>
        <time>2015-08-15T13:02:21Z</time>
      </trkpt>
      <trkpt lat="40.564933" lon="-5.136750">
        <ele>2073.0</ele>
        <time>2015-08-15T13:02:23Z</time>
      </trkpt>
      <trkpt lat="40.565050" lon="-5.136567">
        <ele>2076.0</ele>
        <time>2015-08-15T13:02:25Z</time>
      </trkpt>
      <trkpt lat="40.565150" lon="-5.136350">
        <ele>2084.0</ele>
        <time>2015-08-15T13:02:27Z</time>
      </trkpt>
      <trkpt lat="40.565250" lon="-5.136200">
        <ele>2091.0</ele>
        <time>2015-08-15T13:02:29Z</time>
      </trkpt>
      <trkpt lat="40.565383" lon="-5.136083">
        <ele>2098.0</ele>
        <time>2015-08-15T13:02:31Z</time>
      </trkpt>
      <trkpt lat="40.565450" lon="-5.135917">
        <ele>2102.0</ele>
        <time>2015-08-15T13:02:33Z</time>
      </trkpt>
      <trkpt lat="40.565483" lon="-5.135700">
        <ele>2101.0</ele>
        <time>2015-08-15T13:02:35Z</time>
      </trkpt>
      <trkpt lat="40.565500" lon="-5.135433">
        <ele>2102.0</ele>
        <time>2015-08-15T13:02:37Z</time>
      </trkpt>
      <trkpt lat="40.565417" lon="-5.135167">
        <ele>2109.0</ele>
        <time>2015-08-15T13:02:39Z</time>
      </trkpt>
      <trkpt lat="40.565267" lon="-5.135033">
        <ele>2115.0</ele>
        <time>2015-08-15T13:02:41Z</time>
      </trkpt>
      <trkpt lat="40.565083" lon="-5.134950">
        <ele>2117.0</ele>
        <time>2015-08-15T13:02:43Z</time>
      </trkpt>
      <trkpt lat="40.564850" lon="-5.134933">
        <ele>2120.0</ele>
        <time>2015-08-15T13:02:45Z</time>
      </trkpt>
      <trkpt lat="40.564667" lon="-5.135100">
        <ele>2122.0</ele>
        <time>2015-08-15T13:02:47Z</time>
      </trkpt>
      <trkpt lat="40.564550" lon="-5.135333">
        <ele>2125.0</ele>
        <time>2015-08-15T13:02:49Z</time>
      </trkpt>
      <trkpt lat="40.564567" lon="-5.135550">
        <ele>2127.0</ele>
        <time>2015-08-15T13:02:51Z</time>
      </trkpt>
      <trkpt lat="40.564633" lon="-5.135683">
        <ele>2130.0</ele>
        <time>2015-08-15T13:02:53Z</time>
      </trkpt>
      <trkpt lat="40.564717" lon="-5.135750">
        <ele>2135.0</ele>
        <time>2015-08-15T13:02:55Z</time>
      </trkpt>
      <trkpt lat="40.564850" lon="-5.135733">
        <ele>2136.0</ele>
        <time>2015-08-15T13:02:57Z</time>
      </trkpt>
      <trkpt lat="40.565000" lon="-5.135667">
        <ele>2139.0</ele>
        <time>2015-08-15T13:02:59Z</time>
      </trkpt>
      <trkpt lat="40.565117" lon="-5.135517">
        <ele>2144.0</ele>
        <time>2015-08-15T13:03:01Z</time>
      </trkpt>
      <trkpt lat="40.565183" lon="-5.135317">
        <ele>2147.0</ele>
        <time>2015-08-15T13:03:03Z</time>
      </trkpt>
      <trkpt lat="40.565200" lon="-5.135100">
        <ele>2149.0</ele>
        <time>2015-08-15T13:03:05Z</time>
      </trkpt>
      <trkpt lat="40.565167" lon="-5.134867">
        <ele>2150.0</ele>
        <time>2015-08-15T13:03:07Z</time>
      </trkpt>
      <trkpt lat="40.565100" lon="-5.134633">
        <ele>2150.0</ele>
        <time>2015-08-15T13:03:09Z</time>
      </trkpt>
      <trkpt lat="40.564967" lon="-5.134450">
        <ele>2151.0</ele>
        <time>2015-08-15T13:03:11Z</time>
      </trkpt>
      <trkpt lat="40.564800" lon="-5.134333">
        <ele>2153.0</ele>
        <time>2015-08-15T13:03:13Z</time>
      </trkpt>
      <trkpt lat="40.564583" lon="-5.134300">
        <ele>2156.0</ele>
        <time>2015-08-15T13:03:15Z</time>
      </trkpt>
      <trkpt lat="40.564350" lon="-5.134300">
        <ele>2161.0</ele>
        <time>2015-08-15T13:03:17Z</time>
      </trkpt>
      <trkpt lat="40.564150" lon="-5.134400">
        <ele>2166.0</ele>
        <time>2015-08-15T13:03:19Z</time>
      </trkpt>
      <trkpt lat="40.564050" lon="-5.134567">
        <ele>2171.0</ele>
        <time>2015-08-15T13:03:21Z</time>
      </trkpt>
      <trkpt lat="40.564033" lon="-5.134783">
        <ele>2174.0</ele>
        <time>2015-08-15T13:03:23Z</time>
      </trkpt>
      <trkpt lat="40.564100" lon="-5.134950">
        <ele>2177.0</ele>
        <time>2015-08-15T13:03:25Z</time>
      </trkpt>
      <trkpt lat="40.564233" lon="-5.135033">
        <ele>2180.0</ele>
        <time>2015-08-15T13:03:27Z</time>
      </trkpt>
      <trkpt lat="40.564383" lon="-5.135033">
        <ele>2185.0</ele>
        <time>2015-08-15T13:03:29Z</time>
      </trkpt>
      <trkpt lat="40.564500" lon="-5.134983">
        <ele>2189.0</ele>
        <time>2015-08-15T13:03:31Z</time>
      </trkpt>
      <trkpt lat="40.564583" lon="-5.134850">
        <ele>2189.0</ele>
        <time>2015-08-15T13:03:33Z</time>
      </trkpt>
      <trkpt lat="40.564633" lon="-5.134633">
        <ele>2186.0</ele>
        <time>2015-08-15T13:03:35Z</time>
      </trkpt>
      <trkpt lat="40.564550" lon="-5.134400">
        <ele>2183.0</ele>
        <time>2015-08-15T13:03:37Z</time>
      </trkpt>
      <trkpt lat="40.564400" lon="-5.134200">
        <ele>2184.0</ele>
        <time>2015-08-15T13:03:39Z</time>
      </trkpt>
      <trkpt lat="40.564183" lon="-5.134050">
        <ele>2188.0</ele>
        <time>2015-08-15T13:03:41Z</time>
      </trkpt>
      <trkpt lat="40.563967" lon="-5.134067">
        <ele>2193.0</ele>
        <time>2015-08-15T13:03:43Z</time>
      </trkpt>
      <trkpt lat="40.563800" lon="-5.134200">
        <ele>2198.0</ele>
        <time>2015-08-15T13:03:45Z</time>
      </trkpt>
      <trkpt lat="40.563683" lon="-5.134350">
        <ele>2201.0</ele>
        <time>2015-08-15T13:03:47Z</time>
      </trkpt>
      <trkpt lat="40.563633" lon="-5.134583">
        <ele>2202.0</ele>
        <time>2015-08-15T13:03:49Z</time>
      </trkpt>
      <trkpt lat="40.563683" lon="-5.134833">
        <ele>2206.0</ele>
        <time>2015-08-15T13:03:51Z</time>
      </trkpt>
      <trkpt lat="40.563800" lon="-5.134967">
        <ele>2212.0</ele>
        <time>2015-08-15T13:03:53Z</time>
      </trkpt>
      <trkpt lat="40.563900" lon="-5.134983">
        <ele>2218.0</ele>
        <time>2015-08-15T13:03:55Z</time>
      </trkpt>
      <trkpt lat="40.564000" lon="-5.134950">
        <ele>2222.0</ele>
        <time>2015-08-15T13:03:57Z</time>
      </trkpt>
      <trkpt lat="40.564117" lon="-5.134850">
        <ele>2221.0</ele>
        <time>2015-08-15T13:03:59Z</time>
      </trkpt>
      <trkpt lat="40.564183" lon="-5.134617">
        <ele>2221.0</ele>
        <time>2015-08-15T13:04:01Z</time>
      </trkpt>
      <trkpt lat="40.564150" lon="-5.134383">
        <ele>2221.0</ele>
        <time>2015-08-15T13:04:03Z</time>
      </trkpt>
      <trkpt lat="40.564017" lon="-5.134167">
        <ele>2219.0</ele>
        <time>2015-08-15T13:04:05Z</time>
      </trkpt>
      <trkpt lat="40.563833" lon="-5.134017">
        <ele>2221.0</ele>
        <time>2015-08-15T13:04:07Z</time>
      </trkpt>
      <trkpt lat="40.563617" lon="-5.133983">
        <ele>2227.0</ele>
        <time>2015-08-15T13:04:09Z</time>
      </trkpt>
      <trkpt lat="40.563483" lon="-5.134083">
        <ele>2232.0</ele>
        <time>2015-08-15T13:04:11Z</time>
      </trkpt>
      <trkpt lat="40.563400" lon="-5.134217">
        <ele>2238.0</ele>
        <time>2015-08-15T13:04:13Z</time>
      </trkpt>
      <trkpt lat="40.563367" lon="-5.134350">
        <ele>2243.0</ele>
        <time>2015-08-15T13:04:15Z</time>
      </trkpt>
      <trkpt lat="40.563417" lon="-5.134517">
        <ele>2243.0</ele>
        <time>2015-08-15T13:04:17Z</time>
      </trkpt>
      <trkpt lat="40.563517" lon="-5.134650">
        <ele>2245.0</ele>
        <time>2015-08-15T13:04:19Z</time>
      </trkpt>
      <trkpt lat="40.563633" lon="-5.134683">
        <ele>2247.0</ele>
        <time>2015-08-15T13:04:21Z</time>
      </trkpt>
      <trkpt lat="40.563767" lon="-5.134633">
        <ele>2248.0</ele>
        <time>2015-08-15T13:04:23Z</time>
      </trkpt>
      <trkpt lat="40.563883" lon="-5.134500">
        <ele>2249.0</ele>
        <time>2015-08-15T13:04:25Z</time>
      </trkpt>
      <trkpt lat="40.563950" lon="-5.134283">
        <ele>2247.0</ele>
        <time>2015-08-15T13:04:27Z</time>
      </trkpt>
      <trkpt lat="40.563950" lon="-5.134000">
        <ele>2244.0</ele>
        <time>2015-08-15T13:04:29Z</time>
      </trkpt>
      <trkpt lat="40.563817" lon="-5.133750">
        <ele>2241.0</ele>
        <time>2015-08-15T13:04:31Z</time>
      </trkpt>
      <trkpt lat="40.563600" lon="-5.133617">
        <ele>2239.0</ele>
        <time>2015-08-15T13:04:33Z</time>
      </trkpt>
      <trkpt lat="40.563383" lon="-5.133550">
        <ele>2242.0</ele>
        <time>2015-08-15T13:04:35Z</time>
      </trkpt>
      <trkpt lat="40.563217" lon="-5.133583">
        <ele>2250.0</ele>
        <time>2015-08-15T13:04:37Z</time>
      </trkpt>
      <trkpt lat="40.563117" lon="-5.133683">
        <ele>2255.0</ele>
        <time>2015-08-15T13:04:39Z</time>
      </trkpt>
      <trkpt lat="40.563017" lon="-5.133817">
        <ele>2258.0</ele>
        <time>2015-08-15T13:04:41Z</time>
      </trkpt>
      <trkpt lat="40.562983" lon="-5.134000">
        <ele>2260.0</ele>
        <time>2015-08-15T13:04:43Z</time>
      </trkpt>
      <trkpt lat="40.563067" lon="-5.134133">
        <ele>2261.0</ele>
        <time>2015-08-15T13:04:45Z</time>
      </trkpt>
      <trkpt lat="40.563183" lon="-5.134150">
        <ele>2265.0</ele>
        <time>2015-08-15T13:04:47Z</time>
      </trkpt>
      <trkpt lat="40.563300" lon="-5.134050">
        <ele>2266.0</ele>
        <time>2015-08-15T13:04:49Z</time>
      </trkpt>
      <trkpt lat="40.563383" lon="-5.133900">
        <ele>2267.0</ele>
        <time>2015-08-15T13:04:51Z</time>
      </trkpt>
      <trkpt lat="40.563417" lon="-5.133683">
        <ele>2266.0</ele>
        <time>2015-08-15T13:04:53Z</time>
      </trkpt>
      <trkpt lat="40.563400" lon="-5.133417">
        <ele>2265.0</ele>
        <time>2015-08-15T13:04:55Z</time>
      </trkpt>
      <trkpt lat="40.563317" lon="-5.133167">
        <ele>2267.0</ele>
        <time>2015-08-15T13:04:57Z</time>
      </trkpt>
      <trkpt lat="40.563167" lon="-5.132967">
        <ele>2268.0</ele>
        <time>2015-08-15T13:04:59Z</time>
      </trkpt>
      <trkpt lat="40.562967" lon="-5.132850">
        <ele>2270.0</ele>
        <time>2015-08-15T13:05:01Z</time>
      </trkpt>
      <trkpt lat="40.562767" lon="-5.132817">
        <ele>2275.0</ele>
        <time>2015-08-15T13:05:03Z</time>
      </trkpt>
      <trkpt lat="40.562633" lon="-5.132850">
        <ele>2278.0</ele>
        <time>2015-08-15T13:05:05Z</time>
      </trkpt>
      <trkpt lat="40.562533" lon="-5.133017">
        <ele>2276.0</ele>
        <time>2015-08-15T13:05:07Z</time>
      </trkpt>
      <trkpt lat="40.562600" lon="-5.133267">
        <ele>2279.0</ele>
        <time>2015-08-15T13:05:09Z</time>
      </trkpt>
      <trkpt lat="40.562733" lon="-5.133367">
        <ele>2285.0</ele>
        <time>2015-08-15T13:05:11Z</time>
      </trkpt>
      <trkpt lat="40.562867" lon="-5.133367">
        <ele>2290.0</ele>
        <time>2015-08-15T13:05:13Z</time>
      </trkpt>
      <trkpt lat="40.562983" lon="-5.133233">
        <ele>2293.0</ele>
        <time>2015-08-15T13:05:15Z</time>
      </trkpt>
      <trkpt lat="40.563067" lon="-5.133067">
        <ele>2294.0</ele>
        <time>2015-08-15T13:05:17Z</time>
      </trkpt>
      <trkpt lat="40.563133" lon="-5.132817">
        <ele>2292.0</ele>
        <time>2015-08-15T13:05:19Z</time>
      </trkpt>
      <trkpt lat="40.563183" lon="-5.132533">
        <ele>2289.0</ele>
        <time>2015-08-15T13:05:21Z</time>
      </trkpt>
      <trkpt lat="40.563167" lon="-5.132200">
        <ele>2286.0</ele>
        <time>2015-08-15T13:05:23Z</time>
      </trkpt>
      <trkpt lat="40.563050" lon="-5.131883">
        <ele>2285.0</ele>
        <time>2015-08-15T13:05:25Z</time>
      </trkpt>
      <trkpt lat="40.562900" lon="-5.131633">
        <ele>2288.0</ele>
        <time>2015-08-15T13:05:27Z</time>
      </trkpt>
      <trkpt lat="40.562700" lon="-5.131467">
        <ele>2289.0</ele>
        <time>2015-08-15T13:05:29Z</time>
      </trkpt>
      <trkpt lat="40.562467" lon="-5.131417">
        <ele>2289.0</ele>
        <time>2015-08-15T13:05:31Z</time>
      </trkpt>
      <trkpt lat="40.562233" lon="-5.131500">
        <ele>2294.0</ele>
        <time>2015-08-15T13:05:33Z</time>
      </trkpt>
      <trkpt lat="40.562083" lon="-5.131633">
        <ele>2301.0</ele>
        <time>2015-08-15T13:05:35Z</time>
      </trkpt>
      <trkpt lat="40.561983" lon="-5.131817">
        <ele>2305.0</ele>
        <time>2015-08-15T13:05:37Z</time>
      </trkpt>
      <trkpt lat="40.561967" lon="-5.132017">
        <ele>2311.0</ele>
        <time>2015-08-15T13:05:39Z</time>
      </trkpt>
      <trkpt lat="40.562017" lon="-5.132167">
        <ele>2318.0</ele>
        <time>2015-08-15T13:05:41Z</time>
      </trkpt>
      <trkpt lat="40.562083" lon="-5.132250">
        <ele>2322.0</ele>
        <time>2015-08-15T13:05:43Z</time>
      </trkpt>
      <trkpt lat="40.562217" lon="-5.132267">
        <ele>2323.0</ele>
        <time>2015-08-15T13:05:45Z</time>
      </trkpt>
      <trkpt lat="40.562383" lon="-5.132117">
        <ele>2328.0</ele>
        <time>2015-08-15T13:05:47Z</time>
      </trkpt>
      <trkpt lat="40.562483" lon="-5.131917">
        <ele>2334.0</ele>
        <time>2015-08-15T13:05:49Z</time>
      </trkpt>
      <trkpt lat="40.562550" lon="-5.131667">
        <ele>2337.0</ele>
        <time>2015-08-15T13:05:51Z</time>
      </trkpt>
      <trkpt lat="40.562550" lon="-5.131333">
        <ele>2339.0</ele>
        <time>2015-08-15T13:05:53Z</time>
      </trkpt>
      <trkpt lat="40.562433" lon="-5.131050">
        <ele>2342.0</ele>
        <time>2015-08-15T13:05:55Z</time>
      </trkpt>
      <trkpt lat="40.562250" lon="-5.130883">
        <ele>2344.0</ele>
        <time>2015-08-15T13:05:57Z</time>
      </trkpt>
      <trkpt lat="40.562033" lon="-5.130800">
        <ele>2347.0</ele>
        <time>2015-08-15T13:05:59Z</time>
      </trkpt>
      <trkpt lat="40.561800" lon="-5.130850">
        <ele>2350.0</ele>
        <time>2015-08-15T13:06:01Z</time>
      </trkpt>
      <trkpt lat="40.561650" lon="-5.131017">
        <ele>2355.0</ele>
        <time>2015-08-15T13:06:03Z</time>
      </trkpt>
      <trkpt lat="40.561600" lon="-5.131233">
        <ele>2358.0</ele>
        <time>2015-08-15T13:06:05Z</time>
      </trkpt>
      <trkpt lat="40.561650" lon="-5.131417">
        <ele>2365.0</ele>
        <time>2015-08-15T13:06:07Z</time>
      </trkpt>
      <trkpt lat="40.561733" lon="-5.131483">
        <ele>2372.0</ele>
        <time>2015-08-15T13:06:09Z</time>
      </trkpt>
      <trkpt lat="40.561850" lon="-5.131467">
        <ele>2376.0</ele>
        <time>2015-08-15T13:06:11Z</time>
      </trkpt>
      <trkpt lat="40.562000" lon="-5.131333">
        <ele>2377.0</ele>
        <time>2015-08-15T13:06:13Z</time>
      </trkpt>
      <trkpt lat="40.562133" lon="-5.131117">
        <ele>2380.0</ele>
        <time>2015-08-15T13:06:15Z</time>
      </trkpt>
      <trkpt lat="40.562183" lon="-5.130833">
        <ele>2387.0</ele>
        <time>2015-08-15T13:06:17Z</time>
      </trkpt>
      <trkpt lat="40.562150" lon="-5.130550">
        <ele>2391.0</ele>
        <time>2015-08-15T13:06:19Z</time>
      </trkpt>
      <trkpt lat="40.562050" lon="-5.130233">
        <ele>2392.0</ele>
        <time>2015-08-15T13:06:21Z</time>
      </trkpt>
      <trkpt lat="40.561850" lon="-5.129983">
        <ele>2396.0</ele>
        <time>2015-08-15T13:06:23Z</time>
      </trkpt>
      <trkpt lat="40.561633" lon="-5.129900">
        <ele>2402.0</ele>
        <time>2015-08-15T13:06:25Z</time>
      </trkpt>
      <trkpt lat="40.561467" lon="-5.129900">
        <ele>2408.0</ele>
        <time>2015-08-15T13:06:27Z</time>
      </trkpt>
      <trkpt lat="40.561317" lon="-5.130000">
        <ele>2411.0</ele>
        <time>2015-08-15T13:06:29Z</time>
      </trkpt>
      <trkpt lat="40.561250" lon="-5.130217">
        <ele>2414.0</ele>
        <time>2015-08-15T13:06:31Z</time>
      </trkpt>
      <trkpt lat="40.561300" lon="-5.130383">
        <ele>2420.0</ele>
        <time>2015-08-15T13:06:33Z</time>
      </trkpt>
      <trkpt lat="40.561400" lon="-5.130433">
        <ele>2426.0</ele>
        <time>2015-08-15T13:06:35Z</time>
      </trkpt>
      <trkpt lat="40.561517" lon="-5.130433">
        <ele>2428.0</ele>
        <time>2015-08-15T13:06:37Z</time>
      </trkpt>
      <trkpt lat="40.561683" lon="-5.130333">
        <ele>2432.0</ele>
        <time>2015-08-15T13:06:39Z</time>
      </trkpt>
      <trkpt lat="40.561800" lon="-5.130133">
        <ele>2440.0</ele>
        <time>2015-08-15T13:06:41Z</time>
      </trkpt>
      <trkpt lat="40.561867" lon="-5.129933">
        <ele>2447.0</ele>
        <time>2015-08-15T13:06:43Z</time>
      </trkpt>
      <trkpt lat="40.561833" lon="-5.129667">
        <ele>2445.0</ele>
        <time>2015-08-15T13:06:45Z</time>
      </trkpt>
      <trkpt lat="40.561683" lon="-5.129367">
        <ele>2445.0</ele>
        <time>2015-08-15T13:06:47Z</time>
      </trkpt>
      <trkpt lat="40.561483" lon="-5.129183">
        <ele>2452.0</ele>
        <time>2015-08-15T13:06:49Z</time>
      </trkpt>
      <trkpt lat="40.561317" lon="-5.129150">
        <ele>2457.0</ele>
        <time>2015-08-15T13:06:51Z</time>
      </trkpt>
      <trkpt lat="40.561167" lon="-5.129200">
        <ele>2462.0</ele>
        <time>2015-08-15T13:06:53Z</time>
      </trkpt>
      <trkpt lat="40.561067" lon="-5.129350">
        <ele>2467.0</ele>
        <time>2015-08-15T13:06:55Z</time>
      </trkpt>
      <trkpt lat="40.561050" lon="-5.129567">
        <ele>2471.0</ele>
        <time>2015-08-15T13:06:57Z</time>
      </trkpt>
      <trkpt lat="40.561117" lon="-5.129717">
        <ele>2475.0</ele>
        <time>2015-08-15T13:06:59Z</time>
      </trkpt>
      <trkpt lat="40.561233" lon="-5.129817">
        <ele>2479.0</ele>
        <time>2015-08-15T13:07:01Z</time>
      </trkpt>
      <trkpt lat="40.561400" lon="-5.129817">
        <ele>2483.0</ele>
        <time>2015-08-15T13:07:03Z</time>
      </trkpt>
      <trkpt lat="40.561550" lon="-5.129667">
        <ele>2487.0</ele>
        <time>2015-08-15T13:07:05Z</time>
      </trkpt>
      <trkpt lat="40.561650" lon="-5.129400">
        <ele>2487.0</ele>
        <time>2015-08-15T13:07:07Z</time>
      </trkpt>
      <trkpt lat="40.561700" lon="-5.129050">
        <ele>2490.0</ele>
        <time>2015-08-15T13:07:09Z</time>
      </trkpt>
      <trkpt lat="40.561633" lon="-5.128683">
        <ele>2494.0</ele>
        <time>2015-08-15T13:07:11Z</time>
      </trkpt>
      <trkpt lat="40.561500" lon="-5.128417">
        <ele>2499.0</ele>
        <time>2015-08-15T13:07:13Z</time>
      </trkpt>
      <trkpt lat="40.561333" lon="-5.128250">
        <ele>2503.0</ele>
        <time>2015-08-15T13:07:15Z</time>
      </trkpt>
      <trkpt lat="40.561150" lon="-5.128167">
        <ele>2505.0</ele>
        <time>2015-08-15T13:07:17Z</time>
      </trkpt>
      <trkpt lat="40.560983" lon="-5.128233">
        <ele>2508.0</ele>
        <time>2015-08-15T13:07:19Z</time>
      </trkpt>
      <trkpt lat="40.560883" lon="-5.128383">
        <ele>2512.0</ele>
        <time>2015-08-15T13:07:21Z</time>
      </trkpt>
      <trkpt lat="40.560883" lon="-5.128550">
        <ele>2519.0</ele>
        <time>2015-08-15T13:07:23Z</time>
      </trkpt>
      <trkpt lat="40.560950" lon="-5.128683">
        <ele>2523.0</ele>
        <time>2015-08-15T13:07:25Z</time>
      </trkpt>
      <trkpt lat="40.561050" lon="-5.128817">
        <ele>2525.0</ele>
        <time>2015-08-15T13:07:27Z</time>
      </trkpt>
      <trkpt lat="40.561233" lon="-5.128883">
        <ele>2527.0</ele>
        <time>2015-08-15T13:07:29Z</time>
      </trkpt>
      <trkpt lat="40.561417" lon="-5.128717">
        <ele>2527.0</ele>
        <time>2015-08-15T13:07:31Z</time>
      </trkpt>
      <trkpt lat="40.561533" lon="-5.128467">
        <ele>2532.0</ele>
        <time>2015-08-15T13:07:33Z</time>
      </trkpt>
      <trkpt lat="40.561617" lon="-5.128233">
        <ele>2534.0</ele>
        <time>2015-08-15T13:07:35Z</time>
      </trkpt>
      <trkpt lat="40.561717" lon="-5.127933">
        <ele>2534.0</ele>
        <time>2015-08-15T13:07:37Z</time>
      </trkpt>
      <trkpt lat="40.561767" lon="-5.127583">
        <ele>2536.0</ele>
        <time>2015-08-15T13:07:39Z</time>
      </trkpt>
      <trkpt lat="40.561717" lon="-5.127250">
        <ele>2538.0</ele>
        <time>2015-08-15T13:07:41Z</time>
      </trkpt>
      <trkpt lat="40.561583" lon="-5.126967">
        <ele>2540.0</ele>
        <time>2015-08-15T13:07:43Z</time>
      </trkpt>
      <trkpt lat="40.561400" lon="-5.126833">
        <ele>2542.0</ele>
        <time>2015-08-15T13:07:45Z</time>
      </trkpt>
      <trkpt lat="40.561200" lon="-5.126850">
        <ele>2545.0</ele>
        <time>2015-08-15T13:07:47Z</time>
      </trkpt>
      <trkpt lat="40.561083" lon="-5.126967">
        <ele>2548.0</ele>
        <time>2015-08-15T13:07:49Z</time>
      </trkpt>
      <trkpt lat="40.561050" lon="-5.127117">
        <ele>2552.0</ele>
        <time>2015-08-15T13:07:51Z</time>
      </trkpt>
      <trkpt lat="40.561083" lon="-5.127267">
        <ele>2554.0</ele>
        <time>2015-08-15T13:07:53Z</time>
      </trkpt>
      <trkpt lat="40.561200" lon="-5.127367">
        <ele>2554.0</ele>
        <time>2015-08-15T13:07:55Z</time>
      </trkpt>
      <trkpt lat="40.561383" lon="-5.127450">
        <ele>2553.0</ele>
        <time>2015-08-15T13:07:57Z</time>
      </trkpt>
      <trkpt lat="40.561567" lon="-5.127383">
        <ele>2553.0</ele>
        <time>2015-08-15T13:07:59Z</time>
      </trkpt>
      <trkpt lat="40.561733" lon="-5.127200">
        <ele>2552.0</ele>
        <time>2015-08-15T13:08:01Z</time>
      </trkpt>
      <trkpt lat="40.561867" lon="-5.126950">
        <ele>2550.0</ele>
        <time>2015-08-15T13:08:03Z</time>
      </trkpt>
      <trkpt lat="40.561967" lon="-5.126583">
        <ele>2543.0</ele>
        <time>2015-08-15T13:08:05Z</time>
      </trkpt>
      <trkpt lat="40.561967" lon="-5.126183">
        <ele>2539.0</ele>
        <time>2015-08-15T13:08:07Z</time>
      </trkpt>
      <trkpt lat="40.562017" lon="-5.125833">
        <ele>2539.0</ele>
        <time>2015-08-15T13:08:09Z</time>
      </trkpt>
      <trkpt lat="40.562067" lon="-5.125483">
        <ele>2539.0</ele>
        <time>2015-08-15T13:08:11Z</time>
      </trkpt>
      <trkpt lat="40.562117" lon="-5.125167">
        <ele>2541.0</ele>
        <time>2015-08-15T13:08:13Z</time>
      </trkpt>
      <trkpt lat="40.562217" lon="-5.124883">
        <ele>2542.0</ele>
        <time>2015-08-15T13:08:15Z</time>
      </trkpt>
      <trkpt lat="40.562333" lon="-5.124583">
        <ele>2542.0</ele>
        <time>2015-08-15T13:08:17Z</time>
      </trkpt>
      <trkpt lat="40.562433" lon="-5.124267">
        <ele>2542.0</ele>
        <time>2015-08-15T13:08:19Z</time>
      </trkpt>
      <trkpt lat="40.562467" lon="-5.124000">
        <ele>2541.0</ele>
        <time>2015-08-15T13:08:21Z</time>
      </trkpt>
      <trkpt lat="40.562483" lon="-5.123683">
        <ele>2535.0</ele>
        <time>2015-08-15T13:08:23Z</time>
      </trkpt>
      <trkpt lat="40.562500" lon="-5.123333">
        <ele>2534.0</ele>
        <time>2015-08-15T13:08:25Z</time>
      </trkpt>
      <trkpt lat="40.562517" lon="-5.123017">
        <ele>2536.0</ele>
        <time>2015-08-15T13:08:27Z</time>
      </trkpt>
      <trkpt lat="40.562550" lon="-5.122717">
        <ele>2537.0</ele>
        <time>2015-08-15T13:08:29Z</time>
      </trkpt>
      <trkpt lat="40.562583" lon="-5.122433">
        <ele>2538.0</ele>
        <time>2015-08-15T13:08:31Z</time>
      </trkpt>
      <trkpt lat="40.562650" lon="-5.121633">
        <ele>2540.0</ele>
        <time>2015-08-15T13:08:36Z</time>
      </trkpt>
      <trkpt lat="40.562650" lon="-5.121283">
        <ele>2536.0</ele>
        <time>2015-08-15T13:08:38Z</time>
      </trkpt>
      <trkpt lat="40.562633" lon="-5.120983">
        <ele>2533.0</ele>
        <time>2015-08-15T13:08:40Z</time>
      </trkpt>
      <trkpt lat="40.562583" lon="-5.120733">
        <ele>2527.0</ele>
        <time>2015-08-15T13:08:42Z</time>
      </trkpt>
      <trkpt lat="40.562567" lon="-5.120433">
        <ele>2522.0</ele>
        <time>2015-08-15T13:08:44Z</time>
      </trkpt>
      <trkpt lat="40.562583" lon="-5.120133">
        <ele>2520.0</ele>
        <time>2015-08-15T13:08:46Z</time>
      </trkpt>
      <trkpt lat="40.562633" lon="-5.119850">
        <ele>2517.0</ele>
        <time>2015-08-15T13:08:48Z</time>
      </trkpt>
      <trkpt lat="40.562717" lon="-5.119583">
        <ele>2510.0</ele>
        <time>2015-08-15T13:08:50Z</time>
      </trkpt>
      <trkpt lat="40.562817" lon="-5.119250">
        <ele>2503.0</ele>
        <time>2015-08-15T13:08:52Z</time>
      </trkpt>
      <trkpt lat="40.562883" lon="-5.118967">
        <ele>2499.0</ele>
        <time>2015-08-15T13:08:54Z</time>
      </trkpt>
      <trkpt lat="40.562967" lon="-5.118683">
        <ele>2492.0</ele>
        <time>2015-08-15T13:08:56Z</time>
      </trkpt>
      <trkpt lat="40.563067" lon="-5.118350">
        <ele>2484.0</ele>
        <time>2015-08-15T13:08:58Z</time>
      </trkpt>
      <trkpt lat="40.563150" lon="-5.118050">
        <ele>2481.0</ele>
        <time>2015-08-15T13:09:00Z</time>
      </trkpt>
      <trkpt lat="40.563233" lon="-5.117750">
        <ele>2474.0</ele>
        <time>2015-08-15T13:09:02Z</time>
      </trkpt>
      <trkpt lat="40.563317" lon="-5.117400">
        <ele>2468.0</ele>
        <time>2015-08-15T13:09:04Z</time>
      </trkpt>
      <trkpt lat="40.563383" lon="-5.117050">
        <ele>2465.0</ele>
        <time>2015-08-15T13:09:06Z</time>
      </trkpt>
      <trkpt lat="40.563467" lon="-5.116750">
        <ele>2460.0</ele>
        <time>2015-08-15T13:09:08Z</time>
      </trkpt>
      <trkpt lat="40.563533" lon="-5.116433">
        <ele>2453.0</ele>
        <time>2015-08-15T13:09:10Z</time>
      </trkpt>
      <trkpt lat="40.563617" lon="-5.116100">
        <ele>2447.0</ele>
        <time>2015-08-15T13:09:12Z</time>
      </trkpt>
      <trkpt lat="40.563700" lon="-5.115783">
        <ele>2442.0</ele>
        <time>2015-08-15T13:09:14Z</time>
      </trkpt>
      <trkpt lat="40.563767" lon="-5.115450">
        <ele>2436.0</ele>
        <time>2015-08-15T13:09:16Z</time>
      </trkpt>
      <trkpt lat="40.563983" lon="-5.114683">
        <ele>2424.0</ele>
        <time>2015-08-15T13:09:21Z</time>
      </trkpt>
      <trkpt lat="40.564117" lon="-5.114367">
        <ele>2412.0</ele>
        <time>2015-08-15T13:09:23Z</time>
      </trkpt>
      <trkpt lat="40.564217" lon="-5.114033">
        <ele>2406.0</ele>
        <time>2015-08-15T13:09:25Z</time>
      </trkpt>
      <trkpt lat="40.564300" lon="-5.113717">
        <ele>2401.0</ele>
        <time>2015-08-15T13:09:27Z</time>
      </trkpt>
      <trkpt lat="40.564383" lon="-5.113400">
        <ele>2397.0</ele>
        <time>2015-08-15T13:09:29Z</time>
      </trkpt>
      <trkpt lat="40.564467" lon="-5.113083">
        <ele>2394.0</ele>
        <time>2015-08-15T13:09:31Z</time>
      </trkpt>
      <trkpt lat="40.564567" lon="-5.112800">
        <ele>2389.0</ele>
        <time>2015-08-15T13:09:33Z</time>
      </trkpt>
      <trkpt lat="40.564667" lon="-5.112483">
        <ele>2383.0</ele>
        <time>2015-08-15T13:09:35Z</time>
      </trkpt>
      <trkpt lat="40.564767" lon="-5.112183">
        <ele>2379.0</ele>
        <time>2015-08-15T13:09:37Z</time>
      </trkpt>
      <trkpt lat="40.564867" lon="-5.111900">
        <ele>2375.0</ele>
        <time>2015-08-15T13:09:39Z</time>
      </trkpt>
      <trkpt lat="40.564967" lon="-5.111600">
        <ele>2369.0</ele>
        <time>2015-08-15T13:09:41Z</time>
      </trkpt>
      <trkpt lat="40.565083" lon="-5.111283">
        <ele>2364.0</ele>
        <time>2015-08-15T13:09:43Z</time>
      </trkpt>
      <trkpt lat="40.565183" lon="-5.111000">
        <ele>2361.0</ele>
        <time>2015-08-15T13:09:45Z</time>
      </trkpt>
      <trkpt lat="40.565283" lon="-5.110733">
        <ele>2356.0</ele>
        <time>2015-08-15T13:09:47Z</time>
      </trkpt>
      <trkpt lat="40.565417" lon="-5.110433">
        <ele>2350.0</ele>
        <time>2015-08-15T13:09:49Z</time>
      </trkpt>
      <trkpt lat="40.565533" lon="-5.110117">
        <ele>2346.0</ele>
        <time>2015-08-15T13:09:51Z</time>
      </trkpt>
      <trkpt lat="40.565633" lon="-5.109817">
        <ele>2342.0</ele>
        <time>2015-08-15T13:09:53Z</time>
      </trkpt>
      <trkpt lat="40.565733" lon="-5.109533">
        <ele>2337.0</ele>
        <time>2015-08-15T13:09:55Z</time>
      </trkpt>
      <trkpt lat="40.565817" lon="-5.109233">
        <ele>2332.0</ele>
        <time>2015-08-15T13:09:57Z</time>
      </trkpt>
      <trkpt lat="40.565917" lon="-5.108933">
        <ele>2327.0</ele>
        <time>2015-08-15T13:09:59Z</time>
      </trkpt>
      <trkpt lat="40.566000" lon="-5.108650">
        <ele>2322.0</ele>
        <time>2015-08-15T13:10:01Z</time>
      </trkpt>
      <trkpt lat="40.566083" lon="-5.108367">
        <ele>2317.0</ele>
        <time>2015-08-15T13:10:03Z</time>
      </trkpt>
      <trkpt lat="40.566167" lon="-5.108067">
        <ele>2309.0</ele>
        <time>2015-08-15T13:10:05Z</time>
      </trkpt>
      <trkpt lat="40.566250" lon="-5.107767">
        <ele>2304.0</ele>
        <time>2015-08-15T13:10:07Z</time>
      </trkpt>
      <trkpt lat="40.566350" lon="-5.107483">
        <ele>2299.0</ele>
        <time>2015-08-15T13:10:09Z</time>
      </trkpt>
      <trkpt lat="40.566433" lon="-5.107200">
        <ele>2292.0</ele>
        <time>2015-08-15T13:10:11Z</time>
      </trkpt>
      <trkpt lat="40.566533" lon="-5.106883">
        <ele>2286.0</ele>
        <time>2015-08-15T13:10:13Z</time>
      </trkpt>
      <trkpt lat="40.566633" lon="-5.106600">
        <ele>2282.0</ele>
        <time>2015-08-15T13:10:15Z</time>
      </trkpt>
      <trkpt lat="40.566750" lon="-5.106317">
        <ele>2277.0</ele>
        <time>2015-08-15T13:10:17Z</time>
      </trkpt>
      <trkpt lat="40.566850" lon="-5.106017">
        <ele>2271.0</ele>
        <time>2015-08-15T13:10:19Z</time>
      </trkpt>
      <trkpt lat="40.566950" lon="-5.105717">
        <ele>2267.0</ele>
        <time>2015-08-15T13:10:21Z</time>
      </trkpt>
      <trkpt lat="40.567050" lon="-5.105417">
        <ele>2262.0</ele>
        <time>2015-08-15T13:10:23Z</time>
      </trkpt>
      <trkpt lat="40.567167" lon="-5.105117">
        <ele>2257.0</ele>
        <time>2015-08-15T13:10:25Z</time>
      </trkpt>
      <trkpt lat="40.567283" lon="-5.104833">
        <ele>2252.0</ele>
        <time>2015-08-15T13:10:27Z</time>
      </trkpt>
      <trkpt lat="40.567383" lon="-5.104533">
        <ele>2247.0</ele>
        <time>2015-08-15T13:10:29Z</time>
      </trkpt>
      <trkpt lat="40.567500" lon="-5.104250">
        <ele>2241.0</ele>
        <time>2015-08-15T13:10:31Z</time>
      </trkpt>
      <trkpt lat="40.567617" lon="-5.103967">
        <ele>2235.0</ele>
        <time>2015-08-15T13:10:33Z</time>
      </trkpt>
      <trkpt lat="40.567733" lon="-5.103683">
        <ele>2229.0</ele>
        <time>2015-08-15T13:10:35Z</time>
      </trkpt>
      <trkpt lat="40.567850" lon="-5.103400">
        <ele>2224.0</ele>
        <time>2015-08-15T13:10:37Z</time>
      </trkpt>
      <trkpt lat="40.567983" lon="-5.103117">
        <ele>2218.0</ele>
        <time>2015-08-15T13:10:39Z</time>
      </trkpt>
      <trkpt lat="40.568133" lon="-5.102850">
        <ele>2212.0</ele>
        <time>2015-08-15T13:10:41Z</time>
      </trkpt>
      <trkpt lat="40.568283" lon="-5.102550">
        <ele>2206.0</ele>
        <time>2015-08-15T13:10:43Z</time>
      </trkpt>
      <trkpt lat="40.568400" lon="-5.102267">
        <ele>2201.0</ele>
        <time>2015-08-15T13:10:45Z</time>
      </trkpt>
      <trkpt lat="40.568533" lon="-5.102000">
        <ele>2195.0</ele>
        <time>2015-08-15T13:10:47Z</time>
      </trkpt>
      <trkpt lat="40.568633" lon="-5.101683">
        <ele>2190.0</ele>
        <time>2015-08-15T13:10:49Z</time>
      </trkpt>
      <trkpt lat="40.568750" lon="-5.101400">
        <ele>2185.0</ele>
        <time>2015-08-15T13:10:51Z</time>
      </trkpt>
      <trkpt lat="40.568883" lon="-5.101133">
        <ele>2179.0</ele>
        <time>2015-08-15T13:10:53Z</time>
      </trkpt>
      <trkpt lat="40.569000" lon="-5.100833">
        <ele>2173.0</ele>
        <time>2015-08-15T13:10:55Z</time>
      </trkpt>
      <trkpt lat="40.569133" lon="-5.100550">
        <ele>2167.0</ele>
        <time>2015-08-15T13:10:57Z</time>
      </trkpt>
      <trkpt lat="40.569250" lon="-5.100267">
        <ele>2162.0</ele>
        <time>2015-08-15T13:10:59Z</time>
      </trkpt>
      <trkpt lat="40.569383" lon="-5.099967">
        <ele>2156.0</ele>
        <time>2015-08-15T13:11:01Z</time>
      </trkpt>
      <trkpt lat="40.569517" lon="-5.099683">
        <ele>2149.0</ele>
        <time>2015-08-15T13:11:03Z</time>
      </trkpt>
      <trkpt lat="40.569650" lon="-5.099383">
        <ele>2143.0</ele>
        <time>2015-08-15T13:11:05Z</time>
      </trkpt>
      <trkpt lat="40.569783" lon="-5.099083">
        <ele>2137.0</ele>
        <time>2015-08-15T13:11:07Z</time>
      </trkpt>
      <trkpt lat="40.569900" lon="-5.098783">
        <ele>2132.0</ele>
        <time>2015-08-15T13:11:09Z</time>
      </trkpt>
      <trkpt lat="40.570017" lon="-5.098483">
        <ele>2127.0</ele>
        <time>2015-08-15T13:11:11Z</time>
      </trkpt>
      <trkpt lat="40.570133" lon="-5.098183">
        <ele>2121.0</ele>
        <time>2015-08-15T13:11:13Z</time>
      </trkpt>
      <trkpt lat="40.570267" lon="-5.097883">
        <ele>2114.0</ele>
        <time>2015-08-15T13:11:15Z</time>
      </trkpt>
      <trkpt lat="40.570383" lon="-5.097550">
        <ele>2108.0</ele>
        <time>2015-08-15T13:11:17Z</time>
      </trkpt>
      <trkpt lat="40.570500" lon="-5.097233">
        <ele>2103.0</ele>
        <time>2015-08-15T13:11:19Z</time>
      </trkpt>
      <trkpt lat="40.570633" lon="-5.096933">
        <ele>2098.0</ele>
        <time>2015-08-15T13:11:21Z</time>
      </trkpt>
      <trkpt lat="40.570783" lon="-5.096633">
        <ele>2093.0</ele>
        <time>2015-08-15T13:11:23Z</time>
      </trkpt>
      <trkpt lat="40.570917" lon="-5.096333">
        <ele>2089.0</ele>
        <time>2015-08-15T13:11:25Z</time>
      </trkpt>
      <trkpt lat="40.571033" lon="-5.096033">
        <ele>2085.0</ele>
        <time>2015-08-15T13:11:27Z</time>
      </trkpt>
      <trkpt lat="40.571167" lon="-5.095733">
        <ele>2080.0</ele>
        <time>2015-08-15T13:11:29Z</time>
      </trkpt>
      <trkpt lat="40.571283" lon="-5.095450">
        <ele>2076.0</ele>
        <time>2015-08-15T13:11:31Z</time>
      </trkpt>
      <trkpt lat="40.571400" lon="-5.095183">
        <ele>2071.0</ele>
        <time>2015-08-15T13:11:33Z</time>
      </trkpt>
      <trkpt lat="40.571517" lon="-5.094900">
        <ele>2065.0</ele>
        <time>2015-08-15T13:11:35Z</time>
      </trkpt>
      <trkpt lat="40.571617" lon="-5.094583">
        <ele>2059.0</ele>
        <time>2015-08-15T13:11:37Z</time>
      </trkpt>
      <trkpt lat="40.571733" lon="-5.094267">
        <ele>2056.0</ele>
        <time>2015-08-15T13:11:39Z</time>
      </trkpt>
      <trkpt lat="40.571800" lon="-5.093967">
        <ele>2053.0</ele>
        <time>2015-08-15T13:11:41Z</time>
      </trkpt>
      <trkpt lat="40.571867" lon="-5.093667">
        <ele>2047.0</ele>
        <time>2015-08-15T13:11:43Z</time>
      </trkpt>
      <trkpt lat="40.571917" lon="-5.093317">
        <ele>2040.0</ele>
        <time>2015-08-15T13:11:45Z</time>
      </trkpt>
      <trkpt lat="40.571900" lon="-5.093000">
        <ele>2037.0</ele>
        <time>2015-08-15T13:11:47Z</time>
      </trkpt>
      <trkpt lat="40.571900" lon="-5.092683">
        <ele>2033.0</ele>
        <time>2015-08-15T13:11:49Z</time>
      </trkpt>
      <trkpt lat="40.571917" lon="-5.092383">
        <ele>2029.0</ele>
        <time>2015-08-15T13:11:51Z</time>
      </trkpt>
      <trkpt lat="40.571883" lon="-5.092083">
        <ele>2023.0</ele>
        <time>2015-08-15T13:11:53Z</time>
      </trkpt>
      <trkpt lat="40.571917" lon="-5.091733">
        <ele>2016.0</ele>
        <time>2015-08-15T13:11:55Z</time>
      </trkpt>
      <trkpt lat="40.571933" lon="-5.091400">
        <ele>2014.0</ele>
        <time>2015-08-15T13:11:57Z</time>
      </trkpt>
      <trkpt lat="40.571967" lon="-5.091100">
        <ele>2012.0</ele>
        <time>2015-08-15T13:11:59Z</time>
      </trkpt>
      <trkpt lat="40.571950" lon="-5.090783">
        <ele>2008.0</ele>
        <time>2015-08-15T13:12:01Z</time>
      </trkpt>
      <trkpt lat="40.571900" lon="-5.090483">
        <ele>2005.0</ele>
        <time>2015-08-15T13:12:03Z</time>
      </trkpt>
      <trkpt lat="40.571867" lon="-5.090200">
        <ele>2004.0</ele>
        <time>2015-08-15T13:12:05Z</time>
      </trkpt>
      <trkpt lat="40.571817" lon="-5.089933">
        <ele>2002.0</ele>
        <time>2015-08-15T13:12:07Z</time>
      </trkpt>
      <trkpt lat="40.571750" lon="-5.089650">
        <ele>2001.0</ele>
        <time>2015-08-15T13:12:09Z</time>
      </trkpt>
      <trkpt lat="40.571683" lon="-5.089383">
        <ele>2001.0</ele>
        <time>2015-08-15T13:12:11Z</time>
      </trkpt>
      <trkpt lat="40.571600" lon="-5.089100">
        <ele>2000.0</ele>
        <time>2015-08-15T13:12:13Z</time>
      </trkpt>
      <trkpt lat="40.571517" lon="-5.088783">
        <ele>2000.0</ele>
        <time>2015-08-15T13:12:15Z</time>
      </trkpt>
      <trkpt lat="40.571450" lon="-5.088500">
        <ele>2000.0</ele>
        <time>2015-08-15T13:12:17Z</time>
      </trkpt>
      <trkpt lat="40.571383" lon="-5.088217">
        <ele>2000.0</ele>
        <time>2015-08-15T13:12:19Z</time>
      </trkpt>
      <trkpt lat="40.571317" lon="-5.087900">
        <ele>2001.0</ele>
        <time>2015-08-15T13:12:21Z</time>
      </trkpt>
      <trkpt lat="40.571267" lon="-5.087583">
        <ele>2003.0</ele>
        <time>2015-08-15T13:12:23Z</time>
      </trkpt>
      <trkpt lat="40.571217" lon="-5.087300">
        <ele>2005.0</ele>
        <time>2015-08-15T13:12:25Z</time>
      </trkpt>
      <trkpt lat="40.571100" lon="-5.087033">
        <ele>2010.0</ele>
        <time>2015-08-15T13:12:27Z</time>
      </trkpt>
      <trkpt lat="40.570950" lon="-5.086883">
        <ele>2019.0</ele>
        <time>2015-08-15T13:12:29Z</time>
      </trkpt>
      <trkpt lat="40.570817" lon="-5.086833">
        <ele>2025.0</ele>
        <time>2015-08-15T13:12:31Z</time>
      </trkpt>
      <trkpt lat="40.570667" lon="-5.086867">
        <ele>2025.0</ele>
        <time>2015-08-15T13:12:33Z</time>
      </trkpt>
      <trkpt lat="40.570483" lon="-5.086967">
        <ele>2025.0</ele>
        <time>2015-08-15T13:12:35Z</time>
      </trkpt>
      <trkpt lat="40.570367" lon="-5.087150">
        <ele>2031.0</ele>
        <time>2015-08-15T13:12:37Z</time>
      </trkpt>
      <trkpt lat="40.570283" lon="-5.087283">
        <ele>2037.0</ele>
        <time>2015-08-15T13:12:39Z</time>
      </trkpt>
      <trkpt lat="40.570267" lon="-5.087383">
        <ele>2039.0</ele>
        <time>2015-08-15T13:12:41Z</time>
      </trkpt>
      <trkpt lat="40.570317" lon="-5.087483">
        <ele>2039.0</ele>
        <time>2015-08-15T13:12:43Z</time>
      </trkpt>
      <trkpt lat="40.570400" lon="-5.087500">
        <ele>2040.0</ele>
        <time>2015-08-15T13:12:45Z</time>
      </trkpt>
      <trkpt lat="40.570500" lon="-5.087417">
        <ele>2039.0</ele>
        <time>2015-08-15T13:12:47Z</time>
      </trkpt>
      <trkpt lat="40.570633" lon="-5.087250">
        <ele>2036.0</ele>
        <time>2015-08-15T13:12:49Z</time>
      </trkpt>
      <trkpt lat="40.570750" lon="-5.086983">
        <ele>2038.0</ele>
        <time>2015-08-15T13:12:51Z</time>
      </trkpt>
      <trkpt lat="40.570817" lon="-5.086750">
        <ele>2041.0</ele>
        <time>2015-08-15T13:12:53Z</time>
      </trkpt>
      <trkpt lat="40.570867" lon="-5.086517">
        <ele>2037.0</ele>
        <time>2015-08-15T13:12:55Z</time>
      </trkpt>
      <trkpt lat="40.570967" lon="-5.086183">
        <ele>2031.0</ele>
        <time>2015-08-15T13:12:57Z</time>
      </trkpt>
      <trkpt lat="40.571033" lon="-5.085817">
        <ele>2031.0</ele>
        <time>2015-08-15T13:12:59Z</time>
      </trkpt>
      <trkpt lat="40.571050" lon="-5.085483">
        <ele>2032.0</ele>
        <time>2015-08-15T13:13:01Z</time>
      </trkpt>
      <trkpt lat="40.571017" lon="-5.085150">
        <ele>2032.0</ele>
        <time>2015-08-15T13:13:03Z</time>
      </trkpt>
      <trkpt lat="40.570950" lon="-5.084817">
        <ele>2034.0</ele>
        <time>2015-08-15T13:13:05Z</time>
      </trkpt>
      <trkpt lat="40.570867" lon="-5.084517">
        <ele>2038.0</ele>
        <time>2015-08-15T13:13:07Z</time>
      </trkpt>
      <trkpt lat="40.570733" lon="-5.084283">
        <ele>2039.0</ele>
        <time>2015-08-15T13:13:09Z</time>
      </trkpt>
      <trkpt lat="40.570483" lon="-5.084100">
        <ele>2040.0</ele>
        <time>2015-08-15T13:13:11Z</time>
      </trkpt>
      <trkpt lat="40.570283" lon="-5.083967">
        <ele>2046.0</ele>
        <time>2015-08-15T13:13:13Z</time>
      </trkpt>
      <trkpt lat="40.570067" lon="-5.083917">
        <ele>2047.0</ele>
        <time>2015-08-15T13:13:15Z</time>
      </trkpt>
      <trkpt lat="40.569833" lon="-5.084000">
        <ele>2046.0</ele>
        <time>2015-08-15T13:13:17Z</time>
      </trkpt>
      <trkpt lat="40.569633" lon="-5.084150">
        <ele>2053.0</ele>
        <time>2015-08-15T13:13:19Z</time>
      </trkpt>
      <trkpt lat="40.569550" lon="-5.084233">
        <ele>2058.0</ele>
        <time>2015-08-15T13:13:21Z</time>
      </trkpt>
      <trkpt lat="40.569483" lon="-5.084350">
        <ele>2055.0</ele>
        <time>2015-08-15T13:13:23Z</time>
      </trkpt>
      <trkpt lat="40.569417" lon="-5.084583">
        <ele>2051.0</ele>
        <time>2015-08-15T13:13:25Z</time>
      </trkpt>
      <trkpt lat="40.569450" lon="-5.084833">
        <ele>2051.0</ele>
        <time>2015-08-15T13:13:27Z</time>
      </trkpt>
      <trkpt lat="40.569583" lon="-5.084950">
        <ele>2053.0</ele>
        <time>2015-08-15T13:13:29Z</time>
      </trkpt>
      <trkpt lat="40.569700" lon="-5.084933">
        <ele>2058.0</ele>
        <time>2015-08-15T13:13:31Z</time>
      </trkpt>
      <trkpt lat="40.569817" lon="-5.084833">
        <ele>2058.0</ele>
        <time>2015-08-15T13:13:33Z</time>
      </trkpt>
      <trkpt lat="40.569967" lon="-5.084683">
        <ele>2059.0</ele>
        <time>2015-08-15T13:13:35Z</time>
      </trkpt>
      <trkpt lat="40.570083" lon="-5.084467">
        <ele>2061.0</ele>
        <time>2015-08-15T13:13:37Z</time>
      </trkpt>
      <trkpt lat="40.570133" lon="-5.084200">
        <ele>2062.0</ele>
        <time>2015-08-15T13:13:39Z</time>
      </trkpt>
      <trkpt lat="40.570133" lon="-5.083850">
        <ele>2059.0</ele>
        <time>2015-08-15T13:13:41Z</time>
      </trkpt>
      <trkpt lat="40.570000" lon="-5.083450">
        <ele>2057.0</ele>
        <time>2015-08-15T13:13:43Z</time>
      </trkpt>
      <trkpt lat="40.569817" lon="-5.083167">
        <ele>2063.0</ele>
        <time>2015-08-15T13:13:45Z</time>
      </trkpt>
      <trkpt lat="40.569650" lon="-5.082950">
        <ele>2065.0</ele>
        <time>2015-08-15T13:13:47Z</time>
      </trkpt>
      <trkpt lat="40.569450" lon="-5.082783">
        <ele>2066.0</ele>
        <time>2015-08-15T13:13:49Z</time>
      </trkpt>
      <trkpt lat="40.569200" lon="-5.082717">
        <ele>2067.0</ele>
        <time>2015-08-15T13:13:51Z</time>
      </trkpt>
      <trkpt lat="40.568967" lon="-5.082767">
        <ele>2070.0</ele>
        <time>2015-08-15T13:13:53Z</time>
      </trkpt>
      <trkpt lat="40.568817" lon="-5.082883">
        <ele>2077.0</ele>
        <time>2015-08-15T13:13:55Z</time>
      </trkpt>
      <trkpt lat="40.568767" lon="-5.083017">
        <ele>2082.0</ele>
        <time>2015-08-15T13:13:57Z</time>
      </trkpt>
      <trkpt lat="40.568800" lon="-5.083117">
        <ele>2084.0</ele>
        <time>2015-08-15T13:13:59Z</time>
      </trkpt>
      <trkpt lat="40.568900" lon="-5.083217">
        <ele>2083.0</ele>
        <time>2015-08-15T13:14:01Z</time>
      </trkpt>
      <trkpt lat="40.569050" lon="-5.083300">
        <ele>2088.0</ele>
        <time>2015-08-15T13:14:03Z</time>
      </trkpt>
      <trkpt lat="40.569167" lon="-5.083250">
        <ele>2092.0</ele>
        <time>2015-08-15T13:14:05Z</time>
      </trkpt>
      <trkpt lat="40.569267" lon="-5.083083">
        <ele>2089.0</ele>
        <time>2015-08-15T13:14:07Z</time>
      </trkpt>
      <trkpt lat="40.569400" lon="-5.082850">
        <ele>2084.0</ele>
        <time>2015-08-15T13:14:09Z</time>
      </trkpt>
      <trkpt lat="40.569450" lon="-5.082533">
        <ele>2083.0</ele>
        <time>2015-08-15T13:14:11Z</time>
      </trkpt>
      <trkpt lat="40.569400" lon="-5.082183">
        <ele>2083.0</ele>
        <time>2015-08-15T13:14:13Z</time>
      </trkpt>
      <trkpt lat="40.569300" lon="-5.081817">
        <ele>2090.0</ele>
        <time>2015-08-15T13:14:15Z</time>
      </trkpt>
      <trkpt lat="40.569217" lon="-5.081533">
        <ele>2099.0</ele>
        <time>2015-08-15T13:14:17Z</time>
      </trkpt>
      <trkpt lat="40.569083" lon="-5.081283">
        <ele>2104.0</ele>
        <time>2015-08-15T13:14:19Z</time>
      </trkpt>
      <trkpt lat="40.568867" lon="-5.081050">
        <ele>2109.0</ele>
        <time>2015-08-15T13:14:21Z</time>
      </trkpt>
      <trkpt lat="40.568633" lon="-5.080967">
        <ele>2116.0</ele>
        <time>2015-08-15T13:14:23Z</time>
      </trkpt>
      <trkpt lat="40.568417" lon="-5.081000">
        <ele>2122.0</ele>
        <time>2015-08-15T13:14:25Z</time>
      </trkpt>
      <trkpt lat="40.568250" lon="-5.081100">
        <ele>2127.0</ele>
        <time>2015-08-15T13:14:27Z</time>
      </trkpt>
      <trkpt lat="40.568150" lon="-5.081233">
        <ele>2131.0</ele>
        <time>2015-08-15T13:14:29Z</time>
      </trkpt>
      <trkpt lat="40.568033" lon="-5.081350">
        <ele>2132.0</ele>
        <time>2015-08-15T13:14:31Z</time>
      </trkpt>
      <trkpt lat="40.567950" lon="-5.081500">
        <ele>2136.0</ele>
        <time>2015-08-15T13:14:33Z</time>
      </trkpt>
      <trkpt lat="40.568000" lon="-5.081617">
        <ele>2139.0</ele>
        <time>2015-08-15T13:14:35Z</time>
      </trkpt>
      <trkpt lat="40.568100" lon="-5.081750">
        <ele>2139.0</ele>
        <time>2015-08-15T13:14:37Z</time>
      </trkpt>
      <trkpt lat="40.568250" lon="-5.081817">
        <ele>2139.0</ele>
        <time>2015-08-15T13:14:39Z</time>
      </trkpt>
      <trkpt lat="40.568433" lon="-5.081800">
        <ele>2140.0</ele>
        <time>2015-08-15T13:14:41Z</time>
      </trkpt>
      <trkpt lat="40.568567" lon="-5.081733">
        <ele>2145.0</ele>
        <time>2015-08-15T13:14:43Z</time>
      </trkpt>
      <trkpt lat="40.568667" lon="-5.081600">
        <ele>2143.0</ele>
        <time>2015-08-15T13:14:45Z</time>
      </trkpt>
      <trkpt lat="40.568783" lon="-5.081350">
        <ele>2140.0</ele>
        <time>2015-08-15T13:14:47Z</time>
      </trkpt>
      <trkpt lat="40.568833" lon="-5.081033">
        <ele>2139.0</ele>
        <time>2015-08-15T13:14:49Z</time>
      </trkpt>
      <trkpt lat="40.568783" lon="-5.080700">
        <ele>2137.0</ele>
        <time>2015-08-15T13:14:51Z</time>
      </trkpt>
      <trkpt lat="40.568667" lon="-5.080367">
        <ele>2135.0</ele>
        <time>2015-08-15T13:14:53Z</time>
      </trkpt>
      <trkpt lat="40.568467" lon="-5.080033">
        <ele>2137.0</ele>
        <time>2015-08-15T13:14:55Z</time>
      </trkpt>
      <trkpt lat="40.568250" lon="-5.079750">
        <ele>2146.0</ele>
        <time>2015-08-15T13:14:57Z</time>
      </trkpt>
      <trkpt lat="40.568033" lon="-5.079567">
        <ele>2155.0</ele>
        <time>2015-08-15T13:14:59Z</time>
      </trkpt>
      <trkpt lat="40.567783" lon="-5.079483">
        <ele>2160.0</ele>
        <time>2015-08-15T13:15:01Z</time>
      </trkpt>
      <trkpt lat="40.567567" lon="-5.079550">
        <ele>2165.0</ele>
        <time>2015-08-15T13:15:03Z</time>
      </trkpt>
      <trkpt lat="40.567500" lon="-5.079683">
        <ele>2171.0</ele>
        <time>2015-08-15T13:15:05Z</time>
      </trkpt>
      <trkpt lat="40.567467" lon="-5.079783">
        <ele>2176.0</ele>
        <time>2015-08-15T13:15:07Z</time>
      </trkpt>
      <trkpt lat="40.567533" lon="-5.079833">
        <ele>2176.0</ele>
        <time>2015-08-15T13:15:09Z</time>
      </trkpt>
      <trkpt lat="40.567633" lon="-5.079800">
        <ele>2179.0</ele>
        <time>2015-08-15T13:15:11Z</time>
      </trkpt>
      <trkpt lat="40.567717" lon="-5.079617">
        <ele>2183.0</ele>
        <time>2015-08-15T13:15:13Z</time>
      </trkpt>
      <trkpt lat="40.567750" lon="-5.079383">
        <ele>2185.0</ele>
        <time>2015-08-15T13:15:15Z</time>
      </trkpt>
      <trkpt lat="40.567733" lon="-5.079067">
        <ele>2188.0</ele>
        <time>2015-08-15T13:15:17Z</time>
      </trkpt>
      <trkpt lat="40.567600" lon="-5.078733">
        <ele>2193.0</ele>
        <time>2015-08-15T13:15:19Z</time>
      </trkpt>
      <trkpt lat="40.567433" lon="-5.078433">
        <ele>2202.0</ele>
        <time>2015-08-15T13:15:21Z</time>
      </trkpt>
      <trkpt lat="40.567250" lon="-5.078200">
        <ele>2209.0</ele>
        <time>2015-08-15T13:15:23Z</time>
      </trkpt>
      <trkpt lat="40.567000" lon="-5.078033">
        <ele>2211.0</ele>
        <time>2015-08-15T13:15:25Z</time>
      </trkpt>
      <trkpt lat="40.566733" lon="-5.077983">
        <ele>2216.0</ele>
        <time>2015-08-15T13:15:27Z</time>
      </trkpt>
      <trkpt lat="40.566550" lon="-5.078067">
        <ele>2222.0</ele>
        <time>2015-08-15T13:15:29Z</time>
      </trkpt>
      <trkpt lat="40.566467" lon="-5.078200">
        <ele>2224.0</ele>
        <time>2015-08-15T13:15:31Z</time>
      </trkpt>
      <trkpt lat="40.566467" lon="-5.078367">
        <ele>2223.0</ele>
        <time>2015-08-15T13:15:33Z</time>
      </trkpt>
      <trkpt lat="40.566600" lon="-5.078450">
        <ele>2221.0</ele>
        <time>2015-08-15T13:15:35Z</time>
      </trkpt>
      <trkpt lat="40.566750" lon="-5.078350">
        <ele>2227.0</ele>
        <time>2015-08-15T13:15:37Z</time>
      </trkpt>
      <trkpt lat="40.566833" lon="-5.078233">
        <ele>2234.0</ele>
        <time>2015-08-15T13:15:39Z</time>
      </trkpt>
      <trkpt lat="40.566950" lon="-5.078117">
        <ele>2235.0</ele>
        <time>2015-08-15T13:15:41Z</time>
      </trkpt>
      <trkpt lat="40.567033" lon="-5.077867">
        <ele>2239.0</ele>
        <time>2015-08-15T13:15:43Z</time>
      </trkpt>
      <trkpt lat="40.567017" lon="-5.077583">
        <ele>2245.0</ele>
        <time>2015-08-15T13:15:45Z</time>
      </trkpt>
      <trkpt lat="40.566933" lon="-5.077283">
        <ele>2248.0</ele>
        <time>2015-08-15T13:15:47Z</time>
      </trkpt>
      <trkpt lat="40.566783" lon="-5.076983">
        <ele>2252.0</ele>
        <time>2015-08-15T13:15:49Z</time>
      </trkpt>
      <trkpt lat="40.566583" lon="-5.076767">
        <ele>2260.0</ele>
        <time>2015-08-15T13:15:51Z</time>
      </trkpt>
      <trkpt lat="40.566383" lon="-5.076667">
        <ele>2267.0</ele>
        <time>2015-08-15T13:15:53Z</time>
      </trkpt>
      <trkpt lat="40.566183" lon="-5.076633">
        <ele>2269.0</ele>
        <time>2015-08-15T13:15:55Z</time>
      </trkpt>
      <trkpt lat="40.566000" lon="-5.076700">
        <ele>2272.0</ele>
        <time>2015-08-15T13:15:57Z</time>
      </trkpt>
      <trkpt lat="40.565917" lon="-5.076833">
        <ele>2275.0</ele>
        <time>2015-08-15T13:15:59Z</time>
      </trkpt>
      <trkpt lat="40.565950" lon="-5.076983">
        <ele>2277.0</ele>
        <time>2015-08-15T13:16:01Z</time>
      </trkpt>
      <trkpt lat="40.566067" lon="-5.077033">
        <ele>2280.0</ele>
        <time>2015-08-15T13:16:03Z</time>
      </trkpt>
      <trkpt lat="40.566200" lon="-5.076967">
        <ele>2285.0</ele>
        <time>2015-08-15T13:16:05Z</time>
      </trkpt>
      <trkpt lat="40.566300" lon="-5.076833">
        <ele>2290.0</ele>
        <time>2015-08-15T13:16:07Z</time>
      </trkpt>
      <trkpt lat="40.566367" lon="-5.076650">
        <ele>2293.0</ele>
        <time>2015-08-15T13:16:09Z</time>
      </trkpt>
      <trkpt lat="40.566417" lon="-5.076400">
        <ele>2293.0</ele>
        <time>2015-08-15T13:16:11Z</time>
      </trkpt>
      <trkpt lat="40.566450" lon="-5.076150">
        <ele>2296.0</ele>
        <time>2015-08-15T13:16:13Z</time>
      </trkpt>
      <trkpt lat="40.566433" lon="-5.075867">
        <ele>2298.0</ele>
        <time>2015-08-15T13:16:15Z</time>
      </trkpt>
      <trkpt lat="40.566367" lon="-5.075567">
        <ele>2302.0</ele>
        <time>2015-08-15T13:16:17Z</time>
      </trkpt>
      <trkpt lat="40.566233" lon="-5.075333">
        <ele>2308.0</ele>
        <time>2015-08-15T13:16:19Z</time>
      </trkpt>
      <trkpt lat="40.566083" lon="-5.075183">
        <ele>2310.0</ele>
        <time>2015-08-15T13:16:21Z</time>
      </trkpt>
      <trkpt lat="40.565900" lon="-5.075100">
        <ele>2309.0</ele>
        <time>2015-08-15T13:16:23Z</time>
      </trkpt>
      <trkpt lat="40.565650" lon="-5.075067">
        <ele>2309.0</ele>
        <time>2015-08-15T13:16:25Z</time>
      </trkpt>
      <trkpt lat="40.565450" lon="-5.075167">
        <ele>2312.0</ele>
        <time>2015-08-15T13:16:27Z</time>
      </trkpt>
      <trkpt lat="40.565350" lon="-5.075300">
        <ele>2318.0</ele>
        <time>2015-08-15T13:16:29Z</time>
      </trkpt>
      <trkpt lat="40.565333" lon="-5.075417">
        <ele>2323.0</ele>
        <time>2015-08-15T13:16:31Z</time>
      </trkpt>
      <trkpt lat="40.565383" lon="-5.075533">
        <ele>2323.0</ele>
        <time>2015-08-15T13:16:33Z</time>
      </trkpt>
      <trkpt lat="40.565517" lon="-5.075633">
        <ele>2325.0</ele>
        <time>2015-08-15T13:16:35Z</time>
      </trkpt>
      <trkpt lat="40.565650" lon="-5.075633">
        <ele>2328.0</ele>
        <time>2015-08-15T13:16:37Z</time>
      </trkpt>
      <trkpt lat="40.565783" lon="-5.075600">
        <ele>2332.0</ele>
        <time>2015-08-15T13:16:39Z</time>
      </trkpt>
      <trkpt lat="40.565900" lon="-5.075500">
        <ele>2334.0</ele>
        <time>2015-08-15T13:16:41Z</time>
      </trkpt>
      <trkpt lat="40.566000" lon="-5.075317">
        <ele>2337.0</ele>
        <time>2015-08-15T13:16:43Z</time>
      </trkpt>
      <trkpt lat="40.566067" lon="-5.075083">
        <ele>2338.0</ele>
        <time>2015-08-15T13:16:45Z</time>
      </trkpt>
      <trkpt lat="40.566050" lon="-5.074800">
        <ele>2339.0</ele>
        <time>2015-08-15T13:16:47Z</time>
      </trkpt>
      <trkpt lat="40.565983" lon="-5.074517">
        <ele>2340.0</ele>
        <time>2015-08-15T13:16:49Z</time>
      </trkpt>
      <trkpt lat="40.565850" lon="-5.074267">
        <ele>2341.0</ele>
        <time>2015-08-15T13:16:51Z</time>
      </trkpt>
      <trkpt lat="40.565667" lon="-5.074083">
        <ele>2343.0</ele>
        <time>2015-08-15T13:16:53Z</time>
      </trkpt>
      <trkpt lat="40.565467" lon="-5.073933">
        <ele>2345.0</ele>
        <time>2015-08-15T13:16:55Z</time>
      </trkpt>
      <trkpt lat="40.565217" lon="-5.073867">
        <ele>2347.0</ele>
        <time>2015-08-15T13:16:57Z</time>
      </trkpt>
      <trkpt lat="40.565017" lon="-5.073900">
        <ele>2352.0</ele>
        <time>2015-08-15T13:16:59Z</time>
      </trkpt>
      <trkpt lat="40.564883" lon="-5.074017">
        <ele>2355.0</ele>
        <time>2015-08-15T13:17:01Z</time>
      </trkpt>
      <trkpt lat="40.564817" lon="-5.074167">
        <ele>2355.0</ele>
        <time>2015-08-15T13:17:03Z</time>
      </trkpt>
      <trkpt lat="40.564867" lon="-5.074333">
        <ele>2354.0</ele>
        <time>2015-08-15T13:17:05Z</time>
      </trkpt>
      <trkpt lat="40.564967" lon="-5.074417">
        <ele>2357.0</ele>
        <time>2015-08-15T13:17:07Z</time>
      </trkpt>
      <trkpt lat="40.565083" lon="-5.074383">
        <ele>2359.0</ele>
        <time>2015-08-15T13:17:09Z</time>
      </trkpt>
      <trkpt lat="40.565200" lon="-5.074317">
        <ele>2360.0</ele>
        <time>2015-08-15T13:17:11Z</time>
      </trkpt>
      <trkpt lat="40.565317" lon="-5.074167">
        <ele>2362.0</ele>
        <time>2015-08-15T13:17:13Z</time>
      </trkpt>
      <trkpt lat="40.565383" lon="-5.073933">
        <ele>2363.0</ele>
        <time>2015-08-15T13:17:15Z</time>
      </trkpt>
      <trkpt lat="40.565383" lon="-5.073650">
        <ele>2364.0</ele>
        <time>2015-08-15T13:17:17Z</time>
      </trkpt>
      <trkpt lat="40.565333" lon="-5.073367">
        <ele>2365.0</ele>
        <time>2015-08-15T13:17:19Z</time>
      </trkpt>
      <trkpt lat="40.565233" lon="-5.073100">
        <ele>2367.0</ele>
        <time>2015-08-15T13:17:21Z</time>
      </trkpt>
      <trkpt lat="40.565050" lon="-5.072900">
        <ele>2367.0</ele>
        <time>2015-08-15T13:17:23Z</time>
      </trkpt>
      <trkpt lat="40.564850" lon="-5.072767">
        <ele>2369.0</ele>
        <time>2015-08-15T13:17:25Z</time>
      </trkpt>
      <trkpt lat="40.564667" lon="-5.072683">
        <ele>2373.0</ele>
        <time>2015-08-15T13:17:27Z</time>
      </trkpt>
      <trkpt lat="40.564500" lon="-5.072683">
        <ele>2374.0</ele>
        <time>2015-08-15T13:17:29Z</time>
      </trkpt>
      <trkpt lat="40.564383" lon="-5.072767">
        <ele>2374.0</ele>
        <time>2015-08-15T13:17:31Z</time>
      </trkpt>
      <trkpt lat="40.564333" lon="-5.072900">
        <ele>2375.0</ele>
        <time>2015-08-15T13:17:33Z</time>
      </trkpt>
      <trkpt lat="40.564333" lon="-5.073033">
        <ele>2374.0</ele>
        <time>2015-08-15T13:17:35Z</time>
      </trkpt>
      <trkpt lat="40.564433" lon="-5.073133">
        <ele>2371.0</ele>
        <time>2015-08-15T13:17:37Z</time>
      </trkpt>
      <trkpt lat="40.564600" lon="-5.073150">
        <ele>2368.0</ele>
        <time>2015-08-15T13:17:39Z</time>
      </trkpt>
      <trkpt lat="40.564767" lon="-5.073083">
        <ele>2370.0</ele>
        <time>2015-08-15T13:17:41Z</time>
      </trkpt>
      <trkpt lat="40.564867" lon="-5.073000">
        <ele>2372.0</ele>
        <time>2015-08-15T13:17:43Z</time>
      </trkpt>
      <trkpt lat="40.564983" lon="-5.072850">
        <ele>2371.0</ele>
        <time>2015-08-15T13:17:45Z</time>
      </trkpt>
      <trkpt lat="40.565100" lon="-5.072650">
        <ele>2373.0</ele>
        <time>2015-08-15T13:17:47Z</time>
      </trkpt>
      <trkpt lat="40.565200" lon="-5.072433">
        <ele>2376.0</ele>
        <time>2015-08-15T13:17:49Z</time>
      </trkpt>
      <trkpt lat="40.565250" lon="-5.072200">
        <ele>2376.0</ele>
        <time>2015-08-15T13:17:51Z</time>
      </trkpt>
      <trkpt lat="40.565283" lon="-5.071883">
        <ele>2376.0</ele>
        <time>2015-08-15T13:17:53Z</time>
      </trkpt>
      <trkpt lat="40.565283" lon="-5.071600">
        <ele>2378.0</ele>
        <time>2015-08-15T13:17:55Z</time>
      </trkpt>
      <trkpt lat="40.565217" lon="-5.071367">
        <ele>2377.0</ele>
        <time>2015-08-15T13:17:57Z</time>
      </trkpt>
      <trkpt lat="40.565117" lon="-5.071100">
        <ele>2372.0</ele>
        <time>2015-08-15T13:17:59Z</time>
      </trkpt>
      <trkpt lat="40.564983" lon="-5.070817">
        <ele>2369.0</ele>
        <time>2015-08-15T13:18:01Z</time>
      </trkpt>
      <trkpt lat="40.564817" lon="-5.070650">
        <ele>2367.0</ele>
        <time>2015-08-15T13:18:03Z</time>
      </trkpt>
      <trkpt lat="40.564650" lon="-5.070550">
        <ele>2362.0</ele>
        <time>2015-08-15T13:18:05Z</time>
      </trkpt>
      <trkpt lat="40.564450" lon="-5.070433">
        <ele>2358.0</ele>
        <time>2015-08-15T13:18:07Z</time>
      </trkpt>
      <trkpt lat="40.564217" lon="-5.070317">
        <ele>2361.0</ele>
        <time>2015-08-15T13:18:09Z</time>
      </trkpt>
      <trkpt lat="40.564050" lon="-5.070283">
        <ele>2361.0</ele>
        <time>2015-08-15T13:18:11Z</time>
      </trkpt>
      <trkpt lat="40.563900" lon="-5.070367">
        <ele>2358.0</ele>
        <time>2015-08-15T13:18:13Z</time>
      </trkpt>
      <trkpt lat="40.563817" lon="-5.070533">
        <ele>2360.0</ele>
        <time>2015-08-15T13:18:15Z</time>
      </trkpt>
      <trkpt lat="40.563817" lon="-5.070650">
        <ele>2363.0</ele>
        <time>2015-08-15T13:18:17Z</time>
      </trkpt>
      <trkpt lat="40.563883" lon="-5.070767">
        <ele>2361.0</ele>
        <time>2015-08-15T13:18:19Z</time>
      </trkpt>
      <trkpt lat="40.564033" lon="-5.070850">
        <ele>2360.0</ele>
        <time>2015-08-15T13:18:21Z</time>
      </trkpt>
      <trkpt lat="40.564183" lon="-5.070833">
        <ele>2360.0</ele>
        <time>2015-08-15T13:18:23Z</time>
      </trkpt>
      <trkpt lat="40.564333" lon="-5.070683">
        <ele>2358.0</ele>
        <time>2015-08-15T13:18:25Z</time>
      </trkpt>
      <trkpt lat="40.564467" lon="-5.070467">
        <ele>2356.0</ele>
        <time>2015-08-15T13:18:27Z</time>
      </trkpt>
      <trkpt lat="40.564567" lon="-5.070217">
        <ele>2356.0</ele>
        <time>2015-08-15T13:18:29Z</time>
      </trkpt>
      <trkpt lat="40.564650" lon="-5.069983">
        <ele>2356.0</ele>
        <time>2015-08-15T13:18:31Z</time>
      </trkpt>
      <trkpt lat="40.564733" lon="-5.069733">
        <ele>2353.0</ele>
        <time>2015-08-15T13:18:33Z</time>
      </trkpt>
      <trkpt lat="40.564800" lon="-5.069450">
        <ele>2350.0</ele>
        <time>2015-08-15T13:18:35Z</time>
      </trkpt>
      <trkpt lat="40.564850" lon="-5.069167">
        <ele>2345.0</ele>
        <time>2015-08-15T13:18:37Z</time>
      </trkpt>
      <trkpt lat="40.564917" lon="-5.068867">
        <ele>2338.0</ele>
        <time>2015-08-15T13:18:39Z</time>
      </trkpt>
      <trkpt lat="40.565000" lon="-5.068583">
        <ele>2333.0</ele>
        <time>2015-08-15T13:18:41Z</time>
      </trkpt>
      <trkpt lat="40.565083" lon="-5.068283">
        <ele>2329.0</ele>
        <time>2015-08-15T13:18:43Z</time>
      </trkpt>
      <trkpt lat="40.565167" lon="-5.067917">
        <ele>2327.0</ele>
        <time>2015-08-15T13:18:45Z</time>
      </trkpt>
      <trkpt lat="40.565233" lon="-5.067617">
        <ele>2326.0</ele>
        <time>2015-08-15T13:18:47Z</time>
      </trkpt>
      <trkpt lat="40.565317" lon="-5.067350">
        <ele>2318.0</ele>
        <time>2015-08-15T13:18:49Z</time>
      </trkpt>
      <trkpt lat="40.565433" lon="-5.067050">
        <ele>2310.0</ele>
        <time>2015-08-15T13:18:51Z</time>
      </trkpt>
      <trkpt lat="40.565517" lon="-5.066750">
        <ele>2305.0</ele>
        <time>2015-08-15T13:18:53Z</time>
      </trkpt>
      <trkpt lat="40.565600" lon="-5.066450">
        <ele>2299.0</ele>
        <time>2015-08-15T13:18:55Z</time>
      </trkpt>
      <trkpt lat="40.565700" lon="-5.066133">
        <ele>2294.0</ele>
        <time>2015-08-15T13:18:57Z</time>
      </trkpt>
      <trkpt lat="40.565817" lon="-5.065883">
        <ele>2291.0</ele>
        <time>2015-08-15T13:18:59Z</time>
      </trkpt>
      <trkpt lat="40.565933" lon="-5.065667">
        <ele>2286.0</ele>
        <time>2015-08-15T13:19:01Z</time>
      </trkpt>
      <trkpt lat="40.566083" lon="-5.065433">
        <ele>2278.0</ele>
        <time>2015-08-15T13:19:03Z</time>
      </trkpt>
      <trkpt lat="40.566233" lon="-5.065167">
        <ele>2273.0</ele>
        <time>2015-08-15T13:19:05Z</time>
      </trkpt>
      <trkpt lat="40.566333" lon="-5.064883">
        <ele>2270.0</ele>
        <time>2015-08-15T13:19:07Z</time>
      </trkpt>
      <trkpt lat="40.566417" lon="-5.064567">
        <ele>2263.0</ele>
        <time>2015-08-15T13:19:09Z</time>
      </trkpt>
      <trkpt lat="40.566533" lon="-5.064267">
        <ele>2255.0</ele>
        <time>2015-08-15T13:19:11Z</time>
      </trkpt>
      <trkpt lat="40.566650" lon="-5.063967">
        <ele>2248.0</ele>
        <time>2015-08-15T13:19:13Z</time>
      </trkpt>
      <trkpt lat="40.566767" lon="-5.063650">
        <ele>2245.0</ele>
        <time>2015-08-15T13:19:15Z</time>
      </trkpt>
      <trkpt lat="40.566867" lon="-5.063350">
        <ele>2239.0</ele>
        <time>2015-08-15T13:19:17Z</time>
      </trkpt>
      <trkpt lat="40.566983" lon="-5.062983">
        <ele>2232.0</ele>
        <time>2015-08-15T13:19:19Z</time>
      </trkpt>
      <trkpt lat="40.567083" lon="-5.062633">
        <ele>2232.0</ele>
        <time>2015-08-15T13:19:21Z</time>
      </trkpt>
      <trkpt lat="40.567167" lon="-5.062350">
        <ele>2230.0</ele>
        <time>2015-08-15T13:19:23Z</time>
      </trkpt>
      <trkpt lat="40.567250" lon="-5.062050">
        <ele>2227.0</ele>
        <time>2015-08-15T13:19:25Z</time>
      </trkpt>
      <trkpt lat="40.567350" lon="-5.061733">
        <ele>2224.0</ele>
        <time>2015-08-15T13:19:27Z</time>
      </trkpt>
      <trkpt lat="40.567450" lon="-5.061433">
        <ele>2223.0</ele>
        <time>2015-08-15T13:19:29Z</time>
      </trkpt>
      <trkpt lat="40.567533" lon="-5.061167">
        <ele>2220.0</ele>
        <time>2015-08-15T13:19:31Z</time>
      </trkpt>
      <trkpt lat="40.567633" lon="-5.060917">
        <ele>2215.0</ele>
        <time>2015-08-15T13:19:33Z</time>
      </trkpt>
      <trkpt lat="40.567767" lon="-5.060633">
        <ele>2209.0</ele>
        <time>2015-08-15T13:19:35Z</time>
      </trkpt>
      <trkpt lat="40.567900" lon="-5.060367">
        <ele>2207.0</ele>
        <time>2015-08-15T13:19:37Z</time>
      </trkpt>
      <trkpt lat="40.568000" lon="-5.060117">
        <ele>2205.0</ele>
        <time>2015-08-15T13:19:39Z</time>
      </trkpt>
      <trkpt lat="40.568100" lon="-5.059883">
        <ele>2203.0</ele>
        <time>2015-08-15T13:19:41Z</time>
      </trkpt>
      <trkpt lat="40.568200" lon="-5.059683">
        <ele>2198.0</ele>
        <time>2015-08-15T13:19:43Z</time>
      </trkpt>
      <trkpt lat="40.568300" lon="-5.059433">
        <ele>2193.0</ele>
        <time>2015-08-15T13:19:45Z</time>
      </trkpt>
      <trkpt lat="40.568400" lon="-5.059217">
        <ele>2191.0</ele>
        <time>2015-08-15T13:19:47Z</time>
      </trkpt>
      <trkpt lat="40.568500" lon="-5.059067">
        <ele>2187.0</ele>
        <time>2015-08-15T13:19:49Z</time>
      </trkpt>
      <trkpt lat="40.568617" lon="-5.058850">
        <ele>2178.0</ele>
        <time>2015-08-15T13:19:51Z</time>
      </trkpt>
      <trkpt lat="40.568717" lon="-5.058567">
        <ele>2171.0</ele>
        <time>2015-08-15T13:19:53Z</time>
      </trkpt>
      <trkpt lat="40.568767" lon="-5.058317">
        <ele>2170.0</ele>
        <time>2015-08-15T13:19:55Z</time>
      </trkpt>
      <trkpt lat="40.568833" lon="-5.058117">
        <ele>2163.0</ele>
        <time>2015-08-15T13:19:57Z</time>
      </trkpt>
      <trkpt lat="40.568950" lon="-5.057900">
        <ele>2155.0</ele>
        <time>2015-08-15T13:19:59Z</time>
      </trkpt>
      <trkpt lat="40.569083" lon="-5.057650">
        <ele>2154.0</ele>
        <time>2015-08-15T13:20:01Z</time>
      </trkpt>
      <trkpt lat="40.569217" lon="-5.057533">
        <ele>2158.0</ele>
        <time>2015-08-15T13:20:03Z</time>
      </trkpt>
      <trkpt lat="40.569317" lon="-5.057433">
        <ele>2161.0</ele>
        <time>2015-08-15T13:20:05Z</time>
      </trkpt>
      <trkpt lat="40.569350" lon="-5.057233">
        <ele>2159.0</ele>
        <time>2015-08-15T13:20:07Z</time>
      </trkpt>
      <trkpt lat="40.569300" lon="-5.056950">
        <ele>2158.0</ele>
        <time>2015-08-15T13:20:09Z</time>
      </trkpt>
      <trkpt lat="40.569300" lon="-5.056700">
        <ele>2162.0</ele>
        <time>2015-08-15T13:20:11Z</time>
      </trkpt>
      <trkpt lat="40.569300" lon="-5.056483">
        <ele>2163.0</ele>
        <time>2015-08-15T13:20:13Z</time>
      </trkpt>
      <trkpt lat="40.569300" lon="-5.056267">
        <ele>2163.0</ele>
        <time>2015-08-15T13:20:15Z</time>
      </trkpt>
      <trkpt lat="40.569300" lon="-5.056033">
        <ele>2164.0</ele>
        <time>2015-08-15T13:20:17Z</time>
      </trkpt>
      <trkpt lat="40.569233" lon="-5.055783">
        <ele>2163.0</ele>
        <time>2015-08-15T13:20:19Z</time>
      </trkpt>
      <trkpt lat="40.569117" lon="-5.055533">
        <ele>2164.0</ele>
        <time>2015-08-15T13:20:21Z</time>
      </trkpt>
      <trkpt lat="40.568967" lon="-5.055333">
        <ele>2165.0</ele>
        <time>2015-08-15T13:20:23Z</time>
      </trkpt>
      <trkpt lat="40.568767" lon="-5.055183">
        <ele>2166.0</ele>
        <time>2015-08-15T13:20:25Z</time>
      </trkpt>
      <trkpt lat="40.568550" lon="-5.055050">
        <ele>2167.0</ele>
        <time>2015-08-15T13:20:27Z</time>
      </trkpt>
      <trkpt lat="40.568367" lon="-5.054983">
        <ele>2169.0</ele>
        <time>2015-08-15T13:20:29Z</time>
      </trkpt>
      <trkpt lat="40.568200" lon="-5.054950">
        <ele>2166.0</ele>
        <time>2015-08-15T13:20:31Z</time>
      </trkpt>
      <trkpt lat="40.567967" lon="-5.054967">
        <ele>2162.0</ele>
        <time>2015-08-15T13:20:33Z</time>
      </trkpt>
      <trkpt lat="40.567750" lon="-5.054933">
        <ele>2162.0</ele>
        <time>2015-08-15T13:20:35Z</time>
      </trkpt>
      <trkpt lat="40.567583" lon="-5.054833">
        <ele>2159.0</ele>
        <time>2015-08-15T13:20:37Z</time>
      </trkpt>
      <trkpt lat="40.567450" lon="-5.054633">
        <ele>2151.0</ele>
        <time>2015-08-15T13:20:39Z</time>
      </trkpt>
      <trkpt lat="40.567300" lon="-5.054350">
        <ele>2145.0</ele>
        <time>2015-08-15T13:20:41Z</time>
      </trkpt>
      <trkpt lat="40.567100" lon="-5.054100">
        <ele>2147.0</ele>
        <time>2015-08-15T13:20:43Z</time>
      </trkpt>
      <trkpt lat="40.566950" lon="-5.053933">
        <ele>2151.0</ele>
        <time>2015-08-15T13:20:45Z</time>
      </trkpt>
      <trkpt lat="40.566817" lon="-5.053783">
        <ele>2149.0</ele>
        <time>2015-08-15T13:20:47Z</time>
      </trkpt>
      <trkpt lat="40.566617" lon="-5.053583">
        <ele>2148.0</ele>
        <time>2015-08-15T13:20:49Z</time>
      </trkpt>
      <trkpt lat="40.566433" lon="-5.053417">
        <ele>2147.0</ele>
        <time>2015-08-15T13:20:51Z</time>
      </trkpt>
      <trkpt lat="40.566250" lon="-5.053183">
        <ele>2145.0</ele>
        <time>2015-08-15T13:20:53Z</time>
      </trkpt>
      <trkpt lat="40.566117" lon="-5.052883">
        <ele>2141.0</ele>
        <time>2015-08-15T13:20:55Z</time>
      </trkpt>
      <trkpt lat="40.566033" lon="-5.052567">
        <ele>2136.0</ele>
        <time>2015-08-15T13:20:57Z</time>
      </trkpt>
      <trkpt lat="40.565950" lon="-5.052233">
        <ele>2135.0</ele>
        <time>2015-08-15T13:20:59Z</time>
      </trkpt>
      <trkpt lat="40.565817" lon="-5.051933">
        <ele>2134.0</ele>
        <time>2015-08-15T13:21:01Z</time>
      </trkpt>
      <trkpt lat="40.565667" lon="-5.051633">
        <ele>2133.0</ele>
        <time>2015-08-15T13:21:03Z</time>
      </trkpt>
      <trkpt lat="40.565517" lon="-5.051333">
        <ele>2129.0</ele>
        <time>2015-08-15T13:21:05Z</time>
      </trkpt>
      <trkpt lat="40.565383" lon="-5.051000">
        <ele>2122.0</ele>
        <time>2015-08-15T13:21:07Z</time>
      </trkpt>
      <trkpt lat="40.565250" lon="-5.050683">
        <ele>2117.0</ele>
        <time>2015-08-15T13:21:09Z</time>
      </trkpt>
      <trkpt lat="40.565150" lon="-5.050400">
        <ele>2113.0</ele>
        <time>2015-08-15T13:21:11Z</time>
      </trkpt>
      <trkpt lat="40.565050" lon="-5.050117">
        <ele>2108.0</ele>
        <time>2015-08-15T13:21:13Z</time>
      </trkpt>
      <trkpt lat="40.564933" lon="-5.049800">
        <ele>2104.0</ele>
        <time>2015-08-15T13:21:15Z</time>
      </trkpt>
      <trkpt lat="40.564833" lon="-5.049483">
        <ele>2101.0</ele>
        <time>2015-08-15T13:21:17Z</time>
      </trkpt>
      <trkpt lat="40.564750" lon="-5.049183">
        <ele>2101.0</ele>
        <time>2015-08-15T13:21:19Z</time>
      </trkpt>
      <trkpt lat="40.564667" lon="-5.048983">
        <ele>2102.0</ele>
        <time>2015-08-15T13:21:21Z</time>
      </trkpt>
      <trkpt lat="40.564550" lon="-5.048783">
        <ele>2097.0</ele>
        <time>2015-08-15T13:21:23Z</time>
      </trkpt>
      <trkpt lat="40.564383" lon="-5.048550">
        <ele>2093.0</ele>
        <time>2015-08-15T13:21:25Z</time>
      </trkpt>
      <trkpt lat="40.564233" lon="-5.048283">
        <ele>2094.0</ele>
        <time>2015-08-15T13:21:27Z</time>
      </trkpt>
      <trkpt lat="40.564100" lon="-5.048050">
        <ele>2097.0</ele>
        <time>2015-08-15T13:21:29Z</time>
      </trkpt>
      <trkpt lat="40.564000" lon="-5.047800">
        <ele>2098.0</ele>
        <time>2015-08-15T13:21:31Z</time>
      </trkpt>
      <trkpt lat="40.563917" lon="-5.047517">
        <ele>2097.0</ele>
        <time>2015-08-15T13:21:33Z</time>
      </trkpt>
      <trkpt lat="40.563817" lon="-5.047250">
        <ele>2097.0</ele>
        <time>2015-08-15T13:21:35Z</time>
      </trkpt>
      <trkpt lat="40.563750" lon="-5.047000">
        <ele>2097.0</ele>
        <time>2015-08-15T13:21:37Z</time>
      </trkpt>
      <trkpt lat="40.563667" lon="-5.046733">
        <ele>2094.0</ele>
        <time>2015-08-15T13:21:39Z</time>
      </trkpt>
      <trkpt lat="40.563600" lon="-5.046467">
        <ele>2092.0</ele>
        <time>2015-08-15T13:21:41Z</time>
      </trkpt>
      <trkpt lat="40.563550" lon="-5.046200">
        <ele>2090.0</ele>
        <time>2015-08-15T13:21:43Z</time>
      </trkpt>
      <trkpt lat="40.563483" lon="-5.045917">
        <ele>2086.0</ele>
        <time>2015-08-15T13:21:45Z</time>
      </trkpt>
      <trkpt lat="40.563417" lon="-5.045633">
        <ele>2083.0</ele>
        <time>2015-08-15T13:21:47Z</time>
      </trkpt>
      <trkpt lat="40.563350" lon="-5.045350">
        <ele>2080.0</ele>
        <time>2015-08-15T13:21:49Z</time>
      </trkpt>
      <trkpt lat="40.563283" lon="-5.045067">
        <ele>2079.0</ele>
        <time>2015-08-15T13:21:51Z</time>
      </trkpt>
      <trkpt lat="40.563217" lon="-5.044767">
        <ele>2080.0</ele>
        <time>2015-08-15T13:21:53Z</time>
      </trkpt>
      <trkpt lat="40.563183" lon="-5.044550">
        <ele>2082.0</ele>
        <time>2015-08-15T13:21:55Z</time>
      </trkpt>
      <trkpt lat="40.563183" lon="-5.044317">
        <ele>2081.0</ele>
        <time>2015-08-15T13:21:57Z</time>
      </trkpt>
      <trkpt lat="40.563200" lon="-5.044050">
        <ele>2083.0</ele>
        <time>2015-08-15T13:21:59Z</time>
      </trkpt>
      <trkpt lat="40.563250" lon="-5.043850">
        <ele>2085.0</ele>
        <time>2015-08-15T13:22:01Z</time>
      </trkpt>
      <trkpt lat="40.563333" lon="-5.043650">
        <ele>2080.0</ele>
        <time>2015-08-15T13:22:03Z</time>
      </trkpt>
      <trkpt lat="40.563450" lon="-5.043400">
        <ele>2076.0</ele>
        <time>2015-08-15T13:22:05Z</time>
      </trkpt>
      <trkpt lat="40.563500" lon="-5.043133">
        <ele>2075.0</ele>
        <time>2015-08-15T13:22:07Z</time>
      </trkpt>
      <trkpt lat="40.563533" lon="-5.042917">
        <ele>2072.0</ele>
        <time>2015-08-15T13:22:09Z</time>
      </trkpt>
      <trkpt lat="40.563567" lon="-5.042667">
        <ele>2065.0</ele>
        <time>2015-08-15T13:22:11Z</time>
      </trkpt>
      <trkpt lat="40.563633" lon="-5.042400">
        <ele>2060.0</ele>
        <time>2015-08-15T13:22:13Z</time>
      </trkpt>
      <trkpt lat="40.563700" lon="-5.042133">
        <ele>2056.0</ele>
        <time>2015-08-15T13:22:15Z</time>
      </trkpt>
      <trkpt lat="40.563733" lon="-5.041867">
        <ele>2051.0</ele>
        <time>2015-08-15T13:22:17Z</time>
      </trkpt>
      <trkpt lat="40.563783" lon="-5.041617">
        <ele>2049.0</ele>
        <time>2015-08-15T13:22:19Z</time>
      </trkpt>
      <trkpt lat="40.563833" lon="-5.041433">
        <ele>2047.0</ele>
        <time>2015-08-15T13:22:21Z</time>
      </trkpt>
      <trkpt lat="40.563883" lon="-5.041200">
        <ele>2040.0</ele>
        <time>2015-08-15T13:22:23Z</time>
      </trkpt>
      <trkpt lat="40.563967" lon="-5.040900">
        <ele>2036.0</ele>
        <time>2015-08-15T13:22:25Z</time>
      </trkpt>
      <trkpt lat="40.564050" lon="-5.040633">
        <ele>2040.0</ele>
        <time>2015-08-15T13:22:27Z</time>
      </trkpt>
      <trkpt lat="40.564117" lon="-5.040400">
        <ele>2041.0</ele>
        <time>2015-08-15T13:22:29Z</time>
      </trkpt>
      <trkpt lat="40.564167" lon="-5.040150">
        <ele>2041.0</ele>
        <time>2015-08-15T13:22:31Z</time>
      </trkpt>
      <trkpt lat="40.564150" lon="-5.039933">
        <ele>2042.0</ele>
        <time>2015-08-15T13:22:33Z</time>
      </trkpt>
      <trkpt lat="40.564067" lon="-5.039783">
        <ele>2040.0</ele>
        <time>2015-08-15T13:22:35Z</time>
      </trkpt>
      <trkpt lat="40.564000" lon="-5.039567">
        <ele>2039.0</ele>
        <time>2015-08-15T13:22:37Z</time>
      </trkpt>
      <trkpt lat="40.564017" lon="-5.039367">
        <ele>2042.0</ele>
        <time>2015-08-15T13:22:39Z</time>
      </trkpt>
      <trkpt lat="40.564067" lon="-5.039183">
        <ele>2042.0</ele>
        <time>2015-08-15T13:22:41Z</time>
      </trkpt>
      <trkpt lat="40.564167" lon="-5.038967">
        <ele>2038.0</ele>
        <time>2015-08-15T13:22:43Z</time>
      </trkpt>
      <trkpt lat="40.564300" lon="-5.038767">
        <ele>2036.0</ele>
        <time>2015-08-15T13:22:45Z</time>
      </trkpt>
      <trkpt lat="40.564417" lon="-5.038567">
        <ele>2036.0</ele>
        <time>2015-08-15T13:22:47Z</time>
      </trkpt>
      <trkpt lat="40.564550" lon="-5.038367">
        <ele>2033.0</ele>
        <time>2015-08-15T13:22:49Z</time>
      </trkpt>
      <trkpt lat="40.564683" lon="-5.038133">
        <ele>2033.0</ele>
        <time>2015-08-15T13:22:51Z</time>
      </trkpt>
      <trkpt lat="40.564817" lon="-5.037917">
        <ele>2036.0</ele>
        <time>2015-08-15T13:22:53Z</time>
      </trkpt>
      <trkpt lat="40.564950" lon="-5.037700">
        <ele>2037.0</ele>
        <time>2015-08-15T13:22:55Z</time>
      </trkpt>
      <trkpt lat="40.565067" lon="-5.037450">
        <ele>2037.0</ele>
        <time>2015-08-15T13:22:57Z</time>
      </trkpt>
      <trkpt lat="40.565150" lon="-5.037200">
        <ele>2039.0</ele>
        <time>2015-08-15T13:22:59Z</time>
      </trkpt>
      <trkpt lat="40.565233" lon="-5.036983">
        <ele>2040.0</ele>
        <time>2015-08-15T13:23:01Z</time>
      </trkpt>
      <trkpt lat="40.565283" lon="-5.036700">
        <ele>2043.0</ele>
        <time>2015-08-15T13:23:03Z</time>
      </trkpt>
      <trkpt lat="40.565283" lon="-5.036417">
        <ele>2051.0</ele>
        <time>2015-08-15T13:23:05Z</time>
      </trkpt>
      <trkpt lat="40.565283" lon="-5.036183">
        <ele>2054.0</ele>
        <time>2015-08-15T13:23:07Z</time>
      </trkpt>
      <trkpt lat="40.565283" lon="-5.035900">
        <ele>2057.0</ele>
        <time>2015-08-15T13:23:09Z</time>
      </trkpt>
      <trkpt lat="40.565217" lon="-5.035683">
        <ele>2063.0</ele>
        <time>2015-08-15T13:23:11Z</time>
      </trkpt>
      <trkpt lat="40.565067" lon="-5.035517">
        <ele>2065.0</ele>
        <time>2015-08-15T13:23:13Z</time>
      </trkpt>
      <trkpt lat="40.564900" lon="-5.035383">
        <ele>2065.0</ele>
        <time>2015-08-15T13:23:15Z</time>
      </trkpt>
      <trkpt lat="40.564700" lon="-5.035350">
        <ele>2066.0</ele>
        <time>2015-08-15T13:23:17Z</time>
      </trkpt>
      <trkpt lat="40.564500" lon="-5.035367">
        <ele>2066.0</ele>
        <time>2015-08-15T13:23:19Z</time>
      </trkpt>
      <trkpt lat="40.564300" lon="-5.035500">
        <ele>2065.0</ele>
        <time>2015-08-15T13:23:21Z</time>
      </trkpt>
      <trkpt lat="40.564183" lon="-5.035717">
        <ele>2067.0</ele>
        <time>2015-08-15T13:23:23Z</time>
      </trkpt>
      <trkpt lat="40.564167" lon="-5.035933">
        <ele>2069.0</ele>
        <time>2015-08-15T13:23:25Z</time>
      </trkpt>
      <trkpt lat="40.564183" lon="-5.036133">
        <ele>2071.0</ele>
        <time>2015-08-15T13:23:27Z</time>
      </trkpt>
      <trkpt lat="40.564267" lon="-5.036317">
        <ele>2073.0</ele>
        <time>2015-08-15T13:23:29Z</time>
      </trkpt>
      <trkpt lat="40.564400" lon="-5.036417">
        <ele>2076.0</ele>
        <time>2015-08-15T13:23:31Z</time>
      </trkpt>
      <trkpt lat="40.564550" lon="-5.036450">
        <ele>2080.0</ele>
        <time>2015-08-15T13:23:33Z</time>
      </trkpt>
      <trkpt lat="40.564700" lon="-5.036450">
        <ele>2084.0</ele>
        <time>2015-08-15T13:23:35Z</time>
      </trkpt>
      <trkpt lat="40.564833" lon="-5.036383">
        <ele>2089.0</ele>
        <time>2015-08-15T13:23:37Z</time>
      </trkpt>
      <trkpt lat="40.564933" lon="-5.036267">
        <ele>2092.0</ele>
        <time>2015-08-15T13:23:39Z</time>
      </trkpt>
      <trkpt lat="40.565000" lon="-5.036083">
        <ele>2095.0</ele>
        <time>2015-08-15T13:23:41Z</time>
      </trkpt>
      <trkpt lat="40.565033" lon="-5.035833">
        <ele>2097.0</ele>
        <time>2015-08-15T13:23:43Z</time>
      </trkpt>
      <trkpt lat="40.564950" lon="-5.035583">
        <ele>2100.0</ele>
        <time>2015-08-15T13:23:45Z</time>
      </trkpt>
      <trkpt lat="40.564817" lon="-5.035400">
        <ele>2104.0</ele>
        <time>2015-08-15T13:23:47Z</time>
      </trkpt>
      <trkpt lat="40.564633" lon="-5.035333">
        <ele>2102.0</ele>
        <time>2015-08-15T13:23:49Z</time>
      </trkpt>
      <trkpt lat="40.564417" lon="-5.035350">
        <ele>2100.0</ele>
        <time>2015-08-15T13:23:51Z</time>
      </trkpt>
      <trkpt lat="40.564233" lon="-5.035500">
        <ele>2098.0</ele>
        <time>2015-08-15T13:23:53Z</time>
      </trkpt>
      <trkpt lat="40.564100" lon="-5.035717">
        <ele>2099.0</ele>
        <time>2015-08-15T13:23:55Z</time>
      </trkpt>
      <trkpt lat="40.564033" lon="-5.035933">
        <ele>2100.0</ele>
        <time>2015-08-15T13:23:57Z</time>
      </trkpt>
      <trkpt lat="40.564067" lon="-5.036167">
        <ele>2101.0</ele>
        <time>2015-08-15T13:23:59Z</time>
      </trkpt>
      <trkpt lat="40.564150" lon="-5.036350">
        <ele>2105.0</ele>
        <time>2015-08-15T13:24:01Z</time>
      </trkpt>
      <trkpt lat="40.564267" lon="-5.036450">
        <ele>2108.0</ele>
        <time>2015-08-15T13:24:03Z</time>
      </trkpt>
      <trkpt lat="40.564433" lon="-5.036450">
        <ele>2110.0</ele>
        <time>2015-08-15T13:24:05Z</time>
      </trkpt>
      <trkpt lat="40.564600" lon="-5.036383">
        <ele>2112.0</ele>
        <time>2015-08-15T13:24:07Z</time>
      </trkpt>
      <trkpt lat="40.564717" lon="-5.036217">
        <ele>2114.0</ele>
        <time>2015-08-15T13:24:09Z</time>
      </trkpt>
      <trkpt lat="40.564783" lon="-5.036017">
        <ele>2116.0</ele>
        <time>2015-08-15T13:24:11Z</time>
      </trkpt>
      <trkpt lat="40.564833" lon="-5.035817">
        <ele>2117.0</ele>
        <time>2015-08-15T13:24:13Z</time>
      </trkpt>
      <trkpt lat="40.564850" lon="-5.035583">
        <ele>2118.0</ele>
        <time>2015-08-15T13:24:15Z</time>
      </trkpt>
      <trkpt lat="40.564767" lon="-5.035367">
        <ele>2121.0</ele>
        <time>2015-08-15T13:24:17Z</time>
      </trkpt>
      <trkpt lat="40.564650" lon="-5.035200">
        <ele>2124.0</ele>
        <time>2015-08-15T13:24:19Z</time>
      </trkpt>
      <trkpt lat="40.564500" lon="-5.035100">
        <ele>2123.0</ele>
        <time>2015-08-15T13:24:21Z</time>
      </trkpt>
      <trkpt lat="40.564300" lon="-5.035050">
        <ele>2122.0</ele>
        <time>2015-08-15T13:24:23Z</time>
      </trkpt>
      <trkpt lat="40.564117" lon="-5.035117">
        <ele>2121.0</ele>
        <time>2015-08-15T13:24:25Z</time>
      </trkpt>
      <trkpt lat="40.563950" lon="-5.035267">
        <ele>2119.0</ele>
        <time>2015-08-15T13:24:27Z</time>
      </trkpt>
      <trkpt lat="40.563850" lon="-5.035483">
        <ele>2117.0</ele>
        <time>2015-08-15T13:24:29Z</time>
      </trkpt>
      <trkpt lat="40.563783" lon="-5.035717">
        <ele>2114.0</ele>
        <time>2015-08-15T13:24:31Z</time>
      </trkpt>
      <trkpt lat="40.563800" lon="-5.035983">
        <ele>2114.0</ele>
        <time>2015-08-15T13:24:33Z</time>
      </trkpt>
      <trkpt lat="40.563883" lon="-5.036183">
        <ele>2119.0</ele>
        <time>2015-08-15T13:24:35Z</time>
      </trkpt>
      <trkpt lat="40.563967" lon="-5.036350">
        <ele>2122.0</ele>
        <time>2015-08-15T13:24:37Z</time>
      </trkpt>
      <trkpt lat="40.564050" lon="-5.036517">
        <ele>2120.0</ele>
        <time>2015-08-15T13:24:39Z</time>
      </trkpt>
      <trkpt lat="40.564183" lon="-5.036617">
        <ele>2121.0</ele>
        <time>2015-08-15T13:24:41Z</time>
      </trkpt>
      <trkpt lat="40.564333" lon="-5.036583">
        <ele>2121.0</ele>
        <time>2015-08-15T13:24:43Z</time>
      </trkpt>
      <trkpt lat="40.564483" lon="-5.036517">
        <ele>2119.0</ele>
        <time>2015-08-15T13:24:45Z</time>
      </trkpt>
      <trkpt lat="40.564633" lon="-5.036367">
        <ele>2115.0</ele>
        <time>2015-08-15T13:24:47Z</time>
      </trkpt>
      <trkpt lat="40.564750" lon="-5.036117">
        <ele>2112.0</ele>
        <time>2015-08-15T13:24:49Z</time>
      </trkpt>
      <trkpt lat="40.564800" lon="-5.035883">
        <ele>2111.0</ele>
        <time>2015-08-15T13:24:51Z</time>
      </trkpt>
      <trkpt lat="40.564800" lon="-5.035650">
        <ele>2107.0</ele>
        <time>2015-08-15T13:24:53Z</time>
      </trkpt>
      <trkpt lat="40.564717" lon="-5.035450">
        <ele>2105.0</ele>
        <time>2015-08-15T13:24:55Z</time>
      </trkpt>
      <trkpt lat="40.564600" lon="-5.035300">
        <ele>2105.0</ele>
        <time>2015-08-15T13:24:57Z</time>
      </trkpt>
      <trkpt lat="40.564450" lon="-5.035133">
        <ele>2104.0</ele>
        <time>2015-08-15T13:24:59Z</time>
      </trkpt>
      <trkpt lat="40.564267" lon="-5.035000">
        <ele>2105.0</ele>
        <time>2015-08-15T13:25:01Z</time>
      </trkpt>
      <trkpt lat="40.564100" lon="-5.034967">
        <ele>2108.0</ele>
        <time>2015-08-15T13:25:03Z</time>
      </trkpt>
      <trkpt lat="40.563950" lon="-5.034983">
        <ele>2109.0</ele>
        <time>2015-08-15T13:25:05Z</time>
      </trkpt>
      <trkpt lat="40.563817" lon="-5.035067">
        <ele>2106.0</ele>
        <time>2015-08-15T13:25:07Z</time>
      </trkpt>
      <trkpt lat="40.563667" lon="-5.035200">
        <ele>2106.0</ele>
        <time>2015-08-15T13:25:09Z</time>
      </trkpt>
      <trkpt lat="40.563567" lon="-5.035383">
        <ele>2107.0</ele>
        <time>2015-08-15T13:25:11Z</time>
      </trkpt>
      <trkpt lat="40.563567" lon="-5.035617">
        <ele>2108.0</ele>
        <time>2015-08-15T13:25:13Z</time>
      </trkpt>
      <trkpt lat="40.563617" lon="-5.035833">
        <ele>2110.0</ele>
        <time>2015-08-15T13:25:15Z</time>
      </trkpt>
      <trkpt lat="40.563700" lon="-5.036017">
        <ele>2111.0</ele>
        <time>2015-08-15T13:25:17Z</time>
      </trkpt>
      <trkpt lat="40.563817" lon="-5.036183">
        <ele>2111.0</ele>
        <time>2015-08-15T13:25:19Z</time>
      </trkpt>
      <trkpt lat="40.563967" lon="-5.036267">
        <ele>2111.0</ele>
        <time>2015-08-15T13:25:21Z</time>
      </trkpt>
      <trkpt lat="40.564150" lon="-5.036283">
        <ele>2111.0</ele>
        <time>2015-08-15T13:25:23Z</time>
      </trkpt>
      <trkpt lat="40.564317" lon="-5.036300">
        <ele>2110.0</ele>
        <time>2015-08-15T13:25:25Z</time>
      </trkpt>
      <trkpt lat="40.564500" lon="-5.036233">
        <ele>2109.0</ele>
        <time>2015-08-15T13:25:27Z</time>
      </trkpt>
      <trkpt lat="40.564650" lon="-5.036150">
        <ele>2106.0</ele>
        <time>2015-08-15T13:25:29Z</time>
      </trkpt>
      <trkpt lat="40.564800" lon="-5.035983">
        <ele>2100.0</ele>
        <time>2015-08-15T13:25:31Z</time>
      </trkpt>
      <trkpt lat="40.564917" lon="-5.035767">
        <ele>2094.0</ele>
        <time>2015-08-15T13:25:33Z</time>
      </trkpt>
      <trkpt lat="40.565000" lon="-5.035517">
        <ele>2090.0</ele>
        <time>2015-08-15T13:25:35Z</time>
      </trkpt>
      <trkpt lat="40.565067" lon="-5.035267">
        <ele>2083.0</ele>
        <time>2015-08-15T13:25:37Z</time>
      </trkpt>
      <trkpt lat="40.565117" lon="-5.034950">
        <ele>2080.0</ele>
        <time>2015-08-15T13:25:39Z</time>
      </trkpt>
      <trkpt lat="40.565200" lon="-5.034683">
        <ele>2084.0</ele>
        <time>2015-08-15T13:25:41Z</time>
      </trkpt>
      <trkpt lat="40.565250" lon="-5.034467">
        <ele>2083.0</ele>
        <time>2015-08-15T13:25:43Z</time>
      </trkpt>
      <trkpt lat="40.565250" lon="-5.034200">
        <ele>2080.0</ele>
        <time>2015-08-15T13:25:45Z</time>
      </trkpt>
      <trkpt lat="40.565217" lon="-5.033950">
        <ele>2078.0</ele>
        <time>2015-08-15T13:25:47Z</time>
      </trkpt>
      <trkpt lat="40.565133" lon="-5.033733">
        <ele>2076.0</ele>
        <time>2015-08-15T13:25:49Z</time>
      </trkpt>
      <trkpt lat="40.565033" lon="-5.033550">
        <ele>2075.0</ele>
        <time>2015-08-15T13:25:51Z</time>
      </trkpt>
      <trkpt lat="40.564883" lon="-5.033400">
        <ele>2074.0</ele>
        <time>2015-08-15T13:25:53Z</time>
      </trkpt>
      <trkpt lat="40.564717" lon="-5.033267">
        <ele>2076.0</ele>
        <time>2015-08-15T13:25:55Z</time>
      </trkpt>
      <trkpt lat="40.564567" lon="-5.033133">
        <ele>2082.0</ele>
        <time>2015-08-15T13:25:57Z</time>
      </trkpt>
      <trkpt lat="40.564450" lon="-5.033033">
        <ele>2087.0</ele>
        <time>2015-08-15T13:25:59Z</time>
      </trkpt>
      <trkpt lat="40.564317" lon="-5.032967">
        <ele>2091.0</ele>
        <time>2015-08-15T13:26:01Z</time>
      </trkpt>
      <trkpt lat="40.564200" lon="-5.033083">
        <ele>2092.0</ele>
        <time>2015-08-15T13:26:03Z</time>
      </trkpt>
      <trkpt lat="40.564200" lon="-5.033300">
        <ele>2098.0</ele>
        <time>2015-08-15T13:26:05Z</time>
      </trkpt>
      <trkpt lat="40.564217" lon="-5.033450">
        <ele>2106.0</ele>
        <time>2015-08-15T13:26:07Z</time>
      </trkpt>
      <trkpt lat="40.564217" lon="-5.033600">
        <ele>2108.0</ele>
        <time>2015-08-15T13:26:09Z</time>
      </trkpt>
      <trkpt lat="40.564267" lon="-5.033783">
        <ele>2107.0</ele>
        <time>2015-08-15T13:26:11Z</time>
      </trkpt>
      <trkpt lat="40.564433" lon="-5.033883">
        <ele>2106.0</ele>
        <time>2015-08-15T13:26:13Z</time>
      </trkpt>
      <trkpt lat="40.564617" lon="-5.033850">
        <ele>2104.0</ele>
        <time>2015-08-15T13:26:15Z</time>
      </trkpt>
      <trkpt lat="40.564800" lon="-5.033717">
        <ele>2103.0</ele>
        <time>2015-08-15T13:26:17Z</time>
      </trkpt>
      <trkpt lat="40.564917" lon="-5.033500">
        <ele>2100.0</ele>
        <time>2015-08-15T13:26:19Z</time>
      </trkpt>
      <trkpt lat="40.565017" lon="-5.033267">
        <ele>2097.0</ele>
        <time>2015-08-15T13:26:21Z</time>
      </trkpt>
      <trkpt lat="40.565117" lon="-5.032967">
        <ele>2094.0</ele>
        <time>2015-08-15T13:26:23Z</time>
      </trkpt>
      <trkpt lat="40.565217" lon="-5.032683">
        <ele>2098.0</ele>
        <time>2015-08-15T13:26:25Z</time>
      </trkpt>
      <trkpt lat="40.565300" lon="-5.032450">
        <ele>2099.0</ele>
        <time>2015-08-15T13:26:27Z</time>
      </trkpt>
      <trkpt lat="40.565333" lon="-5.032150">
        <ele>2099.0</ele>
        <time>2015-08-15T13:26:29Z</time>
      </trkpt>
      <trkpt lat="40.565350" lon="-5.031817">
        <ele>2103.0</ele>
        <time>2015-08-15T13:26:31Z</time>
      </trkpt>
      <trkpt lat="40.565333" lon="-5.031550">
        <ele>2109.0</ele>
        <time>2015-08-15T13:26:33Z</time>
      </trkpt>
      <trkpt lat="40.565300" lon="-5.031267">
        <ele>2113.0</ele>
        <time>2015-08-15T13:26:35Z</time>
      </trkpt>
      <trkpt lat="40.565267" lon="-5.031000">
        <ele>2118.0</ele>
        <time>2015-08-15T13:26:37Z</time>
      </trkpt>
      <trkpt lat="40.565183" lon="-5.030767">
        <ele>2123.0</ele>
        <time>2015-08-15T13:26:39Z</time>
      </trkpt>
      <trkpt lat="40.565017" lon="-5.030633">
        <ele>2125.0</ele>
        <time>2015-08-15T13:26:41Z</time>
      </trkpt>
      <trkpt lat="40.564833" lon="-5.030617">
        <ele>2130.0</ele>
        <time>2015-08-15T13:26:43Z</time>
      </trkpt>
      <trkpt lat="40.564700" lon="-5.030750">
        <ele>2135.0</ele>
        <time>2015-08-15T13:26:45Z</time>
      </trkpt>
      <trkpt lat="40.564650" lon="-5.030933">
        <ele>2140.0</ele>
        <time>2015-08-15T13:26:47Z</time>
      </trkpt>
      <trkpt lat="40.564667" lon="-5.031083">
        <ele>2145.0</ele>
        <time>2015-08-15T13:26:49Z</time>
      </trkpt>
      <trkpt lat="40.564767" lon="-5.031233">
        <ele>2147.0</ele>
        <time>2015-08-15T13:26:51Z</time>
      </trkpt>
      <trkpt lat="40.564933" lon="-5.031333">
        <ele>2149.0</ele>
        <time>2015-08-15T13:26:53Z</time>
      </trkpt>
      <trkpt lat="40.565117" lon="-5.031317">
        <ele>2152.0</ele>
        <time>2015-08-15T13:26:55Z</time>
      </trkpt>
      <trkpt lat="40.565300" lon="-5.031217">
        <ele>2155.0</ele>
        <time>2015-08-15T13:26:57Z</time>
      </trkpt>
      <trkpt lat="40.565467" lon="-5.031000">
        <ele>2159.0</ele>
        <time>2015-08-15T13:26:59Z</time>
      </trkpt>
      <trkpt lat="40.565567" lon="-5.030767">
        <ele>2166.0</ele>
        <time>2015-08-15T13:27:01Z</time>
      </trkpt>
      <trkpt lat="40.565617" lon="-5.030550">
        <ele>2171.0</ele>
        <time>2015-08-15T13:27:03Z</time>
      </trkpt>
      <trkpt lat="40.565633" lon="-5.030317">
        <ele>2172.0</ele>
        <time>2015-08-15T13:27:05Z</time>
      </trkpt>
      <trkpt lat="40.565533" lon="-5.030050">
        <ele>2176.0</ele>
        <time>2015-08-15T13:27:07Z</time>
      </trkpt>
      <trkpt lat="40.565400" lon="-5.029917">
        <ele>2184.0</ele>
        <time>2015-08-15T13:27:09Z</time>
      </trkpt>
      <trkpt lat="40.565283" lon="-5.029833">
        <ele>2190.0</ele>
        <time>2015-08-15T13:27:11Z</time>
      </trkpt>
      <trkpt lat="40.565133" lon="-5.029783">
        <ele>2193.0</ele>
        <time>2015-08-15T13:27:13Z</time>
      </trkpt>
      <trkpt lat="40.565033" lon="-5.029917">
        <ele>2199.0</ele>
        <time>2015-08-15T13:27:15Z</time>
      </trkpt>
      <trkpt lat="40.565050" lon="-5.030050">
        <ele>2205.0</ele>
        <time>2015-08-15T13:27:17Z</time>
      </trkpt>
      <trkpt lat="40.565100" lon="-5.030217">
        <ele>2207.0</ele>
        <time>2015-08-15T13:27:19Z</time>
      </trkpt>
      <trkpt lat="40.565183" lon="-5.030433">
        <ele>2211.0</ele>
        <time>2015-08-15T13:27:21Z</time>
      </trkpt>
      <trkpt lat="40.565350" lon="-5.030517">
        <ele>2214.0</ele>
        <time>2015-08-15T13:27:23Z</time>
      </trkpt>
      <trkpt lat="40.565567" lon="-5.030450">
        <ele>2219.0</ele>
        <time>2015-08-15T13:27:25Z</time>
      </trkpt>
      <trkpt lat="40.565717" lon="-5.030267">
        <ele>2224.0</ele>
        <time>2015-08-15T13:27:27Z</time>
      </trkpt>
      <trkpt lat="40.565817" lon="-5.030050">
        <ele>2227.0</ele>
        <time>2015-08-15T13:27:29Z</time>
      </trkpt>
      <trkpt lat="40.565850" lon="-5.029783">
        <ele>2229.0</ele>
        <time>2015-08-15T13:27:31Z</time>
      </trkpt>
      <trkpt lat="40.565800" lon="-5.029533">
        <ele>2233.0</ele>
        <time>2015-08-15T13:27:33Z</time>
      </trkpt>
      <trkpt lat="40.565667" lon="-5.029367">
        <ele>2238.0</ele>
        <time>2015-08-15T13:27:35Z</time>
      </trkpt>
      <trkpt lat="40.565517" lon="-5.029317">
        <ele>2243.0</ele>
        <time>2015-08-15T13:27:37Z</time>
      </trkpt>
      <trkpt lat="40.565367" lon="-5.029350">
        <ele>2247.0</ele>
        <time>2015-08-15T13:27:39Z</time>
      </trkpt>
      <trkpt lat="40.565283" lon="-5.029450">
        <ele>2251.0</ele>
        <time>2015-08-15T13:27:41Z</time>
      </trkpt>
      <trkpt lat="40.565233" lon="-5.029617">
        <ele>2257.0</ele>
        <time>2015-08-15T13:27:43Z</time>
      </trkpt>
      <trkpt lat="40.565283" lon="-5.029800">
        <ele>2260.0</ele>
        <time>2015-08-15T13:27:45Z</time>
      </trkpt>
      <trkpt lat="40.565433" lon="-5.029933">
        <ele>2263.0</ele>
        <time>2015-08-15T13:27:47Z</time>
      </trkpt>
      <trkpt lat="40.565617" lon="-5.029917">
        <ele>2266.0</ele>
        <time>2015-08-15T13:27:49Z</time>
      </trkpt>
      <trkpt lat="40.565783" lon="-5.029767">
        <ele>2269.0</ele>
        <time>2015-08-15T13:27:51Z</time>
      </trkpt>
      <trkpt lat="40.565900" lon="-5.029500">
        <ele>2271.0</ele>
        <time>2015-08-15T13:27:53Z</time>
      </trkpt>
      <trkpt lat="40.565933" lon="-5.029233">
        <ele>2275.0</ele>
        <time>2015-08-15T13:27:55Z</time>
      </trkpt>
      <trkpt lat="40.565900" lon="-5.028983">
        <ele>2279.0</ele>
        <time>2015-08-15T13:27:57Z</time>
      </trkpt>
      <trkpt lat="40.565800" lon="-5.028733">
        <ele>2281.0</ele>
        <time>2015-08-15T13:27:59Z</time>
      </trkpt>
      <trkpt lat="40.565633" lon="-5.028633">
        <ele>2287.0</ele>
        <time>2015-08-15T13:28:01Z</time>
      </trkpt>
      <trkpt lat="40.565533" lon="-5.028667">
        <ele>2290.0</ele>
        <time>2015-08-15T13:28:03Z</time>
      </trkpt>
      <trkpt lat="40.565417" lon="-5.028750">
        <ele>2290.0</ele>
        <time>2015-08-15T13:28:05Z</time>
      </trkpt>
      <trkpt lat="40.565367" lon="-5.028917">
        <ele>2295.0</ele>
        <time>2015-08-15T13:28:07Z</time>
      </trkpt>
      <trkpt lat="40.565417" lon="-5.029083">
        <ele>2298.0</ele>
        <time>2015-08-15T13:28:09Z</time>
      </trkpt>
      <trkpt lat="40.565550" lon="-5.029183">
        <ele>2301.0</ele>
        <time>2015-08-15T13:28:11Z</time>
      </trkpt>
      <trkpt lat="40.565733" lon="-5.029167">
        <ele>2303.0</ele>
        <time>2015-08-15T13:28:13Z</time>
      </trkpt>
      <trkpt lat="40.565917" lon="-5.029050">
        <ele>2307.0</ele>
        <time>2015-08-15T13:28:15Z</time>
      </trkpt>
      <trkpt lat="40.566050" lon="-5.028850">
        <ele>2311.0</ele>
        <time>2015-08-15T13:28:17Z</time>
      </trkpt>
      <trkpt lat="40.566100" lon="-5.028583">
        <ele>2313.0</ele>
        <time>2015-08-15T13:28:19Z</time>
      </trkpt>
      <trkpt lat="40.566067" lon="-5.028317">
        <ele>2317.0</ele>
        <time>2015-08-15T13:28:21Z</time>
      </trkpt>
      <trkpt lat="40.565950" lon="-5.028117">
        <ele>2320.0</ele>
        <time>2015-08-15T13:28:23Z</time>
      </trkpt>
      <trkpt lat="40.565783" lon="-5.028017">
        <ele>2324.0</ele>
        <time>2015-08-15T13:28:25Z</time>
      </trkpt>
      <trkpt lat="40.565650" lon="-5.028000">
        <ele>2328.0</ele>
        <time>2015-08-15T13:28:27Z</time>
      </trkpt>
      <trkpt lat="40.565500" lon="-5.028067">
        <ele>2329.0</ele>
        <time>2015-08-15T13:28:29Z</time>
      </trkpt>
      <trkpt lat="40.565383" lon="-5.028217">
        <ele>2332.0</ele>
        <time>2015-08-15T13:28:31Z</time>
      </trkpt>
      <trkpt lat="40.565383" lon="-5.028450">
        <ele>2336.0</ele>
        <time>2015-08-15T13:28:33Z</time>
      </trkpt>
      <trkpt lat="40.565500" lon="-5.028583">
        <ele>2341.0</ele>
        <time>2015-08-15T13:28:35Z</time>
      </trkpt>
      <trkpt lat="40.565650" lon="-5.028650">
        <ele>2343.0</ele>
        <time>2015-08-15T13:28:37Z</time>
      </trkpt>
      <trkpt lat="40.565850" lon="-5.028617">
        <ele>2343.0</ele>
        <time>2015-08-15T13:28:39Z</time>
      </trkpt>
      <trkpt lat="40.566033" lon="-5.028450">
        <ele>2345.0</ele>
        <time>2015-08-15T13:28:41Z</time>
      </trkpt>
      <trkpt lat="40.566133" lon="-5.028200">
        <ele>2347.0</ele>
        <time>2015-08-15T13:28:43Z</time>
      </trkpt>
      <trkpt lat="40.566167" lon="-5.027967">
        <ele>2350.0</ele>
        <time>2015-08-15T13:28:45Z</time>
      </trkpt>
      <trkpt lat="40.566100" lon="-5.027733">
        <ele>2350.0</ele>
        <time>2015-08-15T13:28:47Z</time>
      </trkpt>
      <trkpt lat="40.565950" lon="-5.027567">
        <ele>2351.0</ele>
        <time>2015-08-15T13:28:49Z</time>
      </trkpt>
      <trkpt lat="40.565767" lon="-5.027500">
        <ele>2354.0</ele>
        <time>2015-08-15T13:28:51Z</time>
      </trkpt>
      <trkpt lat="40.565617" lon="-5.027567">
        <ele>2357.0</ele>
        <time>2015-08-15T13:28:53Z</time>
      </trkpt>
      <trkpt lat="40.565533" lon="-5.027717">
        <ele>2359.0</ele>
        <time>2015-08-15T13:28:55Z</time>
      </trkpt>
      <trkpt lat="40.565517" lon="-5.027917">
        <ele>2360.0</ele>
        <time>2015-08-15T13:28:57Z</time>
      </trkpt>
      <trkpt lat="40.565617" lon="-5.028117">
        <ele>2360.0</ele>
        <time>2015-08-15T13:28:59Z</time>
      </trkpt>
      <trkpt lat="40.565783" lon="-5.028233">
        <ele>2362.0</ele>
        <time>2015-08-15T13:29:01Z</time>
      </trkpt>
      <trkpt lat="40.565950" lon="-5.028200">
        <ele>2364.0</ele>
        <time>2015-08-15T13:29:03Z</time>
      </trkpt>
      <trkpt lat="40.566117" lon="-5.028067">
        <ele>2363.0</ele>
        <time>2015-08-15T13:29:05Z</time>
      </trkpt>
      <trkpt lat="40.566267" lon="-5.027867">
        <ele>2364.0</ele>
        <time>2015-08-15T13:29:07Z</time>
      </trkpt>
      <trkpt lat="40.566317" lon="-5.027600">
        <ele>2365.0</ele>
        <time>2015-08-15T13:29:09Z</time>
      </trkpt>
      <trkpt lat="40.566300" lon="-5.027333">
        <ele>2366.0</ele>
        <time>2015-08-15T13:29:11Z</time>
      </trkpt>
      <trkpt lat="40.566233" lon="-5.027033">
        <ele>2367.0</ele>
        <time>2015-08-15T13:29:13Z</time>
      </trkpt>
      <trkpt lat="40.566083" lon="-5.026750">
        <ele>2370.0</ele>
        <time>2015-08-15T13:29:15Z</time>
      </trkpt>
      <trkpt lat="40.565900" lon="-5.026567">
        <ele>2373.0</ele>
        <time>2015-08-15T13:29:17Z</time>
      </trkpt>
      <trkpt lat="40.565683" lon="-5.026467">
        <ele>2376.0</ele>
        <time>2015-08-15T13:29:19Z</time>
      </trkpt>
      <trkpt lat="40.565500" lon="-5.026467">
        <ele>2381.0</ele>
        <time>2015-08-15T13:29:21Z</time>
      </trkpt>
      <trkpt lat="40.565333" lon="-5.026567">
        <ele>2384.0</ele>
        <time>2015-08-15T13:29:23Z</time>
      </trkpt>
      <trkpt lat="40.565233" lon="-5.026717">
        <ele>2389.0</ele>
        <time>2015-08-15T13:29:25Z</time>
      </trkpt>
      <trkpt lat="40.565217" lon="-5.026883">
        <ele>2393.0</ele>
        <time>2015-08-15T13:29:27Z</time>
      </trkpt>
      <trkpt lat="40.565300" lon="-5.027017">
        <ele>2397.0</ele>
        <time>2015-08-15T13:29:29Z</time>
      </trkpt>
      <trkpt lat="40.565417" lon="-5.027000">
        <ele>2401.0</ele>
        <time>2015-08-15T13:29:31Z</time>
      </trkpt>
      <trkpt lat="40.565567" lon="-5.026917">
        <ele>2404.0</ele>
        <time>2015-08-15T13:29:33Z</time>
      </trkpt>
      <trkpt lat="40.565667" lon="-5.026733">
        <ele>2407.0</ele>
        <time>2015-08-15T13:29:35Z</time>
      </trkpt>
      <trkpt lat="40.565700" lon="-5.026450">
        <ele>2408.0</ele>
        <time>2015-08-15T13:29:37Z</time>
      </trkpt>
      <trkpt lat="40.565667" lon="-5.026117">
        <ele>2414.0</ele>
        <time>2015-08-15T13:29:39Z</time>
      </trkpt>
      <trkpt lat="40.565583" lon="-5.025867">
        <ele>2421.0</ele>
        <time>2015-08-15T13:29:41Z</time>
      </trkpt>
      <trkpt lat="40.565433" lon="-5.025667">
        <ele>2424.0</ele>
        <time>2015-08-15T13:29:43Z</time>
      </trkpt>
      <trkpt lat="40.565217" lon="-5.025533">
        <ele>2429.0</ele>
        <time>2015-08-15T13:29:45Z</time>
      </trkpt>
      <trkpt lat="40.565017" lon="-5.025567">
        <ele>2435.0</ele>
        <time>2015-08-15T13:29:47Z</time>
      </trkpt>
      <trkpt lat="40.564900" lon="-5.025717">
        <ele>2439.0</ele>
        <time>2015-08-15T13:29:49Z</time>
      </trkpt>
      <trkpt lat="40.564883" lon="-5.025883">
        <ele>2446.0</ele>
        <time>2015-08-15T13:29:51Z</time>
      </trkpt>
      <trkpt lat="40.564950" lon="-5.025983">
        <ele>2453.0</ele>
        <time>2015-08-15T13:29:53Z</time>
      </trkpt>
      <trkpt lat="40.565083" lon="-5.026017">
        <ele>2456.0</ele>
        <time>2015-08-15T13:29:55Z</time>
      </trkpt>
      <trkpt lat="40.565233" lon="-5.025983">
        <ele>2460.0</ele>
        <time>2015-08-15T13:29:57Z</time>
      </trkpt>
      <trkpt lat="40.565333" lon="-5.025850">
        <ele>2465.0</ele>
        <time>2015-08-15T13:29:59Z</time>
      </trkpt>
      <trkpt lat="40.565433" lon="-5.025633">
        <ele>2468.0</ele>
        <time>2015-08-15T13:30:01Z</time>
      </trkpt>
      <trkpt lat="40.565467" lon="-5.025317">
        <ele>2471.0</ele>
        <time>2015-08-15T13:30:03Z</time>
      </trkpt>
      <trkpt lat="40.565383" lon="-5.025000">
        <ele>2478.0</ele>
        <time>2015-08-15T13:30:05Z</time>
      </trkpt>
      <trkpt lat="40.565250" lon="-5.024767">
        <ele>2482.0</ele>
        <time>2015-08-15T13:30:07Z</time>
      </trkpt>
      <trkpt lat="40.565050" lon="-5.024583">
        <ele>2483.0</ele>
        <time>2015-08-15T13:30:09Z</time>
      </trkpt>
      <trkpt lat="40.564817" lon="-5.024500">
        <ele>2489.0</ele>
        <time>2015-08-15T13:30:11Z</time>
      </trkpt>
      <trkpt lat="40.564633" lon="-5.024567">
        <ele>2496.0</ele>
        <time>2015-08-15T13:30:13Z</time>
      </trkpt>
      <trkpt lat="40.564517" lon="-5.024717">
        <ele>2503.0</ele>
        <time>2015-08-15T13:30:15Z</time>
      </trkpt>
      <trkpt lat="40.564517" lon="-5.024900">
        <ele>2509.0</ele>
        <time>2015-08-15T13:30:17Z</time>
      </trkpt>
      <trkpt lat="40.564600" lon="-5.024983">
        <ele>2515.0</ele>
        <time>2015-08-15T13:30:19Z</time>
      </trkpt>
      <trkpt lat="40.564733" lon="-5.024950">
        <ele>2520.0</ele>
        <time>2015-08-15T13:30:21Z</time>
      </trkpt>
      <trkpt lat="40.564867" lon="-5.024867">
        <ele>2524.0</ele>
        <time>2015-08-15T13:30:23Z</time>
      </trkpt>
      <trkpt lat="40.565017" lon="-5.024667">
        <ele>2529.0</ele>
        <time>2015-08-15T13:30:25Z</time>
      </trkpt>
      <trkpt lat="40.565083" lon="-5.024400">
        <ele>2535.0</ele>
        <time>2015-08-15T13:30:27Z</time>
      </trkpt>
      <trkpt lat="40.565083" lon="-5.024100">
        <ele>2540.0</ele>
        <time>2015-08-15T13:30:29Z</time>
      </trkpt>
      <trkpt lat="40.564983" lon="-5.023800">
        <ele>2540.0</ele>
        <time>2015-08-15T13:30:31Z</time>
      </trkpt>
      <trkpt lat="40.564783" lon="-5.023600">
        <ele>2543.0</ele>
        <time>2015-08-15T13:30:33Z</time>
      </trkpt>
      <trkpt lat="40.564567" lon="-5.023567">
        <ele>2547.0</ele>
        <time>2015-08-15T13:30:35Z</time>
      </trkpt>
      <trkpt lat="40.564383" lon="-5.023650">
        <ele>2549.0</ele>
        <time>2015-08-15T13:30:37Z</time>
      </trkpt>
      <trkpt lat="40.564267" lon="-5.023817">
        <ele>2552.0</ele>
        <time>2015-08-15T13:30:39Z</time>
      </trkpt>
      <trkpt lat="40.564267" lon="-5.024000">
        <ele>2556.0</ele>
        <time>2015-08-15T13:30:41Z</time>
      </trkpt>
      <trkpt lat="40.564333" lon="-5.024150">
        <ele>2561.0</ele>
        <time>2015-08-15T13:30:43Z</time>
      </trkpt>
      <trkpt lat="40.564467" lon="-5.024200">
        <ele>2566.0</ele>
        <time>2015-08-15T13:30:45Z</time>
      </trkpt>
      <trkpt lat="40.564600" lon="-5.024133">
        <ele>2571.0</ele>
        <time>2015-08-15T13:30:47Z</time>
      </trkpt>
      <trkpt lat="40.564733" lon="-5.023950">
        <ele>2576.0</ele>
        <time>2015-08-15T13:30:49Z</time>
      </trkpt>
      <trkpt lat="40.564783" lon="-5.023683">
        <ele>2581.0</ele>
        <time>2015-08-15T13:30:51Z</time>
      </trkpt>
      <trkpt lat="40.564717" lon="-5.023367">
        <ele>2584.0</ele>
        <time>2015-08-15T13:30:53Z</time>
      </trkpt>
      <trkpt lat="40.564567" lon="-5.023100">
        <ele>2589.0</ele>
        <time>2015-08-15T13:30:55Z</time>
      </trkpt>
      <trkpt lat="40.564383" lon="-5.022983">
        <ele>2594.0</ele>
        <time>2015-08-15T13:30:57Z</time>
      </trkpt>
      <trkpt lat="40.564183" lon="-5.023000">
        <ele>2595.0</ele>
        <time>2015-08-15T13:30:59Z</time>
      </trkpt>
      <trkpt lat="40.564033" lon="-5.023117">
        <ele>2596.0</ele>
        <time>2015-08-15T13:31:01Z</time>
      </trkpt>
      <trkpt lat="40.563950" lon="-5.023300">
        <ele>2599.0</ele>
        <time>2015-08-15T13:31:03Z</time>
      </trkpt>
      <trkpt lat="40.563950" lon="-5.023467">
        <ele>2604.0</ele>
        <time>2015-08-15T13:31:05Z</time>
      </trkpt>
      <trkpt lat="40.564033" lon="-5.023583">
        <ele>2609.0</ele>
        <time>2015-08-15T13:31:07Z</time>
      </trkpt>
      <trkpt lat="40.564183" lon="-5.023600">
        <ele>2614.0</ele>
        <time>2015-08-15T13:31:09Z</time>
      </trkpt>
      <trkpt lat="40.564317" lon="-5.023500">
        <ele>2620.0</ele>
        <time>2015-08-15T13:31:11Z</time>
      </trkpt>
      <trkpt lat="40.564450" lon="-5.023317">
        <ele>2626.0</ele>
        <time>2015-08-15T13:31:13Z</time>
      </trkpt>
      <trkpt lat="40.564517" lon="-5.023050">
        <ele>2630.0</ele>
        <time>2015-08-15T13:31:15Z</time>
      </trkpt>
      <trkpt lat="40.564500" lon="-5.022733">
        <ele>2633.0</ele>
        <time>2015-08-15T13:31:17Z</time>
      </trkpt>
      <trkpt lat="40.564383" lon="-5.022450">
        <ele>2637.0</ele>
        <time>2015-08-15T13:31:19Z</time>
      </trkpt>
      <trkpt lat="40.564217" lon="-5.022283">
        <ele>2641.0</ele>
        <time>2015-08-15T13:31:21Z</time>
      </trkpt>
      <trkpt lat="40.564033" lon="-5.022217">
        <ele>2642.0</ele>
        <time>2015-08-15T13:31:23Z</time>
      </trkpt>
      <trkpt lat="40.563850" lon="-5.022283">
        <ele>2640.0</ele>
        <time>2015-08-15T13:31:25Z</time>
      </trkpt>
      <trkpt lat="40.563750" lon="-5.022433">
        <ele>2642.0</ele>
        <time>2015-08-15T13:31:27Z</time>
      </trkpt>
      <trkpt lat="40.563700" lon="-5.022600">
        <ele>2646.0</ele>
        <time>2015-08-15T13:31:29Z</time>
      </trkpt>
      <trkpt lat="40.563750" lon="-5.022767">
        <ele>2648.0</ele>
        <time>2015-08-15T13:31:31Z</time>
      </trkpt>
      <trkpt lat="40.563883" lon="-5.022867">
        <ele>2651.0</ele>
        <time>2015-08-15T13:31:33Z</time>
      </trkpt>
      <trkpt lat="40.564017" lon="-5.022833">
        <ele>2658.0</ele>
        <time>2015-08-15T13:31:35Z</time>
      </trkpt>
      <trkpt lat="40.564133" lon="-5.022717">
        <ele>2663.0</ele>
        <time>2015-08-15T13:31:37Z</time>
      </trkpt>
      <trkpt lat="40.564217" lon="-5.022467">
        <ele>2667.0</ele>
        <time>2015-08-15T13:31:39Z</time>
      </trkpt>
      <trkpt lat="40.564250" lon="-5.022183">
        <ele>2673.0</ele>
        <time>2015-08-15T13:31:41Z</time>
      </trkpt>
      <trkpt lat="40.564183" lon="-5.021917">
        <ele>2677.0</ele>
        <time>2015-08-15T13:31:43Z</time>
      </trkpt>
      <trkpt lat="40.564050" lon="-5.021650">
        <ele>2680.0</ele>
        <time>2015-08-15T13:31:45Z</time>
      </trkpt>
      <trkpt lat="40.563867" lon="-5.021533">
        <ele>2684.0</ele>
        <time>2015-08-15T13:31:47Z</time>
      </trkpt>
      <trkpt lat="40.563683" lon="-5.021533">
        <ele>2684.0</ele>
        <time>2015-08-15T13:31:49Z</time>
      </trkpt>
      <trkpt lat="40.563533" lon="-5.021617">
        <ele>2683.0</ele>
        <time>2015-08-15T13:31:51Z</time>
      </trkpt>
      <trkpt lat="40.563450" lon="-5.021833">
        <ele>2683.0</ele>
        <time>2015-08-15T13:31:53Z</time>
      </trkpt>
      <trkpt lat="40.563450" lon="-5.022033">
        <ele>2688.0</ele>
        <time>2015-08-15T13:31:55Z</time>
      </trkpt>
      <trkpt lat="40.563517" lon="-5.022150">
        <ele>2691.0</ele>
        <time>2015-08-15T13:31:57Z</time>
      </trkpt>
      <trkpt lat="40.563650" lon="-5.022183">
        <ele>2694.0</ele>
        <time>2015-08-15T13:31:59Z</time>
      </trkpt>
      <trkpt lat="40.563833" lon="-5.022117">
        <ele>2699.0</ele>
        <time>2015-08-15T13:32:01Z</time>
      </trkpt>
      <trkpt lat="40.563950" lon="-5.021933">
        <ele>2704.0</ele>
        <time>2015-08-15T13:32:03Z</time>
      </trkpt>
      <trkpt lat="40.564033" lon="-5.021683">
        <ele>2705.0</ele>
        <time>2015-08-15T13:32:05Z</time>
      </trkpt>
      <trkpt lat="40.564067" lon="-5.021350">
        <ele>2708.0</ele>
        <time>2015-08-15T13:32:07Z</time>
      </trkpt>
      <trkpt lat="40.563983" lon="-5.021050">
        <ele>2715.0</ele>
        <time>2015-08-15T13:32:09Z</time>
      </trkpt>
      <trkpt lat="40.563867" lon="-5.020867">
        <ele>2720.0</ele>
        <time>2015-08-15T13:32:11Z</time>
      </trkpt>
      <trkpt lat="40.563733" lon="-5.020733">
        <ele>2721.0</ele>
        <time>2015-08-15T13:32:13Z</time>
      </trkpt>
      <trkpt lat="40.563533" lon="-5.020683">
        <ele>2720.0</ele>
        <time>2015-08-15T13:32:15Z</time>
      </trkpt>
      <trkpt lat="40.563350" lon="-5.020733">
        <ele>2723.0</ele>
        <time>2015-08-15T13:32:17Z</time>
      </trkpt>
      <trkpt lat="40.563250" lon="-5.020850">
        <ele>2724.0</ele>
        <time>2015-08-15T13:32:19Z</time>
      </trkpt>
      <trkpt lat="40.563200" lon="-5.021033">
        <ele>2727.0</ele>
        <time>2015-08-15T13:32:21Z</time>
      </trkpt>
      <trkpt lat="40.563233" lon="-5.021217">
        <ele>2732.0</ele>
        <time>2015-08-15T13:32:23Z</time>
      </trkpt>
      <trkpt lat="40.563333" lon="-5.021283">
        <ele>2735.0</ele>
        <time>2015-08-15T13:32:25Z</time>
      </trkpt>
      <trkpt lat="40.563483" lon="-5.021250">
        <ele>2737.0</ele>
        <time>2015-08-15T13:32:27Z</time>
      </trkpt>
      <trkpt lat="40.563633" lon="-5.021117">
        <ele>2738.0</ele>
        <time>2015-08-15T13:32:29Z</time>
      </trkpt>
      <trkpt lat="40.563767" lon="-5.020883">
        <ele>2740.0</ele>
        <time>2015-08-15T13:32:31Z</time>
      </trkpt>
      <trkpt lat="40.563833" lon="-5.020600">
        <ele>2744.0</ele>
        <time>2015-08-15T13:32:33Z</time>
      </trkpt>
      <trkpt lat="40.563833" lon="-5.020317">
        <ele>2747.0</ele>
        <time>2015-08-15T13:32:35Z</time>
      </trkpt>
      <trkpt lat="40.563750" lon="-5.020033">
        <ele>2748.0</ele>
        <time>2015-08-15T13:32:37Z</time>
      </trkpt>
      <trkpt lat="40.563600" lon="-5.019817">
        <ele>2750.0</ele>
        <time>2015-08-15T13:32:39Z</time>
      </trkpt>
      <trkpt lat="40.563433" lon="-5.019700">
        <ele>2751.0</ele>
        <time>2015-08-15T13:32:41Z</time>
      </trkpt>
      <trkpt lat="40.563250" lon="-5.019683">
        <ele>2750.0</ele>
        <time>2015-08-15T13:32:43Z</time>
      </trkpt>
      <trkpt lat="40.563083" lon="-5.019800">
        <ele>2748.0</ele>
        <time>2015-08-15T13:32:45Z</time>
      </trkpt>
      <trkpt lat="40.563017" lon="-5.020000">
        <ele>2749.0</ele>
        <time>2015-08-15T13:32:47Z</time>
      </trkpt>
      <trkpt lat="40.563017" lon="-5.020167">
        <ele>2753.0</ele>
        <time>2015-08-15T13:32:49Z</time>
      </trkpt>
      <trkpt lat="40.563083" lon="-5.020250">
        <ele>2755.0</ele>
        <time>2015-08-15T13:32:51Z</time>
      </trkpt>
      <trkpt lat="40.563200" lon="-5.020317">
        <ele>2754.0</ele>
        <time>2015-08-15T13:32:53Z</time>
      </trkpt>
      <trkpt lat="40.563350" lon="-5.020333">
        <ele>2757.0</ele>
        <time>2015-08-15T13:32:55Z</time>
      </trkpt>
      <trkpt lat="40.563467" lon="-5.020333">
        <ele>2760.0</ele>
        <time>2015-08-15T13:32:57Z</time>
      </trkpt>
      <trkpt lat="40.563583" lon="-5.020333">
        <ele>2764.0</ele>
        <time>2015-08-15T13:32:59Z</time>
      </trkpt>
      <trkpt lat="40.564067" lon="-5.020283">
        <ele>2767.0</ele>
        <time>2015-08-15T13:33:06Z</time>
      </trkpt>
      <trkpt lat="40.564167" lon="-5.020317">
        <ele>2747.0</ele>
        <time>2015-08-15T13:33:08Z</time>
      </trkpt>
      <trkpt lat="40.564333" lon="-5.020250">
        <ele>2755.0</ele>
        <time>2015-08-15T13:33:10Z</time>
      </trkpt>
      <trkpt lat="40.564500" lon="-5.020117">
        <ele>2753.0</ele>
        <time>2015-08-15T13:33:12Z</time>
      </trkpt>
      <trkpt lat="40.564683" lon="-5.019967">
        <ele>2748.0</ele>
        <time>2015-08-15T13:33:14Z</time>
      </trkpt>
      <trkpt lat="40.564867" lon="-5.019767">
        <ele>2746.0</ele>
        <time>2015-08-15T13:33:16Z</time>
      </trkpt>
      <trkpt lat="40.565017" lon="-5.019533">
        <ele>2745.0</ele>
        <time>2015-08-15T13:33:18Z</time>
      </trkpt>
      <trkpt lat="40.565183" lon="-5.019317">
        <ele>2744.0</ele>
        <time>2015-08-15T13:33:20Z</time>
      </trkpt>
      <trkpt lat="40.565333" lon="-5.019050">
        <ele>2744.0</ele>
        <time>2015-08-15T13:33:22Z</time>
      </trkpt>
      <trkpt lat="40.565483" lon="-5.018817">
        <ele>2742.0</ele>
        <time>2015-08-15T13:33:24Z</time>
      </trkpt>
      <trkpt lat="40.565650" lon="-5.018550">
        <ele>2739.0</ele>
        <time>2015-08-15T13:33:26Z</time>
      </trkpt>
      <trkpt lat="40.565817" lon="-5.018300">
        <ele>2738.0</ele>
        <time>2015-08-15T13:33:28Z</time>
      </trkpt>
      <trkpt lat="40.565967" lon="-5.018050">
        <ele>2738.0</ele>
        <time>2015-08-15T13:33:30Z</time>
      </trkpt>
      <trkpt lat="40.566117" lon="-5.017800">
        <ele>2738.0</ele>
        <time>2015-08-15T13:33:32Z</time>
      </trkpt>
      <trkpt lat="40.566267" lon="-5.017550">
        <ele>2739.0</ele>
        <time>2015-08-15T13:33:34Z</time>
      </trkpt>
      <trkpt lat="40.566400" lon="-5.017350">
        <ele>2737.0</ele>
        <time>2015-08-15T13:33:36Z</time>
      </trkpt>
      <trkpt lat="40.566567" lon="-5.017117">
        <ele>2731.0</ele>
        <time>2015-08-15T13:33:38Z</time>
      </trkpt>
      <trkpt lat="40.566767" lon="-5.016900">
        <ele>2728.0</ele>
        <time>2015-08-15T13:33:40Z</time>
      </trkpt>
      <trkpt lat="40.566933" lon="-5.016683">
        <ele>2729.0</ele>
        <time>2015-08-15T13:33:42Z</time>
      </trkpt>
      <trkpt lat="40.567067" lon="-5.016450">
        <ele>2727.0</ele>
        <time>2015-08-15T13:33:44Z</time>
      </trkpt>
      <trkpt lat="40.567250" lon="-5.016233">
        <ele>2722.0</ele>
        <time>2015-08-15T13:33:46Z</time>
      </trkpt>
      <trkpt lat="40.567433" lon="-5.016017">
        <ele>2721.0</ele>
        <time>2015-08-15T13:33:48Z</time>
      </trkpt>
      <trkpt lat="40.567583" lon="-5.015833">
        <ele>2720.0</ele>
        <time>2015-08-15T13:33:50Z</time>
      </trkpt>
      <trkpt lat="40.567767" lon="-5.015650">
        <ele>2712.0</ele>
        <time>2015-08-15T13:33:52Z</time>
      </trkpt>
      <trkpt lat="40.567967" lon="-5.015417">
        <ele>2704.0</ele>
        <time>2015-08-15T13:33:54Z</time>
      </trkpt>
      <trkpt lat="40.568150" lon="-5.015200">
        <ele>2701.0</ele>
        <time>2015-08-15T13:33:56Z</time>
      </trkpt>
      <trkpt lat="40.568300" lon="-5.014983">
        <ele>2697.0</ele>
        <time>2015-08-15T13:33:58Z</time>
      </trkpt>
      <trkpt lat="40.568450" lon="-5.014733">
        <ele>2693.0</ele>
        <time>2015-08-15T13:34:00Z</time>
      </trkpt>
      <trkpt lat="40.568600" lon="-5.014483">
        <ele>2690.0</ele>
        <time>2015-08-15T13:34:02Z</time>
      </trkpt>
      <trkpt lat="40.568733" lon="-5.014267">
        <ele>2687.0</ele>
        <time>2015-08-15T13:34:04Z</time>
      </trkpt>
      <trkpt lat="40.568867" lon="-5.014050">
        <ele>2684.0</ele>
        <time>2015-08-15T13:34:06Z</time>
      </trkpt>
      <trkpt lat="40.569017" lon="-5.013850">
        <ele>2680.0</ele>
        <time>2015-08-15T13:34:08Z</time>
      </trkpt>
      <trkpt lat="40.569167" lon="-5.013633">
        <ele>2676.0</ele>
        <time>2015-08-15T13:34:10Z</time>
      </trkpt>
      <trkpt lat="40.569333" lon="-5.013417">
        <ele>2675.0</ele>
        <time>2015-08-15T13:34:12Z</time>
      </trkpt>
      <trkpt lat="40.569500" lon="-5.013217">
        <ele>2675.0</ele>
        <time>2015-08-15T13:34:14Z</time>
      </trkpt>
      <trkpt lat="40.569633" lon="-5.013017">
        <ele>2675.0</ele>
        <time>2015-08-15T13:34:16Z</time>
      </trkpt>
      <trkpt lat="40.569783" lon="-5.012800">
        <ele>2672.0</ele>
        <time>2015-08-15T13:34:18Z</time>
      </trkpt>
      <trkpt lat="40.569950" lon="-5.012567">
        <ele>2670.0</ele>
        <time>2015-08-15T13:34:20Z</time>
      </trkpt>
      <trkpt lat="40.570117" lon="-5.012367">
        <ele>2670.0</ele>
        <time>2015-08-15T13:34:22Z</time>
      </trkpt>
      <trkpt lat="40.570283" lon="-5.012167">
        <ele>2672.0</ele>
        <time>2015-08-15T13:34:24Z</time>
      </trkpt>
      <trkpt lat="40.570450" lon="-5.011933">
        <ele>2675.0</ele>
        <time>2015-08-15T13:34:26Z</time>
      </trkpt>
      <trkpt lat="40.570583" lon="-5.011733">
        <ele>2677.0</ele>
        <time>2015-08-15T13:34:28Z</time>
      </trkpt>
      <trkpt lat="40.570750" lon="-5.011517">
        <ele>2677.0</ele>
        <time>2015-08-15T13:34:30Z</time>
      </trkpt>
      <trkpt lat="40.570917" lon="-5.011250">
        <ele>2681.0</ele>
        <time>2015-08-15T13:34:32Z</time>
      </trkpt>
      <trkpt lat="40.571033" lon="-5.011017">
        <ele>2688.0</ele>
        <time>2015-08-15T13:34:34Z</time>
      </trkpt>
      <trkpt lat="40.571117" lon="-5.010800">
        <ele>2689.0</ele>
        <time>2015-08-15T13:34:36Z</time>
      </trkpt>
      <trkpt lat="40.571217" lon="-5.010550">
        <ele>2690.0</ele>
        <time>2015-08-15T13:34:38Z</time>
      </trkpt>
      <trkpt lat="40.571267" lon="-5.010217">
        <ele>2690.0</ele>
        <time>2015-08-15T13:34:40Z</time>
      </trkpt>
      <trkpt lat="40.571333" lon="-5.009867">
        <ele>2690.0</ele>
        <time>2015-08-15T13:34:42Z</time>
      </trkpt>
      <trkpt lat="40.571433" lon="-5.009550">
        <ele>2691.0</ele>
        <time>2015-08-15T13:34:44Z</time>
      </trkpt>
      <trkpt lat="40.571550" lon="-5.009283">
        <ele>2691.0</ele>
        <time>2015-08-15T13:34:46Z</time>
      </trkpt>
      <trkpt lat="40.571683" lon="-5.009050">
        <ele>2689.0</ele>
        <time>2015-08-15T13:34:48Z</time>
      </trkpt>
      <trkpt lat="40.571850" lon="-5.008783">
        <ele>2689.0</ele>
        <time>2015-08-15T13:34:50Z</time>
      </trkpt>
      <trkpt lat="40.571983" lon="-5.008533">
        <ele>2693.0</ele>
        <time>2015-08-15T13:34:52Z</time>
      </trkpt>
      <trkpt lat="40.572117" lon="-5.008317">
        <ele>2694.0</ele>
        <time>2015-08-15T13:34:54Z</time>
      </trkpt>
      <trkpt lat="40.572250" lon="-5.008033">
        <ele>2692.0</ele>
        <time>2015-08-15T13:34:56Z</time>
      </trkpt>
      <trkpt lat="40.572367" lon="-5.007750">
        <ele>2692.0</ele>
        <time>2015-08-15T13:34:58Z</time>
      </trkpt>
      <trkpt lat="40.572483" lon="-5.007483">
        <ele>2692.0</ele>
        <time>2015-08-15T13:35:00Z</time>
      </trkpt>
      <trkpt lat="40.572617" lon="-5.007200">
        <ele>2692.0</ele>
        <time>2015-08-15T13:35:02Z</time>
      </trkpt>
      <trkpt lat="40.572733" lon="-5.006900">
        <ele>2694.0</ele>
        <time>2015-08-15T13:35:04Z</time>
      </trkpt>
      <trkpt lat="40.572850" lon="-5.006633">
        <ele>2694.0</ele>
        <time>2015-08-15T13:35:06Z</time>
      </trkpt>
      <trkpt lat="40.572967" lon="-5.006383">
        <ele>2691.0</ele>
        <time>2015-08-15T13:35:08Z</time>
      </trkpt>
      <trkpt lat="40.573117" lon="-5.006100">
        <ele>2687.0</ele>
        <time>2015-08-15T13:35:10Z</time>
      </trkpt>
      <trkpt lat="40.573250" lon="-5.005800">
        <ele>2686.0</ele>
        <time>2015-08-15T13:35:12Z</time>
      </trkpt>
      <trkpt lat="40.573367" lon="-5.005550">
        <ele>2685.0</ele>
        <time>2015-08-15T13:35:14Z</time>
      </trkpt>
      <trkpt lat="40.573500" lon="-5.005283">
        <ele>2681.0</ele>
        <time>2015-08-15T13:35:16Z</time>
      </trkpt>
      <trkpt lat="40.573600" lon="-5.005017">
        <ele>2676.0</ele>
        <time>2015-08-15T13:35:18Z</time>
      </trkpt>
      <trkpt lat="40.573717" lon="-5.004717">
        <ele>2670.0</ele>
        <time>2015-08-15T13:35:20Z</time>
      </trkpt>
      <trkpt lat="40.573817" lon="-5.004400">
        <ele>2666.0</ele>
        <time>2015-08-15T13:35:22Z</time>
      </trkpt>
      <trkpt lat="40.573950" lon="-5.004117">
        <ele>2663.0</ele>
        <time>2015-08-15T13:35:24Z</time>
      </trkpt>
      <trkpt lat="40.574067" lon="-5.003817">
        <ele>2662.0</ele>
        <time>2015-08-15T13:35:26Z</time>
      </trkpt>
      <trkpt lat="40.574167" lon="-5.003550">
        <ele>2661.0</ele>
        <time>2015-08-15T13:35:28Z</time>
      </trkpt>
      <trkpt lat="40.574300" lon="-5.003267">
        <ele>2657.0</ele>
        <time>2015-08-15T13:35:30Z</time>
      </trkpt>
      <trkpt lat="40.574450" lon="-5.002967">
        <ele>2652.0</ele>
        <time>2015-08-15T13:35:32Z</time>
      </trkpt>
      <trkpt lat="40.574600" lon="-5.002650">
        <ele>2648.0</ele>
        <time>2015-08-15T13:35:34Z</time>
      </trkpt>
      <trkpt lat="40.574767" lon="-5.002333">
        <ele>2643.0</ele>
        <time>2015-08-15T13:35:36Z</time>
      </trkpt>
      <trkpt lat="40.574917" lon="-5.002017">
        <ele>2638.0</ele>
        <time>2015-08-15T13:35:38Z</time>
      </trkpt>
      <trkpt lat="40.575083" lon="-5.001683">
        <ele>2633.0</ele>
        <time>2015-08-15T13:35:40Z</time>
      </trkpt>
      <trkpt lat="40.575250" lon="-5.001350">
        <ele>2630.0</ele>
        <time>2015-08-15T13:35:42Z</time>
      </trkpt>
      <trkpt lat="40.575400" lon="-5.001017">
        <ele>2628.0</ele>
        <time>2015-08-15T13:35:44Z</time>
      </trkpt>
      <trkpt lat="40.575567" lon="-5.000717">
        <ele>2626.0</ele>
        <time>2015-08-15T13:35:46Z</time>
      </trkpt>
      <trkpt lat="40.575733" lon="-5.000450">
        <ele>2623.0</ele>
        <time>2015-08-15T13:35:48Z</time>
      </trkpt>
      <trkpt lat="40.575883" lon="-5.000167">
        <ele>2622.0</ele>
        <time>2015-08-15T13:35:50Z</time>
      </trkpt>
      <trkpt lat="40.576050" lon="-4.999883">
        <ele>2622.0</ele>
        <time>2015-08-15T13:35:52Z</time>
      </trkpt>
      <trkpt lat="40.576217" lon="-4.999617">
        <ele>2621.0</ele>
        <time>2015-08-15T13:35:54Z</time>
      </trkpt>
      <trkpt lat="40.576383" lon="-4.999333">
        <ele>2619.0</ele>
        <time>2015-08-15T13:35:56Z</time>
      </trkpt>
      <trkpt lat="40.576533" lon="-4.999050">
        <ele>2618.0</ele>
        <time>2015-08-15T13:35:58Z</time>
      </trkpt>
      <trkpt lat="40.576683" lon="-4.998750">
        <ele>2616.0</ele>
        <time>2015-08-15T13:36:00Z</time>
      </trkpt>
      <trkpt lat="40.576833" lon="-4.998450">
        <ele>2616.0</ele>
        <time>2015-08-15T13:36:02Z</time>
      </trkpt>
      <trkpt lat="40.576983" lon="-4.998150">
        <ele>2616.0</ele>
        <time>2015-08-15T13:36:04Z</time>
      </trkpt>
      <trkpt lat="40.577133" lon="-4.997850">
        <ele>2613.0</ele>
        <time>2015-08-15T13:36:06Z</time>
      </trkpt>
      <trkpt lat="40.577300" lon="-4.997550">
        <ele>2611.0</ele>
        <time>2015-08-15T13:36:08Z</time>
      </trkpt>
      <trkpt lat="40.577433" lon="-4.997250">
        <ele>2610.0</ele>
        <time>2015-08-15T13:36:10Z</time>
      </trkpt>
      <trkpt lat="40.577550" lon="-4.996983">
        <ele>2608.0</ele>
        <time>2015-08-15T13:36:12Z</time>
      </trkpt>
      <trkpt lat="40.577683" lon="-4.996667">
        <ele>2603.0</ele>
        <time>2015-08-15T13:36:14Z</time>
      </trkpt>
      <trkpt lat="40.577833" lon="-4.996333">
        <ele>2602.0</ele>
        <time>2015-08-15T13:36:16Z</time>
      </trkpt>
      <trkpt lat="40.577950" lon="-4.996033">
        <ele>2602.0</ele>
        <time>2015-08-15T13:36:18Z</time>
      </trkpt>
      <trkpt lat="40.578083" lon="-4.995733">
        <ele>2600.0</ele>
        <time>2015-08-15T13:36:20Z</time>
      </trkpt>
      <trkpt lat="40.578217" lon="-4.995417">
        <ele>2596.0</ele>
        <time>2015-08-15T13:36:22Z</time>
      </trkpt>
      <trkpt lat="40.578350" lon="-4.995083">
        <ele>2594.0</ele>
        <time>2015-08-15T13:36:24Z</time>
      </trkpt>
      <trkpt lat="40.578483" lon="-4.994783">
        <ele>2591.0</ele>
        <time>2015-08-15T13:36:26Z</time>
      </trkpt>
      <trkpt lat="40.578633" lon="-4.994500">
        <ele>2589.0</ele>
        <time>2015-08-15T13:36:28Z</time>
      </trkpt>
      <trkpt lat="40.578783" lon="-4.994200">
        <ele>2586.0</ele>
        <time>2015-08-15T13:36:30Z</time>
      </trkpt>
      <trkpt lat="40.578933" lon="-4.993917">
        <ele>2583.0</ele>
        <time>2015-08-15T13:36:32Z</time>
      </trkpt>
      <trkpt lat="40.579083" lon="-4.993633">
        <ele>2580.0</ele>
        <time>2015-08-15T13:36:34Z</time>
      </trkpt>
      <trkpt lat="40.579233" lon="-4.993350">
        <ele>2579.0</ele>
        <time>2015-08-15T13:36:36Z</time>
      </trkpt>
      <trkpt lat="40.579400" lon="-4.993083">
        <ele>2577.0</ele>
        <time>2015-08-15T13:36:38Z</time>
      </trkpt>
      <trkpt lat="40.579533" lon="-4.992800">
        <ele>2575.0</ele>
        <time>2015-08-15T13:36:40Z</time>
      </trkpt>
      <trkpt lat="40.579700" lon="-4.992517">
        <ele>2573.0</ele>
        <time>2015-08-15T13:36:42Z</time>
      </trkpt>
      <trkpt lat="40.579867" lon="-4.992233">
        <ele>2572.0</ele>
        <time>2015-08-15T13:36:44Z</time>
      </trkpt>
      <trkpt lat="40.580000" lon="-4.991967">
        <ele>2572.0</ele>
        <time>2015-08-15T13:36:46Z</time>
      </trkpt>
      <trkpt lat="40.580150" lon="-4.991733">
        <ele>2572.0</ele>
        <time>2015-08-15T13:36:48Z</time>
      </trkpt>
      <trkpt lat="40.580283" lon="-4.991483">
        <ele>2570.0</ele>
        <time>2015-08-15T13:36:50Z</time>
      </trkpt>
      <trkpt lat="40.580450" lon="-4.991250">
        <ele>2568.0</ele>
        <time>2015-08-15T13:36:52Z</time>
      </trkpt>
      <trkpt lat="40.580583" lon="-4.991000">
        <ele>2568.0</ele>
        <time>2015-08-15T13:36:54Z</time>
      </trkpt>
      <trkpt lat="40.580717" lon="-4.990767">
        <ele>2566.0</ele>
        <time>2015-08-15T13:36:56Z</time>
      </trkpt>
      <trkpt lat="40.580867" lon="-4.990517">
        <ele>2564.0</ele>
        <time>2015-08-15T13:36:58Z</time>
      </trkpt>
      <trkpt lat="40.581000" lon="-4.990267">
        <ele>2564.0</ele>
        <time>2015-08-15T13:37:00Z</time>
      </trkpt>
      <trkpt lat="40.581150" lon="-4.990050">
        <ele>2563.0</ele>
        <time>2015-08-15T13:37:02Z</time>
      </trkpt>
      <trkpt lat="40.581283" lon="-4.989800">
        <ele>2560.0</ele>
        <time>2015-08-15T13:37:04Z</time>
      </trkpt>
      <trkpt lat="40.581417" lon="-4.989533">
        <ele>2557.0</ele>
        <time>2015-08-15T13:37:06Z</time>
      </trkpt>
      <trkpt lat="40.581550" lon="-4.989283">
        <ele>2555.0</ele>
        <time>2015-08-15T13:37:08Z</time>
      </trkpt>
      <trkpt lat="40.581683" lon="-4.989017">
        <ele>2553.0</ele>
        <time>2015-08-15T13:37:10Z</time>
      </trkpt>
      <trkpt lat="40.581800" lon="-4.988750">
        <ele>2551.0</ele>
        <time>2015-08-15T13:37:12Z</time>
      </trkpt>
      <trkpt lat="40.581933" lon="-4.988500">
        <ele>2550.0</ele>
        <time>2015-08-15T13:37:14Z</time>
      </trkpt>
      <trkpt lat="40.582050" lon="-4.988233">
        <ele>2549.0</ele>
        <time>2015-08-15T13:37:16Z</time>
      </trkpt>
      <trkpt lat="40.582183" lon="-4.987950">
        <ele>2548.0</ele>
        <time>2015-08-15T13:37:18Z</time>
      </trkpt>
      <trkpt lat="40.582317" lon="-4.987633">
        <ele>2549.0</ele>
        <time>2015-08-15T13:37:20Z</time>
      </trkpt>
      <trkpt lat="40.582433" lon="-4.987317">
        <ele>2551.0</ele>
        <time>2015-08-15T13:37:22Z</time>
      </trkpt>
      <trkpt lat="40.582550" lon="-4.987017">
        <ele>2551.0</ele>
        <time>2015-08-15T13:37:24Z</time>
      </trkpt>
      <trkpt lat="40.582683" lon="-4.986767">
        <ele>2552.0</ele>
        <time>2015-08-15T13:37:26Z</time>
      </trkpt>
      <trkpt lat="40.582817" lon="-4.986517">
        <ele>2554.0</ele>
        <time>2015-08-15T13:37:28Z</time>
      </trkpt>
      <trkpt lat="40.582883" lon="-4.986233">
        <ele>2555.0</ele>
        <time>2015-08-15T13:37:30Z</time>
      </trkpt>
      <trkpt lat="40.582933" lon="-4.985917">
        <ele>2555.0</ele>
        <time>2015-08-15T13:37:32Z</time>
      </trkpt>
      <trkpt lat="40.583033" lon="-4.985617">
        <ele>2555.0</ele>
        <time>2015-08-15T13:37:34Z</time>
      </trkpt>
      <trkpt lat="40.583150" lon="-4.985317">
        <ele>2555.0</ele>
        <time>2015-08-15T13:37:36Z</time>
      </trkpt>
      <trkpt lat="40.583283" lon="-4.985050">
        <ele>2557.0</ele>
        <time>2015-08-15T13:37:38Z</time>
      </trkpt>
      <trkpt lat="40.583433" lon="-4.984833">
        <ele>2556.0</ele>
        <time>2015-08-15T13:37:40Z</time>
      </trkpt>
      <trkpt lat="40.583617" lon="-4.984600">
        <ele>2552.0</ele>
        <time>2015-08-15T13:37:42Z</time>
      </trkpt>
      <trkpt lat="40.583800" lon="-4.984367">
        <ele>2551.0</ele>
        <time>2015-08-15T13:37:44Z</time>
      </trkpt>
      <trkpt lat="40.583950" lon="-4.984117">
        <ele>2549.0</ele>
        <time>2015-08-15T13:37:46Z</time>
      </trkpt>
      <trkpt lat="40.584100" lon="-4.983867">
        <ele>2545.0</ele>
        <time>2015-08-15T13:37:48Z</time>
      </trkpt>
      <trkpt lat="40.584250" lon="-4.983567">
        <ele>2543.0</ele>
        <time>2015-08-15T13:37:50Z</time>
      </trkpt>
      <trkpt lat="40.584367" lon="-4.983283">
        <ele>2542.0</ele>
        <time>2015-08-15T13:37:52Z</time>
      </trkpt>
      <trkpt lat="40.584467" lon="-4.983033">
        <ele>2539.0</ele>
        <time>2015-08-15T13:37:54Z</time>
      </trkpt>
      <trkpt lat="40.584567" lon="-4.982750">
        <ele>2534.0</ele>
        <time>2015-08-15T13:37:56Z</time>
      </trkpt>
      <trkpt lat="40.584683" lon="-4.982450">
        <ele>2529.0</ele>
        <time>2015-08-15T13:37:58Z</time>
      </trkpt>
      <trkpt lat="40.584783" lon="-4.982167">
        <ele>2526.0</ele>
        <time>2015-08-15T13:38:00Z</time>
      </trkpt>
      <trkpt lat="40.584900" lon="-4.981883">
        <ele>2522.0</ele>
        <time>2015-08-15T13:38:02Z</time>
      </trkpt>
      <trkpt lat="40.585000" lon="-4.981600">
        <ele>2518.0</ele>
        <time>2015-08-15T13:38:04Z</time>
      </trkpt>
      <trkpt lat="40.585100" lon="-4.981283">
        <ele>2516.0</ele>
        <time>2015-08-15T13:38:06Z</time>
      </trkpt>
      <trkpt lat="40.585150" lon="-4.981017">
        <ele>2518.0</ele>
        <time>2015-08-15T13:38:08Z</time>
      </trkpt>
      <trkpt lat="40.585217" lon="-4.980767">
        <ele>2514.0</ele>
        <time>2015-08-15T13:38:10Z</time>
      </trkpt>
      <trkpt lat="40.585317" lon="-4.980483">
        <ele>2509.0</ele>
        <time>2015-08-15T13:38:12Z</time>
      </trkpt>
      <trkpt lat="40.585383" lon="-4.980200">
        <ele>2504.0</ele>
        <time>2015-08-15T13:38:14Z</time>
      </trkpt>
      <trkpt lat="40.585467" lon="-4.979917">
        <ele>2498.0</ele>
        <time>2015-08-15T13:38:16Z</time>
      </trkpt>
      <trkpt lat="40.585567" lon="-4.979617">
        <ele>2493.0</ele>
        <time>2015-08-15T13:38:18Z</time>
      </trkpt>
      <trkpt lat="40.585717" lon="-4.979350">
        <ele>2488.0</ele>
        <time>2015-08-15T13:38:20Z</time>
      </trkpt>
      <trkpt lat="40.585867" lon="-4.979083">
        <ele>2482.0</ele>
        <time>2015-08-15T13:38:22Z</time>
      </trkpt>
      <trkpt lat="40.586017" lon="-4.978817">
        <ele>2479.0</ele>
        <time>2015-08-15T13:38:24Z</time>
      </trkpt>
      <trkpt lat="40.586167" lon="-4.978583">
        <ele>2476.0</ele>
        <time>2015-08-15T13:38:26Z</time>
      </trkpt>
      <trkpt lat="40.586300" lon="-4.978317">
        <ele>2470.0</ele>
        <time>2015-08-15T13:38:28Z</time>
      </trkpt>
      <trkpt lat="40.586450" lon="-4.978050">
        <ele>2467.0</ele>
        <time>2015-08-15T13:38:30Z</time>
      </trkpt>
      <trkpt lat="40.586583" lon="-4.977833">
        <ele>2466.0</ele>
        <time>2015-08-15T13:38:32Z</time>
      </trkpt>
      <trkpt lat="40.586700" lon="-4.977600">
        <ele>2463.0</ele>
        <time>2015-08-15T13:38:34Z</time>
      </trkpt>
      <trkpt lat="40.586833" lon="-4.977317">
        <ele>2458.0</ele>
        <time>2015-08-15T13:38:36Z</time>
      </trkpt>
      <trkpt lat="40.586967" lon="-4.977100">
        <ele>2457.0</ele>
        <time>2015-08-15T13:38:38Z</time>
      </trkpt>
      <trkpt lat="40.587100" lon="-4.976883">
        <ele>2457.0</ele>
        <time>2015-08-15T13:38:40Z</time>
      </trkpt>
      <trkpt lat="40.587183" lon="-4.976617">
        <ele>2457.0</ele>
        <time>2015-08-15T13:38:42Z</time>
      </trkpt>
      <trkpt lat="40.587233" lon="-4.976317">
        <ele>2456.0</ele>
        <time>2015-08-15T13:38:44Z</time>
      </trkpt>
      <trkpt lat="40.587283" lon="-4.976033">
        <ele>2456.0</ele>
        <time>2015-08-15T13:38:46Z</time>
      </trkpt>
      <trkpt lat="40.587283" lon="-4.975717">
        <ele>2456.0</ele>
        <time>2015-08-15T13:38:48Z</time>
      </trkpt>
      <trkpt lat="40.587283" lon="-4.975400">
        <ele>2456.0</ele>
        <time>2015-08-15T13:38:50Z</time>
      </trkpt>
      <trkpt lat="40.587250" lon="-4.975067">
        <ele>2455.0</ele>
        <time>2015-08-15T13:38:52Z</time>
      </trkpt>
      <trkpt lat="40.587283" lon="-4.974717">
        <ele>2454.0</ele>
        <time>2015-08-15T13:38:54Z</time>
      </trkpt>
      <trkpt lat="40.587383" lon="-4.974433">
        <ele>2454.0</ele>
        <time>2015-08-15T13:38:56Z</time>
      </trkpt>
      <trkpt lat="40.587500" lon="-4.974217">
        <ele>2452.0</ele>
        <time>2015-08-15T13:38:58Z</time>
      </trkpt>
      <trkpt lat="40.587650" lon="-4.973967">
        <ele>2447.0</ele>
        <time>2015-08-15T13:39:00Z</time>
      </trkpt>
      <trkpt lat="40.587783" lon="-4.973700">
        <ele>2445.0</ele>
        <time>2015-08-15T13:39:02Z</time>
      </trkpt>
      <trkpt lat="40.587917" lon="-4.973483">
        <ele>2445.0</ele>
        <time>2015-08-15T13:39:04Z</time>
      </trkpt>
      <trkpt lat="40.588067" lon="-4.973283">
        <ele>2441.0</ele>
        <time>2015-08-15T13:39:06Z</time>
      </trkpt>
      <trkpt lat="40.588233" lon="-4.973100">
        <ele>2437.0</ele>
        <time>2015-08-15T13:39:08Z</time>
      </trkpt>
      <trkpt lat="40.588383" lon="-4.972883">
        <ele>2437.0</ele>
        <time>2015-08-15T13:39:10Z</time>
      </trkpt>
      <trkpt lat="40.588517" lon="-4.972717">
        <ele>2436.0</ele>
        <time>2015-08-15T13:39:12Z</time>
      </trkpt>
      <trkpt lat="40.588667" lon="-4.972533">
        <ele>2432.0</ele>
        <time>2015-08-15T13:39:14Z</time>
      </trkpt>
      <trkpt lat="40.588817" lon="-4.972317">
        <ele>2429.0</ele>
        <time>2015-08-15T13:39:16Z</time>
      </trkpt>
      <trkpt lat="40.588950" lon="-4.972083">
        <ele>2428.0</ele>
        <time>2015-08-15T13:39:18Z</time>
      </trkpt>
      <trkpt lat="40.589100" lon="-4.971883">
        <ele>2425.0</ele>
        <time>2015-08-15T13:39:20Z</time>
      </trkpt>
      <trkpt lat="40.589250" lon="-4.971667">
        <ele>2421.0</ele>
        <time>2015-08-15T13:39:22Z</time>
      </trkpt>
      <trkpt lat="40.589383" lon="-4.971450">
        <ele>2421.0</ele>
        <time>2015-08-15T13:39:24Z</time>
      </trkpt>
      <trkpt lat="40.589517" lon="-4.971250">
        <ele>2419.0</ele>
        <time>2015-08-15T13:39:26Z</time>
      </trkpt>
      <trkpt lat="40.589650" lon="-4.971033">
        <ele>2414.0</ele>
        <time>2015-08-15T13:39:28Z</time>
      </trkpt>
      <trkpt lat="40.589817" lon="-4.970817">
        <ele>2413.0</ele>
        <time>2015-08-15T13:39:30Z</time>
      </trkpt>
      <trkpt lat="40.589967" lon="-4.970633">
        <ele>2411.0</ele>
        <time>2015-08-15T13:39:32Z</time>
      </trkpt>
      <trkpt lat="40.590117" lon="-4.970450">
        <ele>2408.0</ele>
        <time>2015-08-15T13:39:34Z</time>
      </trkpt>
      <trkpt lat="40.590267" lon="-4.970250">
        <ele>2405.0</ele>
        <time>2015-08-15T13:39:36Z</time>
      </trkpt>
      <trkpt lat="40.590400" lon="-4.970050">
        <ele>2401.0</ele>
        <time>2015-08-15T13:39:38Z</time>
      </trkpt>
      <trkpt lat="40.590550" lon="-4.969833">
        <ele>2394.0</ele>
        <time>2015-08-15T13:39:40Z</time>
      </trkpt>
      <trkpt lat="40.590717" lon="-4.969600">
        <ele>2388.0</ele>
        <time>2015-08-15T13:39:42Z</time>
      </trkpt>
      <trkpt lat="40.590867" lon="-4.969367">
        <ele>2386.0</ele>
        <time>2015-08-15T13:39:44Z</time>
      </trkpt>
      <trkpt lat="40.591000" lon="-4.969167">
        <ele>2381.0</ele>
        <time>2015-08-15T13:39:46Z</time>
      </trkpt>
      <trkpt lat="40.591150" lon="-4.968933">
        <ele>2375.0</ele>
        <time>2015-08-15T13:39:48Z</time>
      </trkpt>
      <trkpt lat="40.591317" lon="-4.968683">
        <ele>2370.0</ele>
        <time>2015-08-15T13:39:50Z</time>
      </trkpt>
      <trkpt lat="40.591483" lon="-4.968467">
        <ele>2367.0</ele>
        <time>2015-08-15T13:39:52Z</time>
      </trkpt>
      <trkpt lat="40.591650" lon="-4.968233">
        <ele>2363.0</ele>
        <time>2015-08-15T13:39:54Z</time>
      </trkpt>
      <trkpt lat="40.591817" lon="-4.967983">
        <ele>2360.0</ele>
        <time>2015-08-15T13:39:56Z</time>
      </trkpt>
      <trkpt lat="40.591983" lon="-4.967750">
        <ele>2357.0</ele>
        <time>2015-08-15T13:39:58Z</time>
      </trkpt>
      <trkpt lat="40.592133" lon="-4.967533">
        <ele>2353.0</ele>
        <time>2015-08-15T13:40:00Z</time>
      </trkpt>
      <trkpt lat="40.592300" lon="-4.967300">
        <ele>2348.0</ele>
        <time>2015-08-15T13:40:02Z</time>
      </trkpt>
      <trkpt lat="40.592450" lon="-4.967067">
        <ele>2342.0</ele>
        <time>2015-08-15T13:40:04Z</time>
      </trkpt>
      <trkpt lat="40.592600" lon="-4.966833">
        <ele>2338.0</ele>
        <time>2015-08-15T13:40:06Z</time>
      </trkpt>
      <trkpt lat="40.592767" lon="-4.966617">
        <ele>2335.0</ele>
        <time>2015-08-15T13:40:08Z</time>
      </trkpt>
      <trkpt lat="40.592917" lon="-4.966400">
        <ele>2332.0</ele>
        <time>2015-08-15T13:40:10Z</time>
      </trkpt>
      <trkpt lat="40.593067" lon="-4.966183">
        <ele>2328.0</ele>
        <time>2015-08-15T13:40:12Z</time>
      </trkpt>
      <trkpt lat="40.593233" lon="-4.965950">
        <ele>2325.0</ele>
        <time>2015-08-15T13:40:14Z</time>
      </trkpt>
      <trkpt lat="40.593367" lon="-4.965717">
        <ele>2321.0</ele>
        <time>2015-08-15T13:40:16Z</time>
      </trkpt>
      <trkpt lat="40.593517" lon="-4.965467">
        <ele>2317.0</ele>
        <time>2015-08-15T13:40:18Z</time>
      </trkpt>
      <trkpt lat="40.593667" lon="-4.965200">
        <ele>2314.0</ele>
        <time>2015-08-15T13:40:20Z</time>
      </trkpt>
      <trkpt lat="40.593800" lon="-4.964950">
        <ele>2312.0</ele>
        <time>2015-08-15T13:40:22Z</time>
      </trkpt>
      <trkpt lat="40.593950" lon="-4.964700">
        <ele>2309.0</ele>
        <time>2015-08-15T13:40:24Z</time>
      </trkpt>
      <trkpt lat="40.594100" lon="-4.964450">
        <ele>2307.0</ele>
        <time>2015-08-15T13:40:26Z</time>
      </trkpt>
      <trkpt lat="40.594250" lon="-4.964200">
        <ele>2306.0</ele>
        <time>2015-08-15T13:40:28Z</time>
      </trkpt>
      <trkpt lat="40.594400" lon="-4.963967">
        <ele>2304.0</ele>
        <time>2015-08-15T13:40:30Z</time>
      </trkpt>
      <trkpt lat="40.594550" lon="-4.963700">
        <ele>2302.0</ele>
        <time>2015-08-15T13:40:32Z</time>
      </trkpt>
      <trkpt lat="40.594717" lon="-4.963467">
        <ele>2301.0</ele>
        <time>2015-08-15T13:40:34Z</time>
      </trkpt>
      <trkpt lat="40.594883" lon="-4.963267">
        <ele>2301.0</ele>
        <time>2015-08-15T13:40:36Z</time>
      </trkpt>
      <trkpt lat="40.595050" lon="-4.963083">
        <ele>2301.0</ele>
        <time>2015-08-15T13:40:38Z</time>
      </trkpt>
      <trkpt lat="40.595233" lon="-4.962950">
        <ele>2300.0</ele>
        <time>2015-08-15T13:40:40Z</time>
      </trkpt>
      <trkpt lat="40.595433" lon="-4.962833">
        <ele>2298.0</ele>
        <time>2015-08-15T13:40:42Z</time>
      </trkpt>
      <trkpt lat="40.595633" lon="-4.962683">
        <ele>2297.0</ele>
        <time>2015-08-15T13:40:44Z</time>
      </trkpt>
      <trkpt lat="40.595817" lon="-4.962500">
        <ele>2297.0</ele>
        <time>2015-08-15T13:40:46Z</time>
      </trkpt>
      <trkpt lat="40.596017" lon="-4.962317">
        <ele>2296.0</ele>
        <time>2015-08-15T13:40:48Z</time>
      </trkpt>
      <trkpt lat="40.596200" lon="-4.962133">
        <ele>2295.0</ele>
        <time>2015-08-15T13:40:50Z</time>
      </trkpt>
      <trkpt lat="40.596367" lon="-4.961933">
        <ele>2291.0</ele>
        <time>2015-08-15T13:40:52Z</time>
      </trkpt>
      <trkpt lat="40.596583" lon="-4.961750">
        <ele>2287.0</ele>
        <time>2015-08-15T13:40:54Z</time>
      </trkpt>
      <trkpt lat="40.596783" lon="-4.961550">
        <ele>2284.0</ele>
        <time>2015-08-15T13:40:56Z</time>
      </trkpt>
      <trkpt lat="40.597000" lon="-4.961383">
        <ele>2283.0</ele>
        <time>2015-08-15T13:40:58Z</time>
      </trkpt>
      <trkpt lat="40.597217" lon="-4.961217">
        <ele>2282.0</ele>
        <time>2015-08-15T13:41:00Z</time>
      </trkpt>
      <trkpt lat="40.597400" lon="-4.961033">
        <ele>2279.0</ele>
        <time>2015-08-15T13:41:02Z</time>
      </trkpt>
      <trkpt lat="40.597583" lon="-4.960833">
        <ele>2274.0</ele>
        <time>2015-08-15T13:41:04Z</time>
      </trkpt>
      <trkpt lat="40.597767" lon="-4.960633">
        <ele>2271.0</ele>
        <time>2015-08-15T13:41:06Z</time>
      </trkpt>
      <trkpt lat="40.597900" lon="-4.960433">
        <ele>2267.0</ele>
        <time>2015-08-15T13:41:08Z</time>
      </trkpt>
      <trkpt lat="40.598067" lon="-4.960217">
        <ele>2260.0</ele>
        <time>2015-08-15T13:41:10Z</time>
      </trkpt>
      <trkpt lat="40.598233" lon="-4.960000">
        <ele>2254.0</ele>
        <time>2015-08-15T13:41:12Z</time>
      </trkpt>
      <trkpt lat="40.598400" lon="-4.959833">
        <ele>2250.0</ele>
        <time>2015-08-15T13:41:14Z</time>
      </trkpt>
      <trkpt lat="40.598533" lon="-4.959667">
        <ele>2243.0</ele>
        <time>2015-08-15T13:41:16Z</time>
      </trkpt>
      <trkpt lat="40.598683" lon="-4.959433">
        <ele>2236.0</ele>
        <time>2015-08-15T13:41:18Z</time>
      </trkpt>
      <trkpt lat="40.598833" lon="-4.959183">
        <ele>2232.0</ele>
        <time>2015-08-15T13:41:20Z</time>
      </trkpt>
      <trkpt lat="40.599000" lon="-4.958950">
        <ele>2229.0</ele>
        <time>2015-08-15T13:41:22Z</time>
      </trkpt>
      <trkpt lat="40.599117" lon="-4.958750">
        <ele>2228.0</ele>
        <time>2015-08-15T13:41:24Z</time>
      </trkpt>
      <trkpt lat="40.599233" lon="-4.958550">
        <ele>2224.0</ele>
        <time>2015-08-15T13:41:26Z</time>
      </trkpt>
      <trkpt lat="40.599350" lon="-4.958300">
        <ele>2219.0</ele>
        <time>2015-08-15T13:41:28Z</time>
      </trkpt>
      <trkpt lat="40.599467" lon="-4.958050">
        <ele>2215.0</ele>
        <time>2015-08-15T13:41:30Z</time>
      </trkpt>
      <trkpt lat="40.599567" lon="-4.957800">
        <ele>2210.0</ele>
        <time>2015-08-15T13:41:32Z</time>
      </trkpt>
      <trkpt lat="40.599683" lon="-4.957533">
        <ele>2203.0</ele>
        <time>2015-08-15T13:41:34Z</time>
      </trkpt>
      <trkpt lat="40.599800" lon="-4.957217">
        <ele>2199.0</ele>
        <time>2015-08-15T13:41:36Z</time>
      </trkpt>
      <trkpt lat="40.599883" lon="-4.956900">
        <ele>2196.0</ele>
        <time>2015-08-15T13:41:38Z</time>
      </trkpt>
      <trkpt lat="40.599967" lon="-4.956583">
        <ele>2192.0</ele>
        <time>2015-08-15T13:41:40Z</time>
      </trkpt>
      <trkpt lat="40.600067" lon="-4.956300">
        <ele>2189.0</ele>
        <time>2015-08-15T13:41:42Z</time>
      </trkpt>
      <trkpt lat="40.600150" lon="-4.956033">
        <ele>2186.0</ele>
        <time>2015-08-15T13:41:44Z</time>
      </trkpt>
      <trkpt lat="40.600250" lon="-4.955783">
        <ele>2181.0</ele>
        <time>2015-08-15T13:41:46Z</time>
      </trkpt>
      <trkpt lat="40.600367" lon="-4.955533">
        <ele>2174.0</ele>
        <time>2015-08-15T13:41:48Z</time>
      </trkpt>
      <trkpt lat="40.600483" lon="-4.955233">
        <ele>2168.0</ele>
        <time>2015-08-15T13:41:50Z</time>
      </trkpt>
      <trkpt lat="40.600583" lon="-4.954933">
        <ele>2163.0</ele>
        <time>2015-08-15T13:41:52Z</time>
      </trkpt>
      <trkpt lat="40.600667" lon="-4.954633">
        <ele>2158.0</ele>
        <time>2015-08-15T13:41:54Z</time>
      </trkpt>
      <trkpt lat="40.600750" lon="-4.954333">
        <ele>2151.0</ele>
        <time>2015-08-15T13:41:56Z</time>
      </trkpt>
      <trkpt lat="40.600850" lon="-4.954017">
        <ele>2143.0</ele>
        <time>2015-08-15T13:41:58Z</time>
      </trkpt>
      <trkpt lat="40.600917" lon="-4.953700">
        <ele>2136.0</ele>
        <time>2015-08-15T13:42:00Z</time>
      </trkpt>
      <trkpt lat="40.601017" lon="-4.953367">
        <ele>2130.0</ele>
        <time>2015-08-15T13:42:02Z</time>
      </trkpt>
      <trkpt lat="40.601117" lon="-4.953067">
        <ele>2127.0</ele>
        <time>2015-08-15T13:42:04Z</time>
      </trkpt>
      <trkpt lat="40.601183" lon="-4.952783">
        <ele>2122.0</ele>
        <time>2015-08-15T13:42:06Z</time>
      </trkpt>
      <trkpt lat="40.601267" lon="-4.952467">
        <ele>2115.0</ele>
        <time>2015-08-15T13:42:08Z</time>
      </trkpt>
      <trkpt lat="40.601367" lon="-4.952150">
        <ele>2108.0</ele>
        <time>2015-08-15T13:42:10Z</time>
      </trkpt>
      <trkpt lat="40.601483" lon="-4.951850">
        <ele>2103.0</ele>
        <time>2015-08-15T13:42:12Z</time>
      </trkpt>
      <trkpt lat="40.601600" lon="-4.951583">
        <ele>2101.0</ele>
        <time>2015-08-15T13:42:14Z</time>
      </trkpt>
      <trkpt lat="40.601633" lon="-4.951250">
        <ele>2088.0</ele>
        <time>2015-08-15T13:42:16Z</time>
      </trkpt>
      <trkpt lat="40.601717" lon="-4.950933">
        <ele>2085.0</ele>
        <time>2015-08-15T13:42:18Z</time>
      </trkpt>
      <trkpt lat="40.601767" lon="-4.950650">
        <ele>2081.0</ele>
        <time>2015-08-15T13:42:20Z</time>
      </trkpt>
      <trkpt lat="40.601833" lon="-4.950383">
        <ele>2074.0</ele>
        <time>2015-08-15T13:42:22Z</time>
      </trkpt>
      <trkpt lat="40.601917" lon="-4.950100">
        <ele>2068.0</ele>
        <time>2015-08-15T13:42:24Z</time>
      </trkpt>
      <trkpt lat="40.602000" lon="-4.949817">
        <ele>2062.0</ele>
        <time>2015-08-15T13:42:26Z</time>
      </trkpt>
      <trkpt lat="40.602067" lon="-4.949550">
        <ele>2056.0</ele>
        <time>2015-08-15T13:42:28Z</time>
      </trkpt>
      <trkpt lat="40.602117" lon="-4.949267">
        <ele>2050.0</ele>
        <time>2015-08-15T13:42:30Z</time>
      </trkpt>
      <trkpt lat="40.602183" lon="-4.949000">
        <ele>2042.0</ele>
        <time>2015-08-15T13:42:32Z</time>
      </trkpt>
      <trkpt lat="40.602267" lon="-4.948717">
        <ele>2033.0</ele>
        <time>2015-08-15T13:42:34Z</time>
      </trkpt>
      <trkpt lat="40.602350" lon="-4.948417">
        <ele>2025.0</ele>
        <time>2015-08-15T13:42:36Z</time>
      </trkpt>
      <trkpt lat="40.602450" lon="-4.948167">
        <ele>2019.0</ele>
        <time>2015-08-15T13:42:38Z</time>
      </trkpt>
      <trkpt lat="40.602550" lon="-4.947883">
        <ele>2011.0</ele>
        <time>2015-08-15T13:42:40Z</time>
      </trkpt>
      <trkpt lat="40.602617" lon="-4.947600">
        <ele>2006.0</ele>
        <time>2015-08-15T13:42:42Z</time>
      </trkpt>
      <trkpt lat="40.602683" lon="-4.947333">
        <ele>2001.0</ele>
        <time>2015-08-15T13:42:44Z</time>
      </trkpt>
      <trkpt lat="40.602750" lon="-4.947067">
        <ele>1994.0</ele>
        <time>2015-08-15T13:42:46Z</time>
      </trkpt>
      <trkpt lat="40.602833" lon="-4.946783">
        <ele>1987.0</ele>
        <time>2015-08-15T13:42:48Z</time>
      </trkpt>
      <trkpt lat="40.602917" lon="-4.946517">
        <ele>1982.0</ele>
        <time>2015-08-15T13:42:50Z</time>
      </trkpt>
      <trkpt lat="40.603000" lon="-4.946250">
        <ele>1977.0</ele>
        <time>2015-08-15T13:42:52Z</time>
      </trkpt>
      <trkpt lat="40.603067" lon="-4.945950">
        <ele>1972.0</ele>
        <time>2015-08-15T13:42:54Z</time>
      </trkpt>
      <trkpt lat="40.603150" lon="-4.945667">
        <ele>1968.0</ele>
        <time>2015-08-15T13:42:56Z</time>
      </trkpt>
      <trkpt lat="40.603250" lon="-4.945417">
        <ele>1964.0</ele>
        <time>2015-08-15T13:42:58Z</time>
      </trkpt>
      <trkpt lat="40.603333" lon="-4.945150">
        <ele>1957.0</ele>
        <time>2015-08-15T13:43:00Z</time>
      </trkpt>
      <trkpt lat="40.603433" lon="-4.944867">
        <ele>1951.0</ele>
        <time>2015-08-15T13:43:02Z</time>
      </trkpt>
      <trkpt lat="40.603533" lon="-4.944617">
        <ele>1945.0</ele>
        <time>2015-08-15T13:43:04Z</time>
      </trkpt>
      <trkpt lat="40.603617" lon="-4.944367">
        <ele>1939.0</ele>
        <time>2015-08-15T13:43:06Z</time>
      </trkpt>
      <trkpt lat="40.603717" lon="-4.944100">
        <ele>1932.0</ele>
        <time>2015-08-15T13:43:08Z</time>
      </trkpt>
      <trkpt lat="40.603800" lon="-4.943850">
        <ele>1925.0</ele>
        <time>2015-08-15T13:43:10Z</time>
      </trkpt>
      <trkpt lat="40.603883" lon="-4.943583">
        <ele>1918.0</ele>
        <time>2015-08-15T13:43:12Z</time>
      </trkpt>
      <trkpt lat="40.603950" lon="-4.943300">
        <ele>1910.0</ele>
        <time>2015-08-15T13:43:14Z</time>
      </trkpt>
      <trkpt lat="40.604017" lon="-4.943017">
        <ele>1904.0</ele>
        <time>2015-08-15T13:43:16Z</time>
      </trkpt>
      <trkpt lat="40.604083" lon="-4.942733">
        <ele>1897.0</ele>
        <time>2015-08-15T13:43:18Z</time>
      </trkpt>
      <trkpt lat="40.604150" lon="-4.942433">
        <ele>1889.0</ele>
        <time>2015-08-15T13:43:20Z</time>
      </trkpt>
      <trkpt lat="40.604200" lon="-4.942133">
        <ele>1882.0</ele>
        <time>2015-08-15T13:43:22Z</time>
      </trkpt>
      <trkpt lat="40.604250" lon="-4.941817">
        <ele>1875.0</ele>
        <time>2015-08-15T13:43:24Z</time>
      </trkpt>
      <trkpt lat="40.604300" lon="-4.941500">
        <ele>1868.0</ele>
        <time>2015-08-15T13:43:26Z</time>
      </trkpt>
      <trkpt lat="40.604350" lon="-4.941200">
        <ele>1862.0</ele>
        <time>2015-08-15T13:43:28Z</time>
      </trkpt>
      <trkpt lat="40.604400" lon="-4.940900">
        <ele>1855.0</ele>
        <time>2015-08-15T13:43:30Z</time>
      </trkpt>
      <trkpt lat="40.604450" lon="-4.940600">
        <ele>1849.0</ele>
        <time>2015-08-15T13:43:32Z</time>
      </trkpt>
      <trkpt lat="40.604500" lon="-4.940283">
        <ele>1843.0</ele>
        <time>2015-08-15T13:43:34Z</time>
      </trkpt>
      <trkpt lat="40.604567" lon="-4.939983">
        <ele>1835.0</ele>
        <time>2015-08-15T13:43:36Z</time>
      </trkpt>
      <trkpt lat="40.604617" lon="-4.939667">
        <ele>1828.0</ele>
        <time>2015-08-15T13:43:38Z</time>
      </trkpt>
      <trkpt lat="40.604667" lon="-4.939367">
        <ele>1821.0</ele>
        <time>2015-08-15T13:43:40Z</time>
      </trkpt>
      <trkpt lat="40.604717" lon="-4.939033">
        <ele>1813.0</ele>
        <time>2015-08-15T13:43:42Z</time>
      </trkpt>
      <trkpt lat="40.604750" lon="-4.938700">
        <ele>1805.0</ele>
        <time>2015-08-15T13:43:44Z</time>
      </trkpt>
      <trkpt lat="40.604783" lon="-4.938383">
        <ele>1797.0</ele>
        <time>2015-08-15T13:43:46Z</time>
      </trkpt>
      <trkpt lat="40.604800" lon="-4.938100">
        <ele>1790.0</ele>
        <time>2015-08-15T13:43:48Z</time>
      </trkpt>
      <trkpt lat="40.604800" lon="-4.937783">
        <ele>1781.0</ele>
        <time>2015-08-15T13:43:50Z</time>
      </trkpt>
      <trkpt lat="40.604833" lon="-4.937450">
        <ele>1772.0</ele>
        <time>2015-08-15T13:43:52Z</time>
      </trkpt>
      <trkpt lat="40.604867" lon="-4.937117">
        <ele>1766.0</ele>
        <time>2015-08-15T13:43:54Z</time>
      </trkpt>
      <trkpt lat="40.604850" lon="-4.936767">
        <ele>1761.0</ele>
        <time>2015-08-15T13:43:56Z</time>
      </trkpt>
      <trkpt lat="40.604800" lon="-4.936417">
        <ele>1756.0</ele>
        <time>2015-08-15T13:43:58Z</time>
      </trkpt>
      <trkpt lat="40.604700" lon="-4.936117">
        <ele>1752.0</ele>
        <time>2015-08-15T13:44:00Z</time>
      </trkpt>
      <trkpt lat="40.604567" lon="-4.935833">
        <ele>1746.0</ele>
        <time>2015-08-15T13:44:02Z</time>
      </trkpt>
      <trkpt lat="40.604450" lon="-4.935550">
        <ele>1740.0</ele>
        <time>2015-08-15T13:44:04Z</time>
      </trkpt>
      <trkpt lat="40.604350" lon="-4.935200">
        <ele>1733.0</ele>
        <time>2015-08-15T13:44:06Z</time>
      </trkpt>
      <trkpt lat="40.604317" lon="-4.934850">
        <ele>1728.0</ele>
        <time>2015-08-15T13:44:08Z</time>
      </trkpt>
      <trkpt lat="40.604317" lon="-4.934550">
        <ele>1723.0</ele>
        <time>2015-08-15T13:44:10Z</time>
      </trkpt>
      <trkpt lat="40.604300" lon="-4.934233">
        <ele>1718.0</ele>
        <time>2015-08-15T13:44:12Z</time>
      </trkpt>
      <trkpt lat="40.604283" lon="-4.933900">
        <ele>1712.0</ele>
        <time>2015-08-15T13:44:14Z</time>
      </trkpt>
      <trkpt lat="40.604267" lon="-4.933550">
        <ele>1705.0</ele>
        <time>2015-08-15T13:44:16Z</time>
      </trkpt>
      <trkpt lat="40.604233" lon="-4.933183">
        <ele>1699.0</ele>
        <time>2015-08-15T13:44:18Z</time>
      </trkpt>
      <trkpt lat="40.604200" lon="-4.932817">
        <ele>1693.0</ele>
        <time>2015-08-15T13:44:20Z</time>
      </trkpt>
      <trkpt lat="40.604133" lon="-4.932433">
        <ele>1686.0</ele>
        <time>2015-08-15T13:44:22Z</time>
      </trkpt>
      <trkpt lat="40.604100" lon="-4.932067">
        <ele>1680.0</ele>
        <time>2015-08-15T13:44:24Z</time>
      </trkpt>
      <trkpt lat="40.604083" lon="-4.931733">
        <ele>1675.0</ele>
        <time>2015-08-15T13:44:26Z</time>
      </trkpt>
      <trkpt lat="40.604067" lon="-4.931383">
        <ele>1667.0</ele>
        <time>2015-08-15T13:44:28Z</time>
      </trkpt>
      <trkpt lat="40.604050" lon="-4.931017">
        <ele>1659.0</ele>
        <time>2015-08-15T13:44:30Z</time>
      </trkpt>
      <trkpt lat="40.604067" lon="-4.930650">
        <ele>1654.0</ele>
        <time>2015-08-15T13:44:32Z</time>
      </trkpt>
      <trkpt lat="40.604050" lon="-4.930283">
        <ele>1652.0</ele>
        <time>2015-08-15T13:44:34Z</time>
      </trkpt>
      <trkpt lat="40.604067" lon="-4.929917">
        <ele>1649.0</ele>
        <time>2015-08-15T13:44:36Z</time>
      </trkpt>
      <trkpt lat="40.604083" lon="-4.929533">
        <ele>1646.0</ele>
        <time>2015-08-15T13:44:38Z</time>
      </trkpt>
      <trkpt lat="40.604083" lon="-4.929150">
        <ele>1643.0</ele>
        <time>2015-08-15T13:44:40Z</time>
      </trkpt>
      <trkpt lat="40.604083" lon="-4.928800">
        <ele>1640.0</ele>
        <time>2015-08-15T13:44:42Z</time>
      </trkpt>
      <trkpt lat="40.604067" lon="-4.928450">
        <ele>1634.0</ele>
        <time>2015-08-15T13:44:44Z</time>
      </trkpt>
      <trkpt lat="40.604083" lon="-4.928100">
        <ele>1626.0</ele>
        <time>2015-08-15T13:44:46Z</time>
      </trkpt>
      <trkpt lat="40.604100" lon="-4.927733">
        <ele>1620.0</ele>
        <time>2015-08-15T13:44:48Z</time>
      </trkpt>
      <trkpt lat="40.604117" lon="-4.927367">
        <ele>1615.0</ele>
        <time>2015-08-15T13:44:50Z</time>
      </trkpt>
      <trkpt lat="40.604133" lon="-4.927000">
        <ele>1610.0</ele>
        <time>2015-08-15T13:44:52Z</time>
      </trkpt>
      <trkpt lat="40.604133" lon="-4.926617">
        <ele>1603.0</ele>
        <time>2015-08-15T13:44:54Z</time>
      </trkpt>
      <trkpt lat="40.604117" lon="-4.926217">
        <ele>1596.0</ele>
        <time>2015-08-15T13:44:56Z</time>
      </trkpt>
      <trkpt lat="40.604133" lon="-4.925850">
        <ele>1591.0</ele>
        <time>2015-08-15T13:44:58Z</time>
      </trkpt>
      <trkpt lat="40.604150" lon="-4.925483">
        <ele>1584.0</ele>
        <time>2015-08-15T13:45:00Z</time>
      </trkpt>
      <trkpt lat="40.604150" lon="-4.925100">
        <ele>1578.0</ele>
        <time>2015-08-15T13:45:02Z</time>
      </trkpt>
      <trkpt lat="40.604133" lon="-4.924750">
        <ele>1571.0</ele>
        <time>2015-08-15T13:45:04Z</time>
      </trkpt>
      <trkpt lat="40.604133" lon="-4.924367">
        <ele>1563.0</ele>
        <time>2015-08-15T13:45:06Z</time>
      </trkpt>
      <trkpt lat="40.604100" lon="-4.924000">
        <ele>1556.0</ele>
        <time>2015-08-15T13:45:08Z</time>
      </trkpt>
      <trkpt lat="40.604067" lon="-4.923633">
        <ele>1549.0</ele>
        <time>2015-08-15T13:45:10Z</time>
      </trkpt>
      <trkpt lat="40.604033" lon="-4.923233">
        <ele>1542.0</ele>
        <time>2015-08-15T13:45:12Z</time>
      </trkpt>
      <trkpt lat="40.603983" lon="-4.922833">
        <ele>1537.0</ele>
        <time>2015-08-15T13:45:14Z</time>
      </trkpt>
      <trkpt lat="40.603967" lon="-4.922450">
        <ele>1533.0</ele>
        <time>2015-08-15T13:45:16Z</time>
      </trkpt>
      <trkpt lat="40.603917" lon="-4.922050">
        <ele>1529.0</ele>
        <time>2015-08-15T13:45:18Z</time>
      </trkpt>
      <trkpt lat="40.603850" lon="-4.921683">
        <ele>1526.0</ele>
        <time>2015-08-15T13:45:20Z</time>
      </trkpt>
      <trkpt lat="40.603800" lon="-4.921333">
        <ele>1521.0</ele>
        <time>2015-08-15T13:45:22Z</time>
      </trkpt>
      <trkpt lat="40.603733" lon="-4.920967">
        <ele>1516.0</ele>
        <time>2015-08-15T13:45:24Z</time>
      </trkpt>
      <trkpt lat="40.603667" lon="-4.920617">
        <ele>1512.0</ele>
        <time>2015-08-15T13:45:26Z</time>
      </trkpt>
      <trkpt lat="40.603600" lon="-4.920267">
        <ele>1507.0</ele>
        <time>2015-08-15T13:45:28Z</time>
      </trkpt>
      <trkpt lat="40.603517" lon="-4.919950">
        <ele>1503.0</ele>
        <time>2015-08-15T13:45:30Z</time>
      </trkpt>
      <trkpt lat="40.603450" lon="-4.919617">
        <ele>1499.0</ele>
        <time>2015-08-15T13:45:32Z</time>
      </trkpt>
      <trkpt lat="40.603400" lon="-4.919283">
        <ele>1494.0</ele>
        <time>2015-08-15T13:45:34Z</time>
      </trkpt>
      <trkpt lat="40.603333" lon="-4.918950">
        <ele>1488.0</ele>
        <time>2015-08-15T13:45:36Z</time>
      </trkpt>
      <trkpt lat="40.603267" lon="-4.918617">
        <ele>1483.0</ele>
        <time>2015-08-15T13:45:38Z</time>
      </trkpt>
      <trkpt lat="40.603217" lon="-4.918267">
        <ele>1478.0</ele>
        <time>2015-08-15T13:45:40Z</time>
      </trkpt>
      <trkpt lat="40.603133" lon="-4.917917">
        <ele>1473.0</ele>
        <time>2015-08-15T13:45:42Z</time>
      </trkpt>
      <trkpt lat="40.603083" lon="-4.917583">
        <ele>1469.0</ele>
        <time>2015-08-15T13:45:44Z</time>
      </trkpt>
      <trkpt lat="40.603050" lon="-4.917233">
        <ele>1463.0</ele>
        <time>2015-08-15T13:45:46Z</time>
      </trkpt>
      <trkpt lat="40.603017" lon="-4.916883">
        <ele>1458.0</ele>
        <time>2015-08-15T13:45:48Z</time>
      </trkpt>
      <trkpt lat="40.602983" lon="-4.916533">
        <ele>1453.0</ele>
        <time>2015-08-15T13:45:50Z</time>
      </trkpt>
      <trkpt lat="40.602917" lon="-4.916183">
        <ele>1448.0</ele>
        <time>2015-08-15T13:45:52Z</time>
      </trkpt>
      <trkpt lat="40.602867" lon="-4.915850">
        <ele>1443.0</ele>
        <time>2015-08-15T13:45:54Z</time>
      </trkpt>
      <trkpt lat="40.602800" lon="-4.915500">
        <ele>1438.0</ele>
        <time>2015-08-15T13:45:56Z</time>
      </trkpt>
      <trkpt lat="40.602733" lon="-4.915167">
        <ele>1432.0</ele>
        <time>2015-08-15T13:45:58Z</time>
      </trkpt>
      <trkpt lat="40.602683" lon="-4.914817">
        <ele>1424.0</ele>
        <time>2015-08-15T13:46:00Z</time>
      </trkpt>
      <trkpt lat="40.602667" lon="-4.914467">
        <ele>1419.0</ele>
        <time>2015-08-15T13:46:02Z</time>
      </trkpt>
      <trkpt lat="40.602650" lon="-4.914150">
        <ele>1415.0</ele>
        <time>2015-08-15T13:46:04Z</time>
      </trkpt>
      <trkpt lat="40.602600" lon="-4.913817">
        <ele>1408.0</ele>
        <time>2015-08-15T13:46:06Z</time>
      </trkpt>
      <trkpt lat="40.602533" lon="-4.913433">
        <ele>1403.0</ele>
        <time>2015-08-15T13:46:08Z</time>
      </trkpt>
      <trkpt lat="40.602483" lon="-4.913083">
        <ele>1403.0</ele>
        <time>2015-08-15T13:46:10Z</time>
      </trkpt>
      <trkpt lat="40.602433" lon="-4.912733">
        <ele>1402.0</ele>
        <time>2015-08-15T13:46:12Z</time>
      </trkpt>
      <trkpt lat="40.602383" lon="-4.912383">
        <ele>1399.0</ele>
        <time>2015-08-15T13:46:14Z</time>
      </trkpt>
      <trkpt lat="40.602300" lon="-4.912017">
        <ele>1396.0</ele>
        <time>2015-08-15T13:46:16Z</time>
      </trkpt>
      <trkpt lat="40.602167" lon="-4.911617">
        <ele>1394.0</ele>
        <time>2015-08-15T13:46:18Z</time>
      </trkpt>
      <trkpt lat="40.602050" lon="-4.911267">
        <ele>1395.0</ele>
        <time>2015-08-15T13:46:20Z</time>
      </trkpt>
      <trkpt lat="40.601967" lon="-4.910917">
        <ele>1391.0</ele>
        <time>2015-08-15T13:46:22Z</time>
      </trkpt>
      <trkpt lat="40.601933" lon="-4.910517">
        <ele>1385.0</ele>
        <time>2015-08-15T13:46:24Z</time>
      </trkpt>
      <trkpt lat="40.601900" lon="-4.910100">
        <ele>1384.0</ele>
        <time>2015-08-15T13:46:26Z</time>
      </trkpt>
      <trkpt lat="40.601883" lon="-4.909767">
        <ele>1389.0</ele>
        <time>2015-08-15T13:46:28Z</time>
      </trkpt>
      <trkpt lat="40.601850" lon="-4.909483">
        <ele>1390.0</ele>
        <time>2015-08-15T13:46:30Z</time>
      </trkpt>
      <trkpt lat="40.601733" lon="-4.909167">
        <ele>1388.0</ele>
        <time>2015-08-15T13:46:32Z</time>
      </trkpt>
      <trkpt lat="40.601533" lon="-4.908933">
        <ele>1387.0</ele>
        <time>2015-08-15T13:46:34Z</time>
      </trkpt>
      <trkpt lat="40.601333" lon="-4.908800">
        <ele>1388.0</ele>
        <time>2015-08-15T13:46:36Z</time>
      </trkpt>
      <trkpt lat="40.601150" lon="-4.908733">
        <ele>1390.0</ele>
        <time>2015-08-15T13:46:38Z</time>
      </trkpt>
      <trkpt lat="40.601017" lon="-4.908767">
        <ele>1388.0</ele>
        <time>2015-08-15T13:46:40Z</time>
      </trkpt>
      <trkpt lat="40.600917" lon="-4.908883">
        <ele>1385.0</ele>
        <time>2015-08-15T13:46:42Z</time>
      </trkpt>
      <trkpt lat="40.600883" lon="-4.908950">
        <ele>1386.0</ele>
        <time>2015-08-15T13:46:44Z</time>
      </trkpt>
      <trkpt lat="40.600883" lon="-4.908950">
        <ele>1384.0</ele>
        <time>2015-08-15T13:46:46Z</time>
      </trkpt>
      <trkpt lat="40.600950" lon="-4.908933">
        <ele>1379.0</ele>
        <time>2015-08-15T13:46:48Z</time>
      </trkpt>
      <trkpt lat="40.601083" lon="-4.908850">
        <ele>1377.0</ele>
        <time>2015-08-15T13:46:50Z</time>
      </trkpt>
      <trkpt lat="40.601167" lon="-4.908633">
        <ele>1378.0</ele>
        <time>2015-08-15T13:46:52Z</time>
      </trkpt>
      <trkpt lat="40.601217" lon="-4.908350">
        <ele>1379.0</ele>
        <time>2015-08-15T13:46:54Z</time>
      </trkpt>
      <trkpt lat="40.601217" lon="-4.908000">
        <ele>1382.0</ele>
        <time>2015-08-15T13:46:56Z</time>
      </trkpt>
      <trkpt lat="40.601183" lon="-4.907667">
        <ele>1386.0</ele>
        <time>2015-08-15T13:46:58Z</time>
      </trkpt>
      <trkpt lat="40.601050" lon="-4.907350">
        <ele>1386.0</ele>
        <time>2015-08-15T13:47:00Z</time>
      </trkpt>
      <trkpt lat="40.600867" lon="-4.907100">
        <ele>1389.0</ele>
        <time>2015-08-15T13:47:02Z</time>
      </trkpt>
      <trkpt lat="40.600650" lon="-4.906983">
        <ele>1392.0</ele>
        <time>2015-08-15T13:47:04Z</time>
      </trkpt>
      <trkpt lat="40.600450" lon="-4.906967">
        <ele>1394.0</ele>
        <time>2015-08-15T13:47:06Z</time>
      </trkpt>
      <trkpt lat="40.600350" lon="-4.907033">
        <ele>1390.0</ele>
        <time>2015-08-15T13:47:08Z</time>
      </trkpt>
      <trkpt lat="40.600333" lon="-4.907133">
        <ele>1387.0</ele>
        <time>2015-08-15T13:47:10Z</time>
      </trkpt>
      <trkpt lat="40.600383" lon="-4.907150">
        <ele>1386.0</ele>
        <time>2015-08-15T13:47:12Z</time>
      </trkpt>
      <trkpt lat="40.600450" lon="-4.907100">
        <ele>1382.0</ele>
        <time>2015-08-15T13:47:14Z</time>
      </trkpt>
      <trkpt lat="40.600550" lon="-4.906983">
        <ele>1377.0</ele>
        <time>2015-08-15T13:47:16Z</time>
      </trkpt>
      <trkpt lat="40.600717" lon="-4.906767">
        <ele>1374.0</ele>
        <time>2015-08-15T13:47:18Z</time>
      </trkpt>
      <trkpt lat="40.600850" lon="-4.906483">
        <ele>1375.0</ele>
        <time>2015-08-15T13:47:20Z</time>
      </trkpt>
      <trkpt lat="40.600950" lon="-4.906200">
        <ele>1379.0</ele>
        <time>2015-08-15T13:47:22Z</time>
      </trkpt>
      <trkpt lat="40.600983" lon="-4.905900">
        <ele>1380.0</ele>
        <time>2015-08-15T13:47:24Z</time>
      </trkpt>
      <trkpt lat="40.601000" lon="-4.905533">
        <ele>1376.0</ele>
        <time>2015-08-15T13:47:26Z</time>
      </trkpt>
      <trkpt lat="40.600917" lon="-4.905150">
        <ele>1374.0</ele>
        <time>2015-08-15T13:47:28Z</time>
      </trkpt>
      <trkpt lat="40.600717" lon="-4.904867">
        <ele>1372.0</ele>
        <time>2015-08-15T13:47:30Z</time>
      </trkpt>
      <trkpt lat="40.600500" lon="-4.904683">
        <ele>1371.0</ele>
        <time>2015-08-15T13:47:32Z</time>
      </trkpt>
      <trkpt lat="40.600283" lon="-4.904600">
        <ele>1369.0</ele>
        <time>2015-08-15T13:47:34Z</time>
      </trkpt>
      <trkpt lat="40.600133" lon="-4.904667">
        <ele>1367.0</ele>
        <time>2015-08-15T13:47:36Z</time>
      </trkpt>
      <trkpt lat="40.600083" lon="-4.904783">
        <ele>1366.0</ele>
        <time>2015-08-15T13:47:38Z</time>
      </trkpt>
      <trkpt lat="40.600117" lon="-4.904833">
        <ele>1366.0</ele>
        <time>2015-08-15T13:47:40Z</time>
      </trkpt>
      <trkpt lat="40.600183" lon="-4.904867">
        <ele>1364.0</ele>
        <time>2015-08-15T13:47:42Z</time>
      </trkpt>
      <trkpt lat="40.600300" lon="-4.904800">
        <ele>1363.0</ele>
        <time>2015-08-15T13:47:44Z</time>
      </trkpt>
      <trkpt lat="40.600400" lon="-4.904667">
        <ele>1363.0</ele>
        <time>2015-08-15T13:47:46Z</time>
      </trkpt>
      <trkpt lat="40.600500" lon="-4.904483">
        <ele>1362.0</ele>
        <time>2015-08-15T13:47:48Z</time>
      </trkpt>
      <trkpt lat="40.600600" lon="-4.904250">
        <ele>1359.0</ele>
        <time>2015-08-15T13:47:50Z</time>
      </trkpt>
      <trkpt lat="40.600683" lon="-4.903967">
        <ele>1358.0</ele>
        <time>2015-08-15T13:47:52Z</time>
      </trkpt>
      <trkpt lat="40.600733" lon="-4.903667">
        <ele>1355.0</ele>
        <time>2015-08-15T13:47:54Z</time>
      </trkpt>
      <trkpt lat="40.600767" lon="-4.903317">
        <ele>1350.0</ele>
        <time>2015-08-15T13:47:56Z</time>
      </trkpt>
      <trkpt lat="40.600817" lon="-4.902967">
        <ele>1349.0</ele>
        <time>2015-08-15T13:47:58Z</time>
      </trkpt>
      <trkpt lat="40.600867" lon="-4.902650">
        <ele>1347.0</ele>
        <time>2015-08-15T13:48:00Z</time>
      </trkpt>
      <trkpt lat="40.600933" lon="-4.902317">
        <ele>1343.0</ele>
        <time>2015-08-15T13:48:02Z</time>
      </trkpt>
      <trkpt lat="40.601050" lon="-4.901950">
        <ele>1342.0</ele>
        <time>2015-08-15T13:48:04Z</time>
      </trkpt>
      <trkpt lat="40.601133" lon="-4.901600">
        <ele>1344.0</ele>
        <time>2015-08-15T13:48:06Z</time>
      </trkpt>
      <trkpt lat="40.601167" lon="-4.901283">
        <ele>1349.0</ele>
        <time>2015-08-15T13:48:08Z</time>
      </trkpt>
      <trkpt lat="40.601100" lon="-4.900933">
        <ele>1353.0</ele>
        <time>2015-08-15T13:48:10Z</time>
      </trkpt>
      <trkpt lat="40.601000" lon="-4.900633">
        <ele>1358.0</ele>
        <time>2015-08-15T13:48:12Z</time>
      </trkpt>
      <trkpt lat="40.600867" lon="-4.900383">
        <ele>1358.0</ele>
        <time>2015-08-15T13:48:14Z</time>
      </trkpt>
      <trkpt lat="40.600683" lon="-4.900133">
        <ele>1359.0</ele>
        <time>2015-08-15T13:48:16Z</time>
      </trkpt>
      <trkpt lat="40.600467" lon="-4.900050">
        <ele>1359.0</ele>
        <time>2015-08-15T13:48:18Z</time>
      </trkpt>
      <trkpt lat="40.600283" lon="-4.900100">
        <ele>1358.0</ele>
        <time>2015-08-15T13:48:20Z</time>
      </trkpt>
      <trkpt lat="40.600217" lon="-4.900250">
        <ele>1357.0</ele>
        <time>2015-08-15T13:48:22Z</time>
      </trkpt>
      <trkpt lat="40.600267" lon="-4.900333">
        <ele>1358.0</ele>
        <time>2015-08-15T13:48:24Z</time>
      </trkpt>
      <trkpt lat="40.600350" lon="-4.900317">
        <ele>1358.0</ele>
        <time>2015-08-15T13:48:26Z</time>
      </trkpt>
      <trkpt lat="40.600483" lon="-4.900200">
        <ele>1357.0</ele>
        <time>2015-08-15T13:48:28Z</time>
      </trkpt>
      <trkpt lat="40.600617" lon="-4.900000">
        <ele>1359.0</ele>
        <time>2015-08-15T13:48:30Z</time>
      </trkpt>
      <trkpt lat="40.600700" lon="-4.899833">
        <ele>1366.0</ele>
        <time>2015-08-15T13:48:32Z</time>
      </trkpt>
      <trkpt lat="40.600767" lon="-4.899650">
        <ele>1369.0</ele>
        <time>2015-08-15T13:48:34Z</time>
      </trkpt>
      <trkpt lat="40.600783" lon="-4.899400">
        <ele>1369.0</ele>
        <time>2015-08-15T13:48:36Z</time>
      </trkpt>
      <trkpt lat="40.600683" lon="-4.899117">
        <ele>1369.0</ele>
        <time>2015-08-15T13:48:38Z</time>
      </trkpt>
      <trkpt lat="40.600517" lon="-4.898950">
        <ele>1372.0</ele>
        <time>2015-08-15T13:48:40Z</time>
      </trkpt>
      <trkpt lat="40.600333" lon="-4.898917">
        <ele>1373.0</ele>
        <time>2015-08-15T13:48:42Z</time>
      </trkpt>
      <trkpt lat="40.600200" lon="-4.898983">
        <ele>1373.0</ele>
        <time>2015-08-15T13:48:44Z</time>
      </trkpt>
      <trkpt lat="40.600167" lon="-4.899083">
        <ele>1377.0</ele>
        <time>2015-08-15T13:48:46Z</time>
      </trkpt>
      <trkpt lat="40.600217" lon="-4.899150">
        <ele>1381.0</ele>
        <time>2015-08-15T13:48:48Z</time>
      </trkpt>
      <trkpt lat="40.600283" lon="-4.899200">
        <ele>1385.0</ele>
        <time>2015-08-15T13:48:50Z</time>
      </trkpt>
      <trkpt lat="40.600350" lon="-4.899183">
        <ele>1388.0</ele>
        <time>2015-08-15T13:48:52Z</time>
      </trkpt>
      <trkpt lat="40.600467" lon="-4.899050">
        <ele>1388.0</ele>
        <time>2015-08-15T13:48:54Z</time>
      </trkpt>
      <trkpt lat="40.600567" lon="-4.898833">
        <ele>1388.0</ele>
        <time>2015-08-15T13:48:56Z</time>
      </trkpt>
      <trkpt lat="40.600633" lon="-4.898550">
        <ele>1391.0</ele>
        <time>2015-08-15T13:48:58Z</time>
      </trkpt>
      <trkpt lat="40.600650" lon="-4.898283">
        <ele>1399.0</ele>
        <time>2015-08-15T13:49:00Z</time>
      </trkpt>
      <trkpt lat="40.600600" lon="-4.898050">
        <ele>1404.0</ele>
        <time>2015-08-15T13:49:02Z</time>
      </trkpt>
      <trkpt lat="40.600433" lon="-4.897833">
        <ele>1407.0</ele>
        <time>2015-08-15T13:49:04Z</time>
      </trkpt>
      <trkpt lat="40.600217" lon="-4.897800">
        <ele>1410.0</ele>
        <time>2015-08-15T13:49:06Z</time>
      </trkpt>
      <trkpt lat="40.600050" lon="-4.897900">
        <ele>1416.0</ele>
        <time>2015-08-15T13:49:08Z</time>
      </trkpt>
      <trkpt lat="40.600000" lon="-4.898033">
        <ele>1422.0</ele>
        <time>2015-08-15T13:49:10Z</time>
      </trkpt>
      <trkpt lat="40.600000" lon="-4.898167">
        <ele>1426.0</ele>
        <time>2015-08-15T13:49:12Z</time>
      </trkpt>
      <trkpt lat="40.600033" lon="-4.898250">
        <ele>1430.0</ele>
        <time>2015-08-15T13:49:14Z</time>
      </trkpt>
      <trkpt lat="40.600117" lon="-4.898283">
        <ele>1432.0</ele>
        <time>2015-08-15T13:49:16Z</time>
      </trkpt>
      <trkpt lat="40.600250" lon="-4.898217">
        <ele>1437.0</ele>
        <time>2015-08-15T13:49:18Z</time>
      </trkpt>
      <trkpt lat="40.600333" lon="-4.898050">
        <ele>1440.0</ele>
        <time>2015-08-15T13:49:20Z</time>
      </trkpt>
      <trkpt lat="40.600433" lon="-4.897817">
        <ele>1441.0</ele>
        <time>2015-08-15T13:49:22Z</time>
      </trkpt>
      <trkpt lat="40.600517" lon="-4.897550">
        <ele>1447.0</ele>
        <time>2015-08-15T13:49:24Z</time>
      </trkpt>
      <trkpt lat="40.600483" lon="-4.897283">
        <ele>1452.0</ele>
        <time>2015-08-15T13:49:26Z</time>
      </trkpt>
      <trkpt lat="40.600367" lon="-4.897017">
        <ele>1455.0</ele>
        <time>2015-08-15T13:49:28Z</time>
      </trkpt>
      <trkpt lat="40.600183" lon="-4.896817">
        <ele>1457.0</ele>
        <time>2015-08-15T13:49:30Z</time>
      </trkpt>
      <trkpt lat="40.599950" lon="-4.896733">
        <ele>1461.0</ele>
        <time>2015-08-15T13:49:32Z</time>
      </trkpt>
      <trkpt lat="40.599750" lon="-4.896833">
        <ele>1464.0</ele>
        <time>2015-08-15T13:49:34Z</time>
      </trkpt>
      <trkpt lat="40.599633" lon="-4.896967">
        <ele>1471.0</ele>
        <time>2015-08-15T13:49:36Z</time>
      </trkpt>
      <trkpt lat="40.599567" lon="-4.897033">
        <ele>1478.0</ele>
        <time>2015-08-15T13:49:38Z</time>
      </trkpt>
      <trkpt lat="40.599583" lon="-4.897117">
        <ele>1479.0</ele>
        <time>2015-08-15T13:49:40Z</time>
      </trkpt>
      <trkpt lat="40.599633" lon="-4.897233">
        <ele>1483.0</ele>
        <time>2015-08-15T13:49:42Z</time>
      </trkpt>
      <trkpt lat="40.599767" lon="-4.897267">
        <ele>1486.0</ele>
        <time>2015-08-15T13:49:44Z</time>
      </trkpt>
      <trkpt lat="40.599933" lon="-4.897183">
        <ele>1488.0</ele>
        <time>2015-08-15T13:49:46Z</time>
      </trkpt>
      <trkpt lat="40.600083" lon="-4.897017">
        <ele>1492.0</ele>
        <time>2015-08-15T13:49:48Z</time>
      </trkpt>
      <trkpt lat="40.600183" lon="-4.896750">
        <ele>1496.0</ele>
        <time>2015-08-15T13:49:50Z</time>
      </trkpt>
      <trkpt lat="40.600200" lon="-4.896467">
        <ele>1502.0</ele>
        <time>2015-08-15T13:49:52Z</time>
      </trkpt>
      <trkpt lat="40.600100" lon="-4.896200">
        <ele>1505.0</ele>
        <time>2015-08-15T13:49:54Z</time>
      </trkpt>
      <trkpt lat="40.599917" lon="-4.895983">
        <ele>1508.0</ele>
        <time>2015-08-15T13:49:56Z</time>
      </trkpt>
      <trkpt lat="40.599700" lon="-4.895917">
        <ele>1513.0</ele>
        <time>2015-08-15T13:49:58Z</time>
      </trkpt>
      <trkpt lat="40.599517" lon="-4.896017">
        <ele>1517.0</ele>
        <time>2015-08-15T13:50:00Z</time>
      </trkpt>
      <trkpt lat="40.599433" lon="-4.896200">
        <ele>1522.0</ele>
        <time>2015-08-15T13:50:02Z</time>
      </trkpt>
      <trkpt lat="40.599433" lon="-4.896367">
        <ele>1527.0</ele>
        <time>2015-08-15T13:50:04Z</time>
      </trkpt>
      <trkpt lat="40.599500" lon="-4.896500">
        <ele>1532.0</ele>
        <time>2015-08-15T13:50:06Z</time>
      </trkpt>
      <trkpt lat="40.599633" lon="-4.896533">
        <ele>1535.0</ele>
        <time>2015-08-15T13:50:08Z</time>
      </trkpt>
      <trkpt lat="40.599817" lon="-4.896467">
        <ele>1540.0</ele>
        <time>2015-08-15T13:50:10Z</time>
      </trkpt>
      <trkpt lat="40.599967" lon="-4.896300">
        <ele>1547.0</ele>
        <time>2015-08-15T13:50:12Z</time>
      </trkpt>
      <trkpt lat="40.600067" lon="-4.896033">
        <ele>1553.0</ele>
        <time>2015-08-15T13:50:14Z</time>
      </trkpt>
      <trkpt lat="40.600100" lon="-4.895733">
        <ele>1558.0</ele>
        <time>2015-08-15T13:50:16Z</time>
      </trkpt>
      <trkpt lat="40.600050" lon="-4.895400">
        <ele>1563.0</ele>
        <time>2015-08-15T13:50:18Z</time>
      </trkpt>
      <trkpt lat="40.599883" lon="-4.895117">
        <ele>1567.0</ele>
        <time>2015-08-15T13:50:20Z</time>
      </trkpt>
      <trkpt lat="40.599650" lon="-4.895017">
        <ele>1573.0</ele>
        <time>2015-08-15T13:50:22Z</time>
      </trkpt>
      <trkpt lat="40.599483" lon="-4.895067">
        <ele>1581.0</ele>
        <time>2015-08-15T13:50:24Z</time>
      </trkpt>
      <trkpt lat="40.599400" lon="-4.895150">
        <ele>1588.0</ele>
        <time>2015-08-15T13:50:26Z</time>
      </trkpt>
      <trkpt lat="40.599367" lon="-4.895283">
        <ele>1590.0</ele>
        <time>2015-08-15T13:50:28Z</time>
      </trkpt>
      <trkpt lat="40.599417" lon="-4.895433">
        <ele>1596.0</ele>
        <time>2015-08-15T13:50:30Z</time>
      </trkpt>
      <trkpt lat="40.599517" lon="-4.895483">
        <ele>1602.0</ele>
        <time>2015-08-15T13:50:32Z</time>
      </trkpt>
      <trkpt lat="40.599650" lon="-4.895483">
        <ele>1605.0</ele>
        <time>2015-08-15T13:50:34Z</time>
      </trkpt>
      <trkpt lat="40.599800" lon="-4.895350">
        <ele>1608.0</ele>
        <time>2015-08-15T13:50:36Z</time>
      </trkpt>
      <trkpt lat="40.599867" lon="-4.895083">
        <ele>1616.0</ele>
        <time>2015-08-15T13:50:38Z</time>
      </trkpt>
      <trkpt lat="40.599900" lon="-4.894817">
        <ele>1622.0</ele>
        <time>2015-08-15T13:50:40Z</time>
      </trkpt>
      <trkpt lat="40.599883" lon="-4.894517">
        <ele>1626.0</ele>
        <time>2015-08-15T13:50:42Z</time>
      </trkpt>
      <trkpt lat="40.599800" lon="-4.894217">
        <ele>1630.0</ele>
        <time>2015-08-15T13:50:44Z</time>
      </trkpt>
      <trkpt lat="40.599633" lon="-4.893950">
        <ele>1632.0</ele>
        <time>2015-08-15T13:50:46Z</time>
      </trkpt>
      <trkpt lat="40.599417" lon="-4.893767">
        <ele>1635.0</ele>
        <time>2015-08-15T13:50:48Z</time>
      </trkpt>
      <trkpt lat="40.599167" lon="-4.893700">
        <ele>1640.0</ele>
        <time>2015-08-15T13:50:50Z</time>
      </trkpt>
      <trkpt lat="40.599033" lon="-4.893767">
        <ele>1646.0</ele>
        <time>2015-08-15T13:50:52Z</time>
      </trkpt>
      <trkpt lat="40.599017" lon="-4.893883">
        <ele>1650.0</ele>
        <time>2015-08-15T13:50:54Z</time>
      </trkpt>
      <trkpt lat="40.599067" lon="-4.893983">
        <ele>1655.0</ele>
        <time>2015-08-15T13:50:56Z</time>
      </trkpt>
      <trkpt lat="40.599183" lon="-4.893983">
        <ele>1660.0</ele>
        <time>2015-08-15T13:50:58Z</time>
      </trkpt>
      <trkpt lat="40.599283" lon="-4.893850">
        <ele>1667.0</ele>
        <time>2015-08-15T13:51:00Z</time>
      </trkpt>
      <trkpt lat="40.599383" lon="-4.893633">
        <ele>1672.0</ele>
        <time>2015-08-15T13:51:02Z</time>
      </trkpt>
      <trkpt lat="40.599400" lon="-4.893300">
        <ele>1678.0</ele>
        <time>2015-08-15T13:51:04Z</time>
      </trkpt>
      <trkpt lat="40.599333" lon="-4.892967">
        <ele>1684.0</ele>
        <time>2015-08-15T13:51:06Z</time>
      </trkpt>
      <trkpt lat="40.599233" lon="-4.892667">
        <ele>1688.0</ele>
        <time>2015-08-15T13:51:08Z</time>
      </trkpt>
      <trkpt lat="40.599067" lon="-4.892383">
        <ele>1692.0</ele>
        <time>2015-08-15T13:51:10Z</time>
      </trkpt>
      <trkpt lat="40.598867" lon="-4.892217">
        <ele>1696.0</ele>
        <time>2015-08-15T13:51:12Z</time>
      </trkpt>
      <trkpt lat="40.598650" lon="-4.892183">
        <ele>1700.0</ele>
        <time>2015-08-15T13:51:14Z</time>
      </trkpt>
      <trkpt lat="40.598533" lon="-4.892267">
        <ele>1704.0</ele>
        <time>2015-08-15T13:51:16Z</time>
      </trkpt>
      <trkpt lat="40.598500" lon="-4.892350">
        <ele>1709.0</ele>
        <time>2015-08-15T13:51:18Z</time>
      </trkpt>
      <trkpt lat="40.598567" lon="-4.892400">
        <ele>1712.0</ele>
        <time>2015-08-15T13:51:20Z</time>
      </trkpt>
      <trkpt lat="40.598700" lon="-4.892367">
        <ele>1714.0</ele>
        <time>2015-08-15T13:51:22Z</time>
      </trkpt>
      <trkpt lat="40.598833" lon="-4.892200">
        <ele>1719.0</ele>
        <time>2015-08-15T13:51:24Z</time>
      </trkpt>
      <trkpt lat="40.598917" lon="-4.891950">
        <ele>1727.0</ele>
        <time>2015-08-15T13:51:26Z</time>
      </trkpt>
      <trkpt lat="40.598933" lon="-4.891667">
        <ele>1731.0</ele>
        <time>2015-08-15T13:51:28Z</time>
      </trkpt>
      <trkpt lat="40.598883" lon="-4.891350">
        <ele>1735.0</ele>
        <time>2015-08-15T13:51:30Z</time>
      </trkpt>
      <trkpt lat="40.598750" lon="-4.891117">
        <ele>1740.0</ele>
        <time>2015-08-15T13:51:32Z</time>
      </trkpt>
      <trkpt lat="40.598600" lon="-4.890950">
        <ele>1741.0</ele>
        <time>2015-08-15T13:51:34Z</time>
      </trkpt>
      <trkpt lat="40.598433" lon="-4.890783">
        <ele>1741.0</ele>
        <time>2015-08-15T13:51:36Z</time>
      </trkpt>
      <trkpt lat="40.598217" lon="-4.890750">
        <ele>1739.0</ele>
        <time>2015-08-15T13:51:38Z</time>
      </trkpt>
      <trkpt lat="40.598017" lon="-4.890883">
        <ele>1740.0</ele>
        <time>2015-08-15T13:51:40Z</time>
      </trkpt>
      <trkpt lat="40.597900" lon="-4.891000">
        <ele>1749.0</ele>
        <time>2015-08-15T13:51:42Z</time>
      </trkpt>
      <trkpt lat="40.597850" lon="-4.891067">
        <ele>1757.0</ele>
        <time>2015-08-15T13:51:44Z</time>
      </trkpt>
      <trkpt lat="40.597850" lon="-4.891150">
        <ele>1758.0</ele>
        <time>2015-08-15T13:51:46Z</time>
      </trkpt>
      <trkpt lat="40.597933" lon="-4.891233">
        <ele>1759.0</ele>
        <time>2015-08-15T13:51:48Z</time>
      </trkpt>
      <trkpt lat="40.598083" lon="-4.891217">
        <ele>1762.0</ele>
        <time>2015-08-15T13:51:50Z</time>
      </trkpt>
      <trkpt lat="40.598233" lon="-4.891067">
        <ele>1768.0</ele>
        <time>2015-08-15T13:51:52Z</time>
      </trkpt>
      <trkpt lat="40.598317" lon="-4.890850">
        <ele>1776.0</ele>
        <time>2015-08-15T13:51:54Z</time>
      </trkpt>
      <trkpt lat="40.598317" lon="-4.890600">
        <ele>1780.0</ele>
        <time>2015-08-15T13:51:56Z</time>
      </trkpt>
      <trkpt lat="40.598300" lon="-4.890317">
        <ele>1780.0</ele>
        <time>2015-08-15T13:51:58Z</time>
      </trkpt>
      <trkpt lat="40.598250" lon="-4.890050">
        <ele>1782.0</ele>
        <time>2015-08-15T13:52:00Z</time>
      </trkpt>
      <trkpt lat="40.598133" lon="-4.889800">
        <ele>1784.0</ele>
        <time>2015-08-15T13:52:02Z</time>
      </trkpt>
      <trkpt lat="40.597950" lon="-4.889667">
        <ele>1784.0</ele>
        <time>2015-08-15T13:52:04Z</time>
      </trkpt>
      <trkpt lat="40.597750" lon="-4.889667">
        <ele>1784.0</ele>
        <time>2015-08-15T13:52:06Z</time>
      </trkpt>
      <trkpt lat="40.597583" lon="-4.889750">
        <ele>1788.0</ele>
        <time>2015-08-15T13:52:08Z</time>
      </trkpt>
      <trkpt lat="40.597483" lon="-4.889867">
        <ele>1792.0</ele>
        <time>2015-08-15T13:52:10Z</time>
      </trkpt>
      <trkpt lat="40.597467" lon="-4.889983">
        <ele>1799.0</ele>
        <time>2015-08-15T13:52:12Z</time>
      </trkpt>
      <trkpt lat="40.597533" lon="-4.890017">
        <ele>1805.0</ele>
        <time>2015-08-15T13:52:14Z</time>
      </trkpt>
      <trkpt lat="40.597617" lon="-4.889983">
        <ele>1810.0</ele>
        <time>2015-08-15T13:52:16Z</time>
      </trkpt>
      <trkpt lat="40.597750" lon="-4.889867">
        <ele>1812.0</ele>
        <time>2015-08-15T13:52:18Z</time>
      </trkpt>
      <trkpt lat="40.597933" lon="-4.889650">
        <ele>1816.0</ele>
        <time>2015-08-15T13:52:20Z</time>
      </trkpt>
      <trkpt lat="40.598017" lon="-4.889433">
        <ele>1827.0</ele>
        <time>2015-08-15T13:52:22Z</time>
      </trkpt>
      <trkpt lat="40.598083" lon="-4.889267">
        <ele>1831.0</ele>
        <time>2015-08-15T13:52:24Z</time>
      </trkpt>
      <trkpt lat="40.598183" lon="-4.889083">
        <ele>1829.0</ele>
        <time>2015-08-15T13:52:26Z</time>
      </trkpt>
      <trkpt lat="40.598333" lon="-4.888850">
        <ele>1832.0</ele>
        <time>2015-08-15T13:52:28Z</time>
      </trkpt>
      <trkpt lat="40.598383" lon="-4.888500">
        <ele>1834.0</ele>
        <time>2015-08-15T13:52:30Z</time>
      </trkpt>
      <trkpt lat="40.598317" lon="-4.888117">
        <ele>1838.0</ele>
        <time>2015-08-15T13:52:32Z</time>
      </trkpt>
      <trkpt lat="40.598200" lon="-4.887817">
        <ele>1843.0</ele>
        <time>2015-08-15T13:52:34Z</time>
      </trkpt>
      <trkpt lat="40.598033" lon="-4.887567">
        <ele>1844.0</ele>
        <time>2015-08-15T13:52:36Z</time>
      </trkpt>
      <trkpt lat="40.597800" lon="-4.887417">
        <ele>1842.0</ele>
        <time>2015-08-15T13:52:38Z</time>
      </trkpt>
      <trkpt lat="40.597600" lon="-4.887417">
        <ele>1839.0</ele>
        <time>2015-08-15T13:52:40Z</time>
      </trkpt>
      <trkpt lat="40.597417" lon="-4.887517">
        <ele>1835.0</ele>
        <time>2015-08-15T13:52:42Z</time>
      </trkpt>
      <trkpt lat="40.597283" lon="-4.887667">
        <ele>1834.0</ele>
        <time>2015-08-15T13:52:44Z</time>
      </trkpt>
      <trkpt lat="40.597217" lon="-4.887800">
        <ele>1836.0</ele>
        <time>2015-08-15T13:52:46Z</time>
      </trkpt>
      <trkpt lat="40.597200" lon="-4.887917">
        <ele>1837.0</ele>
        <time>2015-08-15T13:52:48Z</time>
      </trkpt>
      <trkpt lat="40.597117" lon="-4.888050">
        <ele>1840.0</ele>
        <time>2015-08-15T13:52:50Z</time>
      </trkpt>
      <trkpt lat="40.597067" lon="-4.888100">
        <ele>1847.0</ele>
        <time>2015-08-15T13:52:52Z</time>
      </trkpt>
      <trkpt lat="40.597100" lon="-4.888117">
        <ele>1848.0</ele>
        <time>2015-08-15T13:52:54Z</time>
      </trkpt>
      <trkpt lat="40.597200" lon="-4.888067">
        <ele>1848.0</ele>
        <time>2015-08-15T13:52:56Z</time>
      </trkpt>
      <trkpt lat="40.597300" lon="-4.887917">
        <ele>1851.0</ele>
        <time>2015-08-15T13:52:58Z</time>
      </trkpt>
      <trkpt lat="40.597383" lon="-4.887700">
        <ele>1850.0</ele>
        <time>2015-08-15T13:53:00Z</time>
      </trkpt>
      <trkpt lat="40.597467" lon="-4.887433">
        <ele>1848.0</ele>
        <time>2015-08-15T13:53:02Z</time>
      </trkpt>
      <trkpt lat="40.597533" lon="-4.887133">
        <ele>1848.0</ele>
        <time>2015-08-15T13:53:04Z</time>
      </trkpt>
      <trkpt lat="40.597550" lon="-4.886817">
        <ele>1849.0</ele>
        <time>2015-08-15T13:53:06Z</time>
      </trkpt>
      <trkpt lat="40.597483" lon="-4.886500">
        <ele>1852.0</ele>
        <time>2015-08-15T13:53:08Z</time>
      </trkpt>
      <trkpt lat="40.597333" lon="-4.886267">
        <ele>1853.0</ele>
        <time>2015-08-15T13:53:10Z</time>
      </trkpt>
      <trkpt lat="40.597117" lon="-4.886100">
        <ele>1854.0</ele>
        <time>2015-08-15T13:53:12Z</time>
      </trkpt>
      <trkpt lat="40.596900" lon="-4.886033">
        <ele>1855.0</ele>
        <time>2015-08-15T13:53:14Z</time>
      </trkpt>
      <trkpt lat="40.596733" lon="-4.886083">
        <ele>1852.0</ele>
        <time>2015-08-15T13:53:16Z</time>
      </trkpt>
      <trkpt lat="40.596583" lon="-4.886200">
        <ele>1850.0</ele>
        <time>2015-08-15T13:53:18Z</time>
      </trkpt>
      <trkpt lat="40.596517" lon="-4.886383">
        <ele>1852.0</ele>
        <time>2015-08-15T13:53:20Z</time>
      </trkpt>
      <trkpt lat="40.596550" lon="-4.886533">
        <ele>1854.0</ele>
        <time>2015-08-15T13:53:22Z</time>
      </trkpt>
      <trkpt lat="40.596617" lon="-4.886667">
        <ele>1856.0</ele>
        <time>2015-08-15T13:53:24Z</time>
      </trkpt>
      <trkpt lat="40.596717" lon="-4.886717">
        <ele>1860.0</ele>
        <time>2015-08-15T13:53:26Z</time>
      </trkpt>
      <trkpt lat="40.596817" lon="-4.886750">
        <ele>1861.0</ele>
        <time>2015-08-15T13:53:28Z</time>
      </trkpt>
      <trkpt lat="40.596950" lon="-4.886767">
        <ele>1862.0</ele>
        <time>2015-08-15T13:53:30Z</time>
      </trkpt>
      <trkpt lat="40.597083" lon="-4.886717">
        <ele>1867.0</ele>
        <time>2015-08-15T13:53:32Z</time>
      </trkpt>
      <trkpt lat="40.597167" lon="-4.886600">
        <ele>1872.0</ele>
        <time>2015-08-15T13:53:34Z</time>
      </trkpt>
      <trkpt lat="40.597283" lon="-4.886433">
        <ele>1874.0</ele>
        <time>2015-08-15T13:53:36Z</time>
      </trkpt>
      <trkpt lat="40.597383" lon="-4.886250">
        <ele>1878.0</ele>
        <time>2015-08-15T13:53:38Z</time>
      </trkpt>
      <trkpt lat="40.597417" lon="-4.886050">
        <ele>1879.0</ele>
        <time>2015-08-15T13:53:40Z</time>
      </trkpt>
      <trkpt lat="40.597417" lon="-4.885800">
        <ele>1875.0</ele>
        <time>2015-08-15T13:53:42Z</time>
      </trkpt>
      <trkpt lat="40.597333" lon="-4.885483">
        <ele>1871.0</ele>
        <time>2015-08-15T13:53:44Z</time>
      </trkpt>
      <trkpt lat="40.597200" lon="-4.885183">
        <ele>1873.0</ele>
        <time>2015-08-15T13:53:46Z</time>
      </trkpt>
      <trkpt lat="40.597067" lon="-4.884967">
        <ele>1874.0</ele>
        <time>2015-08-15T13:53:48Z</time>
      </trkpt>
      <trkpt lat="40.596900" lon="-4.884817">
        <ele>1870.0</ele>
        <time>2015-08-15T13:53:50Z</time>
      </trkpt>
      <trkpt lat="40.596667" lon="-4.884717">
        <ele>1868.0</ele>
        <time>2015-08-15T13:53:52Z</time>
      </trkpt>
      <trkpt lat="40.596467" lon="-4.884733">
        <ele>1870.0</ele>
        <time>2015-08-15T13:53:54Z</time>
      </trkpt>
      <trkpt lat="40.596317" lon="-4.884850">
        <ele>1873.0</ele>
        <time>2015-08-15T13:53:56Z</time>
      </trkpt>
      <trkpt lat="40.596250" lon="-4.885017">
        <ele>1876.0</ele>
        <time>2015-08-15T13:53:58Z</time>
      </trkpt>
      <trkpt lat="40.596267" lon="-4.885167">
        <ele>1880.0</ele>
        <time>2015-08-15T13:54:00Z</time>
      </trkpt>
      <trkpt lat="40.596333" lon="-4.885217">
        <ele>1886.0</ele>
        <time>2015-08-15T13:54:02Z</time>
      </trkpt>
      <trkpt lat="40.596400" lon="-4.885250">
        <ele>1889.0</ele>
        <time>2015-08-15T13:54:04Z</time>
      </trkpt>
      <trkpt lat="40.596483" lon="-4.885250">
        <ele>1890.0</ele>
        <time>2015-08-15T13:54:06Z</time>
      </trkpt>
      <trkpt lat="40.596600" lon="-4.885167">
        <ele>1889.0</ele>
        <time>2015-08-15T13:54:08Z</time>
      </trkpt>
      <trkpt lat="40.596700" lon="-4.885000">
        <ele>1891.0</ele>
        <time>2015-08-15T13:54:10Z</time>
      </trkpt>
      <trkpt lat="40.596733" lon="-4.884767">
        <ele>1890.0</ele>
        <time>2015-08-15T13:54:12Z</time>
      </trkpt>
      <trkpt lat="40.596750" lon="-4.884483">
        <ele>1891.0</ele>
        <time>2015-08-15T13:54:14Z</time>
      </trkpt>
      <trkpt lat="40.596717" lon="-4.884217">
        <ele>1894.0</ele>
        <time>2015-08-15T13:54:16Z</time>
      </trkpt>
      <trkpt lat="40.596617" lon="-4.883950">
        <ele>1895.0</ele>
        <time>2015-08-15T13:54:18Z</time>
      </trkpt>
      <trkpt lat="40.596450" lon="-4.883733">
        <ele>1895.0</ele>
        <time>2015-08-15T13:54:20Z</time>
      </trkpt>
      <trkpt lat="40.596233" lon="-4.883633">
        <ele>1893.0</ele>
        <time>2015-08-15T13:54:22Z</time>
      </trkpt>
      <trkpt lat="40.596017" lon="-4.883633">
        <ele>1892.0</ele>
        <time>2015-08-15T13:54:24Z</time>
      </trkpt>
      <trkpt lat="40.595833" lon="-4.883717">
        <ele>1895.0</ele>
        <time>2015-08-15T13:54:26Z</time>
      </trkpt>
      <trkpt lat="40.595700" lon="-4.883833">
        <ele>1898.0</ele>
        <time>2015-08-15T13:54:28Z</time>
      </trkpt>
      <trkpt lat="40.595617" lon="-4.883967">
        <ele>1899.0</ele>
        <time>2015-08-15T13:54:30Z</time>
      </trkpt>
      <trkpt lat="40.595600" lon="-4.884133">
        <ele>1900.0</ele>
        <time>2015-08-15T13:54:32Z</time>
      </trkpt>
      <trkpt lat="40.595650" lon="-4.884233">
        <ele>1904.0</ele>
        <time>2015-08-15T13:54:34Z</time>
      </trkpt>
      <trkpt lat="40.595700" lon="-4.884267">
        <ele>1907.0</ele>
        <time>2015-08-15T13:54:36Z</time>
      </trkpt>
      <trkpt lat="40.595817" lon="-4.884267">
        <ele>1909.0</ele>
        <time>2015-08-15T13:54:38Z</time>
      </trkpt>
      <trkpt lat="40.595967" lon="-4.884200">
        <ele>1915.0</ele>
        <time>2015-08-15T13:54:40Z</time>
      </trkpt>
      <trkpt lat="40.596067" lon="-4.884117">
        <ele>1921.0</ele>
        <time>2015-08-15T13:54:42Z</time>
      </trkpt>
      <trkpt lat="40.596183" lon="-4.883950">
        <ele>1924.0</ele>
        <time>2015-08-15T13:54:44Z</time>
      </trkpt>
      <trkpt lat="40.596250" lon="-4.883700">
        <ele>1927.0</ele>
        <time>2015-08-15T13:54:46Z</time>
      </trkpt>
      <trkpt lat="40.596250" lon="-4.883417">
        <ele>1932.0</ele>
        <time>2015-08-15T13:54:48Z</time>
      </trkpt>
      <trkpt lat="40.596167" lon="-4.883133">
        <ele>1933.0</ele>
        <time>2015-08-15T13:54:50Z</time>
      </trkpt>
      <trkpt lat="40.596017" lon="-4.882883">
        <ele>1932.0</ele>
        <time>2015-08-15T13:54:52Z</time>
      </trkpt>
      <trkpt lat="40.595833" lon="-4.882700">
        <ele>1932.0</ele>
        <time>2015-08-15T13:54:54Z</time>
      </trkpt>
      <trkpt lat="40.595633" lon="-4.882583">
        <ele>1932.0</ele>
        <time>2015-08-15T13:54:56Z</time>
      </trkpt>
      <trkpt lat="40.595433" lon="-4.882550">
        <ele>1933.0</ele>
        <time>2015-08-15T13:54:58Z</time>
      </trkpt>
      <trkpt lat="40.595283" lon="-4.882600">
        <ele>1934.0</ele>
        <time>2015-08-15T13:55:00Z</time>
      </trkpt>
      <trkpt lat="40.595133" lon="-4.882633">
        <ele>1939.0</ele>
        <time>2015-08-15T13:55:02Z</time>
      </trkpt>
      <trkpt lat="40.595000" lon="-4.882700">
        <ele>1942.0</ele>
        <time>2015-08-15T13:55:04Z</time>
      </trkpt>
      <trkpt lat="40.594933" lon="-4.882817">
        <ele>1945.0</ele>
        <time>2015-08-15T13:55:06Z</time>
      </trkpt>
      <trkpt lat="40.594933" lon="-4.882950">
        <ele>1952.0</ele>
        <time>2015-08-15T13:55:08Z</time>
      </trkpt>
      <trkpt lat="40.595017" lon="-4.883000">
        <ele>1958.0</ele>
        <time>2015-08-15T13:55:10Z</time>
      </trkpt>
      <trkpt lat="40.595167" lon="-4.882983">
        <ele>1963.0</ele>
        <time>2015-08-15T13:55:12Z</time>
      </trkpt>
      <trkpt lat="40.595300" lon="-4.882833">
        <ele>1969.0</ele>
        <time>2015-08-15T13:55:14Z</time>
      </trkpt>
      <trkpt lat="40.595417" lon="-4.882583">
        <ele>1976.0</ele>
        <time>2015-08-15T13:55:16Z</time>
      </trkpt>
      <trkpt lat="40.595467" lon="-4.882317">
        <ele>1982.0</ele>
        <time>2015-08-15T13:55:18Z</time>
      </trkpt>
      <trkpt lat="40.595433" lon="-4.882033">
        <ele>1985.0</ele>
        <time>2015-08-15T13:55:20Z</time>
      </trkpt>
      <trkpt lat="40.595300" lon="-4.881733">
        <ele>1985.0</ele>
        <time>2015-08-15T13:55:22Z</time>
      </trkpt>
      <trkpt lat="40.595083" lon="-4.881500">
        <ele>1984.0</ele>
        <time>2015-08-15T13:55:24Z</time>
      </trkpt>
      <trkpt lat="40.594867" lon="-4.881383">
        <ele>1986.0</ele>
        <time>2015-08-15T13:55:26Z</time>
      </trkpt>
      <trkpt lat="40.594683" lon="-4.881400">
        <ele>1987.0</ele>
        <time>2015-08-15T13:55:28Z</time>
      </trkpt>
      <trkpt lat="40.594567" lon="-4.881517">
        <ele>1988.0</ele>
        <time>2015-08-15T13:55:30Z</time>
      </trkpt>
      <trkpt lat="40.594500" lon="-4.881633">
        <ele>1995.0</ele>
        <time>2015-08-15T13:55:32Z</time>
      </trkpt>
      <trkpt lat="40.594483" lon="-4.881700">
        <ele>2001.0</ele>
        <time>2015-08-15T13:55:34Z</time>
      </trkpt>
      <trkpt lat="40.594550" lon="-4.881783">
        <ele>2006.0</ele>
        <time>2015-08-15T13:55:36Z</time>
      </trkpt>
      <trkpt lat="40.594683" lon="-4.881767">
        <ele>2014.0</ele>
        <time>2015-08-15T13:55:38Z</time>
      </trkpt>
      <trkpt lat="40.594800" lon="-4.881650">
        <ele>2023.0</ele>
        <time>2015-08-15T13:55:40Z</time>
      </trkpt>
      <trkpt lat="40.594900" lon="-4.881483">
        <ele>2030.0</ele>
        <time>2015-08-15T13:55:42Z</time>
      </trkpt>
      <trkpt lat="40.594983" lon="-4.881217">
        <ele>2034.0</ele>
        <time>2015-08-15T13:55:44Z</time>
      </trkpt>
      <trkpt lat="40.594983" lon="-4.880883">
        <ele>2037.0</ele>
        <time>2015-08-15T13:55:46Z</time>
      </trkpt>
      <trkpt lat="40.594867" lon="-4.880550">
        <ele>2041.0</ele>
        <time>2015-08-15T13:55:48Z</time>
      </trkpt>
      <trkpt lat="40.594717" lon="-4.880300">
        <ele>2044.0</ele>
        <time>2015-08-15T13:55:50Z</time>
      </trkpt>
      <trkpt lat="40.594550" lon="-4.880117">
        <ele>2044.0</ele>
        <time>2015-08-15T13:55:52Z</time>
      </trkpt>
      <trkpt lat="40.594317" lon="-4.880017">
        <ele>2042.0</ele>
        <time>2015-08-15T13:55:54Z</time>
      </trkpt>
      <trkpt lat="40.594100" lon="-4.879983">
        <ele>2043.0</ele>
        <time>2015-08-15T13:55:56Z</time>
      </trkpt>
      <trkpt lat="40.593933" lon="-4.880067">
        <ele>2043.0</ele>
        <time>2015-08-15T13:55:58Z</time>
      </trkpt>
      <trkpt lat="40.593833" lon="-4.880200">
        <ele>2044.0</ele>
        <time>2015-08-15T13:56:00Z</time>
      </trkpt>
      <trkpt lat="40.593833" lon="-4.880383">
        <ele>2049.0</ele>
        <time>2015-08-15T13:56:02Z</time>
      </trkpt>
      <trkpt lat="40.593883" lon="-4.880483">
        <ele>2060.0</ele>
        <time>2015-08-15T13:56:04Z</time>
      </trkpt>
      <trkpt lat="40.593967" lon="-4.880500">
        <ele>2069.0</ele>
        <time>2015-08-15T13:56:06Z</time>
      </trkpt>
      <trkpt lat="40.594100" lon="-4.880400">
        <ele>2075.0</ele>
        <time>2015-08-15T13:56:08Z</time>
      </trkpt>
      <trkpt lat="40.594200" lon="-4.880150">
        <ele>2083.0</ele>
        <time>2015-08-15T13:56:10Z</time>
      </trkpt>
      <trkpt lat="40.594283" lon="-4.879900">
        <ele>2093.0</ele>
        <time>2015-08-15T13:56:12Z</time>
      </trkpt>
      <trkpt lat="40.594283" lon="-4.879617">
        <ele>2098.0</ele>
        <time>2015-08-15T13:56:14Z</time>
      </trkpt>
      <trkpt lat="40.594233" lon="-4.879317">
        <ele>2100.0</ele>
        <time>2015-08-15T13:56:16Z</time>
      </trkpt>
      <trkpt lat="40.594117" lon="-4.879067">
        <ele>2101.0</ele>
        <time>2015-08-15T13:56:18Z</time>
      </trkpt>
      <trkpt lat="40.593933" lon="-4.878900">
        <ele>2100.0</ele>
        <time>2015-08-15T13:56:20Z</time>
      </trkpt>
      <trkpt lat="40.593717" lon="-4.878867">
        <ele>2099.0</ele>
        <time>2015-08-15T13:56:22Z</time>
      </trkpt>
      <trkpt lat="40.593550" lon="-4.878983">
        <ele>2099.0</ele>
        <time>2015-08-15T13:56:24Z</time>
      </trkpt>
      <trkpt lat="40.593450" lon="-4.879150">
        <ele>2102.0</ele>
        <time>2015-08-15T13:56:26Z</time>
      </trkpt>
      <trkpt lat="40.593417" lon="-4.879300">
        <ele>2109.0</ele>
        <time>2015-08-15T13:56:28Z</time>
      </trkpt>
      <trkpt lat="40.593483" lon="-4.879383">
        <ele>2117.0</ele>
        <time>2015-08-15T13:56:30Z</time>
      </trkpt>
      <trkpt lat="40.593567" lon="-4.879383">
        <ele>2125.0</ele>
        <time>2015-08-15T13:56:32Z</time>
      </trkpt>
      <trkpt lat="40.593700" lon="-4.879333">
        <ele>2130.0</ele>
        <time>2015-08-15T13:56:34Z</time>
      </trkpt>
      <trkpt lat="40.593883" lon="-4.879283">
        <ele>2139.0</ele>
        <time>2015-08-15T13:56:36Z</time>
      </trkpt>
      <trkpt lat="40.594033" lon="-4.879233">
        <ele>2150.0</ele>
        <time>2015-08-15T13:56:38Z</time>
      </trkpt>
      <trkpt lat="40.594150" lon="-4.879117">
        <ele>2157.0</ele>
        <time>2015-08-15T13:56:40Z</time>
      </trkpt>
      <trkpt lat="40.594250" lon="-4.878900">
        <ele>2160.0</ele>
        <time>2015-08-15T13:56:42Z</time>
      </trkpt>
      <trkpt lat="40.594317" lon="-4.878633">
        <ele>2164.0</ele>
        <time>2015-08-15T13:56:44Z</time>
      </trkpt>
      <trkpt lat="40.594283" lon="-4.878350">
        <ele>2165.0</ele>
        <time>2015-08-15T13:56:46Z</time>
      </trkpt>
      <trkpt lat="40.594150" lon="-4.878100">
        <ele>2167.0</ele>
        <time>2015-08-15T13:56:48Z</time>
      </trkpt>
      <trkpt lat="40.593983" lon="-4.877967">
        <ele>2169.0</ele>
        <time>2015-08-15T13:56:50Z</time>
      </trkpt>
      <trkpt lat="40.593783" lon="-4.877933">
        <ele>2170.0</ele>
        <time>2015-08-15T13:56:52Z</time>
      </trkpt>
      <trkpt lat="40.593617" lon="-4.878000">
        <ele>2172.0</ele>
        <time>2015-08-15T13:56:54Z</time>
      </trkpt>
      <trkpt lat="40.593500" lon="-4.878150">
        <ele>2177.0</ele>
        <time>2015-08-15T13:56:56Z</time>
      </trkpt>
      <trkpt lat="40.593417" lon="-4.878333">
        <ele>2182.0</ele>
        <time>2015-08-15T13:56:58Z</time>
      </trkpt>
      <trkpt lat="40.593400" lon="-4.878533">
        <ele>2191.0</ele>
        <time>2015-08-15T13:57:00Z</time>
      </trkpt>
      <trkpt lat="40.593417" lon="-4.878650">
        <ele>2201.0</ele>
        <time>2015-08-15T13:57:02Z</time>
      </trkpt>
      <trkpt lat="40.593450" lon="-4.878733">
        <ele>2206.0</ele>
        <time>2015-08-15T13:57:04Z</time>
      </trkpt>
      <trkpt lat="40.593550" lon="-4.878767">
        <ele>2212.0</ele>
        <time>2015-08-15T13:57:06Z</time>
      </trkpt>
      <trkpt lat="40.593650" lon="-4.878717">
        <ele>2220.0</ele>
        <time>2015-08-15T13:57:08Z</time>
      </trkpt>
      <trkpt lat="40.593733" lon="-4.878600">
        <ele>2229.0</ele>
        <time>2015-08-15T13:57:10Z</time>
      </trkpt>
      <trkpt lat="40.593783" lon="-4.878400">
        <ele>2236.0</ele>
        <time>2015-08-15T13:57:12Z</time>
      </trkpt>
      <trkpt lat="40.593767" lon="-4.878117">
        <ele>2241.0</ele>
        <time>2015-08-15T13:57:14Z</time>
      </trkpt>
      <trkpt lat="40.593617" lon="-4.877800">
        <ele>2247.0</ele>
        <time>2015-08-15T13:57:16Z</time>
      </trkpt>
      <trkpt lat="40.593417" lon="-4.877617">
        <ele>2256.0</ele>
        <time>2015-08-15T13:57:18Z</time>
      </trkpt>
      <trkpt lat="40.593217" lon="-4.877550">
        <ele>2262.0</ele>
        <time>2015-08-15T13:57:20Z</time>
      </trkpt>
      <trkpt lat="40.592983" lon="-4.877533">
        <ele>2265.0</ele>
        <time>2015-08-15T13:57:22Z</time>
      </trkpt>
      <trkpt lat="40.592783" lon="-4.877617">
        <ele>2272.0</ele>
        <time>2015-08-15T13:57:24Z</time>
      </trkpt>
      <trkpt lat="40.592683" lon="-4.877733">
        <ele>2279.0</ele>
        <time>2015-08-15T13:57:26Z</time>
      </trkpt>
      <trkpt lat="40.592650" lon="-4.877867">
        <ele>2284.0</ele>
        <time>2015-08-15T13:57:28Z</time>
      </trkpt>
      <trkpt lat="40.592667" lon="-4.878017">
        <ele>2289.0</ele>
        <time>2015-08-15T13:57:30Z</time>
      </trkpt>
      <trkpt lat="40.592733" lon="-4.878133">
        <ele>2293.0</ele>
        <time>2015-08-15T13:57:32Z</time>
      </trkpt>
      <trkpt lat="40.592883" lon="-4.878183">
        <ele>2298.0</ele>
        <time>2015-08-15T13:57:34Z</time>
      </trkpt>
      <trkpt lat="40.593033" lon="-4.878150">
        <ele>2307.0</ele>
        <time>2015-08-15T13:57:36Z</time>
      </trkpt>
      <trkpt lat="40.593167" lon="-4.878050">
        <ele>2314.0</ele>
        <time>2015-08-15T13:57:38Z</time>
      </trkpt>
      <trkpt lat="40.593333" lon="-4.877883">
        <ele>2323.0</ele>
        <time>2015-08-15T13:57:40Z</time>
      </trkpt>
      <trkpt lat="40.593483" lon="-4.877700">
        <ele>2335.0</ele>
        <time>2015-08-15T13:57:42Z</time>
      </trkpt>
      <trkpt lat="40.593600" lon="-4.877500">
        <ele>2345.0</ele>
        <time>2015-08-15T13:57:44Z</time>
      </trkpt>
      <trkpt lat="40.593700" lon="-4.877250">
        <ele>2348.0</ele>
        <time>2015-08-15T13:57:46Z</time>
      </trkpt>
      <trkpt lat="40.593733" lon="-4.876917">
        <ele>2351.0</ele>
        <time>2015-08-15T13:57:48Z</time>
      </trkpt>
      <trkpt lat="40.593717" lon="-4.876633">
        <ele>2357.0</ele>
        <time>2015-08-15T13:57:50Z</time>
      </trkpt>
      <trkpt lat="40.593683" lon="-4.876383">
        <ele>2360.0</ele>
        <time>2015-08-15T13:57:52Z</time>
      </trkpt>
      <trkpt lat="40.593567" lon="-4.876150">
        <ele>2360.0</ele>
        <time>2015-08-15T13:57:54Z</time>
      </trkpt>
      <trkpt lat="40.593383" lon="-4.875983">
        <ele>2361.0</ele>
        <time>2015-08-15T13:57:56Z</time>
      </trkpt>
      <trkpt lat="40.593167" lon="-4.875917">
        <ele>2366.0</ele>
        <time>2015-08-15T13:57:58Z</time>
      </trkpt>
      <trkpt lat="40.592983" lon="-4.875833">
        <ele>2373.0</ele>
        <time>2015-08-15T13:58:00Z</time>
      </trkpt>
      <trkpt lat="40.592783" lon="-4.875817">
        <ele>2379.0</ele>
        <time>2015-08-15T13:58:02Z</time>
      </trkpt>
      <trkpt lat="40.592617" lon="-4.875883">
        <ele>2388.0</ele>
        <time>2015-08-15T13:58:04Z</time>
      </trkpt>
      <trkpt lat="40.592550" lon="-4.875983">
        <ele>2397.0</ele>
        <time>2015-08-15T13:58:06Z</time>
      </trkpt>
      <trkpt lat="40.592567" lon="-4.876067">
        <ele>2405.0</ele>
        <time>2015-08-15T13:58:08Z</time>
      </trkpt>
      <trkpt lat="40.592650" lon="-4.876133">
        <ele>2412.0</ele>
        <time>2015-08-15T13:58:10Z</time>
      </trkpt>
      <trkpt lat="40.592800" lon="-4.876067">
        <ele>2422.0</ele>
        <time>2015-08-15T13:58:12Z</time>
      </trkpt>
      <trkpt lat="40.592950" lon="-4.875900">
        <ele>2431.0</ele>
        <time>2015-08-15T13:58:14Z</time>
      </trkpt>
      <trkpt lat="40.593083" lon="-4.875683">
        <ele>2444.0</ele>
        <time>2015-08-15T13:58:16Z</time>
      </trkpt>
      <trkpt lat="40.593150" lon="-4.875483">
        <ele>2450.0</ele>
        <time>2015-08-15T13:58:18Z</time>
      </trkpt>
      <trkpt lat="40.593183" lon="-4.875217">
        <ele>2454.0</ele>
        <time>2015-08-15T13:58:20Z</time>
      </trkpt>
      <trkpt lat="40.593200" lon="-4.874933">
        <ele>2461.0</ele>
        <time>2015-08-15T13:58:22Z</time>
      </trkpt>
      <trkpt lat="40.593167" lon="-4.874683">
        <ele>2466.0</ele>
        <time>2015-08-15T13:58:24Z</time>
      </trkpt>
      <trkpt lat="40.593083" lon="-4.874400">
        <ele>2467.0</ele>
        <time>2015-08-15T13:58:26Z</time>
      </trkpt>
      <trkpt lat="40.592967" lon="-4.874183">
        <ele>2470.0</ele>
        <time>2015-08-15T13:58:28Z</time>
      </trkpt>
      <trkpt lat="40.592817" lon="-4.874100">
        <ele>2472.0</ele>
        <time>2015-08-15T13:58:30Z</time>
      </trkpt>
      <trkpt lat="40.592667" lon="-4.874117">
        <ele>2472.0</ele>
        <time>2015-08-15T13:58:32Z</time>
      </trkpt>
      <trkpt lat="40.592533" lon="-4.874200">
        <ele>2475.0</ele>
        <time>2015-08-15T13:58:34Z</time>
      </trkpt>
      <trkpt lat="40.592450" lon="-4.874333">
        <ele>2483.0</ele>
        <time>2015-08-15T13:58:36Z</time>
      </trkpt>
      <trkpt lat="40.592467" lon="-4.874433">
        <ele>2489.0</ele>
        <time>2015-08-15T13:58:38Z</time>
      </trkpt>
      <trkpt lat="40.592533" lon="-4.874550">
        <ele>2493.0</ele>
        <time>2015-08-15T13:58:40Z</time>
      </trkpt>
      <trkpt lat="40.592667" lon="-4.874633">
        <ele>2500.0</ele>
        <time>2015-08-15T13:58:42Z</time>
      </trkpt>
      <trkpt lat="40.592817" lon="-4.874583">
        <ele>2507.0</ele>
        <time>2015-08-15T13:58:44Z</time>
      </trkpt>
      <trkpt lat="40.592950" lon="-4.874483">
        <ele>2511.0</ele>
        <time>2015-08-15T13:58:46Z</time>
      </trkpt>
      <trkpt lat="40.593117" lon="-4.874333">
        <ele>2514.0</ele>
        <time>2015-08-15T13:58:48Z</time>
      </trkpt>
      <trkpt lat="40.593217" lon="-4.874133">
        <ele>2519.0</ele>
        <time>2015-08-15T13:58:50Z</time>
      </trkpt>
      <trkpt lat="40.593267" lon="-4.873883">
        <ele>2522.0</ele>
        <time>2015-08-15T13:58:52Z</time>
      </trkpt>
      <trkpt lat="40.593233" lon="-4.873600">
        <ele>2524.0</ele>
        <time>2015-08-15T13:58:54Z</time>
      </trkpt>
      <trkpt lat="40.593167" lon="-4.873417">
        <ele>2524.0</ele>
        <time>2015-08-15T13:58:56Z</time>
      </trkpt>
      <trkpt lat="40.593067" lon="-4.873283">
        <ele>2522.0</ele>
        <time>2015-08-15T13:58:58Z</time>
      </trkpt>
      <trkpt lat="40.592917" lon="-4.873167">
        <ele>2521.0</ele>
        <time>2015-08-15T13:59:00Z</time>
      </trkpt>
      <trkpt lat="40.592783" lon="-4.873183">
        <ele>2523.0</ele>
        <time>2015-08-15T13:59:02Z</time>
      </trkpt>
      <trkpt lat="40.592683" lon="-4.873283">
        <ele>2524.0</ele>
        <time>2015-08-15T13:59:04Z</time>
      </trkpt>
      <trkpt lat="40.592567" lon="-4.873417">
        <ele>2531.0</ele>
        <time>2015-08-15T13:59:06Z</time>
      </trkpt>
      <trkpt lat="40.592500" lon="-4.873533">
        <ele>2539.0</ele>
        <time>2015-08-15T13:59:08Z</time>
      </trkpt>
      <trkpt lat="40.592517" lon="-4.873667">
        <ele>2548.0</ele>
        <time>2015-08-15T13:59:10Z</time>
      </trkpt>
      <trkpt lat="40.592617" lon="-4.873750">
        <ele>2554.0</ele>
        <time>2015-08-15T13:59:12Z</time>
      </trkpt>
      <trkpt lat="40.592767" lon="-4.873717">
        <ele>2558.0</ele>
        <time>2015-08-15T13:59:14Z</time>
      </trkpt>
      <trkpt lat="40.592900" lon="-4.873567">
        <ele>2561.0</ele>
        <time>2015-08-15T13:59:16Z</time>
      </trkpt>
      <trkpt lat="40.593017" lon="-4.873333">
        <ele>2563.0</ele>
        <time>2015-08-15T13:59:18Z</time>
      </trkpt>
      <trkpt lat="40.593083" lon="-4.873033">
        <ele>2564.0</ele>
        <time>2015-08-15T13:59:20Z</time>
      </trkpt>
      <trkpt lat="40.593083" lon="-4.872717">
        <ele>2568.0</ele>
        <time>2015-08-15T13:59:22Z</time>
      </trkpt>
      <trkpt lat="40.593000" lon="-4.872467">
        <ele>2572.0</ele>
        <time>2015-08-15T13:59:24Z</time>
      </trkpt>
      <trkpt lat="40.592883" lon="-4.872283">
        <ele>2574.0</ele>
        <time>2015-08-15T13:59:26Z</time>
      </trkpt>
      <trkpt lat="40.592733" lon="-4.872183">
        <ele>2578.0</ele>
        <time>2015-08-15T13:59:28Z</time>
      </trkpt>
      <trkpt lat="40.592583" lon="-4.872183">
        <ele>2581.0</ele>
        <time>2015-08-15T13:59:30Z</time>
      </trkpt>
      <trkpt lat="40.592467" lon="-4.872283">
        <ele>2584.0</ele>
        <time>2015-08-15T13:59:32Z</time>
      </trkpt>
      <trkpt lat="40.592433" lon="-4.872417">
        <ele>2588.0</ele>
        <time>2015-08-15T13:59:34Z</time>
      </trkpt>
      <trkpt lat="40.592517" lon="-4.872533">
        <ele>2590.0</ele>
        <time>2015-08-15T13:59:36Z</time>
      </trkpt>
      <trkpt lat="40.592667" lon="-4.872550">
        <ele>2591.0</ele>
        <time>2015-08-15T13:59:38Z</time>
      </trkpt>
      <trkpt lat="40.592817" lon="-4.872483">
        <ele>2593.0</ele>
        <time>2015-08-15T13:59:40Z</time>
      </trkpt>
      <trkpt lat="40.593000" lon="-4.872350">
        <ele>2594.0</ele>
        <time>2015-08-15T13:59:42Z</time>
      </trkpt>
      <trkpt lat="40.593150" lon="-4.872117">
        <ele>2594.0</ele>
        <time>2015-08-15T13:59:44Z</time>
      </trkpt>
      <trkpt lat="40.593283" lon="-4.871833">
        <ele>2595.0</ele>
        <time>2015-08-15T13:59:46Z</time>
      </trkpt>
      <trkpt lat="40.593417" lon="-4.871567">
        <ele>2597.0</ele>
        <time>2015-08-15T13:59:48Z</time>
      </trkpt>
      <trkpt lat="40.593583" lon="-4.871350">
        <ele>2595.0</ele>
        <time>2015-08-15T13:59:50Z</time>
      </trkpt>
      <trkpt lat="40.593750" lon="-4.871133">
        <ele>2592.0</ele>
        <time>2015-08-15T13:59:52Z</time>
      </trkpt>
      <trkpt lat="40.593900" lon="-4.870917">
        <ele>2590.0</ele>
        <time>2015-08-15T13:59:54Z</time>
      </trkpt>
      <trkpt lat="40.594067" lon="-4.870767">
        <ele>2586.0</ele>
        <time>2015-08-15T13:59:56Z</time>
      </trkpt>
      <trkpt lat="40.594250" lon="-4.870617">
        <ele>2582.0</ele>
        <time>2015-08-15T13:59:58Z</time>
      </trkpt>
      <trkpt lat="40.594433" lon="-4.870450">
        <ele>2579.0</ele>
        <time>2015-08-15T14:00:00Z</time>
      </trkpt>
      <trkpt lat="40.594600" lon="-4.870317">
        <ele>2576.0</ele>
        <time>2015-08-15T14:00:02Z</time>
      </trkpt>
      <trkpt lat="40.594767" lon="-4.870167">
        <ele>2573.0</ele>
        <time>2015-08-15T14:00:04Z</time>
      </trkpt>
      <trkpt lat="40.594967" lon="-4.869983">
        <ele>2571.0</ele>
        <time>2015-08-15T14:00:06Z</time>
      </trkpt>
      <trkpt lat="40.595150" lon="-4.869817">
        <ele>2569.0</ele>
        <time>2015-08-15T14:00:08Z</time>
      </trkpt>
      <trkpt lat="40.595333" lon="-4.869667">
        <ele>2567.0</ele>
        <time>2015-08-15T14:00:10Z</time>
      </trkpt>
      <trkpt lat="40.595500" lon="-4.869500">
        <ele>2562.0</ele>
        <time>2015-08-15T14:00:12Z</time>
      </trkpt>
      <trkpt lat="40.595683" lon="-4.869317">
        <ele>2557.0</ele>
        <time>2015-08-15T14:00:14Z</time>
      </trkpt>
      <trkpt lat="40.595850" lon="-4.869117">
        <ele>2554.0</ele>
        <time>2015-08-15T14:00:16Z</time>
      </trkpt>
      <trkpt lat="40.596000" lon="-4.868933">
        <ele>2551.0</ele>
        <time>2015-08-15T14:00:18Z</time>
      </trkpt>
      <trkpt lat="40.596167" lon="-4.868750">
        <ele>2544.0</ele>
        <time>2015-08-15T14:00:20Z</time>
      </trkpt>
      <trkpt lat="40.596367" lon="-4.868583">
        <ele>2539.0</ele>
        <time>2015-08-15T14:00:22Z</time>
      </trkpt>
      <trkpt lat="40.596550" lon="-4.868417">
        <ele>2536.0</ele>
        <time>2015-08-15T14:00:24Z</time>
      </trkpt>
      <trkpt lat="40.596733" lon="-4.868217">
        <ele>2534.0</ele>
        <time>2015-08-15T14:00:26Z</time>
      </trkpt>
      <trkpt lat="40.596917" lon="-4.868067">
        <ele>2531.0</ele>
        <time>2015-08-15T14:00:28Z</time>
      </trkpt>
      <trkpt lat="40.597117" lon="-4.867900">
        <ele>2527.0</ele>
        <time>2015-08-15T14:00:30Z</time>
      </trkpt>
      <trkpt lat="40.597317" lon="-4.867750">
        <ele>2525.0</ele>
        <time>2015-08-15T14:00:32Z</time>
      </trkpt>
      <trkpt lat="40.597517" lon="-4.867617">
        <ele>2523.0</ele>
        <time>2015-08-15T14:00:34Z</time>
      </trkpt>
      <trkpt lat="40.597717" lon="-4.867483">
        <ele>2521.0</ele>
        <time>2015-08-15T14:00:36Z</time>
      </trkpt>
      <trkpt lat="40.597917" lon="-4.867350">
        <ele>2517.0</ele>
        <time>2015-08-15T14:00:38Z</time>
      </trkpt>
      <trkpt lat="40.598150" lon="-4.867183">
        <ele>2513.0</ele>
        <time>2015-08-15T14:00:40Z</time>
      </trkpt>
      <trkpt lat="40.598350" lon="-4.866967">
        <ele>2514.0</ele>
        <time>2015-08-15T14:00:42Z</time>
      </trkpt>
      <trkpt lat="40.598533" lon="-4.866800">
        <ele>2518.0</ele>
        <time>2015-08-15T14:00:44Z</time>
      </trkpt>
      <trkpt lat="40.598700" lon="-4.866617">
        <ele>2515.0</ele>
        <time>2015-08-15T14:00:46Z</time>
      </trkpt>
      <trkpt lat="40.598867" lon="-4.866417">
        <ele>2509.0</ele>
        <time>2015-08-15T14:00:48Z</time>
      </trkpt>
      <trkpt lat="40.599033" lon="-4.866217">
        <ele>2505.0</ele>
        <time>2015-08-15T14:00:50Z</time>
      </trkpt>
      <trkpt lat="40.599200" lon="-4.866017">
        <ele>2500.0</ele>
        <time>2015-08-15T14:00:52Z</time>
      </trkpt>
      <trkpt lat="40.599400" lon="-4.865833">
        <ele>2494.0</ele>
        <time>2015-08-15T14:00:54Z</time>
      </trkpt>
      <trkpt lat="40.599600" lon="-4.865667">
        <ele>2490.0</ele>
        <time>2015-08-15T14:00:56Z</time>
      </trkpt>
      <trkpt lat="40.599783" lon="-4.865500">
        <ele>2486.0</ele>
        <time>2015-08-15T14:00:58Z</time>
      </trkpt>
      <trkpt lat="40.599967" lon="-4.865317">
        <ele>2481.0</ele>
        <time>2015-08-15T14:01:00Z</time>
      </trkpt>
      <trkpt lat="40.600150" lon="-4.865150">
        <ele>2477.0</ele>
        <time>2015-08-15T14:01:02Z</time>
      </trkpt>
      <trkpt lat="40.600333" lon="-4.864983">
        <ele>2472.0</ele>
        <time>2015-08-15T14:01:04Z</time>
      </trkpt>
      <trkpt lat="40.600533" lon="-4.864800">
        <ele>2466.0</ele>
        <time>2015-08-15T14:01:06Z</time>
      </trkpt>
      <trkpt lat="40.600733" lon="-4.864617">
        <ele>2465.0</ele>
        <time>2015-08-15T14:01:08Z</time>
      </trkpt>
      <trkpt lat="40.600917" lon="-4.864450">
        <ele>2465.0</ele>
        <time>2015-08-15T14:01:10Z</time>
      </trkpt>
      <trkpt lat="40.601083" lon="-4.864267">
        <ele>2464.0</ele>
        <time>2015-08-15T14:01:12Z</time>
      </trkpt>
      <trkpt lat="40.601250" lon="-4.864067">
        <ele>2463.0</ele>
        <time>2015-08-15T14:01:14Z</time>
      </trkpt>
      <trkpt lat="40.601417" lon="-4.863867">
        <ele>2460.0</ele>
        <time>2015-08-15T14:01:16Z</time>
      </trkpt>
      <trkpt lat="40.601583" lon="-4.863650">
        <ele>2458.0</ele>
        <time>2015-08-15T14:01:18Z</time>
      </trkpt>
      <trkpt lat="40.601733" lon="-4.863433">
        <ele>2456.0</ele>
        <time>2015-08-15T14:01:20Z</time>
      </trkpt>
      <trkpt lat="40.601883" lon="-4.863217">
        <ele>2453.0</ele>
        <time>2015-08-15T14:01:22Z</time>
      </trkpt>
      <trkpt lat="40.602050" lon="-4.862983">
        <ele>2449.0</ele>
        <time>2015-08-15T14:01:24Z</time>
      </trkpt>
      <trkpt lat="40.602233" lon="-4.862750">
        <ele>2446.0</ele>
        <time>2015-08-15T14:01:26Z</time>
      </trkpt>
      <trkpt lat="40.602400" lon="-4.862550">
        <ele>2444.0</ele>
        <time>2015-08-15T14:01:28Z</time>
      </trkpt>
      <trkpt lat="40.602567" lon="-4.862317">
        <ele>2442.0</ele>
        <time>2015-08-15T14:01:30Z</time>
      </trkpt>
      <trkpt lat="40.602733" lon="-4.862050">
        <ele>2443.0</ele>
        <time>2015-08-15T14:01:32Z</time>
      </trkpt>
      <trkpt lat="40.602883" lon="-4.861850">
        <ele>2445.0</ele>
        <time>2015-08-15T14:01:34Z</time>
      </trkpt>
      <trkpt lat="40.603033" lon="-4.861633">
        <ele>2443.0</ele>
        <time>2015-08-15T14:01:36Z</time>
      </trkpt>
      <trkpt lat="40.603200" lon="-4.861383">
        <ele>2440.0</ele>
        <time>2015-08-15T14:01:38Z</time>
      </trkpt>
      <trkpt lat="40.603350" lon="-4.861133">
        <ele>2439.0</ele>
        <time>2015-08-15T14:01:40Z</time>
      </trkpt>
      <trkpt lat="40.603500" lon="-4.860867">
        <ele>2437.0</ele>
        <time>2015-08-15T14:01:42Z</time>
      </trkpt>
      <trkpt lat="40.603650" lon="-4.860617">
        <ele>2435.0</ele>
        <time>2015-08-15T14:01:44Z</time>
      </trkpt>
      <trkpt lat="40.603800" lon="-4.860350">
        <ele>2433.0</ele>
        <time>2015-08-15T14:01:46Z</time>
      </trkpt>
      <trkpt lat="40.603950" lon="-4.860067">
        <ele>2430.0</ele>
        <time>2015-08-15T14:01:48Z</time>
      </trkpt>
      <trkpt lat="40.604083" lon="-4.859783">
        <ele>2427.0</ele>
        <time>2015-08-15T14:01:50Z</time>
      </trkpt>
      <trkpt lat="40.604233" lon="-4.859500">
        <ele>2427.0</ele>
        <time>2015-08-15T14:01:52Z</time>
      </trkpt>
      <trkpt lat="40.604367" lon="-4.859217">
        <ele>2425.0</ele>
        <time>2015-08-15T14:01:54Z</time>
      </trkpt>
      <trkpt lat="40.604500" lon="-4.858900">
        <ele>2425.0</ele>
        <time>2015-08-15T14:01:56Z</time>
      </trkpt>
      <trkpt lat="40.604650" lon="-4.858600">
        <ele>2424.0</ele>
        <time>2015-08-15T14:01:58Z</time>
      </trkpt>
      <trkpt lat="40.604783" lon="-4.858317">
        <ele>2424.0</ele>
        <time>2015-08-15T14:02:00Z</time>
      </trkpt>
      <trkpt lat="40.604917" lon="-4.858067">
        <ele>2424.0</ele>
        <time>2015-08-15T14:02:02Z</time>
      </trkpt>
      <trkpt lat="40.605050" lon="-4.857817">
        <ele>2422.0</ele>
        <time>2015-08-15T14:02:04Z</time>
      </trkpt>
      <trkpt lat="40.605200" lon="-4.857567">
        <ele>2419.0</ele>
        <time>2015-08-15T14:02:06Z</time>
      </trkpt>
      <trkpt lat="40.605333" lon="-4.857333">
        <ele>2418.0</ele>
        <time>2015-08-15T14:02:08Z</time>
      </trkpt>
      <trkpt lat="40.605467" lon="-4.857117">
        <ele>2417.0</ele>
        <time>2015-08-15T14:02:10Z</time>
      </trkpt>
      <trkpt lat="40.605600" lon="-4.856850">
        <ele>2416.0</ele>
        <time>2015-08-15T14:02:12Z</time>
      </trkpt>
      <trkpt lat="40.605700" lon="-4.856550">
        <ele>2419.0</ele>
        <time>2015-08-15T14:02:14Z</time>
      </trkpt>
      <trkpt lat="40.605800" lon="-4.856283">
        <ele>2419.0</ele>
        <time>2015-08-15T14:02:16Z</time>
      </trkpt>
      <trkpt lat="40.605917" lon="-4.856000">
        <ele>2416.0</ele>
        <time>2015-08-15T14:02:18Z</time>
      </trkpt>
      <trkpt lat="40.606067" lon="-4.855717">
        <ele>2414.0</ele>
        <time>2015-08-15T14:02:20Z</time>
      </trkpt>
      <trkpt lat="40.606183" lon="-4.855450">
        <ele>2415.0</ele>
        <time>2015-08-15T14:02:22Z</time>
      </trkpt>
      <trkpt lat="40.606267" lon="-4.855167">
        <ele>2415.0</ele>
        <time>2015-08-15T14:02:24Z</time>
      </trkpt>
      <trkpt lat="40.606383" lon="-4.854867">
        <ele>2414.0</ele>
        <time>2015-08-15T14:02:26Z</time>
      </trkpt>
      <trkpt lat="40.606483" lon="-4.854583">
        <ele>2414.0</ele>
        <time>2015-08-15T14:02:28Z</time>
      </trkpt>
      <trkpt lat="40.606583" lon="-4.854300">
        <ele>2413.0</ele>
        <time>2015-08-15T14:02:30Z</time>
      </trkpt>
      <trkpt lat="40.606683" lon="-4.854017">
        <ele>2410.0</ele>
        <time>2015-08-15T14:02:32Z</time>
      </trkpt>
      <trkpt lat="40.606783" lon="-4.853700">
        <ele>2408.0</ele>
        <time>2015-08-15T14:02:34Z</time>
      </trkpt>
      <trkpt lat="40.606867" lon="-4.853417">
        <ele>2407.0</ele>
        <time>2015-08-15T14:02:36Z</time>
      </trkpt>
      <trkpt lat="40.606933" lon="-4.853167">
        <ele>2403.0</ele>
        <time>2015-08-15T14:02:38Z</time>
      </trkpt>
      <trkpt lat="40.607067" lon="-4.852883">
        <ele>2399.0</ele>
        <time>2015-08-15T14:02:40Z</time>
      </trkpt>
      <trkpt lat="40.607150" lon="-4.852633">
        <ele>2400.0</ele>
        <time>2015-08-15T14:02:42Z</time>
      </trkpt>
      <trkpt lat="40.607217" lon="-4.852383">
        <ele>2396.0</ele>
        <time>2015-08-15T14:02:44Z</time>
      </trkpt>
      <trkpt lat="40.607300" lon="-4.852100">
        <ele>2390.0</ele>
        <time>2015-08-15T14:02:46Z</time>
      </trkpt>
      <trkpt lat="40.607400" lon="-4.851817">
        <ele>2387.0</ele>
        <time>2015-08-15T14:02:48Z</time>
      </trkpt>
      <trkpt lat="40.607467" lon="-4.851533">
        <ele>2383.0</ele>
        <time>2015-08-15T14:02:50Z</time>
      </trkpt>
      <trkpt lat="40.607533" lon="-4.851217">
        <ele>2378.0</ele>
        <time>2015-08-15T14:02:52Z</time>
      </trkpt>
      <trkpt lat="40.607600" lon="-4.850883">
        <ele>2373.0</ele>
        <time>2015-08-15T14:02:54Z</time>
      </trkpt>
      <trkpt lat="40.607667" lon="-4.850583">
        <ele>2369.0</ele>
        <time>2015-08-15T14:02:56Z</time>
      </trkpt>
      <trkpt lat="40.607733" lon="-4.850267">
        <ele>2363.0</ele>
        <time>2015-08-15T14:02:58Z</time>
      </trkpt>
      <trkpt lat="40.607833" lon="-4.849917">
        <ele>2357.0</ele>
        <time>2015-08-15T14:03:00Z</time>
      </trkpt>
      <trkpt lat="40.607933" lon="-4.849617">
        <ele>2352.0</ele>
        <time>2015-08-15T14:03:02Z</time>
      </trkpt>
      <trkpt lat="40.608017" lon="-4.849317">
        <ele>2347.0</ele>
        <time>2015-08-15T14:03:04Z</time>
      </trkpt>
      <trkpt lat="40.608100" lon="-4.849017">
        <ele>2341.0</ele>
        <time>2015-08-15T14:03:06Z</time>
      </trkpt>
      <trkpt lat="40.608200" lon="-4.848750">
        <ele>2336.0</ele>
        <time>2015-08-15T14:03:08Z</time>
      </trkpt>
      <trkpt lat="40.608333" lon="-4.848467">
        <ele>2329.0</ele>
        <time>2015-08-15T14:03:10Z</time>
      </trkpt>
      <trkpt lat="40.608450" lon="-4.848183">
        <ele>2324.0</ele>
        <time>2015-08-15T14:03:12Z</time>
      </trkpt>
      <trkpt lat="40.608550" lon="-4.847900">
        <ele>2319.0</ele>
        <time>2015-08-15T14:03:14Z</time>
      </trkpt>
      <trkpt lat="40.608650" lon="-4.847600">
        <ele>2312.0</ele>
        <time>2015-08-15T14:03:16Z</time>
      </trkpt>
      <trkpt lat="40.608767" lon="-4.847283">
        <ele>2304.0</ele>
        <time>2015-08-15T14:03:18Z</time>
      </trkpt>
      <trkpt lat="40.608883" lon="-4.846967">
        <ele>2298.0</ele>
        <time>2015-08-15T14:03:20Z</time>
      </trkpt>
      <trkpt lat="40.609000" lon="-4.846700">
        <ele>2294.0</ele>
        <time>2015-08-15T14:03:22Z</time>
      </trkpt>
      <trkpt lat="40.609100" lon="-4.846433">
        <ele>2290.0</ele>
        <time>2015-08-15T14:03:24Z</time>
      </trkpt>
      <trkpt lat="40.609217" lon="-4.846167">
        <ele>2285.0</ele>
        <time>2015-08-15T14:03:26Z</time>
      </trkpt>
      <trkpt lat="40.609367" lon="-4.845900">
        <ele>2281.0</ele>
        <time>2015-08-15T14:03:28Z</time>
      </trkpt>
      <trkpt lat="40.609500" lon="-4.845617">
        <ele>2279.0</ele>
        <time>2015-08-15T14:03:30Z</time>
      </trkpt>
      <trkpt lat="40.609633" lon="-4.845350">
        <ele>2276.0</ele>
        <time>2015-08-15T14:03:32Z</time>
      </trkpt>
      <trkpt lat="40.609783" lon="-4.845083">
        <ele>2273.0</ele>
        <time>2015-08-15T14:03:34Z</time>
      </trkpt>
      <trkpt lat="40.609950" lon="-4.844817">
        <ele>2269.0</ele>
        <time>2015-08-15T14:03:36Z</time>
      </trkpt>
      <trkpt lat="40.610117" lon="-4.844567">
        <ele>2267.0</ele>
        <time>2015-08-15T14:03:38Z</time>
      </trkpt>
      <trkpt lat="40.610283" lon="-4.844350">
        <ele>2262.0</ele>
        <time>2015-08-15T14:03:40Z</time>
      </trkpt>
      <trkpt lat="40.610517" lon="-4.844150">
        <ele>2255.0</ele>
        <time>2015-08-15T14:03:42Z</time>
      </trkpt>
      <trkpt lat="40.610750" lon="-4.843917">
        <ele>2252.0</ele>
        <time>2015-08-15T14:03:44Z</time>
      </trkpt>
      <trkpt lat="40.610933" lon="-4.843717">
        <ele>2252.0</ele>
        <time>2015-08-15T14:03:46Z</time>
      </trkpt>
      <trkpt lat="40.611133" lon="-4.843517">
        <ele>2248.0</ele>
        <time>2015-08-15T14:03:48Z</time>
      </trkpt>
      <trkpt lat="40.611350" lon="-4.843283">
        <ele>2246.0</ele>
        <time>2015-08-15T14:03:50Z</time>
      </trkpt>
      <trkpt lat="40.611517" lon="-4.843083">
        <ele>2245.0</ele>
        <time>2015-08-15T14:03:52Z</time>
      </trkpt>
      <trkpt lat="40.611700" lon="-4.842867">
        <ele>2240.0</ele>
        <time>2015-08-15T14:03:54Z</time>
      </trkpt>
      <trkpt lat="40.611900" lon="-4.842633">
        <ele>2236.0</ele>
        <time>2015-08-15T14:03:56Z</time>
      </trkpt>
      <trkpt lat="40.612067" lon="-4.842417">
        <ele>2235.0</ele>
        <time>2015-08-15T14:03:58Z</time>
      </trkpt>
      <trkpt lat="40.612233" lon="-4.842217">
        <ele>2229.0</ele>
        <time>2015-08-15T14:04:00Z</time>
      </trkpt>
      <trkpt lat="40.612417" lon="-4.841983">
        <ele>2223.0</ele>
        <time>2015-08-15T14:04:02Z</time>
      </trkpt>
      <trkpt lat="40.612600" lon="-4.841767">
        <ele>2221.0</ele>
        <time>2015-08-15T14:04:04Z</time>
      </trkpt>
      <trkpt lat="40.612767" lon="-4.841567">
        <ele>2218.0</ele>
        <time>2015-08-15T14:04:06Z</time>
      </trkpt>
      <trkpt lat="40.612933" lon="-4.841350">
        <ele>2212.0</ele>
        <time>2015-08-15T14:04:08Z</time>
      </trkpt>
      <trkpt lat="40.613100" lon="-4.841100">
        <ele>2207.0</ele>
        <time>2015-08-15T14:04:10Z</time>
      </trkpt>
      <trkpt lat="40.613267" lon="-4.840883">
        <ele>2206.0</ele>
        <time>2015-08-15T14:04:12Z</time>
      </trkpt>
      <trkpt lat="40.613433" lon="-4.840683">
        <ele>2205.0</ele>
        <time>2015-08-15T14:04:14Z</time>
      </trkpt>
      <trkpt lat="40.613583" lon="-4.840500">
        <ele>2204.0</ele>
        <time>2015-08-15T14:04:16Z</time>
      </trkpt>
      <trkpt lat="40.613733" lon="-4.840317">
        <ele>2200.0</ele>
        <time>2015-08-15T14:04:18Z</time>
      </trkpt>
      <trkpt lat="40.613883" lon="-4.840083">
        <ele>2196.0</ele>
        <time>2015-08-15T14:04:20Z</time>
      </trkpt>
      <trkpt lat="40.614017" lon="-4.839867">
        <ele>2194.0</ele>
        <time>2015-08-15T14:04:22Z</time>
      </trkpt>
      <trkpt lat="40.614167" lon="-4.839667">
        <ele>2191.0</ele>
        <time>2015-08-15T14:04:24Z</time>
      </trkpt>
      <trkpt lat="40.614317" lon="-4.839483">
        <ele>2188.0</ele>
        <time>2015-08-15T14:04:26Z</time>
      </trkpt>
      <trkpt lat="40.614467" lon="-4.839300">
        <ele>2184.0</ele>
        <time>2015-08-15T14:04:28Z</time>
      </trkpt>
      <trkpt lat="40.614650" lon="-4.839117">
        <ele>2181.0</ele>
        <time>2015-08-15T14:04:30Z</time>
      </trkpt>
      <trkpt lat="40.614817" lon="-4.838967">
        <ele>2180.0</ele>
        <time>2015-08-15T14:04:32Z</time>
      </trkpt>
      <trkpt lat="40.614967" lon="-4.838817">
        <ele>2181.0</ele>
        <time>2015-08-15T14:04:34Z</time>
      </trkpt>
      <trkpt lat="40.615083" lon="-4.838683">
        <ele>2179.0</ele>
        <time>2015-08-15T14:04:36Z</time>
      </trkpt>
      <trkpt lat="40.615200" lon="-4.838533">
        <ele>2173.0</ele>
        <time>2015-08-15T14:04:38Z</time>
      </trkpt>
      <trkpt lat="40.615350" lon="-4.838350">
        <ele>2167.0</ele>
        <time>2015-08-15T14:04:40Z</time>
      </trkpt>
      <trkpt lat="40.615517" lon="-4.838167">
        <ele>2169.0</ele>
        <time>2015-08-15T14:04:42Z</time>
      </trkpt>
      <trkpt lat="40.615633" lon="-4.838050">
        <ele>2174.0</ele>
        <time>2015-08-15T14:04:44Z</time>
      </trkpt>
      <trkpt lat="40.615717" lon="-4.837917">
        <ele>2175.0</ele>
        <time>2015-08-15T14:04:46Z</time>
      </trkpt>
      <trkpt lat="40.615783" lon="-4.837700">
        <ele>2177.0</ele>
        <time>2015-08-15T14:04:48Z</time>
      </trkpt>
      <trkpt lat="40.615867" lon="-4.837483">
        <ele>2181.0</ele>
        <time>2015-08-15T14:04:50Z</time>
      </trkpt>
      <trkpt lat="40.615933" lon="-4.837283">
        <ele>2190.0</ele>
        <time>2015-08-15T14:04:52Z</time>
      </trkpt>
      <trkpt lat="40.615967" lon="-4.837117">
        <ele>2196.0</ele>
        <time>2015-08-15T14:04:54Z</time>
      </trkpt>
      <trkpt lat="40.616067" lon="-4.837017">
        <ele>2199.0</ele>
        <time>2015-08-15T14:04:56Z</time>
      </trkpt>
      <trkpt lat="40.616217" lon="-4.837000">
        <ele>2203.0</ele>
        <time>2015-08-15T14:04:58Z</time>
      </trkpt>
      <trkpt lat="40.616317" lon="-4.837067">
        <ele>2209.0</ele>
        <time>2015-08-15T14:05:00Z</time>
      </trkpt>
      <trkpt lat="40.616350" lon="-4.837183">
        <ele>2211.0</ele>
        <time>2015-08-15T14:05:02Z</time>
      </trkpt>
      <trkpt lat="40.616333" lon="-4.837367">
        <ele>2210.0</ele>
        <time>2015-08-15T14:05:04Z</time>
      </trkpt>
      <trkpt lat="40.616233" lon="-4.837533">
        <ele>2211.0</ele>
        <time>2015-08-15T14:05:06Z</time>
      </trkpt>
      <trkpt lat="40.616100" lon="-4.837617">
        <ele>2212.0</ele>
        <time>2015-08-15T14:05:08Z</time>
      </trkpt>
      <trkpt lat="40.615933" lon="-4.837617">
        <ele>2213.0</ele>
        <time>2015-08-15T14:05:10Z</time>
      </trkpt>
      <trkpt lat="40.615733" lon="-4.837550">
        <ele>2216.0</ele>
        <time>2015-08-15T14:05:12Z</time>
      </trkpt>
      <trkpt lat="40.615567" lon="-4.837450">
        <ele>2220.0</ele>
        <time>2015-08-15T14:05:14Z</time>
      </trkpt>
      <trkpt lat="40.615417" lon="-4.837283">
        <ele>2221.0</ele>
        <time>2015-08-15T14:05:16Z</time>
      </trkpt>
      <trkpt lat="40.615300" lon="-4.837050">
        <ele>2225.0</ele>
        <time>2015-08-15T14:05:18Z</time>
      </trkpt>
      <trkpt lat="40.615250" lon="-4.836850">
        <ele>2232.0</ele>
        <time>2015-08-15T14:05:20Z</time>
      </trkpt>
      <trkpt lat="40.615267" lon="-4.836650">
        <ele>2236.0</ele>
        <time>2015-08-15T14:05:22Z</time>
      </trkpt>
      <trkpt lat="40.615333" lon="-4.836433">
        <ele>2239.0</ele>
        <time>2015-08-15T14:05:24Z</time>
      </trkpt>
      <trkpt lat="40.615450" lon="-4.836233">
        <ele>2246.0</ele>
        <time>2015-08-15T14:05:26Z</time>
      </trkpt>
      <trkpt lat="40.615567" lon="-4.836083">
        <ele>2255.0</ele>
        <time>2015-08-15T14:05:28Z</time>
      </trkpt>
      <trkpt lat="40.615650" lon="-4.835983">
        <ele>2261.0</ele>
        <time>2015-08-15T14:05:30Z</time>
      </trkpt>
      <trkpt lat="40.615783" lon="-4.835950">
        <ele>2265.0</ele>
        <time>2015-08-15T14:05:32Z</time>
      </trkpt>
      <trkpt lat="40.615917" lon="-4.835967">
        <ele>2269.0</ele>
        <time>2015-08-15T14:05:34Z</time>
      </trkpt>
      <trkpt lat="40.616000" lon="-4.836083">
        <ele>2271.0</ele>
        <time>2015-08-15T14:05:36Z</time>
      </trkpt>
      <trkpt lat="40.616033" lon="-4.836300">
        <ele>2273.0</ele>
        <time>2015-08-15T14:05:38Z</time>
      </trkpt>
      <trkpt lat="40.616017" lon="-4.836517">
        <ele>2280.0</ele>
        <time>2015-08-15T14:05:40Z</time>
      </trkpt>
      <trkpt lat="40.615967" lon="-4.836667">
        <ele>2282.0</ele>
        <time>2015-08-15T14:05:42Z</time>
      </trkpt>
      <trkpt lat="40.615867" lon="-4.836833">
        <ele>2282.0</ele>
        <time>2015-08-15T14:05:44Z</time>
      </trkpt>
      <trkpt lat="40.615700" lon="-4.836933">
        <ele>2282.0</ele>
        <time>2015-08-15T14:05:46Z</time>
      </trkpt>
      <trkpt lat="40.615517" lon="-4.836933">
        <ele>2284.0</ele>
        <time>2015-08-15T14:05:48Z</time>
      </trkpt>
      <trkpt lat="40.615333" lon="-4.836833">
        <ele>2287.0</ele>
        <time>2015-08-15T14:05:50Z</time>
      </trkpt>
      <trkpt lat="40.615167" lon="-4.836633">
        <ele>2289.0</ele>
        <time>2015-08-15T14:05:52Z</time>
      </trkpt>
      <trkpt lat="40.615067" lon="-4.836367">
        <ele>2295.0</ele>
        <time>2015-08-15T14:05:54Z</time>
      </trkpt>
      <trkpt lat="40.615017" lon="-4.836133">
        <ele>2299.0</ele>
        <time>2015-08-15T14:05:56Z</time>
      </trkpt>
      <trkpt lat="40.615033" lon="-4.835867">
        <ele>2301.0</ele>
        <time>2015-08-15T14:05:58Z</time>
      </trkpt>
      <trkpt lat="40.615083" lon="-4.835633">
        <ele>2304.0</ele>
        <time>2015-08-15T14:06:00Z</time>
      </trkpt>
      <trkpt lat="40.615150" lon="-4.835433">
        <ele>2309.0</ele>
        <time>2015-08-15T14:06:02Z</time>
      </trkpt>
      <trkpt lat="40.615250" lon="-4.835233">
        <ele>2310.0</ele>
        <time>2015-08-15T14:06:04Z</time>
      </trkpt>
      <trkpt lat="40.615383" lon="-4.835067">
        <ele>2314.0</ele>
        <time>2015-08-15T14:06:06Z</time>
      </trkpt>
      <trkpt lat="40.615483" lon="-4.834950">
        <ele>2318.0</ele>
        <time>2015-08-15T14:06:08Z</time>
      </trkpt>
      <trkpt lat="40.615617" lon="-4.834867">
        <ele>2320.0</ele>
        <time>2015-08-15T14:06:10Z</time>
      </trkpt>
      <trkpt lat="40.615783" lon="-4.834800">
        <ele>2323.0</ele>
        <time>2015-08-15T14:06:12Z</time>
      </trkpt>
      <trkpt lat="40.615933" lon="-4.834800">
        <ele>2328.0</ele>
        <time>2015-08-15T14:06:14Z</time>
      </trkpt>
      <trkpt lat="40.616067" lon="-4.834867">
        <ele>2330.0</ele>
        <time>2015-08-15T14:06:16Z</time>
      </trkpt>
      <trkpt lat="40.616200" lon="-4.834983">
        <ele>2335.0</ele>
        <time>2015-08-15T14:06:18Z</time>
      </trkpt>
      <trkpt lat="40.616267" lon="-4.835150">
        <ele>2342.0</ele>
        <time>2015-08-15T14:06:20Z</time>
      </trkpt>
      <trkpt lat="40.616283" lon="-4.835300">
        <ele>2346.0</ele>
        <time>2015-08-15T14:06:22Z</time>
      </trkpt>
      <trkpt lat="40.616233" lon="-4.835467">
        <ele>2348.0</ele>
        <time>2015-08-15T14:06:24Z</time>
      </trkpt>
      <trkpt lat="40.616117" lon="-4.835617">
        <ele>2348.0</ele>
        <time>2015-08-15T14:06:26Z</time>
      </trkpt>
      <trkpt lat="40.615933" lon="-4.835600">
        <ele>2349.0</ele>
        <time>2015-08-15T14:06:28Z</time>
      </trkpt>
      <trkpt lat="40.615767" lon="-4.835467">
        <ele>2349.0</ele>
        <time>2015-08-15T14:06:30Z</time>
      </trkpt>
      <trkpt lat="40.615617" lon="-4.835300">
        <ele>2353.0</ele>
        <time>2015-08-15T14:06:32Z</time>
      </trkpt>
      <trkpt lat="40.615500" lon="-4.835100">
        <ele>2356.0</ele>
        <time>2015-08-15T14:06:34Z</time>
      </trkpt>
      <trkpt lat="40.615433" lon="-4.834850">
        <ele>2357.0</ele>
        <time>2015-08-15T14:06:36Z</time>
      </trkpt>
      <trkpt lat="40.615400" lon="-4.834683">
        <ele>2358.0</ele>
        <time>2015-08-15T14:08:20Z</time>
      </trkpt>
      <trkpt lat="40.615400" lon="-4.834467">
        <ele>2361.0</ele>
        <time>2015-08-15T14:08:22Z</time>
      </trkpt>
      <trkpt lat="40.615450" lon="-4.834233">
        <ele>2364.0</ele>
        <time>2015-08-15T14:08:24Z</time>
      </trkpt>
      <trkpt lat="40.615533" lon="-4.834033">
        <ele>2369.0</ele>
        <time>2015-08-15T14:08:26Z</time>
      </trkpt>
      <trkpt lat="40.615650" lon="-4.833867">
        <ele>2371.0</ele>
        <time>2015-08-15T14:08:28Z</time>
      </trkpt>
      <trkpt lat="40.615800" lon="-4.833733">
        <ele>2374.0</ele>
        <time>2015-08-15T14:08:30Z</time>
      </trkpt>
      <trkpt lat="40.615967" lon="-4.833617">
        <ele>2376.0</ele>
        <time>2015-08-15T14:08:32Z</time>
      </trkpt>
      <trkpt lat="40.616133" lon="-4.833600">
        <ele>2376.0</ele>
        <time>2015-08-15T14:08:34Z</time>
      </trkpt>
      <trkpt lat="40.616300" lon="-4.833683">
        <ele>2373.0</ele>
        <time>2015-08-15T14:08:36Z</time>
      </trkpt>
      <trkpt lat="40.616433" lon="-4.833833">
        <ele>2373.0</ele>
        <time>2015-08-15T14:08:38Z</time>
      </trkpt>
      <trkpt lat="40.616517" lon="-4.833983">
        <ele>2373.0</ele>
        <time>2015-08-15T14:08:40Z</time>
      </trkpt>
      <trkpt lat="40.616600" lon="-4.834167">
        <ele>2375.0</ele>
        <time>2015-08-15T14:08:42Z</time>
      </trkpt>
      <trkpt lat="40.616717" lon="-4.834283">
        <ele>2377.0</ele>
        <time>2015-08-15T14:08:44Z</time>
      </trkpt>
      <trkpt lat="40.616900" lon="-4.834317">
        <ele>2376.0</ele>
        <time>2015-08-15T14:08:46Z</time>
      </trkpt>
      <trkpt lat="40.617117" lon="-4.834283">
        <ele>2377.0</ele>
        <time>2015-08-15T14:08:48Z</time>
      </trkpt>
      <trkpt lat="40.617300" lon="-4.834183">
        <ele>2381.0</ele>
        <time>2015-08-15T14:08:50Z</time>
      </trkpt>
      <trkpt lat="40.617433" lon="-4.834033">
        <ele>2380.0</ele>
        <time>2015-08-15T14:08:52Z</time>
      </trkpt>
      <trkpt lat="40.617600" lon="-4.833867">
        <ele>2379.0</ele>
        <time>2015-08-15T14:08:54Z</time>
      </trkpt>
      <trkpt lat="40.617767" lon="-4.833683">
        <ele>2379.0</ele>
        <time>2015-08-15T14:08:56Z</time>
      </trkpt>
      <trkpt lat="40.617933" lon="-4.833483">
        <ele>2380.0</ele>
        <time>2015-08-15T14:08:58Z</time>
      </trkpt>
      <trkpt lat="40.618083" lon="-4.833300">
        <ele>2382.0</ele>
        <time>2015-08-15T14:09:00Z</time>
      </trkpt>
      <trkpt lat="40.618250" lon="-4.833133">
        <ele>2382.0</ele>
        <time>2015-08-15T14:09:02Z</time>
      </trkpt>
      <trkpt lat="40.618400" lon="-4.832950">
        <ele>2382.0</ele>
        <time>2015-08-15T14:09:04Z</time>
      </trkpt>
      <trkpt lat="40.618550" lon="-4.832750">
        <ele>2381.0</ele>
        <time>2015-08-15T14:09:06Z</time>
      </trkpt>
      <trkpt lat="40.618700" lon="-4.832550">
        <ele>2380.0</ele>
        <time>2015-08-15T14:09:08Z</time>
      </trkpt>
      <trkpt lat="40.618817" lon="-4.832333">
        <ele>2380.0</ele>
        <time>2015-08-15T14:09:10Z</time>
      </trkpt>
      <trkpt lat="40.618933" lon="-4.832100">
        <ele>2378.0</ele>
        <time>2015-08-15T14:09:12Z</time>
      </trkpt>
      <trkpt lat="40.619033" lon="-4.831850">
        <ele>2375.0</ele>
        <time>2015-08-15T14:09:14Z</time>
      </trkpt>
      <trkpt lat="40.619133" lon="-4.831600">
        <ele>2373.0</ele>
        <time>2015-08-15T14:09:16Z</time>
      </trkpt>
      <trkpt lat="40.619217" lon="-4.831333">
        <ele>2369.0</ele>
        <time>2015-08-15T14:09:18Z</time>
      </trkpt>
      <trkpt lat="40.619300" lon="-4.831050">
        <ele>2366.0</ele>
        <time>2015-08-15T14:07:37Z</time>
      </trkpt>
      <trkpt lat="40.619400" lon="-4.830800">
        <ele>2365.0</ele>
        <time>2015-08-15T14:07:39Z</time>
      </trkpt>
      <trkpt lat="40.619533" lon="-4.830533">
        <ele>2366.0</ele>
        <time>2015-08-15T14:07:41Z</time>
      </trkpt>
      <trkpt lat="40.619650" lon="-4.830333">
        <ele>2372.0</ele>
        <time>2015-08-15T14:07:43Z</time>
      </trkpt>
      <trkpt lat="40.619767" lon="-4.830183">
        <ele>2376.0</ele>
        <time>2015-08-15T14:07:45Z</time>
      </trkpt>
      <trkpt lat="40.619850" lon="-4.829950">
        <ele>2379.0</ele>
        <time>2015-08-15T14:07:47Z</time>
      </trkpt>
      <trkpt lat="40.619867" lon="-4.829667">
        <ele>2382.0</ele>
        <time>2015-08-15T14:07:49Z</time>
      </trkpt>
      <trkpt lat="40.619800" lon="-4.829367">
        <ele>2384.0</ele>
        <time>2015-08-15T14:07:51Z</time>
      </trkpt>
      <trkpt lat="40.619667" lon="-4.829100">
        <ele>2386.0</ele>
        <time>2015-08-15T14:07:53Z</time>
      </trkpt>
      <trkpt lat="40.619450" lon="-4.828917">
        <ele>2388.0</ele>
        <time>2015-08-15T14:07:55Z</time>
      </trkpt>
      <trkpt lat="40.619250" lon="-4.828800">
        <ele>2393.0</ele>
        <time>2015-08-15T14:07:57Z</time>
      </trkpt>
      <trkpt lat="40.619067" lon="-4.828817">
        <ele>2396.0</ele>
        <time>2015-08-15T14:07:59Z</time>
      </trkpt>
      <trkpt lat="40.618933" lon="-4.828917">
        <ele>2398.0</ele>
        <time>2015-08-15T14:08:01Z</time>
      </trkpt>
      <trkpt lat="40.618883" lon="-4.829033">
        <ele>2399.0</ele>
        <time>2015-08-15T14:08:03Z</time>
      </trkpt>
      <trkpt lat="40.618917" lon="-4.829150">
        <ele>2398.0</ele>
        <time>2015-08-15T14:08:05Z</time>
      </trkpt>
      <trkpt lat="40.619000" lon="-4.829233">
        <ele>2398.0</ele>
        <time>2015-08-15T14:08:07Z</time>
      </trkpt>
      <trkpt lat="40.619167" lon="-4.829250">
        <ele>2400.0</ele>
        <time>2015-08-15T14:08:09Z</time>
      </trkpt>
      <trkpt lat="40.619317" lon="-4.829250">
        <ele>2407.0</ele>
        <time>2015-08-15T14:08:11Z</time>
      </trkpt>
      <trkpt lat="40.619417" lon="-4.829183">
        <ele>2412.0</ele>
        <time>2015-08-15T14:08:13Z</time>
      </trkpt>
      <trkpt lat="40.619517" lon="-4.829083">
        <ele>2412.0</ele>
        <time>2015-08-15T14:08:15Z</time>
      </trkpt>
      <trkpt lat="40.619633" lon="-4.828933">
        <ele>2412.0</ele>
        <time>2015-08-15T14:08:17Z</time>
      </trkpt>
      <trkpt lat="40.619750" lon="-4.828683">
        <ele>2411.0</ele>
        <time>2015-08-15T14:08:19Z</time>
      </trkpt>
      <trkpt lat="40.619867" lon="-4.828467">
        <ele>2412.0</ele>
        <time>2015-08-15T14:08:21Z</time>
      </trkpt>
      <trkpt lat="40.619983" lon="-4.828283">
        <ele>2413.0</ele>
        <time>2015-08-15T14:08:23Z</time>
      </trkpt>
      <trkpt lat="40.620100" lon="-4.828050">
        <ele>2412.0</ele>
        <time>2015-08-15T14:08:25Z</time>
      </trkpt>
      <trkpt lat="40.620200" lon="-4.827833">
        <ele>2413.0</ele>
        <time>2015-08-15T14:08:27Z</time>
      </trkpt>
      <trkpt lat="40.620300" lon="-4.827617">
        <ele>2414.0</ele>
        <time>2015-08-15T14:08:29Z</time>
      </trkpt>
      <trkpt lat="40.620400" lon="-4.827400">
        <ele>2412.0</ele>
        <time>2015-08-15T14:08:31Z</time>
      </trkpt>
      <trkpt lat="40.620517" lon="-4.827200">
        <ele>2413.0</ele>
        <time>2015-08-15T14:08:33Z</time>
      </trkpt>
      <trkpt lat="40.620583" lon="-4.826967">
        <ele>2416.0</ele>
        <time>2015-08-15T14:08:35Z</time>
      </trkpt>
      <trkpt lat="40.620617" lon="-4.826717">
        <ele>2416.0</ele>
        <time>2015-08-15T14:08:37Z</time>
      </trkpt>
      <trkpt lat="40.620683" lon="-4.826467">
        <ele>2412.0</ele>
        <time>2015-08-15T14:08:39Z</time>
      </trkpt>
      <trkpt lat="40.620783" lon="-4.826233">
        <ele>2412.0</ele>
        <time>2015-08-15T14:08:41Z</time>
      </trkpt>
      <trkpt lat="40.620867" lon="-4.826017">
        <ele>2414.0</ele>
        <time>2015-08-15T14:08:43Z</time>
      </trkpt>
      <trkpt lat="40.620967" lon="-4.825783">
        <ele>2412.0</ele>
        <time>2015-08-15T14:08:45Z</time>
      </trkpt>
      <trkpt lat="40.621067" lon="-4.825567">
        <ele>2410.0</ele>
        <time>2015-08-15T14:08:47Z</time>
      </trkpt>
      <trkpt lat="40.621167" lon="-4.825350">
        <ele>2411.0</ele>
        <time>2015-08-15T14:08:49Z</time>
      </trkpt>
      <trkpt lat="40.621250" lon="-4.825133">
        <ele>2410.0</ele>
        <time>2015-08-15T14:08:51Z</time>
      </trkpt>
      <trkpt lat="40.621333" lon="-4.824900">
        <ele>2407.0</ele>
        <time>2015-08-15T14:08:53Z</time>
      </trkpt>
      <trkpt lat="40.621450" lon="-4.824650">
        <ele>2404.0</ele>
        <time>2015-08-15T14:08:55Z</time>
      </trkpt>
      <trkpt lat="40.621567" lon="-4.824433">
        <ele>2403.0</ele>
        <time>2015-08-15T14:08:57Z</time>
      </trkpt>
      <trkpt lat="40.621667" lon="-4.824200">
        <ele>2401.0</ele>
        <time>2015-08-15T14:08:59Z</time>
      </trkpt>
      <trkpt lat="40.621767" lon="-4.823933">
        <ele>2398.0</ele>
        <time>2015-08-15T14:09:01Z</time>
      </trkpt>
      <trkpt lat="40.621883" lon="-4.823700">
        <ele>2397.0</ele>
        <time>2015-08-15T14:09:03Z</time>
      </trkpt>
      <trkpt lat="40.621983" lon="-4.823483">
        <ele>2395.0</ele>
        <time>2015-08-15T14:09:05Z</time>
      </trkpt>
      <trkpt lat="40.622083" lon="-4.823233">
        <ele>2389.0</ele>
        <time>2015-08-15T14:09:07Z</time>
      </trkpt>
      <trkpt lat="40.622183" lon="-4.822950">
        <ele>2385.0</ele>
        <time>2015-08-15T14:09:09Z</time>
      </trkpt>
      <trkpt lat="40.622267" lon="-4.822700">
        <ele>2383.0</ele>
        <time>2015-08-15T14:09:11Z</time>
      </trkpt>
      <trkpt lat="40.622367" lon="-4.822450">
        <ele>2379.0</ele>
        <time>2015-08-15T14:09:13Z</time>
      </trkpt>
      <trkpt lat="40.622483" lon="-4.822183">
        <ele>2373.0</ele>
        <time>2015-08-15T14:09:15Z</time>
      </trkpt>
      <trkpt lat="40.622600" lon="-4.821883">
        <ele>2368.0</ele>
        <time>2015-08-15T14:09:17Z</time>
      </trkpt>
      <trkpt lat="40.622700" lon="-4.821583">
        <ele>2362.0</ele>
        <time>2015-08-15T14:09:19Z</time>
      </trkpt>
      <trkpt lat="40.622767" lon="-4.821300">
        <ele>2357.0</ele>
        <time>2015-08-15T14:09:21Z</time>
      </trkpt>
      <trkpt lat="40.622850" lon="-4.821017">
        <ele>2350.0</ele>
        <time>2015-08-15T14:09:23Z</time>
      </trkpt>
      <trkpt lat="40.622933" lon="-4.820783">
        <ele>2342.0</ele>
        <time>2015-08-15T14:09:25Z</time>
      </trkpt>
      <trkpt lat="40.623033" lon="-4.820550">
        <ele>2333.0</ele>
        <time>2015-08-15T14:09:27Z</time>
      </trkpt>
      <trkpt lat="40.623117" lon="-4.820300">
        <ele>2324.0</ele>
        <time>2015-08-15T14:09:29Z</time>
      </trkpt>
      <trkpt lat="40.623183" lon="-4.820017">
        <ele>2317.0</ele>
        <time>2015-08-15T14:09:31Z</time>
      </trkpt>
      <trkpt lat="40.623250" lon="-4.819767">
        <ele>2310.0</ele>
        <time>2015-08-15T14:09:33Z</time>
      </trkpt>
      <trkpt lat="40.623317" lon="-4.819517">
        <ele>2301.0</ele>
        <time>2015-08-15T14:09:35Z</time>
      </trkpt>
      <trkpt lat="40.623400" lon="-4.819250">
        <ele>2291.0</ele>
        <time>2015-08-15T14:09:37Z</time>
      </trkpt>
      <trkpt lat="40.623483" lon="-4.819000">
        <ele>2282.0</ele>
        <time>2015-08-15T14:09:39Z</time>
      </trkpt>
      <trkpt lat="40.623583" lon="-4.818750">
        <ele>2272.0</ele>
        <time>2015-08-15T14:09:41Z</time>
      </trkpt>
      <trkpt lat="40.623700" lon="-4.818500">
        <ele>2264.0</ele>
        <time>2015-08-15T14:09:43Z</time>
      </trkpt>
      <trkpt lat="40.623800" lon="-4.818267">
        <ele>2260.0</ele>
        <time>2015-08-15T14:09:45Z</time>
      </trkpt>
      <trkpt lat="40.623917" lon="-4.818100">
        <ele>2255.0</ele>
        <time>2015-08-15T14:09:47Z</time>
      </trkpt>
      <trkpt lat="40.624033" lon="-4.817917">
        <ele>2248.0</ele>
        <time>2015-08-15T14:09:49Z</time>
      </trkpt>
      <trkpt lat="40.624133" lon="-4.817717">
        <ele>2242.0</ele>
        <time>2015-08-15T14:09:51Z</time>
      </trkpt>
      <trkpt lat="40.624250" lon="-4.817500">
        <ele>2237.0</ele>
        <time>2015-08-15T14:09:53Z</time>
      </trkpt>
      <trkpt lat="40.624350" lon="-4.817283">
        <ele>2232.0</ele>
        <time>2015-08-15T14:09:55Z</time>
      </trkpt>
      <trkpt lat="40.624450" lon="-4.817033">
        <ele>2227.0</ele>
        <time>2015-08-15T14:09:57Z</time>
      </trkpt>
      <trkpt lat="40.624567" lon="-4.816767">
        <ele>2223.0</ele>
        <time>2015-08-15T14:09:59Z</time>
      </trkpt>
      <trkpt lat="40.624667" lon="-4.816533">
        <ele>2219.0</ele>
        <time>2015-08-15T14:10:01Z</time>
      </trkpt>
      <trkpt lat="40.624750" lon="-4.816283">
        <ele>2213.0</ele>
        <time>2015-08-15T14:10:03Z</time>
      </trkpt>
      <trkpt lat="40.624867" lon="-4.816017">
        <ele>2207.0</ele>
        <time>2015-08-15T14:10:05Z</time>
      </trkpt>
      <trkpt lat="40.624967" lon="-4.815783">
        <ele>2203.0</ele>
        <time>2015-08-15T14:10:07Z</time>
      </trkpt>
      <trkpt lat="40.625067" lon="-4.815533">
        <ele>2197.0</ele>
        <time>2015-08-15T14:10:09Z</time>
      </trkpt>
      <trkpt lat="40.625150" lon="-4.815283">
        <ele>2191.0</ele>
        <time>2015-08-15T14:10:11Z</time>
      </trkpt>
      <trkpt lat="40.625250" lon="-4.815017">
        <ele>2186.0</ele>
        <time>2015-08-15T14:10:13Z</time>
      </trkpt>
      <trkpt lat="40.625350" lon="-4.814767">
        <ele>2181.0</ele>
        <time>2015-08-15T14:10:15Z</time>
      </trkpt>
      <trkpt lat="40.625450" lon="-4.814517">
        <ele>2177.0</ele>
        <time>2015-08-15T14:10:17Z</time>
      </trkpt>
      <trkpt lat="40.625533" lon="-4.814267">
        <ele>2172.0</ele>
        <time>2015-08-15T14:10:19Z</time>
      </trkpt>
      <trkpt lat="40.625633" lon="-4.814017">
        <ele>2167.0</ele>
        <time>2015-08-15T14:10:21Z</time>
      </trkpt>
      <trkpt lat="40.625700" lon="-4.813767">
        <ele>2162.0</ele>
        <time>2015-08-15T14:10:23Z</time>
      </trkpt>
      <trkpt lat="40.625783" lon="-4.813483">
        <ele>2156.0</ele>
        <time>2015-08-15T14:10:25Z</time>
      </trkpt>
      <trkpt lat="40.625867" lon="-4.813200">
        <ele>2152.0</ele>
        <time>2015-08-15T14:10:27Z</time>
      </trkpt>
      <trkpt lat="40.625933" lon="-4.812933">
        <ele>2149.0</ele>
        <time>2015-08-15T14:10:29Z</time>
      </trkpt>
      <trkpt lat="40.626000" lon="-4.812667">
        <ele>2145.0</ele>
        <time>2015-08-15T14:10:31Z</time>
      </trkpt>
      <trkpt lat="40.626083" lon="-4.812400">
        <ele>2142.0</ele>
        <time>2015-08-15T14:10:33Z</time>
      </trkpt>
      <trkpt lat="40.626167" lon="-4.812133">
        <ele>2141.0</ele>
        <time>2015-08-15T14:10:35Z</time>
      </trkpt>
      <trkpt lat="40.626250" lon="-4.811900">
        <ele>2139.0</ele>
        <time>2015-08-15T14:10:37Z</time>
      </trkpt>
      <trkpt lat="40.626350" lon="-4.811650">
        <ele>2135.0</ele>
        <time>2015-08-15T14:10:39Z</time>
      </trkpt>
      <trkpt lat="40.626467" lon="-4.811383">
        <ele>2131.0</ele>
        <time>2015-08-15T14:10:41Z</time>
      </trkpt>
      <trkpt lat="40.626583" lon="-4.811150">
        <ele>2130.0</ele>
        <time>2015-08-15T14:10:43Z</time>
      </trkpt>
      <trkpt lat="40.626667" lon="-4.810900">
        <ele>2129.0</ele>
        <time>2015-08-15T14:10:45Z</time>
      </trkpt>
      <trkpt lat="40.626733" lon="-4.810650">
        <ele>2124.0</ele>
        <time>2015-08-15T14:10:47Z</time>
      </trkpt>
      <trkpt lat="40.626817" lon="-4.810400">
        <ele>2118.0</ele>
        <time>2015-08-15T14:10:49Z</time>
      </trkpt>
      <trkpt lat="40.626917" lon="-4.810133">
        <ele>2114.0</ele>
        <time>2015-08-15T14:10:51Z</time>
      </trkpt>
      <trkpt lat="40.627000" lon="-4.809900">
        <ele>2111.0</ele>
        <time>2015-08-15T14:10:53Z</time>
      </trkpt>
      <trkpt lat="40.627117" lon="-4.809667">
        <ele>2108.0</ele>
        <time>2015-08-15T14:10:55Z</time>
      </trkpt>
      <trkpt lat="40.627233" lon="-4.809433">
        <ele>2105.0</ele>
        <time>2015-08-15T14:10:57Z</time>
      </trkpt>
      <trkpt lat="40.627367" lon="-4.809217">
        <ele>2101.0</ele>
        <time>2015-08-15T14:10:59Z</time>
      </trkpt>
      <trkpt lat="40.627483" lon="-4.809017">
        <ele>2098.0</ele>
        <time>2015-08-15T14:11:01Z</time>
      </trkpt>
      <trkpt lat="40.627600" lon="-4.808783">
        <ele>2097.0</ele>
        <time>2015-08-15T14:11:03Z</time>
      </trkpt>
      <trkpt lat="40.627700" lon="-4.808533">
        <ele>2096.0</ele>
        <time>2015-08-15T14:11:05Z</time>
      </trkpt>
      <trkpt lat="40.627800" lon="-4.808317">
        <ele>2095.0</ele>
        <time>2015-08-15T14:11:07Z</time>
      </trkpt>
      <trkpt lat="40.627883" lon="-4.808100">
        <ele>2090.0</ele>
        <time>2015-08-15T14:11:09Z</time>
      </trkpt>
      <trkpt lat="40.627983" lon="-4.807800">
        <ele>2083.0</ele>
        <time>2015-08-15T14:11:11Z</time>
      </trkpt>
      <trkpt lat="40.628067" lon="-4.807533">
        <ele>2083.0</ele>
        <time>2015-08-15T14:11:13Z</time>
      </trkpt>
      <trkpt lat="40.628133" lon="-4.807317">
        <ele>2081.0</ele>
        <time>2015-08-15T14:11:15Z</time>
      </trkpt>
      <trkpt lat="40.628217" lon="-4.807100">
        <ele>2076.0</ele>
        <time>2015-08-15T14:11:17Z</time>
      </trkpt>
      <trkpt lat="40.628350" lon="-4.806883">
        <ele>2072.0</ele>
        <time>2015-08-15T14:11:19Z</time>
      </trkpt>
      <trkpt lat="40.628450" lon="-4.806683">
        <ele>2072.0</ele>
        <time>2015-08-15T14:11:21Z</time>
      </trkpt>
      <trkpt lat="40.628517" lon="-4.806467">
        <ele>2068.0</ele>
        <time>2015-08-15T14:11:23Z</time>
      </trkpt>
      <trkpt lat="40.628633" lon="-4.806250">
        <ele>2063.0</ele>
        <time>2015-08-15T14:11:25Z</time>
      </trkpt>
      <trkpt lat="40.628767" lon="-4.806050">
        <ele>2058.0</ele>
        <time>2015-08-15T14:11:27Z</time>
      </trkpt>
      <trkpt lat="40.628883" lon="-4.805833">
        <ele>2051.0</ele>
        <time>2015-08-15T14:11:29Z</time>
      </trkpt>
      <trkpt lat="40.629017" lon="-4.805583">
        <ele>2045.0</ele>
        <time>2015-08-15T14:11:31Z</time>
      </trkpt>
      <trkpt lat="40.629133" lon="-4.805350">
        <ele>2040.0</ele>
        <time>2015-08-15T14:11:33Z</time>
      </trkpt>
      <trkpt lat="40.629250" lon="-4.805117">
        <ele>2036.0</ele>
        <time>2015-08-15T14:11:35Z</time>
      </trkpt>
      <trkpt lat="40.629350" lon="-4.804900">
        <ele>2032.0</ele>
        <time>2015-08-15T14:11:37Z</time>
      </trkpt>
      <trkpt lat="40.629433" lon="-4.804683">
        <ele>2029.0</ele>
        <time>2015-08-15T14:11:39Z</time>
      </trkpt>
      <trkpt lat="40.629517" lon="-4.804500">
        <ele>2025.0</ele>
        <time>2015-08-15T14:11:41Z</time>
      </trkpt>
      <trkpt lat="40.629600" lon="-4.804283">
        <ele>2018.0</ele>
        <time>2015-08-15T14:11:43Z</time>
      </trkpt>
      <trkpt lat="40.629633" lon="-4.804050">
        <ele>2014.0</ele>
        <time>2015-08-15T14:11:45Z</time>
      </trkpt>
      <trkpt lat="40.629683" lon="-4.803867">
        <ele>2008.0</ele>
        <time>2015-08-15T14:11:47Z</time>
      </trkpt>
      <trkpt lat="40.629767" lon="-4.803750">
        <ele>2000.0</ele>
        <time>2015-08-15T14:11:49Z</time>
      </trkpt>
      <trkpt lat="40.629883" lon="-4.803617">
        <ele>1993.0</ele>
        <time>2015-08-15T14:11:51Z</time>
      </trkpt>
      <trkpt lat="40.629983" lon="-4.803483">
        <ele>1986.0</ele>
        <time>2015-08-15T14:11:53Z</time>
      </trkpt>
      <trkpt lat="40.630067" lon="-4.803333">
        <ele>1978.0</ele>
        <time>2015-08-15T14:11:55Z</time>
      </trkpt>
      <trkpt lat="40.630167" lon="-4.803150">
        <ele>1971.0</ele>
        <time>2015-08-15T14:11:57Z</time>
      </trkpt>
      <trkpt lat="40.630250" lon="-4.802933">
        <ele>1966.0</ele>
        <time>2015-08-15T14:11:59Z</time>
      </trkpt>
      <trkpt lat="40.630300" lon="-4.802700">
        <ele>1964.0</ele>
        <time>2015-08-15T14:12:01Z</time>
      </trkpt>
      <trkpt lat="40.630333" lon="-4.802483">
        <ele>1963.0</ele>
        <time>2015-08-15T14:12:03Z</time>
      </trkpt>
      <trkpt lat="40.630417" lon="-4.802283">
        <ele>1959.0</ele>
        <time>2015-08-15T14:12:05Z</time>
      </trkpt>
      <trkpt lat="40.630517" lon="-4.802083">
        <ele>1956.0</ele>
        <time>2015-08-15T14:12:07Z</time>
      </trkpt>
      <trkpt lat="40.630650" lon="-4.801917">
        <ele>1954.0</ele>
        <time>2015-08-15T14:12:09Z</time>
      </trkpt>
      <trkpt lat="40.630767" lon="-4.801767">
        <ele>1952.0</ele>
        <time>2015-08-15T14:12:11Z</time>
      </trkpt>
      <trkpt lat="40.630867" lon="-4.801583">
        <ele>1949.0</ele>
        <time>2015-08-15T14:12:13Z</time>
      </trkpt>
      <trkpt lat="40.630983" lon="-4.801417">
        <ele>1945.0</ele>
        <time>2015-08-15T14:12:15Z</time>
      </trkpt>
      <trkpt lat="40.631083" lon="-4.801250">
        <ele>1943.0</ele>
        <time>2015-08-15T14:12:17Z</time>
      </trkpt>
      <trkpt lat="40.631150" lon="-4.801067">
        <ele>1938.0</ele>
        <time>2015-08-15T14:12:19Z</time>
      </trkpt>
      <trkpt lat="40.631250" lon="-4.800867">
        <ele>1932.0</ele>
        <time>2015-08-15T14:12:21Z</time>
      </trkpt>
      <trkpt lat="40.631350" lon="-4.800650">
        <ele>1928.0</ele>
        <time>2015-08-15T14:12:23Z</time>
      </trkpt>
      <trkpt lat="40.631450" lon="-4.800433">
        <ele>1926.0</ele>
        <time>2015-08-15T14:12:25Z</time>
      </trkpt>
      <trkpt lat="40.631550" lon="-4.800200">
        <ele>1925.0</ele>
        <time>2015-08-15T14:12:27Z</time>
      </trkpt>
      <trkpt lat="40.631617" lon="-4.799983">
        <ele>1925.0</ele>
        <time>2015-08-15T14:12:29Z</time>
      </trkpt>
      <trkpt lat="40.631700" lon="-4.799783">
        <ele>1925.0</ele>
        <time>2015-08-15T14:12:31Z</time>
      </trkpt>
      <trkpt lat="40.631750" lon="-4.799600">
        <ele>1926.0</ele>
        <time>2015-08-15T14:12:33Z</time>
      </trkpt>
      <trkpt lat="40.631817" lon="-4.799417">
        <ele>1924.0</ele>
        <time>2015-08-15T14:12:35Z</time>
      </trkpt>
      <trkpt lat="40.631900" lon="-4.799217">
        <ele>1922.0</ele>
        <time>2015-08-15T14:12:37Z</time>
      </trkpt>
      <trkpt lat="40.631950" lon="-4.798983">
        <ele>1923.0</ele>
        <time>2015-08-15T14:12:39Z</time>
      </trkpt>
      <trkpt lat="40.632033" lon="-4.798783">
        <ele>1922.0</ele>
        <time>2015-08-15T14:12:41Z</time>
      </trkpt>
      <trkpt lat="40.632117" lon="-4.798583">
        <ele>1921.0</ele>
        <time>2015-08-15T14:12:43Z</time>
      </trkpt>
      <trkpt lat="40.632200" lon="-4.798350">
        <ele>1922.0</ele>
        <time>2015-08-15T14:12:45Z</time>
      </trkpt>
      <trkpt lat="40.632250" lon="-4.798083">
        <ele>1921.0</ele>
        <time>2015-08-15T14:12:47Z</time>
      </trkpt>
      <trkpt lat="40.632317" lon="-4.797850">
        <ele>1922.0</ele>
        <time>2015-08-15T14:12:49Z</time>
      </trkpt>
      <trkpt lat="40.632400" lon="-4.797650">
        <ele>1922.0</ele>
        <time>2015-08-15T14:12:51Z</time>
      </trkpt>
      <trkpt lat="40.632483" lon="-4.797467">
        <ele>1918.0</ele>
        <time>2015-08-15T14:12:53Z</time>
      </trkpt>
      <trkpt lat="40.632600" lon="-4.797267">
        <ele>1913.0</ele>
        <time>2015-08-15T14:12:55Z</time>
      </trkpt>
      <trkpt lat="40.632733" lon="-4.797050">
        <ele>1912.0</ele>
        <time>2015-08-15T14:12:57Z</time>
      </trkpt>
      <trkpt lat="40.632833" lon="-4.796850">
        <ele>1911.0</ele>
        <time>2015-08-15T14:12:59Z</time>
      </trkpt>
      <trkpt lat="40.632933" lon="-4.796650">
        <ele>1910.0</ele>
        <time>2015-08-15T14:13:01Z</time>
      </trkpt>
      <trkpt lat="40.633033" lon="-4.796417">
        <ele>1909.0</ele>
        <time>2015-08-15T14:13:03Z</time>
      </trkpt>
      <trkpt lat="40.633133" lon="-4.796183">
        <ele>1908.0</ele>
        <time>2015-08-15T14:13:05Z</time>
      </trkpt>
      <trkpt lat="40.633233" lon="-4.795950">
        <ele>1908.0</ele>
        <time>2015-08-15T14:13:07Z</time>
      </trkpt>
      <trkpt lat="40.633333" lon="-4.795717">
        <ele>1908.0</ele>
        <time>2015-08-15T14:13:09Z</time>
      </trkpt>
      <trkpt lat="40.633417" lon="-4.795483">
        <ele>1907.0</ele>
        <time>2015-08-15T14:13:11Z</time>
      </trkpt>
      <trkpt lat="40.633483" lon="-4.795250">
        <ele>1906.0</ele>
        <time>2015-08-15T14:13:13Z</time>
      </trkpt>
      <trkpt lat="40.633550" lon="-4.795017">
        <ele>1904.0</ele>
        <time>2015-08-15T14:13:15Z</time>
      </trkpt>
      <trkpt lat="40.633617" lon="-4.794783">
        <ele>1902.0</ele>
        <time>2015-08-15T14:13:17Z</time>
      </trkpt>
      <trkpt lat="40.633667" lon="-4.794533">
        <ele>1901.0</ele>
        <time>2015-08-15T14:13:19Z</time>
      </trkpt>
      <trkpt lat="40.633733" lon="-4.794267">
        <ele>1902.0</ele>
        <time>2015-08-15T14:13:21Z</time>
      </trkpt>
      <trkpt lat="40.633783" lon="-4.794033">
        <ele>1903.0</ele>
        <time>2015-08-15T14:13:23Z</time>
      </trkpt>
      <trkpt lat="40.633817" lon="-4.793783">
        <ele>1901.0</ele>
        <time>2015-08-15T14:13:25Z</time>
      </trkpt>
      <trkpt lat="40.633867" lon="-4.793483">
        <ele>1900.0</ele>
        <time>2015-08-15T14:13:27Z</time>
      </trkpt>
      <trkpt lat="40.633917" lon="-4.793200">
        <ele>1901.0</ele>
        <time>2015-08-15T14:13:29Z</time>
      </trkpt>
      <trkpt lat="40.633950" lon="-4.792917">
        <ele>1903.0</ele>
        <time>2015-08-15T14:13:31Z</time>
      </trkpt>
      <trkpt lat="40.634017" lon="-4.792650">
        <ele>1903.0</ele>
        <time>2015-08-15T14:13:33Z</time>
      </trkpt>
      <trkpt lat="40.634100" lon="-4.792483">
        <ele>1908.0</ele>
        <time>2015-08-15T14:13:35Z</time>
      </trkpt>
      <trkpt lat="40.634150" lon="-4.792383">
        <ele>1912.0</ele>
        <time>2015-08-15T14:13:37Z</time>
      </trkpt>
      <trkpt lat="40.634200" lon="-4.792183">
        <ele>1914.0</ele>
        <time>2015-08-15T14:13:39Z</time>
      </trkpt>
      <trkpt lat="40.634217" lon="-4.791933">
        <ele>1921.0</ele>
        <time>2015-08-15T14:13:41Z</time>
      </trkpt>
      <trkpt lat="40.634133" lon="-4.791717">
        <ele>1929.0</ele>
        <time>2015-08-15T14:13:43Z</time>
      </trkpt>
      <trkpt lat="40.633967" lon="-4.791500">
        <ele>1931.0</ele>
        <time>2015-08-15T14:13:45Z</time>
      </trkpt>
      <trkpt lat="40.633750" lon="-4.791333">
        <ele>1932.0</ele>
        <time>2015-08-15T14:13:47Z</time>
      </trkpt>
      <trkpt lat="40.633483" lon="-4.791333">
        <ele>1932.0</ele>
        <time>2015-08-15T14:13:49Z</time>
      </trkpt>
      <trkpt lat="40.633217" lon="-4.791433">
        <ele>1937.0</ele>
        <time>2015-08-15T14:13:51Z</time>
      </trkpt>
      <trkpt lat="40.633033" lon="-4.791583">
        <ele>1942.0</ele>
        <time>2015-08-15T14:13:53Z</time>
      </trkpt>
      <trkpt lat="40.632967" lon="-4.791733">
        <ele>1943.0</ele>
        <time>2015-08-15T14:13:55Z</time>
      </trkpt>
      <trkpt lat="40.632950" lon="-4.791883">
        <ele>1944.0</ele>
        <time>2015-08-15T14:13:57Z</time>
      </trkpt>
      <trkpt lat="40.633017" lon="-4.791967">
        <ele>1944.0</ele>
        <time>2015-08-15T14:13:59Z</time>
      </trkpt>
      <trkpt lat="40.633117" lon="-4.792017">
        <ele>1945.0</ele>
        <time>2015-08-15T14:14:01Z</time>
      </trkpt>
      <trkpt lat="40.633233" lon="-4.792017">
        <ele>1948.0</ele>
        <time>2015-08-15T14:14:03Z</time>
      </trkpt>
      <trkpt lat="40.633333" lon="-4.791883">
        <ele>1952.0</ele>
        <time>2015-08-15T14:14:05Z</time>
      </trkpt>
      <trkpt lat="40.633383" lon="-4.791750">
        <ele>1959.0</ele>
        <time>2015-08-15T14:14:07Z</time>
      </trkpt>
      <trkpt lat="40.633400" lon="-4.791583">
        <ele>1963.0</ele>
        <time>2015-08-15T14:14:09Z</time>
      </trkpt>
      <trkpt lat="40.633367" lon="-4.791350">
        <ele>1963.0</ele>
        <time>2015-08-15T14:14:11Z</time>
      </trkpt>
      <trkpt lat="40.633250" lon="-4.791083">
        <ele>1965.0</ele>
        <time>2015-08-15T14:14:13Z</time>
      </trkpt>
      <trkpt lat="40.633033" lon="-4.790883">
        <ele>1972.0</ele>
        <time>2015-08-15T14:14:15Z</time>
      </trkpt>
      <trkpt lat="40.632800" lon="-4.790783">
        <ele>1975.0</ele>
        <time>2015-08-15T14:14:17Z</time>
      </trkpt>
      <trkpt lat="40.632533" lon="-4.790750">
        <ele>1977.0</ele>
        <time>2015-08-15T14:14:19Z</time>
      </trkpt>
      <trkpt lat="40.632300" lon="-4.790817">
        <ele>1982.0</ele>
        <time>2015-08-15T14:14:21Z</time>
      </trkpt>
      <trkpt lat="40.632150" lon="-4.790950">
        <ele>1986.0</ele>
        <time>2015-08-15T14:14:23Z</time>
      </trkpt>
      <trkpt lat="40.632050" lon="-4.791083">
        <ele>1987.0</ele>
        <time>2015-08-15T14:14:25Z</time>
      </trkpt>
      <trkpt lat="40.631983" lon="-4.791267">
        <ele>1987.0</ele>
        <time>2015-08-15T14:14:27Z</time>
      </trkpt>
      <trkpt lat="40.632017" lon="-4.791433">
        <ele>1988.0</ele>
        <time>2015-08-15T14:14:29Z</time>
      </trkpt>
      <trkpt lat="40.632067" lon="-4.791533">
        <ele>1992.0</ele>
        <time>2015-08-15T14:14:31Z</time>
      </trkpt>
      <trkpt lat="40.632133" lon="-4.791567">
        <ele>1996.0</ele>
        <time>2015-08-15T14:14:33Z</time>
      </trkpt>
      <trkpt lat="40.632217" lon="-4.791517">
        <ele>1997.0</ele>
        <time>2015-08-15T14:14:35Z</time>
      </trkpt>
      <trkpt lat="40.632283" lon="-4.791383">
        <ele>1998.0</ele>
        <time>2015-08-15T14:14:37Z</time>
      </trkpt>
      <trkpt lat="40.632300" lon="-4.791133">
        <ele>2000.0</ele>
        <time>2015-08-15T14:14:39Z</time>
      </trkpt>
      <trkpt lat="40.632250" lon="-4.790833">
        <ele>2004.0</ele>
        <time>2015-08-15T14:14:41Z</time>
      </trkpt>
      <trkpt lat="40.632150" lon="-4.790600">
        <ele>2011.0</ele>
        <time>2015-08-15T14:14:43Z</time>
      </trkpt>
      <trkpt lat="40.631983" lon="-4.790400">
        <ele>2015.0</ele>
        <time>2015-08-15T14:14:45Z</time>
      </trkpt>
      <trkpt lat="40.631767" lon="-4.790250">
        <ele>2018.0</ele>
        <time>2015-08-15T14:14:47Z</time>
      </trkpt>
      <trkpt lat="40.631550" lon="-4.790217">
        <ele>2023.0</ele>
        <time>2015-08-15T14:14:49Z</time>
      </trkpt>
      <trkpt lat="40.631350" lon="-4.790283">
        <ele>2024.0</ele>
        <time>2015-08-15T14:14:51Z</time>
      </trkpt>
      <trkpt lat="40.631167" lon="-4.790400">
        <ele>2026.0</ele>
        <time>2015-08-15T14:14:53Z</time>
      </trkpt>
      <trkpt lat="40.631033" lon="-4.790583">
        <ele>2029.0</ele>
        <time>2015-08-15T14:14:55Z</time>
      </trkpt>
      <trkpt lat="40.630967" lon="-4.790767">
        <ele>2031.0</ele>
        <time>2015-08-15T14:14:57Z</time>
      </trkpt>
      <trkpt lat="40.630950" lon="-4.790917">
        <ele>2034.0</ele>
        <time>2015-08-15T14:14:59Z</time>
      </trkpt>
      <trkpt lat="40.630983" lon="-4.791000">
        <ele>2036.0</ele>
        <time>2015-08-15T14:15:01Z</time>
      </trkpt>
      <trkpt lat="40.631050" lon="-4.791000">
        <ele>2038.0</ele>
        <time>2015-08-15T14:15:03Z</time>
      </trkpt>
      <trkpt lat="40.631133" lon="-4.790917">
        <ele>2039.0</ele>
        <time>2015-08-15T14:15:05Z</time>
      </trkpt>
      <trkpt lat="40.631200" lon="-4.790767">
        <ele>2039.0</ele>
        <time>2015-08-15T14:15:07Z</time>
      </trkpt>
      <trkpt lat="40.631267" lon="-4.790550">
        <ele>2036.0</ele>
        <time>2015-08-15T14:15:09Z</time>
      </trkpt>
      <trkpt lat="40.631300" lon="-4.790233">
        <ele>2035.0</ele>
        <time>2015-08-15T14:15:11Z</time>
      </trkpt>
      <trkpt lat="40.631350" lon="-4.789967">
        <ele>2038.0</ele>
        <time>2015-08-15T14:15:13Z</time>
      </trkpt>
      <trkpt lat="40.631367" lon="-4.789733">
        <ele>2040.0</ele>
        <time>2015-08-15T14:15:15Z</time>
      </trkpt>
      <trkpt lat="40.631350" lon="-4.789433">
        <ele>2037.0</ele>
        <time>2015-08-15T14:15:17Z</time>
      </trkpt>
      <trkpt lat="40.631383" lon="-4.789100">
        <ele>2036.0</ele>
        <time>2015-08-15T14:15:19Z</time>
      </trkpt>
      <trkpt lat="40.631483" lon="-4.788867">
        <ele>2039.0</ele>
        <time>2015-08-15T14:15:21Z</time>
      </trkpt>
      <trkpt lat="40.631600" lon="-4.788750">
        <ele>2042.0</ele>
        <time>2015-08-15T14:15:23Z</time>
      </trkpt>
      <trkpt lat="40.631717" lon="-4.788667">
        <ele>2043.0</ele>
        <time>2015-08-15T14:15:25Z</time>
      </trkpt>
      <trkpt lat="40.631867" lon="-4.788633">
        <ele>2043.0</ele>
        <time>2015-08-15T14:15:27Z</time>
      </trkpt>
      <trkpt lat="40.632033" lon="-4.788617">
        <ele>2050.0</ele>
        <time>2015-08-15T14:15:29Z</time>
      </trkpt>
      <trkpt lat="40.632133" lon="-4.788567">
        <ele>2057.0</ele>
        <time>2015-08-15T14:15:31Z</time>
      </trkpt>
      <trkpt lat="40.632233" lon="-4.788500">
        <ele>2057.0</ele>
        <time>2015-08-15T14:15:33Z</time>
      </trkpt>
      <trkpt lat="40.632367" lon="-4.788417">
        <ele>2057.0</ele>
        <time>2015-08-15T14:15:35Z</time>
      </trkpt>
      <trkpt lat="40.632483" lon="-4.788383">
        <ele>2057.0</ele>
        <time>2015-08-15T14:15:37Z</time>
      </trkpt>
      <trkpt lat="40.632600" lon="-4.788333">
        <ele>2057.0</ele>
        <time>2015-08-15T14:15:39Z</time>
      </trkpt>
      <trkpt lat="40.632750" lon="-4.788267">
        <ele>2061.0</ele>
        <time>2015-08-15T14:15:41Z</time>
      </trkpt>
      <trkpt lat="40.632867" lon="-4.788267">
        <ele>2066.0</ele>
        <time>2015-08-15T14:15:43Z</time>
      </trkpt>
      <trkpt lat="40.632983" lon="-4.788250">
        <ele>2069.0</ele>
        <time>2015-08-15T14:15:45Z</time>
      </trkpt>
      <trkpt lat="40.633100" lon="-4.788117">
        <ele>2073.0</ele>
        <time>2015-08-15T14:15:47Z</time>
      </trkpt>
      <trkpt lat="40.633183" lon="-4.787883">
        <ele>2078.0</ele>
        <time>2015-08-15T14:15:49Z</time>
      </trkpt>
      <trkpt lat="40.633133" lon="-4.787633">
        <ele>2079.0</ele>
        <time>2015-08-15T14:15:51Z</time>
      </trkpt>
      <trkpt lat="40.633017" lon="-4.787417">
        <ele>2080.0</ele>
        <time>2015-08-15T14:15:53Z</time>
      </trkpt>
      <trkpt lat="40.632833" lon="-4.787300">
        <ele>2082.0</ele>
        <time>2015-08-15T14:15:55Z</time>
      </trkpt>
      <trkpt lat="40.632650" lon="-4.787317">
        <ele>2081.0</ele>
        <time>2015-08-15T14:15:57Z</time>
      </trkpt>
      <trkpt lat="40.632500" lon="-4.787467">
        <ele>2081.0</ele>
        <time>2015-08-15T14:15:59Z</time>
      </trkpt>
      <trkpt lat="40.632417" lon="-4.787667">
        <ele>2083.0</ele>
        <time>2015-08-15T14:16:01Z</time>
      </trkpt>
      <trkpt lat="40.632383" lon="-4.787867">
        <ele>2083.0</ele>
        <time>2015-08-15T14:16:03Z</time>
      </trkpt>
      <trkpt lat="40.632317" lon="-4.788050">
        <ele>2086.0</ele>
        <time>2015-08-15T14:16:05Z</time>
      </trkpt>
      <trkpt lat="40.632317" lon="-4.788217">
        <ele>2089.0</ele>
        <time>2015-08-15T14:16:07Z</time>
      </trkpt>
      <trkpt lat="40.632400" lon="-4.788317">
        <ele>2090.0</ele>
        <time>2015-08-15T14:16:09Z</time>
      </trkpt>
      <trkpt lat="40.632533" lon="-4.788350">
        <ele>2093.0</ele>
        <time>2015-08-15T14:16:11Z</time>
      </trkpt>
      <trkpt lat="40.632633" lon="-4.788333">
        <ele>2097.0</ele>
        <time>2015-08-15T14:16:13Z</time>
      </trkpt>
      <trkpt lat="40.632733" lon="-4.788267">
        <ele>2099.0</ele>
        <time>2015-08-15T14:16:15Z</time>
      </trkpt>
      <trkpt lat="40.632833" lon="-4.788183">
        <ele>2102.0</ele>
        <time>2015-08-15T14:16:17Z</time>
      </trkpt>
      <trkpt lat="40.632933" lon="-4.788050">
        <ele>2105.0</ele>
        <time>2015-08-15T14:16:19Z</time>
      </trkpt>
      <trkpt lat="40.632983" lon="-4.787850">
        <ele>2107.0</ele>
        <time>2015-08-15T14:16:21Z</time>
      </trkpt>
      <trkpt lat="40.633000" lon="-4.787600">
        <ele>2109.0</ele>
        <time>2015-08-15T14:16:23Z</time>
      </trkpt>
      <trkpt lat="40.632950" lon="-4.787300">
        <ele>2110.0</ele>
        <time>2015-08-15T14:16:25Z</time>
      </trkpt>
      <trkpt lat="40.632833" lon="-4.787000">
        <ele>2113.0</ele>
        <time>2015-08-15T14:16:27Z</time>
      </trkpt>
      <trkpt lat="40.632667" lon="-4.786750">
        <ele>2120.0</ele>
        <time>2015-08-15T14:16:29Z</time>
      </trkpt>
      <trkpt lat="40.632467" lon="-4.786617">
        <ele>2126.0</ele>
        <time>2015-08-15T14:16:31Z</time>
      </trkpt>
      <trkpt lat="40.632233" lon="-4.786600">
        <ele>2130.0</ele>
        <time>2015-08-15T14:16:33Z</time>
      </trkpt>
      <trkpt lat="40.632033" lon="-4.786667">
        <ele>2135.0</ele>
        <time>2015-08-15T14:16:35Z</time>
      </trkpt>
      <trkpt lat="40.631883" lon="-4.786767">
        <ele>2138.0</ele>
        <time>2015-08-15T14:16:37Z</time>
      </trkpt>
      <trkpt lat="40.631767" lon="-4.786967">
        <ele>2136.0</ele>
        <time>2015-08-15T14:16:39Z</time>
      </trkpt>
      <trkpt lat="40.631717" lon="-4.787217">
        <ele>2138.0</ele>
        <time>2015-08-15T14:16:41Z</time>
      </trkpt>
      <trkpt lat="40.631767" lon="-4.787383">
        <ele>2142.0</ele>
        <time>2015-08-15T14:16:43Z</time>
      </trkpt>
      <trkpt lat="40.631817" lon="-4.787483">
        <ele>2145.0</ele>
        <time>2015-08-15T14:16:45Z</time>
      </trkpt>
      <trkpt lat="40.631900" lon="-4.787567">
        <ele>2148.0</ele>
        <time>2015-08-15T14:16:47Z</time>
      </trkpt>
      <trkpt lat="40.631983" lon="-4.787550">
        <ele>2151.0</ele>
        <time>2015-08-15T14:16:49Z</time>
      </trkpt>
      <trkpt lat="40.632067" lon="-4.787467">
        <ele>2153.0</ele>
        <time>2015-08-15T14:16:51Z</time>
      </trkpt>
      <trkpt lat="40.632133" lon="-4.787283">
        <ele>2152.0</ele>
        <time>2015-08-15T14:16:53Z</time>
      </trkpt>
      <trkpt lat="40.632117" lon="-4.786967">
        <ele>2153.0</ele>
        <time>2015-08-15T14:16:55Z</time>
      </trkpt>
      <trkpt lat="40.632050" lon="-4.786667">
        <ele>2158.0</ele>
        <time>2015-08-15T14:16:57Z</time>
      </trkpt>
      <trkpt lat="40.631950" lon="-4.786433">
        <ele>2162.0</ele>
        <time>2015-08-15T14:16:59Z</time>
      </trkpt>
      <trkpt lat="40.631783" lon="-4.786217">
        <ele>2162.0</ele>
        <time>2015-08-15T14:17:01Z</time>
      </trkpt>
      <trkpt lat="40.631483" lon="-4.786100">
        <ele>2165.0</ele>
        <time>2015-08-15T14:17:03Z</time>
      </trkpt>
      <trkpt lat="40.631233" lon="-4.786067">
        <ele>2175.0</ele>
        <time>2015-08-15T14:17:05Z</time>
      </trkpt>
      <trkpt lat="40.631017" lon="-4.786133">
        <ele>2179.0</ele>
        <time>2015-08-15T14:17:07Z</time>
      </trkpt>
      <trkpt lat="40.630850" lon="-4.786300">
        <ele>2182.0</ele>
        <time>2015-08-15T14:17:09Z</time>
      </trkpt>
      <trkpt lat="40.630767" lon="-4.786500">
        <ele>2181.0</ele>
        <time>2015-08-15T14:17:11Z</time>
      </trkpt>
      <trkpt lat="40.630767" lon="-4.786717">
        <ele>2182.0</ele>
        <time>2015-08-15T14:17:13Z</time>
      </trkpt>
      <trkpt lat="40.630833" lon="-4.786883">
        <ele>2184.0</ele>
        <time>2015-08-15T14:17:15Z</time>
      </trkpt>
      <trkpt lat="40.630917" lon="-4.786967">
        <ele>2186.0</ele>
        <time>2015-08-15T14:17:17Z</time>
      </trkpt>
      <trkpt lat="40.631017" lon="-4.787017">
        <ele>2188.0</ele>
        <time>2015-08-15T14:17:19Z</time>
      </trkpt>
      <trkpt lat="40.631100" lon="-4.787017">
        <ele>2190.0</ele>
        <time>2015-08-15T14:17:21Z</time>
      </trkpt>
      <trkpt lat="40.631183" lon="-4.786983">
        <ele>2191.0</ele>
        <time>2015-08-15T14:17:23Z</time>
      </trkpt>
      <trkpt lat="40.631283" lon="-4.786917">
        <ele>2191.0</ele>
        <time>2015-08-15T14:17:25Z</time>
      </trkpt>
      <trkpt lat="40.631350" lon="-4.786817">
        <ele>2192.0</ele>
        <time>2015-08-15T14:17:27Z</time>
      </trkpt>
      <trkpt lat="40.631400" lon="-4.786667">
        <ele>2194.0</ele>
        <time>2015-08-15T14:17:29Z</time>
      </trkpt>
      <trkpt lat="40.631417" lon="-4.786483">
        <ele>2195.0</ele>
        <time>2015-08-15T14:17:31Z</time>
      </trkpt>
      <trkpt lat="40.631383" lon="-4.786267">
        <ele>2197.0</ele>
        <time>2015-08-15T14:17:33Z</time>
      </trkpt>
      <trkpt lat="40.631267" lon="-4.786033">
        <ele>2199.0</ele>
        <time>2015-08-15T14:17:35Z</time>
      </trkpt>
      <trkpt lat="40.631050" lon="-4.785850">
        <ele>2203.0</ele>
        <time>2015-08-15T14:17:37Z</time>
      </trkpt>
      <trkpt lat="40.630800" lon="-4.785800">
        <ele>2204.0</ele>
        <time>2015-08-15T14:17:39Z</time>
      </trkpt>
      <trkpt lat="40.630533" lon="-4.785817">
        <ele>2204.0</ele>
        <time>2015-08-15T14:17:41Z</time>
      </trkpt>
      <trkpt lat="40.630233" lon="-4.785917">
        <ele>2206.0</ele>
        <time>2015-08-15T14:17:43Z</time>
      </trkpt>
      <trkpt lat="40.630033" lon="-4.786050">
        <ele>2212.0</ele>
        <time>2015-08-15T14:17:45Z</time>
      </trkpt>
      <trkpt lat="40.629917" lon="-4.786167">
        <ele>2213.0</ele>
        <time>2015-08-15T14:17:47Z</time>
      </trkpt>
      <trkpt lat="40.629800" lon="-4.786333">
        <ele>2209.0</ele>
        <time>2015-08-15T14:17:49Z</time>
      </trkpt>
      <trkpt lat="40.629750" lon="-4.786567">
        <ele>2206.0</ele>
        <time>2015-08-15T14:17:51Z</time>
      </trkpt>
      <trkpt lat="40.629750" lon="-4.786733">
        <ele>2206.0</ele>
        <time>2015-08-15T14:17:53Z</time>
      </trkpt>
      <trkpt lat="40.629800" lon="-4.786850">
        <ele>2207.0</ele>
        <time>2015-08-15T14:17:55Z</time>
      </trkpt>
      <trkpt lat="40.629900" lon="-4.786917">
        <ele>2205.0</ele>
        <time>2015-08-15T14:17:57Z</time>
      </trkpt>
      <trkpt lat="40.630017" lon="-4.786950">
        <ele>2207.0</ele>
        <time>2015-08-15T14:17:59Z</time>
      </trkpt>
      <trkpt lat="40.630100" lon="-4.786933">
        <ele>2207.0</ele>
        <time>2015-08-15T14:18:01Z</time>
      </trkpt>
      <trkpt lat="40.630233" lon="-4.786883">
        <ele>2207.0</ele>
        <time>2015-08-15T14:18:03Z</time>
      </trkpt>
      <trkpt lat="40.630383" lon="-4.786800">
        <ele>2213.0</ele>
        <time>2015-08-15T14:18:05Z</time>
      </trkpt>
      <trkpt lat="40.630467" lon="-4.786750">
        <ele>2223.0</ele>
        <time>2015-08-15T14:18:07Z</time>
      </trkpt>
      <trkpt lat="40.630533" lon="-4.786700">
        <ele>2230.0</ele>
        <time>2015-08-15T14:18:09Z</time>
      </trkpt>
      <trkpt lat="40.630617" lon="-4.786550">
        <ele>2236.0</ele>
        <time>2015-08-15T14:18:11Z</time>
      </trkpt>
      <trkpt lat="40.630650" lon="-4.786317">
        <ele>2244.0</ele>
        <time>2015-08-15T14:18:13Z</time>
      </trkpt>
      <trkpt lat="40.630617" lon="-4.786050">
        <ele>2253.0</ele>
        <time>2015-08-15T14:18:15Z</time>
      </trkpt>
      <trkpt lat="40.630483" lon="-4.785767">
        <ele>2258.0</ele>
        <time>2015-08-15T14:18:17Z</time>
      </trkpt>
      <trkpt lat="40.630250" lon="-4.785550">
        <ele>2268.0</ele>
        <time>2015-08-15T14:18:19Z</time>
      </trkpt>
      <trkpt lat="40.630017" lon="-4.785467">
        <ele>2279.0</ele>
        <time>2015-08-15T14:18:21Z</time>
      </trkpt>
      <trkpt lat="40.629817" lon="-4.785517">
        <ele>2287.0</ele>
        <time>2015-08-15T14:18:23Z</time>
      </trkpt>
      <trkpt lat="40.629633" lon="-4.785700">
        <ele>2290.0</ele>
        <time>2015-08-15T14:18:25Z</time>
      </trkpt>
      <trkpt lat="40.629600" lon="-4.785933">
        <ele>2294.0</ele>
        <time>2015-08-15T14:18:27Z</time>
      </trkpt>
      <trkpt lat="40.629683" lon="-4.786050">
        <ele>2301.0</ele>
        <time>2015-08-15T14:18:29Z</time>
      </trkpt>
      <trkpt lat="40.629717" lon="-4.786100">
        <ele>2308.0</ele>
        <time>2015-08-15T14:18:31Z</time>
      </trkpt>
      <trkpt lat="40.629800" lon="-4.786133">
        <ele>2311.0</ele>
        <time>2015-08-15T14:18:33Z</time>
      </trkpt>
      <trkpt lat="40.629933" lon="-4.786200">
        <ele>2319.0</ele>
        <time>2015-08-15T14:18:35Z</time>
      </trkpt>
      <trkpt lat="40.630000" lon="-4.786200">
        <ele>2330.0</ele>
        <time>2015-08-15T14:18:37Z</time>
      </trkpt>
      <trkpt lat="40.630067" lon="-4.786100">
        <ele>2335.0</ele>
        <time>2015-08-15T14:18:39Z</time>
      </trkpt>
      <trkpt lat="40.630150" lon="-4.785900">
        <ele>2339.0</ele>
        <time>2015-08-15T14:18:41Z</time>
      </trkpt>
      <trkpt lat="40.630150" lon="-4.785633">
        <ele>2346.0</ele>
        <time>2015-08-15T14:18:43Z</time>
      </trkpt>
      <trkpt lat="40.630050" lon="-4.785383">
        <ele>2353.0</ele>
        <time>2015-08-15T14:18:45Z</time>
      </trkpt>
      <trkpt lat="40.629883" lon="-4.785133">
        <ele>2358.0</ele>
        <time>2015-08-15T14:18:47Z</time>
      </trkpt>
      <trkpt lat="40.629667" lon="-4.784967">
        <ele>2365.0</ele>
        <time>2015-08-15T14:18:49Z</time>
      </trkpt>
      <trkpt lat="40.629417" lon="-4.784917">
        <ele>2372.0</ele>
        <time>2015-08-15T14:18:51Z</time>
      </trkpt>
      <trkpt lat="40.629183" lon="-4.784950">
        <ele>2380.0</ele>
        <time>2015-08-15T14:18:53Z</time>
      </trkpt>
      <trkpt lat="40.628967" lon="-4.785067">
        <ele>2387.0</ele>
        <time>2015-08-15T14:18:55Z</time>
      </trkpt>
      <trkpt lat="40.628833" lon="-4.785250">
        <ele>2395.0</ele>
        <time>2015-08-15T14:18:57Z</time>
      </trkpt>
      <trkpt lat="40.628767" lon="-4.785450">
        <ele>2400.0</ele>
        <time>2015-08-15T14:18:59Z</time>
      </trkpt>
      <trkpt lat="40.628750" lon="-4.785667">
        <ele>2403.0</ele>
        <time>2015-08-15T14:19:01Z</time>
      </trkpt>
      <trkpt lat="40.628800" lon="-4.785883">
        <ele>2408.0</ele>
        <time>2015-08-15T14:19:03Z</time>
      </trkpt>
      <trkpt lat="40.628883" lon="-4.786033">
        <ele>2415.0</ele>
        <time>2015-08-15T14:19:05Z</time>
      </trkpt>
      <trkpt lat="40.628983" lon="-4.786050">
        <ele>2420.0</ele>
        <time>2015-08-15T14:19:07Z</time>
      </trkpt>
      <trkpt lat="40.629117" lon="-4.785950">
        <ele>2425.0</ele>
        <time>2015-08-15T14:19:09Z</time>
      </trkpt>
      <trkpt lat="40.629217" lon="-4.785783">
        <ele>2432.0</ele>
        <time>2015-08-15T14:19:11Z</time>
      </trkpt>
      <trkpt lat="40.629217" lon="-4.785583">
        <ele>2438.0</ele>
        <time>2015-08-15T14:19:13Z</time>
      </trkpt>
      <trkpt lat="40.629167" lon="-4.785317">
        <ele>2439.0</ele>
        <time>2015-08-15T14:19:15Z</time>
      </trkpt>
      <trkpt lat="40.629000" lon="-4.785067">
        <ele>2444.0</ele>
        <time>2015-08-15T14:19:17Z</time>
      </trkpt>
      <trkpt lat="40.628783" lon="-4.784917">
        <ele>2450.0</ele>
        <time>2015-08-15T14:19:19Z</time>
      </trkpt>
      <trkpt lat="40.628550" lon="-4.784833">
        <ele>2455.0</ele>
        <time>2015-08-15T14:19:21Z</time>
      </trkpt>
      <trkpt lat="40.628300" lon="-4.784833">
        <ele>2459.0</ele>
        <time>2015-08-15T14:19:23Z</time>
      </trkpt>
      <trkpt lat="40.628100" lon="-4.784933">
        <ele>2468.0</ele>
        <time>2015-08-15T14:19:25Z</time>
      </trkpt>
      <trkpt lat="40.627983" lon="-4.785100">
        <ele>2474.0</ele>
        <time>2015-08-15T14:19:27Z</time>
      </trkpt>
      <trkpt lat="40.627883" lon="-4.785317">
        <ele>2476.0</ele>
        <time>2015-08-15T14:19:29Z</time>
      </trkpt>
      <trkpt lat="40.627850" lon="-4.785550">
        <ele>2480.0</ele>
        <time>2015-08-15T14:19:31Z</time>
      </trkpt>
      <trkpt lat="40.627883" lon="-4.785767">
        <ele>2485.0</ele>
        <time>2015-08-15T14:19:33Z</time>
      </trkpt>
      <trkpt lat="40.627950" lon="-4.785933">
        <ele>2490.0</ele>
        <time>2015-08-15T14:19:35Z</time>
      </trkpt>
      <trkpt lat="40.628033" lon="-4.786050">
        <ele>2492.0</ele>
        <time>2015-08-15T14:19:37Z</time>
      </trkpt>
      <trkpt lat="40.628167" lon="-4.786167">
        <ele>2491.0</ele>
        <time>2015-08-15T14:19:39Z</time>
      </trkpt>
      <trkpt lat="40.628350" lon="-4.786283">
        <ele>2494.0</ele>
        <time>2015-08-15T14:19:41Z</time>
      </trkpt>
      <trkpt lat="40.628483" lon="-4.786367">
        <ele>2499.0</ele>
        <time>2015-08-15T14:19:43Z</time>
      </trkpt>
      <trkpt lat="40.628633" lon="-4.786467">
        <ele>2502.0</ele>
        <time>2015-08-15T14:19:45Z</time>
      </trkpt>
      <trkpt lat="40.628783" lon="-4.786517">
        <ele>2505.0</ele>
        <time>2015-08-15T14:19:47Z</time>
      </trkpt>
      <trkpt lat="40.628950" lon="-4.786500">
        <ele>2508.0</ele>
        <time>2015-08-15T14:19:49Z</time>
      </trkpt>
      <trkpt lat="40.629083" lon="-4.786433">
        <ele>2509.0</ele>
        <time>2015-08-15T14:19:51Z</time>
      </trkpt>
      <trkpt lat="40.629250" lon="-4.786350">
        <ele>2508.0</ele>
        <time>2015-08-15T14:19:53Z</time>
      </trkpt>
      <trkpt lat="40.629400" lon="-4.786317">
        <ele>2509.0</ele>
        <time>2015-08-15T14:19:55Z</time>
      </trkpt>
      <trkpt lat="40.629533" lon="-4.786283">
        <ele>2508.0</ele>
        <time>2015-08-15T14:19:57Z</time>
      </trkpt>
      <trkpt lat="40.629683" lon="-4.786233">
        <ele>2507.0</ele>
        <time>2015-08-15T14:19:59Z</time>
      </trkpt>
      <trkpt lat="40.629833" lon="-4.786167">
        <ele>2506.0</ele>
        <time>2015-08-15T14:20:01Z</time>
      </trkpt>
      <trkpt lat="40.629983" lon="-4.786117">
        <ele>2504.0</ele>
        <time>2015-08-15T14:20:03Z</time>
      </trkpt>
      <trkpt lat="40.630133" lon="-4.786083">
        <ele>2501.0</ele>
        <time>2015-08-15T14:20:05Z</time>
      </trkpt>
      <trkpt lat="40.630317" lon="-4.786067">
        <ele>2499.0</ele>
        <time>2015-08-15T14:20:07Z</time>
      </trkpt>
      <trkpt lat="40.630467" lon="-4.786067">
        <ele>2497.0</ele>
        <time>2015-08-15T14:20:09Z</time>
      </trkpt>
      <trkpt lat="40.630633" lon="-4.786083">
        <ele>2493.0</ele>
        <time>2015-08-15T14:20:11Z</time>
      </trkpt>
      <trkpt lat="40.630800" lon="-4.786083">
        <ele>2489.0</ele>
        <time>2015-08-15T14:20:13Z</time>
      </trkpt>
      <trkpt lat="40.630967" lon="-4.786083">
        <ele>2485.0</ele>
        <time>2015-08-15T14:20:15Z</time>
      </trkpt>
      <trkpt lat="40.631450" lon="-4.786117">
        <ele>2475.0</ele>
        <time>2015-08-15T14:20:21Z</time>
      </trkpt>
      <trkpt lat="40.631583" lon="-4.786167">
        <ele>2473.0</ele>
        <time>2015-08-15T14:20:23Z</time>
      </trkpt>
      <trkpt lat="40.631750" lon="-4.786183">
        <ele>2469.0</ele>
        <time>2015-08-15T14:20:25Z</time>
      </trkpt>
      <trkpt lat="40.632233" lon="-4.786167">
        <ele>2457.0</ele>
        <time>2015-08-15T14:20:31Z</time>
      </trkpt>
      <trkpt lat="40.632417" lon="-4.786067">
        <ele>2451.0</ele>
        <time>2015-08-15T14:20:33Z</time>
      </trkpt>
      <trkpt lat="40.632617" lon="-4.785967">
        <ele>2448.0</ele>
        <time>2015-08-15T14:20:35Z</time>
      </trkpt>
      <trkpt lat="40.632817" lon="-4.785883">
        <ele>2444.0</ele>
        <time>2015-08-15T14:20:37Z</time>
      </trkpt>
      <trkpt lat="40.632983" lon="-4.785783">
        <ele>2441.0</ele>
        <time>2015-08-15T14:20:39Z</time>
      </trkpt>
      <trkpt lat="40.633183" lon="-4.785650">
        <ele>2438.0</ele>
        <time>2015-08-15T14:20:41Z</time>
      </trkpt>
      <trkpt lat="40.633367" lon="-4.785500">
        <ele>2437.0</ele>
        <time>2015-08-15T14:20:43Z</time>
      </trkpt>
      <trkpt lat="40.633533" lon="-4.785333">
        <ele>2435.0</ele>
        <time>2015-08-15T14:20:45Z</time>
      </trkpt>
      <trkpt lat="40.633683" lon="-4.785150">
        <ele>2433.0</ele>
        <time>2015-08-15T14:20:47Z</time>
      </trkpt>
      <trkpt lat="40.633800" lon="-4.785000">
        <ele>2432.0</ele>
        <time>2015-08-15T14:20:49Z</time>
      </trkpt>
      <trkpt lat="40.633917" lon="-4.784867">
        <ele>2426.0</ele>
        <time>2015-08-15T14:20:51Z</time>
      </trkpt>
      <trkpt lat="40.634067" lon="-4.784700">
        <ele>2420.0</ele>
        <time>2015-08-15T14:20:53Z</time>
      </trkpt>
      <trkpt lat="40.634283" lon="-4.784517">
        <ele>2413.0</ele>
        <time>2015-08-15T14:20:56Z</time>
      </trkpt>
      <trkpt lat="40.634400" lon="-4.784433">
        <ele>2408.0</ele>
        <time>2015-08-15T14:20:58Z</time>
      </trkpt>
      <trkpt lat="40.634550" lon="-4.784367">
        <ele>2404.0</ele>
        <time>2015-08-15T14:21:00Z</time>
      </trkpt>
      <trkpt lat="40.634700" lon="-4.784250">
        <ele>2403.0</ele>
        <time>2015-08-15T14:21:02Z</time>
      </trkpt>
      <trkpt lat="40.634867" lon="-4.784150">
        <ele>2400.0</ele>
        <time>2015-08-15T14:21:04Z</time>
      </trkpt>
      <trkpt lat="40.634950" lon="-4.784067">
        <ele>2396.0</ele>
        <time>2015-08-15T14:21:06Z</time>
      </trkpt>
      <trkpt lat="40.635050" lon="-4.783983">
        <ele>2391.0</ele>
        <time>2015-08-15T14:21:08Z</time>
      </trkpt>
      <trkpt lat="40.635167" lon="-4.783867">
        <ele>2387.0</ele>
        <time>2015-08-15T14:21:10Z</time>
      </trkpt>
      <trkpt lat="40.635283" lon="-4.783750">
        <ele>2382.0</ele>
        <time>2015-08-15T14:21:12Z</time>
      </trkpt>
      <trkpt lat="40.635400" lon="-4.783633">
        <ele>2379.0</ele>
        <time>2015-08-15T14:21:14Z</time>
      </trkpt>
      <trkpt lat="40.635533" lon="-4.783533">
        <ele>2377.0</ele>
        <time>2015-08-15T14:21:16Z</time>
      </trkpt>
      <trkpt lat="40.635667" lon="-4.783417">
        <ele>2376.0</ele>
        <time>2015-08-15T14:21:18Z</time>
      </trkpt>
      <trkpt lat="40.635800" lon="-4.783317">
        <ele>2377.0</ele>
        <time>2015-08-15T14:21:20Z</time>
      </trkpt>
      <trkpt lat="40.635917" lon="-4.783217">
        <ele>2377.0</ele>
        <time>2015-08-15T14:21:22Z</time>
      </trkpt>
      <trkpt lat="40.636050" lon="-4.783100">
        <ele>2374.0</ele>
        <time>2015-08-15T14:21:24Z</time>
      </trkpt>
      <trkpt lat="40.636200" lon="-4.782967">
        <ele>2371.0</ele>
        <time>2015-08-15T14:21:26Z</time>
      </trkpt>
      <trkpt lat="40.636333" lon="-4.782833">
        <ele>2370.0</ele>
        <time>2015-08-15T14:21:28Z</time>
      </trkpt>
      <trkpt lat="40.636467" lon="-4.782717">
        <ele>2368.0</ele>
        <time>2015-08-15T14:21:30Z</time>
      </trkpt>
      <trkpt lat="40.636617" lon="-4.782617">
        <ele>2365.0</ele>
        <time>2015-08-15T14:21:32Z</time>
      </trkpt>
      <trkpt lat="40.636767" lon="-4.782517">
        <ele>2360.0</ele>
        <time>2015-08-15T14:21:34Z</time>
      </trkpt>
      <trkpt lat="40.636917" lon="-4.782400">
        <ele>2357.0</ele>
        <time>2015-08-15T14:21:36Z</time>
      </trkpt>
      <trkpt lat="40.637067" lon="-4.782283">
        <ele>2352.0</ele>
        <time>2015-08-15T14:21:38Z</time>
      </trkpt>
      <trkpt lat="40.637217" lon="-4.782150">
        <ele>2349.0</ele>
        <time>2015-08-15T14:21:40Z</time>
      </trkpt>
      <trkpt lat="40.637367" lon="-4.782000">
        <ele>2347.0</ele>
        <time>2015-08-15T14:21:42Z</time>
      </trkpt>
      <trkpt lat="40.637517" lon="-4.781867">
        <ele>2346.0</ele>
        <time>2015-08-15T14:21:44Z</time>
      </trkpt>
      <trkpt lat="40.637650" lon="-4.781767">
        <ele>2344.0</ele>
        <time>2015-08-15T14:21:46Z</time>
      </trkpt>
      <trkpt lat="40.637783" lon="-4.781633">
        <ele>2340.0</ele>
        <time>2015-08-15T14:21:48Z</time>
      </trkpt>
      <trkpt lat="40.637917" lon="-4.781483">
        <ele>2335.0</ele>
        <time>2015-08-15T14:21:50Z</time>
      </trkpt>
      <trkpt lat="40.638067" lon="-4.781350">
        <ele>2333.0</ele>
        <time>2015-08-15T14:21:52Z</time>
      </trkpt>
      <trkpt lat="40.638183" lon="-4.781217">
        <ele>2332.0</ele>
        <time>2015-08-15T14:21:54Z</time>
      </trkpt>
      <trkpt lat="40.638300" lon="-4.781100">
        <ele>2329.0</ele>
        <time>2015-08-15T14:21:56Z</time>
      </trkpt>
      <trkpt lat="40.638450" lon="-4.780967">
        <ele>2324.0</ele>
        <time>2015-08-15T14:21:58Z</time>
      </trkpt>
      <trkpt lat="40.638583" lon="-4.780850">
        <ele>2322.0</ele>
        <time>2015-08-15T14:22:00Z</time>
      </trkpt>
      <trkpt lat="40.638717" lon="-4.780733">
        <ele>2321.0</ele>
        <time>2015-08-15T14:22:02Z</time>
      </trkpt>
      <trkpt lat="40.638833" lon="-4.780617">
        <ele>2318.0</ele>
        <time>2015-08-15T14:22:04Z</time>
      </trkpt>
      <trkpt lat="40.638983" lon="-4.780483">
        <ele>2317.0</ele>
        <time>2015-08-15T14:22:06Z</time>
      </trkpt>
      <trkpt lat="40.639133" lon="-4.780367">
        <ele>2317.0</ele>
        <time>2015-08-15T14:22:08Z</time>
      </trkpt>
      <trkpt lat="40.639283" lon="-4.780250">
        <ele>2316.0</ele>
        <time>2015-08-15T14:22:10Z</time>
      </trkpt>
      <trkpt lat="40.639417" lon="-4.780133">
        <ele>2315.0</ele>
        <time>2015-08-15T14:22:12Z</time>
      </trkpt>
      <trkpt lat="40.639567" lon="-4.779967">
        <ele>2314.0</ele>
        <time>2015-08-15T14:22:14Z</time>
      </trkpt>
      <trkpt lat="40.639733" lon="-4.779817">
        <ele>2314.0</ele>
        <time>2015-08-15T14:22:16Z</time>
      </trkpt>
      <trkpt lat="40.639867" lon="-4.779650">
        <ele>2315.0</ele>
        <time>2015-08-15T14:22:18Z</time>
      </trkpt>
      <trkpt lat="40.640000" lon="-4.779500">
        <ele>2314.0</ele>
        <time>2015-08-15T14:22:20Z</time>
      </trkpt>
      <trkpt lat="40.640150" lon="-4.779333">
        <ele>2313.0</ele>
        <time>2015-08-15T14:22:22Z</time>
      </trkpt>
      <trkpt lat="40.640283" lon="-4.779167">
        <ele>2313.0</ele>
        <time>2015-08-15T14:22:24Z</time>
      </trkpt>
      <trkpt lat="40.640383" lon="-4.779000">
        <ele>2311.0</ele>
        <time>2015-08-15T14:22:26Z</time>
      </trkpt>
      <trkpt lat="40.640500" lon="-4.778833">
        <ele>2307.0</ele>
        <time>2015-08-15T14:22:28Z</time>
      </trkpt>
      <trkpt lat="40.640650" lon="-4.778667">
        <ele>2305.0</ele>
        <time>2015-08-15T14:22:30Z</time>
      </trkpt>
      <trkpt lat="40.640783" lon="-4.778517">
        <ele>2304.0</ele>
        <time>2015-08-15T14:22:32Z</time>
      </trkpt>
      <trkpt lat="40.640900" lon="-4.778417">
        <ele>2302.0</ele>
        <time>2015-08-15T14:22:34Z</time>
      </trkpt>
      <trkpt lat="40.641033" lon="-4.778300">
        <ele>2297.0</ele>
        <time>2015-08-15T14:22:36Z</time>
      </trkpt>
      <trkpt lat="40.641150" lon="-4.778167">
        <ele>2294.0</ele>
        <time>2015-08-15T14:22:38Z</time>
      </trkpt>
      <trkpt lat="40.641267" lon="-4.778033">
        <ele>2291.0</ele>
        <time>2015-08-15T14:22:40Z</time>
      </trkpt>
      <trkpt lat="40.641367" lon="-4.777900">
        <ele>2288.0</ele>
        <time>2015-08-15T14:22:42Z</time>
      </trkpt>
      <trkpt lat="40.641483" lon="-4.777783">
        <ele>2285.0</ele>
        <time>2015-08-15T14:22:44Z</time>
      </trkpt>
      <trkpt lat="40.641583" lon="-4.777667">
        <ele>2280.0</ele>
        <time>2015-08-15T14:22:46Z</time>
      </trkpt>
      <trkpt lat="40.641700" lon="-4.777533">
        <ele>2276.0</ele>
        <time>2015-08-15T14:22:48Z</time>
      </trkpt>
      <trkpt lat="40.641800" lon="-4.777367">
        <ele>2272.0</ele>
        <time>2015-08-15T14:22:50Z</time>
      </trkpt>
      <trkpt lat="40.641917" lon="-4.777217">
        <ele>2267.0</ele>
        <time>2015-08-15T14:22:52Z</time>
      </trkpt>
      <trkpt lat="40.642033" lon="-4.777050">
        <ele>2263.0</ele>
        <time>2015-08-15T14:22:54Z</time>
      </trkpt>
      <trkpt lat="40.642133" lon="-4.776850">
        <ele>2259.0</ele>
        <time>2015-08-15T14:22:56Z</time>
      </trkpt>
      <trkpt lat="40.642217" lon="-4.776667">
        <ele>2253.0</ele>
        <time>2015-08-15T14:22:58Z</time>
      </trkpt>
      <trkpt lat="40.642333" lon="-4.776483">
        <ele>2247.0</ele>
        <time>2015-08-15T14:23:00Z</time>
      </trkpt>
      <trkpt lat="40.642433" lon="-4.776267">
        <ele>2241.0</ele>
        <time>2015-08-15T14:23:02Z</time>
      </trkpt>
      <trkpt lat="40.642517" lon="-4.776083">
        <ele>2235.0</ele>
        <time>2015-08-15T14:23:04Z</time>
      </trkpt>
      <trkpt lat="40.642617" lon="-4.775867">
        <ele>2227.0</ele>
        <time>2015-08-15T14:23:06Z</time>
      </trkpt>
      <trkpt lat="40.642717" lon="-4.775667">
        <ele>2220.0</ele>
        <time>2015-08-15T14:23:08Z</time>
      </trkpt>
      <trkpt lat="40.642817" lon="-4.775500">
        <ele>2213.0</ele>
        <time>2015-08-15T14:23:10Z</time>
      </trkpt>
      <trkpt lat="40.642917" lon="-4.775333">
        <ele>2205.0</ele>
        <time>2015-08-15T14:23:12Z</time>
      </trkpt>
      <trkpt lat="40.643017" lon="-4.775167">
        <ele>2197.0</ele>
        <time>2015-08-15T14:23:14Z</time>
      </trkpt>
      <trkpt lat="40.643117" lon="-4.775000">
        <ele>2189.0</ele>
        <time>2015-08-15T14:23:16Z</time>
      </trkpt>
      <trkpt lat="40.643200" lon="-4.774817">
        <ele>2181.0</ele>
        <time>2015-08-15T14:23:18Z</time>
      </trkpt>
      <trkpt lat="40.643300" lon="-4.774633">
        <ele>2172.0</ele>
        <time>2015-08-15T14:23:20Z</time>
      </trkpt>
      <trkpt lat="40.643383" lon="-4.774467">
        <ele>2165.0</ele>
        <time>2015-08-15T14:23:22Z</time>
      </trkpt>
      <trkpt lat="40.643483" lon="-4.774333">
        <ele>2157.0</ele>
        <time>2015-08-15T14:23:24Z</time>
      </trkpt>
      <trkpt lat="40.643583" lon="-4.774183">
        <ele>2149.0</ele>
        <time>2015-08-15T14:23:26Z</time>
      </trkpt>
      <trkpt lat="40.643733" lon="-4.773950">
        <ele>2137.0</ele>
        <time>2015-08-15T14:23:29Z</time>
      </trkpt>
      <trkpt lat="40.643833" lon="-4.773783">
        <ele>2131.0</ele>
        <time>2015-08-15T14:23:31Z</time>
      </trkpt>
      <trkpt lat="40.643933" lon="-4.773633">
        <ele>2122.0</ele>
        <time>2015-08-15T14:23:33Z</time>
      </trkpt>
      <trkpt lat="40.644050" lon="-4.773467">
        <ele>2112.0</ele>
        <time>2015-08-15T14:23:35Z</time>
      </trkpt>
      <trkpt lat="40.644183" lon="-4.773333">
        <ele>2104.0</ele>
        <time>2015-08-15T14:23:37Z</time>
      </trkpt>
      <trkpt lat="40.644367" lon="-4.773117">
        <ele>2090.0</ele>
        <time>2015-08-15T14:23:40Z</time>
      </trkpt>
      <trkpt lat="40.644500" lon="-4.772950">
        <ele>2086.0</ele>
        <time>2015-08-15T14:23:42Z</time>
      </trkpt>
      <trkpt lat="40.644633" lon="-4.772800">
        <ele>2079.0</ele>
        <time>2015-08-15T14:23:44Z</time>
      </trkpt>
      <trkpt lat="40.644767" lon="-4.772667">
        <ele>2073.0</ele>
        <time>2015-08-15T14:23:46Z</time>
      </trkpt>
      <trkpt lat="40.644867" lon="-4.772533">
        <ele>2065.0</ele>
        <time>2015-08-15T14:23:48Z</time>
      </trkpt>
      <trkpt lat="40.645000" lon="-4.772383">
        <ele>2056.0</ele>
        <time>2015-08-15T14:23:50Z</time>
      </trkpt>
      <trkpt lat="40.645117" lon="-4.772250">
        <ele>2050.0</ele>
        <time>2015-08-15T14:23:52Z</time>
      </trkpt>
      <trkpt lat="40.645250" lon="-4.772083">
        <ele>2043.0</ele>
        <time>2015-08-15T14:23:54Z</time>
      </trkpt>
      <trkpt lat="40.645367" lon="-4.771933">
        <ele>2039.0</ele>
        <time>2015-08-15T14:23:56Z</time>
      </trkpt>
      <trkpt lat="40.645450" lon="-4.771767">
        <ele>2036.0</ele>
        <time>2015-08-15T14:23:58Z</time>
      </trkpt>
      <trkpt lat="40.645533" lon="-4.771600">
        <ele>2030.0</ele>
        <time>2015-08-15T14:24:00Z</time>
      </trkpt>
      <trkpt lat="40.645633" lon="-4.771450">
        <ele>2024.0</ele>
        <time>2015-08-15T14:24:02Z</time>
      </trkpt>
      <trkpt lat="40.645717" lon="-4.771300">
        <ele>2019.0</ele>
        <time>2015-08-15T14:24:04Z</time>
      </trkpt>
      <trkpt lat="40.645817" lon="-4.771167">
        <ele>2014.0</ele>
        <time>2015-08-15T14:24:06Z</time>
      </trkpt>
      <trkpt lat="40.645917" lon="-4.771033">
        <ele>2009.0</ele>
        <time>2015-08-15T14:24:08Z</time>
      </trkpt>
      <trkpt lat="40.646000" lon="-4.770917">
        <ele>2005.0</ele>
        <time>2015-08-15T14:24:10Z</time>
      </trkpt>
      <trkpt lat="40.646100" lon="-4.770800">
        <ele>2001.0</ele>
        <time>2015-08-15T14:24:12Z</time>
      </trkpt>
      <trkpt lat="40.646217" lon="-4.770683">
        <ele>1995.0</ele>
        <time>2015-08-15T14:24:14Z</time>
      </trkpt>
      <trkpt lat="40.646317" lon="-4.770567">
        <ele>1991.0</ele>
        <time>2015-08-15T14:24:16Z</time>
      </trkpt>
      <trkpt lat="40.646417" lon="-4.770433">
        <ele>1986.0</ele>
        <time>2015-08-15T14:24:18Z</time>
      </trkpt>
      <trkpt lat="40.646517" lon="-4.770250">
        <ele>1980.0</ele>
        <time>2015-08-15T14:24:20Z</time>
      </trkpt>
      <trkpt lat="40.646617" lon="-4.770050">
        <ele>1979.0</ele>
        <time>2015-08-15T14:24:22Z</time>
      </trkpt>
      <trkpt lat="40.646700" lon="-4.769883">
        <ele>1979.0</ele>
        <time>2015-08-15T14:24:24Z</time>
      </trkpt>
      <trkpt lat="40.646817" lon="-4.769733">
        <ele>1978.0</ele>
        <time>2015-08-15T14:24:26Z</time>
      </trkpt>
      <trkpt lat="40.646933" lon="-4.769583">
        <ele>1976.0</ele>
        <time>2015-08-15T14:24:28Z</time>
      </trkpt>
      <trkpt lat="40.647067" lon="-4.769450">
        <ele>1976.0</ele>
        <time>2015-08-15T14:24:30Z</time>
      </trkpt>
      <trkpt lat="40.647200" lon="-4.769333">
        <ele>1976.0</ele>
        <time>2015-08-15T14:24:32Z</time>
      </trkpt>
      <trkpt lat="40.647367" lon="-4.769233">
        <ele>1974.0</ele>
        <time>2015-08-15T14:24:34Z</time>
      </trkpt>
      <trkpt lat="40.647517" lon="-4.769117">
        <ele>1975.0</ele>
        <time>2015-08-15T14:24:36Z</time>
      </trkpt>
      <trkpt lat="40.647650" lon="-4.769017">
        <ele>1976.0</ele>
        <time>2015-08-15T14:24:38Z</time>
      </trkpt>
      <trkpt lat="40.647800" lon="-4.768917">
        <ele>1974.0</ele>
        <time>2015-08-15T14:24:40Z</time>
      </trkpt>
      <trkpt lat="40.647950" lon="-4.768783">
        <ele>1972.0</ele>
        <time>2015-08-15T14:24:42Z</time>
      </trkpt>
      <trkpt lat="40.648083" lon="-4.768667">
        <ele>1972.0</ele>
        <time>2015-08-15T14:24:44Z</time>
      </trkpt>
      <trkpt lat="40.648217" lon="-4.768567">
        <ele>1971.0</ele>
        <time>2015-08-15T14:24:46Z</time>
      </trkpt>
      <trkpt lat="40.648367" lon="-4.768433">
        <ele>1969.0</ele>
        <time>2015-08-15T14:24:48Z</time>
      </trkpt>
      <trkpt lat="40.648483" lon="-4.768300">
        <ele>1969.0</ele>
        <time>2015-08-15T14:24:50Z</time>
      </trkpt>
      <trkpt lat="40.648600" lon="-4.768133">
        <ele>1968.0</ele>
        <time>2015-08-15T14:24:52Z</time>
      </trkpt>
      <trkpt lat="40.648717" lon="-4.767950">
        <ele>1965.0</ele>
        <time>2015-08-15T14:24:54Z</time>
      </trkpt>
      <trkpt lat="40.648867" lon="-4.767767">
        <ele>1963.0</ele>
        <time>2015-08-15T14:24:56Z</time>
      </trkpt>
      <trkpt lat="40.649000" lon="-4.767617">
        <ele>1961.0</ele>
        <time>2015-08-15T14:24:58Z</time>
      </trkpt>
      <trkpt lat="40.649150" lon="-4.767467">
        <ele>1960.0</ele>
        <time>2015-08-15T14:25:00Z</time>
      </trkpt>
      <trkpt lat="40.649283" lon="-4.767300">
        <ele>1958.0</ele>
        <time>2015-08-15T14:25:02Z</time>
      </trkpt>
      <trkpt lat="40.649417" lon="-4.767133">
        <ele>1956.0</ele>
        <time>2015-08-15T14:25:04Z</time>
      </trkpt>
      <trkpt lat="40.649567" lon="-4.766933">
        <ele>1952.0</ele>
        <time>2015-08-15T14:25:06Z</time>
      </trkpt>
      <trkpt lat="40.649717" lon="-4.766767">
        <ele>1949.0</ele>
        <time>2015-08-15T14:25:08Z</time>
      </trkpt>
      <trkpt lat="40.649867" lon="-4.766633">
        <ele>1949.0</ele>
        <time>2015-08-15T14:25:10Z</time>
      </trkpt>
      <trkpt lat="40.650017" lon="-4.766467">
        <ele>1946.0</ele>
        <time>2015-08-15T14:25:12Z</time>
      </trkpt>
      <trkpt lat="40.650183" lon="-4.766317">
        <ele>1943.0</ele>
        <time>2015-08-15T14:25:14Z</time>
      </trkpt>
      <trkpt lat="40.650367" lon="-4.766200">
        <ele>1940.0</ele>
        <time>2015-08-15T14:25:16Z</time>
      </trkpt>
      <trkpt lat="40.650517" lon="-4.766050">
        <ele>1937.0</ele>
        <time>2015-08-15T14:25:18Z</time>
      </trkpt>
      <trkpt lat="40.650667" lon="-4.765917">
        <ele>1931.0</ele>
        <time>2015-08-15T14:25:20Z</time>
      </trkpt>
      <trkpt lat="40.650833" lon="-4.765783">
        <ele>1925.0</ele>
        <time>2015-08-15T14:25:22Z</time>
      </trkpt>
      <trkpt lat="40.650983" lon="-4.765683">
        <ele>1921.0</ele>
        <time>2015-08-15T14:25:24Z</time>
      </trkpt>
      <trkpt lat="40.651117" lon="-4.765567">
        <ele>1916.0</ele>
        <time>2015-08-15T14:25:26Z</time>
      </trkpt>
      <trkpt lat="40.651267" lon="-4.765400">
        <ele>1908.0</ele>
        <time>2015-08-15T14:25:28Z</time>
      </trkpt>
      <trkpt lat="40.651417" lon="-4.765217">
        <ele>1900.0</ele>
        <time>2015-08-15T14:25:30Z</time>
      </trkpt>
      <trkpt lat="40.651550" lon="-4.765050">
        <ele>1895.0</ele>
        <time>2015-08-15T14:25:32Z</time>
      </trkpt>
      <trkpt lat="40.651700" lon="-4.764867">
        <ele>1888.0</ele>
        <time>2015-08-15T14:25:34Z</time>
      </trkpt>
      <trkpt lat="40.651850" lon="-4.764683">
        <ele>1882.0</ele>
        <time>2015-08-15T14:25:36Z</time>
      </trkpt>
      <trkpt lat="40.651983" lon="-4.764467">
        <ele>1877.0</ele>
        <time>2015-08-15T14:25:38Z</time>
      </trkpt>
      <trkpt lat="40.652133" lon="-4.764250">
        <ele>1873.0</ele>
        <time>2015-08-15T14:25:40Z</time>
      </trkpt>
      <trkpt lat="40.652267" lon="-4.764050">
        <ele>1869.0</ele>
        <time>2015-08-15T14:25:42Z</time>
      </trkpt>
      <trkpt lat="40.652400" lon="-4.763833">
        <ele>1864.0</ele>
        <time>2015-08-15T14:25:44Z</time>
      </trkpt>
      <trkpt lat="40.652500" lon="-4.763650">
        <ele>1862.0</ele>
        <time>2015-08-15T14:25:46Z</time>
      </trkpt>
      <trkpt lat="40.652617" lon="-4.763500">
        <ele>1857.0</ele>
        <time>2015-08-15T14:25:48Z</time>
      </trkpt>
      <trkpt lat="40.652767" lon="-4.763350">
        <ele>1851.0</ele>
        <time>2015-08-15T14:25:50Z</time>
      </trkpt>
      <trkpt lat="40.652900" lon="-4.763183">
        <ele>1846.0</ele>
        <time>2015-08-15T14:25:52Z</time>
      </trkpt>
      <trkpt lat="40.653033" lon="-4.763050">
        <ele>1842.0</ele>
        <time>2015-08-15T14:25:54Z</time>
      </trkpt>
      <trkpt lat="40.653183" lon="-4.762933">
        <ele>1837.0</ele>
        <time>2015-08-15T14:25:56Z</time>
      </trkpt>
      <trkpt lat="40.653350" lon="-4.762783">
        <ele>1831.0</ele>
        <time>2015-08-15T14:25:58Z</time>
      </trkpt>
      <trkpt lat="40.653483" lon="-4.762633">
        <ele>1829.0</ele>
        <time>2015-08-15T14:26:00Z</time>
      </trkpt>
      <trkpt lat="40.653617" lon="-4.762483">
        <ele>1826.0</ele>
        <time>2015-08-15T14:26:02Z</time>
      </trkpt>
      <trkpt lat="40.653750" lon="-4.762317">
        <ele>1821.0</ele>
        <time>2015-08-15T14:26:04Z</time>
      </trkpt>
      <trkpt lat="40.653900" lon="-4.762133">
        <ele>1816.0</ele>
        <time>2015-08-15T14:26:06Z</time>
      </trkpt>
      <trkpt lat="40.654050" lon="-4.761950">
        <ele>1811.0</ele>
        <time>2015-08-15T14:26:08Z</time>
      </trkpt>
      <trkpt lat="40.654217" lon="-4.761767">
        <ele>1807.0</ele>
        <time>2015-08-15T14:26:10Z</time>
      </trkpt>
      <trkpt lat="40.654350" lon="-4.761583">
        <ele>1805.0</ele>
        <time>2015-08-15T14:26:12Z</time>
      </trkpt>
      <trkpt lat="40.654500" lon="-4.761433">
        <ele>1801.0</ele>
        <time>2015-08-15T14:26:14Z</time>
      </trkpt>
      <trkpt lat="40.654650" lon="-4.761250">
        <ele>1796.0</ele>
        <time>2015-08-15T14:26:16Z</time>
      </trkpt>
      <trkpt lat="40.654783" lon="-4.761067">
        <ele>1792.0</ele>
        <time>2015-08-15T14:26:18Z</time>
      </trkpt>
      <trkpt lat="40.654917" lon="-4.760883">
        <ele>1786.0</ele>
        <time>2015-08-15T14:26:20Z</time>
      </trkpt>
      <trkpt lat="40.655050" lon="-4.760700">
        <ele>1779.0</ele>
        <time>2015-08-15T14:26:22Z</time>
      </trkpt>
      <trkpt lat="40.655200" lon="-4.760533">
        <ele>1771.0</ele>
        <time>2015-08-15T14:26:24Z</time>
      </trkpt>
      <trkpt lat="40.655333" lon="-4.760367">
        <ele>1762.0</ele>
        <time>2015-08-15T14:26:26Z</time>
      </trkpt>
      <trkpt lat="40.655467" lon="-4.760183">
        <ele>1753.0</ele>
        <time>2015-08-15T14:26:28Z</time>
      </trkpt>
      <trkpt lat="40.655600" lon="-4.759967">
        <ele>1746.0</ele>
        <time>2015-08-15T14:26:30Z</time>
      </trkpt>
      <trkpt lat="40.655717" lon="-4.759767">
        <ele>1738.0</ele>
        <time>2015-08-15T14:26:32Z</time>
      </trkpt>
      <trkpt lat="40.655850" lon="-4.759583">
        <ele>1731.0</ele>
        <time>2015-08-15T14:26:34Z</time>
      </trkpt>
      <trkpt lat="40.655983" lon="-4.759417">
        <ele>1725.0</ele>
        <time>2015-08-15T14:26:36Z</time>
      </trkpt>
      <trkpt lat="40.656117" lon="-4.759250">
        <ele>1717.0</ele>
        <time>2015-08-15T14:26:38Z</time>
      </trkpt>
      <trkpt lat="40.656267" lon="-4.759067">
        <ele>1708.0</ele>
        <time>2015-08-15T14:26:40Z</time>
      </trkpt>
      <trkpt lat="40.656417" lon="-4.758867">
        <ele>1700.0</ele>
        <time>2015-08-15T14:26:42Z</time>
      </trkpt>
      <trkpt lat="40.656550" lon="-4.758667">
        <ele>1693.0</ele>
        <time>2015-08-15T14:26:44Z</time>
      </trkpt>
      <trkpt lat="40.656700" lon="-4.758483">
        <ele>1685.0</ele>
        <time>2015-08-15T14:26:46Z</time>
      </trkpt>
      <trkpt lat="40.656833" lon="-4.758300">
        <ele>1677.0</ele>
        <time>2015-08-15T14:26:48Z</time>
      </trkpt>
      <trkpt lat="40.656983" lon="-4.758133">
        <ele>1670.0</ele>
        <time>2015-08-15T14:26:50Z</time>
      </trkpt>
      <trkpt lat="40.657133" lon="-4.757950">
        <ele>1663.0</ele>
        <time>2015-08-15T14:26:52Z</time>
      </trkpt>
      <trkpt lat="40.657267" lon="-4.757783">
        <ele>1654.0</ele>
        <time>2015-08-15T14:26:54Z</time>
      </trkpt>
      <trkpt lat="40.657400" lon="-4.757600">
        <ele>1645.0</ele>
        <time>2015-08-15T14:26:56Z</time>
      </trkpt>
      <trkpt lat="40.657517" lon="-4.757400">
        <ele>1638.0</ele>
        <time>2015-08-15T14:26:58Z</time>
      </trkpt>
      <trkpt lat="40.657650" lon="-4.757200">
        <ele>1630.0</ele>
        <time>2015-08-15T14:27:00Z</time>
      </trkpt>
      <trkpt lat="40.657767" lon="-4.756983">
        <ele>1622.0</ele>
        <time>2015-08-15T14:27:02Z</time>
      </trkpt>
      <trkpt lat="40.657883" lon="-4.756767">
        <ele>1614.0</ele>
        <time>2015-08-15T14:27:04Z</time>
      </trkpt>
      <trkpt lat="40.658000" lon="-4.756550">
        <ele>1606.0</ele>
        <time>2015-08-15T14:27:06Z</time>
      </trkpt>
      <trkpt lat="40.658100" lon="-4.756333">
        <ele>1600.0</ele>
        <time>2015-08-15T14:27:08Z</time>
      </trkpt>
      <trkpt lat="40.658183" lon="-4.756150">
        <ele>1595.0</ele>
        <time>2015-08-15T14:27:10Z</time>
      </trkpt>
      <trkpt lat="40.658317" lon="-4.755983">
        <ele>1587.0</ele>
        <time>2015-08-15T14:27:12Z</time>
      </trkpt>
      <trkpt lat="40.658467" lon="-4.755833">
        <ele>1579.0</ele>
        <time>2015-08-15T14:27:14Z</time>
      </trkpt>
      <trkpt lat="40.658583" lon="-4.755683">
        <ele>1574.0</ele>
        <time>2015-08-15T14:27:16Z</time>
      </trkpt>
      <trkpt lat="40.658717" lon="-4.755533">
        <ele>1568.0</ele>
        <time>2015-08-15T14:27:18Z</time>
      </trkpt>
      <trkpt lat="40.658850" lon="-4.755400">
        <ele>1563.0</ele>
        <time>2015-08-15T14:27:20Z</time>
      </trkpt>
      <trkpt lat="40.658983" lon="-4.755233">
        <ele>1557.0</ele>
        <time>2015-08-15T14:27:22Z</time>
      </trkpt>
      <trkpt lat="40.659117" lon="-4.755067">
        <ele>1550.0</ele>
        <time>2015-08-15T14:27:24Z</time>
      </trkpt>
      <trkpt lat="40.659267" lon="-4.754900">
        <ele>1545.0</ele>
        <time>2015-08-15T14:27:26Z</time>
      </trkpt>
      <trkpt lat="40.659400" lon="-4.754733">
        <ele>1541.0</ele>
        <time>2015-08-15T14:27:28Z</time>
      </trkpt>
      <trkpt lat="40.659550" lon="-4.754550">
        <ele>1536.0</ele>
        <time>2015-08-15T14:27:30Z</time>
      </trkpt>
      <trkpt lat="40.659700" lon="-4.754367">
        <ele>1530.0</ele>
        <time>2015-08-15T14:27:32Z</time>
      </trkpt>
      <trkpt lat="40.659850" lon="-4.754200">
        <ele>1526.0</ele>
        <time>2015-08-15T14:27:34Z</time>
      </trkpt>
      <trkpt lat="40.659983" lon="-4.754033">
        <ele>1520.0</ele>
        <time>2015-08-15T14:27:36Z</time>
      </trkpt>
      <trkpt lat="40.660133" lon="-4.753867">
        <ele>1513.0</ele>
        <time>2015-08-15T14:27:38Z</time>
      </trkpt>
      <trkpt lat="40.660283" lon="-4.753700">
        <ele>1507.0</ele>
        <time>2015-08-15T14:27:40Z</time>
      </trkpt>
      <trkpt lat="40.660417" lon="-4.753550">
        <ele>1501.0</ele>
        <time>2015-08-15T14:27:42Z</time>
      </trkpt>
      <trkpt lat="40.660567" lon="-4.753400">
        <ele>1492.0</ele>
        <time>2015-08-15T14:27:44Z</time>
      </trkpt>
      <trkpt lat="40.660733" lon="-4.753267">
        <ele>1483.0</ele>
        <time>2015-08-15T14:27:46Z</time>
      </trkpt>
      <trkpt lat="40.660883" lon="-4.753133">
        <ele>1476.0</ele>
        <time>2015-08-15T14:27:48Z</time>
      </trkpt>
      <trkpt lat="40.661033" lon="-4.753000">
        <ele>1470.0</ele>
        <time>2015-08-15T14:27:50Z</time>
      </trkpt>
      <trkpt lat="40.661183" lon="-4.752900">
        <ele>1463.0</ele>
        <time>2015-08-15T14:27:52Z</time>
      </trkpt>
      <trkpt lat="40.661350" lon="-4.752867">
        <ele>1456.0</ele>
        <time>2015-08-15T14:27:54Z</time>
      </trkpt>
      <trkpt lat="40.661500" lon="-4.752800">
        <ele>1450.0</ele>
        <time>2015-08-15T14:27:56Z</time>
      </trkpt>
      <trkpt lat="40.661650" lon="-4.752750">
        <ele>1443.0</ele>
        <time>2015-08-15T14:27:58Z</time>
      </trkpt>
      <trkpt lat="40.661767" lon="-4.752733">
        <ele>1436.0</ele>
        <time>2015-08-15T14:28:00Z</time>
      </trkpt>
      <trkpt lat="40.661883" lon="-4.752800">
        <ele>1428.0</ele>
        <time>2015-08-15T14:28:02Z</time>
      </trkpt>
      <trkpt lat="40.661967" lon="-4.752900">
        <ele>1421.0</ele>
        <time>2015-08-15T14:28:04Z</time>
      </trkpt>
      <trkpt lat="40.661967" lon="-4.753000">
        <ele>1415.0</ele>
        <time>2015-08-15T14:28:06Z</time>
      </trkpt>
      <trkpt lat="40.661983" lon="-4.753150">
        <ele>1407.0</ele>
        <time>2015-08-15T14:28:08Z</time>
      </trkpt>
      <trkpt lat="40.661967" lon="-4.753317">
        <ele>1399.0</ele>
        <time>2015-08-15T14:28:10Z</time>
      </trkpt>
      <trkpt lat="40.661933" lon="-4.753450">
        <ele>1393.0</ele>
        <time>2015-08-15T14:28:12Z</time>
      </trkpt>
      <trkpt lat="40.661867" lon="-4.753583">
        <ele>1387.0</ele>
        <time>2015-08-15T14:28:14Z</time>
      </trkpt>
      <trkpt lat="40.661783" lon="-4.753700">
        <ele>1382.0</ele>
        <time>2015-08-15T14:28:16Z</time>
      </trkpt>
      <trkpt lat="40.661700" lon="-4.753783">
        <ele>1376.0</ele>
        <time>2015-08-15T14:28:18Z</time>
      </trkpt>
      <trkpt lat="40.661617" lon="-4.753933">
        <ele>1369.0</ele>
        <time>2015-08-15T14:28:20Z</time>
      </trkpt>
      <trkpt lat="40.661550" lon="-4.754083">
        <ele>1363.0</ele>
        <time>2015-08-15T14:28:22Z</time>
      </trkpt>
      <trkpt lat="40.661500" lon="-4.754217">
        <ele>1357.0</ele>
        <time>2015-08-15T14:28:24Z</time>
      </trkpt>
      <trkpt lat="40.661450" lon="-4.754400">
        <ele>1349.0</ele>
        <time>2015-08-15T14:28:26Z</time>
      </trkpt>
      <trkpt lat="40.661383" lon="-4.754583">
        <ele>1342.0</ele>
        <time>2015-08-15T14:28:28Z</time>
      </trkpt>
      <trkpt lat="40.661383" lon="-4.754750">
        <ele>1338.0</ele>
        <time>2015-08-15T14:28:30Z</time>
      </trkpt>
      <trkpt lat="40.661483" lon="-4.754833">
        <ele>1333.0</ele>
        <time>2015-08-15T14:28:32Z</time>
      </trkpt>
      <trkpt lat="40.661667" lon="-4.754767">
        <ele>1326.0</ele>
        <time>2015-08-15T14:28:34Z</time>
      </trkpt>
      <trkpt lat="40.661783" lon="-4.754533">
        <ele>1321.0</ele>
        <time>2015-08-15T14:28:36Z</time>
      </trkpt>
      <trkpt lat="40.661833" lon="-4.754233">
        <ele>1318.0</ele>
        <time>2015-08-15T14:28:38Z</time>
      </trkpt>
      <trkpt lat="40.661883" lon="-4.753933">
        <ele>1315.0</ele>
        <time>2015-08-15T14:28:40Z</time>
      </trkpt>
      <trkpt lat="40.661917" lon="-4.753617">
        <ele>1312.0</ele>
        <time>2015-08-15T14:28:42Z</time>
      </trkpt>
      <trkpt lat="40.661917" lon="-4.753267">
        <ele>1310.0</ele>
        <time>2015-08-15T14:28:44Z</time>
      </trkpt>
      <trkpt lat="40.661900" lon="-4.752933">
        <ele>1309.0</ele>
        <time>2015-08-15T14:28:46Z</time>
      </trkpt>
      <trkpt lat="40.661883" lon="-4.752617">
        <ele>1307.0</ele>
        <time>2015-08-15T14:28:48Z</time>
      </trkpt>
      <trkpt lat="40.661933" lon="-4.752333">
        <ele>1304.0</ele>
        <time>2015-08-15T14:28:50Z</time>
      </trkpt>
      <trkpt lat="40.662050" lon="-4.752067">
        <ele>1299.0</ele>
        <time>2015-08-15T14:28:52Z</time>
      </trkpt>
      <trkpt lat="40.662200" lon="-4.751900">
        <ele>1296.0</ele>
        <time>2015-08-15T14:28:54Z</time>
      </trkpt>
      <trkpt lat="40.662367" lon="-4.751817">
        <ele>1291.0</ele>
        <time>2015-08-15T14:28:56Z</time>
      </trkpt>
      <trkpt lat="40.662517" lon="-4.751883">
        <ele>1285.0</ele>
        <time>2015-08-15T14:28:58Z</time>
      </trkpt>
      <trkpt lat="40.662533" lon="-4.752033">
        <ele>1279.0</ele>
        <time>2015-08-15T14:29:00Z</time>
      </trkpt>
      <trkpt lat="40.662400" lon="-4.752133">
        <ele>1274.0</ele>
        <time>2015-08-15T14:29:02Z</time>
      </trkpt>
      <trkpt lat="40.662283" lon="-4.752183">
        <ele>1271.0</ele>
        <time>2015-08-15T14:29:04Z</time>
      </trkpt>
      <trkpt lat="40.662150" lon="-4.752283">
        <ele>1267.0</ele>
        <time>2015-08-15T14:29:06Z</time>
      </trkpt>
      <trkpt lat="40.662017" lon="-4.752350">
        <ele>1266.0</ele>
        <time>2015-08-15T14:29:08Z</time>
      </trkpt>
      <trkpt lat="40.661883" lon="-4.752400">
        <ele>1270.0</ele>
        <time>2015-08-15T14:29:10Z</time>
      </trkpt>
      <trkpt lat="40.661750" lon="-4.752417">
        <ele>1272.0</ele>
        <time>2015-08-15T14:29:12Z</time>
      </trkpt>
      <trkpt lat="40.661600" lon="-4.752450">
        <ele>1271.0</ele>
        <time>2015-08-15T14:29:14Z</time>
      </trkpt>
      <trkpt lat="40.661517" lon="-4.752550">
        <ele>1271.0</ele>
        <time>2015-08-15T14:29:16Z</time>
      </trkpt>
      <trkpt lat="40.661567" lon="-4.752683">
        <ele>1270.0</ele>
        <time>2015-08-15T14:29:18Z</time>
      </trkpt>
      <trkpt lat="40.661700" lon="-4.752750">
        <ele>1266.0</ele>
        <time>2015-08-15T14:29:20Z</time>
      </trkpt>
      <trkpt lat="40.661883" lon="-4.752717">
        <ele>1264.0</ele>
        <time>2015-08-15T14:29:22Z</time>
      </trkpt>
      <trkpt lat="40.662100" lon="-4.752583">
        <ele>1262.0</ele>
        <time>2015-08-15T14:29:24Z</time>
      </trkpt>
      <trkpt lat="40.662267" lon="-4.752433">
        <ele>1262.0</ele>
        <time>2015-08-15T14:29:26Z</time>
      </trkpt>
      <trkpt lat="40.662433" lon="-4.752283">
        <ele>1261.0</ele>
        <time>2015-08-15T14:29:28Z</time>
      </trkpt>
      <trkpt lat="40.662600" lon="-4.752100">
        <ele>1258.0</ele>
        <time>2015-08-15T14:29:30Z</time>
      </trkpt>
      <trkpt lat="40.662767" lon="-4.751917">
        <ele>1257.0</ele>
        <time>2015-08-15T14:29:32Z</time>
      </trkpt>
      <trkpt lat="40.662917" lon="-4.751767">
        <ele>1260.0</ele>
        <time>2015-08-15T14:29:34Z</time>
      </trkpt>
      <trkpt lat="40.663050" lon="-4.751583">
        <ele>1260.0</ele>
        <time>2015-08-15T14:29:36Z</time>
      </trkpt>
      <trkpt lat="40.663217" lon="-4.751383">
        <ele>1257.0</ele>
        <time>2015-08-15T14:29:38Z</time>
      </trkpt>
      <trkpt lat="40.663367" lon="-4.751133">
        <ele>1256.0</ele>
        <time>2015-08-15T14:29:40Z</time>
      </trkpt>
      <trkpt lat="40.663500" lon="-4.750867">
        <ele>1257.0</ele>
        <time>2015-08-15T14:29:42Z</time>
      </trkpt>
      <trkpt lat="40.663583" lon="-4.750667">
        <ele>1259.0</ele>
        <time>2015-08-15T14:29:44Z</time>
      </trkpt>
      <trkpt lat="40.663700" lon="-4.750550">
        <ele>1257.0</ele>
        <time>2015-08-15T14:29:46Z</time>
      </trkpt>
      <trkpt lat="40.663867" lon="-4.750533">
        <ele>1250.0</ele>
        <time>2015-08-15T14:29:48Z</time>
      </trkpt>
      <trkpt lat="40.664000" lon="-4.750533">
        <ele>1246.0</ele>
        <time>2015-08-15T14:29:50Z</time>
      </trkpt>
      <trkpt lat="40.664133" lon="-4.750483">
        <ele>1246.0</ele>
        <time>2015-08-15T14:29:52Z</time>
      </trkpt>
      <trkpt lat="40.664217" lon="-4.750500">
        <ele>1242.0</ele>
        <time>2015-08-15T14:29:54Z</time>
      </trkpt>
      <trkpt lat="40.664300" lon="-4.750583">
        <ele>1236.0</ele>
        <time>2015-08-15T14:29:56Z</time>
      </trkpt>
      <trkpt lat="40.664383" lon="-4.750667">
        <ele>1236.0</ele>
        <time>2015-08-15T14:29:58Z</time>
      </trkpt>
      <trkpt lat="40.664417" lon="-4.750717">
        <ele>1238.0</ele>
        <time>2015-08-15T14:30:00Z</time>
      </trkpt>
      <trkpt lat="40.664350" lon="-4.750783">
        <ele>1239.0</ele>
        <time>2015-08-15T14:30:02Z</time>
      </trkpt>
      <trkpt lat="40.664200" lon="-4.750783">
        <ele>1242.0</ele>
        <time>2015-08-15T14:30:04Z</time>
      </trkpt>
      <trkpt lat="40.664117" lon="-4.750783">
        <ele>1254.0</ele>
        <time>2015-08-15T14:30:06Z</time>
      </trkpt>
      <trkpt lat="40.664083" lon="-4.750800">
        <ele>1266.0</ele>
        <time>2015-08-15T14:30:08Z</time>
      </trkpt>
      <trkpt lat="40.663933" lon="-4.750800">
        <ele>1277.0</ele>
        <time>2015-08-15T14:30:10Z</time>
      </trkpt>
      <trkpt lat="40.663683" lon="-4.750600">
        <ele>1291.0</ele>
        <time>2015-08-15T14:30:12Z</time>
      </trkpt>
      <trkpt lat="40.663500" lon="-4.750167">
        <ele>1293.0</ele>
        <time>2015-08-15T14:30:14Z</time>
      </trkpt>
      <trkpt lat="40.663300" lon="-4.749850">
        <ele>1298.0</ele>
        <time>2015-08-15T14:30:16Z</time>
      </trkpt>
      <trkpt lat="40.663100" lon="-4.749583">
        <ele>1301.0</ele>
        <time>2015-08-15T14:30:18Z</time>
      </trkpt>
      <trkpt lat="40.662933" lon="-4.749250">
        <ele>1302.0</ele>
        <time>2015-08-15T14:30:20Z</time>
      </trkpt>
      <trkpt lat="40.662767" lon="-4.748983">
        <ele>1301.0</ele>
        <time>2015-08-15T14:30:22Z</time>
      </trkpt>
      <trkpt lat="40.662600" lon="-4.748733">
        <ele>1300.0</ele>
        <time>2015-08-15T14:30:24Z</time>
      </trkpt>
      <trkpt lat="40.662433" lon="-4.748467">
        <ele>1298.0</ele>
        <time>2015-08-15T14:30:26Z</time>
      </trkpt>
      <trkpt lat="40.662250" lon="-4.748217">
        <ele>1298.0</ele>
        <time>2015-08-15T14:30:28Z</time>
      </trkpt>
      <trkpt lat="40.662050" lon="-4.748000">
        <ele>1298.0</ele>
        <time>2015-08-15T14:30:30Z</time>
      </trkpt>
      <trkpt lat="40.661867" lon="-4.747817">
        <ele>1300.0</ele>
        <time>2015-08-15T14:30:32Z</time>
      </trkpt>
      <trkpt lat="40.661683" lon="-4.747633">
        <ele>1301.0</ele>
        <time>2015-08-15T14:30:34Z</time>
      </trkpt>
      <trkpt lat="40.661483" lon="-4.747417">
        <ele>1302.0</ele>
        <time>2015-08-15T14:30:36Z</time>
      </trkpt>
      <trkpt lat="40.661317" lon="-4.747250">
        <ele>1307.0</ele>
        <time>2015-08-15T14:30:38Z</time>
      </trkpt>
      <trkpt lat="40.661150" lon="-4.747133">
        <ele>1312.0</ele>
        <time>2015-08-15T14:30:40Z</time>
      </trkpt>
      <trkpt lat="40.660983" lon="-4.747083">
        <ele>1313.0</ele>
        <time>2015-08-15T14:30:42Z</time>
      </trkpt>
      <trkpt lat="40.660783" lon="-4.747083">
        <ele>1314.0</ele>
        <time>2015-08-15T14:30:44Z</time>
      </trkpt>
      <trkpt lat="40.660600" lon="-4.747100">
        <ele>1315.0</ele>
        <time>2015-08-15T14:30:46Z</time>
      </trkpt>
      <trkpt lat="40.660383" lon="-4.747133">
        <ele>1315.0</ele>
        <time>2015-08-15T14:30:48Z</time>
      </trkpt>
      <trkpt lat="40.660167" lon="-4.747150">
        <ele>1314.0</ele>
        <time>2015-08-15T14:30:50Z</time>
      </trkpt>
      <trkpt lat="40.659983" lon="-4.747183">
        <ele>1313.0</ele>
        <time>2015-08-15T14:30:52Z</time>
      </trkpt>
      <trkpt lat="40.659800" lon="-4.747217">
        <ele>1309.0</ele>
        <time>2015-08-15T14:30:54Z</time>
      </trkpt>
      <trkpt lat="40.659600" lon="-4.747233">
        <ele>1303.0</ele>
        <time>2015-08-15T14:30:56Z</time>
      </trkpt>
      <trkpt lat="40.659400" lon="-4.747200">
        <ele>1298.0</ele>
        <time>2015-08-15T14:30:58Z</time>
      </trkpt>
      <trkpt lat="40.659217" lon="-4.747183">
        <ele>1295.0</ele>
        <time>2015-08-15T14:31:00Z</time>
      </trkpt>
      <trkpt lat="40.659083" lon="-4.747233">
        <ele>1290.0</ele>
        <time>2015-08-15T14:31:02Z</time>
      </trkpt>
      <trkpt lat="40.658983" lon="-4.747333">
        <ele>1286.0</ele>
        <time>2015-08-15T14:31:04Z</time>
      </trkpt>
      <trkpt lat="40.658933" lon="-4.747467">
        <ele>1284.0</ele>
        <time>2015-08-15T14:31:06Z</time>
      </trkpt>
      <trkpt lat="40.658933" lon="-4.747567">
        <ele>1284.0</ele>
        <time>2015-08-15T14:31:08Z</time>
      </trkpt>
      <trkpt lat="40.658967" lon="-4.747683">
        <ele>1281.0</ele>
        <time>2015-08-15T14:31:10Z</time>
      </trkpt>
      <trkpt lat="40.659033" lon="-4.747783">
        <ele>1279.0</ele>
        <time>2015-08-15T14:31:12Z</time>
      </trkpt>
      <trkpt lat="40.659117" lon="-4.747867">
        <ele>1278.0</ele>
        <time>2015-08-15T14:31:14Z</time>
      </trkpt>
      <trkpt lat="40.659233" lon="-4.747950">
        <ele>1277.0</ele>
        <time>2015-08-15T14:31:16Z</time>
      </trkpt>
      <trkpt lat="40.659283" lon="-4.748067">
        <ele>1275.0</ele>
        <time>2015-08-15T14:31:18Z</time>
      </trkpt>
      <trkpt lat="40.659200" lon="-4.748200">
        <ele>1272.0</ele>
        <time>2015-08-15T14:31:20Z</time>
      </trkpt>
      <trkpt lat="40.659050" lon="-4.748250">
        <ele>1270.0</ele>
        <time>2015-08-15T14:31:22Z</time>
      </trkpt>
      <trkpt lat="40.658833" lon="-4.748200">
        <ele>1268.0</ele>
        <time>2015-08-15T14:31:24Z</time>
      </trkpt>
      <trkpt lat="40.658650" lon="-4.748133">
        <ele>1268.0</ele>
        <time>2015-08-15T14:31:26Z</time>
      </trkpt>
      <trkpt lat="40.658517" lon="-4.748100">
        <ele>1269.0</ele>
        <time>2015-08-15T14:31:28Z</time>
      </trkpt>
      <trkpt lat="40.658400" lon="-4.748133">
        <ele>1265.0</ele>
        <time>2015-08-15T14:31:30Z</time>
      </trkpt>
      <trkpt lat="40.658350" lon="-4.748283">
        <ele>1258.0</ele>
        <time>2015-08-15T14:31:32Z</time>
      </trkpt>
      <trkpt lat="40.658383" lon="-4.748450">
        <ele>1255.0</ele>
        <time>2015-08-15T14:31:34Z</time>
      </trkpt>
      <trkpt lat="40.658433" lon="-4.748550">
        <ele>1254.0</ele>
        <time>2015-08-15T14:31:36Z</time>
      </trkpt>
      <trkpt lat="40.658483" lon="-4.748667">
        <ele>1249.0</ele>
        <time>2015-08-15T14:31:38Z</time>
      </trkpt>
      <trkpt lat="40.658517" lon="-4.748800">
        <ele>1244.0</ele>
        <time>2015-08-15T14:31:40Z</time>
      </trkpt>
      <trkpt lat="40.658500" lon="-4.748933">
        <ele>1241.0</ele>
        <time>2015-08-15T14:31:42Z</time>
      </trkpt>
      <trkpt lat="40.658450" lon="-4.749067">
        <ele>1236.0</ele>
        <time>2015-08-15T14:31:44Z</time>
      </trkpt>
      <trkpt lat="40.658400" lon="-4.749200">
        <ele>1230.0</ele>
        <time>2015-08-15T14:31:46Z</time>
      </trkpt>
      <trkpt lat="40.658367" lon="-4.749333">
        <ele>1225.0</ele>
        <time>2015-08-15T14:31:48Z</time>
      </trkpt>
      <trkpt lat="40.658350" lon="-4.749483">
        <ele>1220.0</ele>
        <time>2015-08-15T14:31:50Z</time>
      </trkpt>
      <trkpt lat="40.658333" lon="-4.749633">
        <ele>1214.0</ele>
        <time>2015-08-15T14:31:52Z</time>
      </trkpt>
      <trkpt lat="40.658317" lon="-4.749783">
        <ele>1209.0</ele>
        <time>2015-08-15T14:31:54Z</time>
      </trkpt>
      <trkpt lat="40.658317" lon="-4.749933">
        <ele>1205.0</ele>
        <time>2015-08-15T14:31:56Z</time>
      </trkpt>
      <trkpt lat="40.658300" lon="-4.750067">
        <ele>1202.0</ele>
        <time>2015-08-15T14:31:58Z</time>
      </trkpt>
      <trkpt lat="40.658267" lon="-4.750217">
        <ele>1198.0</ele>
        <time>2015-08-15T14:32:00Z</time>
      </trkpt>
      <trkpt lat="40.658250" lon="-4.750367">
        <ele>1193.0</ele>
        <time>2015-08-15T14:32:02Z</time>
      </trkpt>
      <trkpt lat="40.658200" lon="-4.750533">
        <ele>1188.0</ele>
        <time>2015-08-15T14:32:04Z</time>
      </trkpt>
      <trkpt lat="40.658167" lon="-4.750683">
        <ele>1185.0</ele>
        <time>2015-08-15T14:32:06Z</time>
      </trkpt>
      <trkpt lat="40.658150" lon="-4.750883">
        <ele>1183.0</ele>
        <time>2015-08-15T14:32:08Z</time>
      </trkpt>
      <trkpt lat="40.658133" lon="-4.751050">
        <ele>1183.0</ele>
        <time>2015-08-15T14:32:10Z</time>
      </trkpt>
      <trkpt lat="40.658100" lon="-4.751200">
        <ele>1182.0</ele>
        <time>2015-08-15T14:32:12Z</time>
      </trkpt>
      <trkpt lat="40.658067" lon="-4.751400">
        <ele>1179.0</ele>
        <time>2015-08-15T14:32:14Z</time>
      </trkpt>
      <trkpt lat="40.657983" lon="-4.751550">
        <ele>1179.0</ele>
        <time>2015-08-15T14:32:16Z</time>
      </trkpt>
      <trkpt lat="40.657883" lon="-4.751633">
        <ele>1180.0</ele>
        <time>2015-08-15T14:32:18Z</time>
      </trkpt>
      <trkpt lat="40.657800" lon="-4.751733">
        <ele>1178.0</ele>
        <time>2015-08-15T14:32:20Z</time>
      </trkpt>
      <trkpt lat="40.657767" lon="-4.751850">
        <ele>1174.0</ele>
        <time>2015-08-15T14:32:22Z</time>
      </trkpt>
      <trkpt lat="40.657767" lon="-4.752017">
        <ele>1169.0</ele>
        <time>2015-08-15T14:32:24Z</time>
      </trkpt>
      <trkpt lat="40.657767" lon="-4.752200">
        <ele>1165.0</ele>
        <time>2015-08-15T14:32:26Z</time>
      </trkpt>
      <trkpt lat="40.657733" lon="-4.752350">
        <ele>1164.0</ele>
        <time>2015-08-15T14:32:28Z</time>
      </trkpt>
      <trkpt lat="40.657717" lon="-4.752483">
        <ele>1162.0</ele>
        <time>2015-08-15T14:32:30Z</time>
      </trkpt>
      <trkpt lat="40.657700" lon="-4.752633">
        <ele>1158.0</ele>
        <time>2015-08-15T14:32:32Z</time>
      </trkpt>
      <trkpt lat="40.657683" lon="-4.752767">
        <ele>1156.0</ele>
        <time>2015-08-15T14:32:34Z</time>
      </trkpt>
      <trkpt lat="40.657667" lon="-4.752900">
        <ele>1153.0</ele>
        <time>2015-08-15T14:32:36Z</time>
      </trkpt>
      <trkpt lat="40.657650" lon="-4.752933">
        <ele>1150.0</ele>
        <time>2015-08-15T14:32:38Z</time>
      </trkpt>
      <trkpt lat="40.657667" lon="-4.752917">
        <ele>1149.0</ele>
        <time>2015-08-15T14:32:40Z</time>
      </trkpt>
      <trkpt lat="40.657650" lon="-4.752917">
        <ele>1148.0</ele>
        <time>2015-08-15T14:32:42Z</time>
      </trkpt>
      <trkpt lat="40.657650" lon="-4.752933">
        <ele>1148.0</ele>
        <time>2015-08-15T14:32:44Z</time>
      </trkpt>
      <trkpt lat="40.657650" lon="-4.752917">
        <ele>1148.0</ele>
        <time>2015-08-15T14:32:46Z</time>
      </trkpt>
      <trkpt lat="40.657650" lon="-4.752917">
        <ele>1148.0</ele>
        <time>2015-08-15T14:32:48Z</time>
      </trkpt>
      <trkpt lat="40.657667" lon="-4.752917">
        <ele>1148.0</ele>
        <time>2015-08-15T14:32:50Z</time>
      </trkpt>
      <trkpt lat="40.657667" lon="-4.752917">
        <ele>1149.0</ele>
        <time>2015-08-15T14:32:52Z</time>
      </trkpt>
      <trkpt lat="40.657667" lon="-4.752933">
        <ele>1148.0</ele>
        <time>2015-08-15T14:32:54Z</time>
      </trkpt>
      <trkpt lat="40.657667" lon="-4.752917">
        <ele>1148.0</ele>
        <time>2015-08-15T14:32:56Z</time>
      </trkpt>
      <trkpt lat="40.657667" lon="-4.752933">
        <ele>1148.0</ele>
        <time>2015-08-15T14:32:58Z</time>
      </trkpt>
      <trkpt lat="40.657667" lon="-4.752933">
        <ele>1148.0</ele>
        <time>2015-08-15T14:33:00Z</time>
      </trkpt>
      <trkpt lat="40.657667" lon="-4.752933">
        <ele>1148.0</ele>
        <time>2015-08-15T14:33:02Z</time>
      </trkpt>
      <trkpt lat="40.657667" lon="-4.752933">
        <ele>1148.0</ele>
        <time>2015-08-15T14:33:04Z</time>
      </trkpt>
      <trkpt lat="40.657667" lon="-4.752933">
        <ele>1148.0</ele>
        <time>2015-08-15T14:33:06Z</time>
      </trkpt>
      <trkpt lat="40.657667" lon="-4.752933">
        <ele>1148.0</ele>
        <time>2015-08-15T14:33:08Z</time>
      </trkpt>
      <trkpt lat="40.657650" lon="-4.752933">
        <ele>1147.0</ele>
        <time>2015-08-15T14:33:10Z</time>
      </trkpt>
      <trkpt lat="40.657650" lon="-4.752933">
        <ele>1147.0</ele>
        <time>2015-08-15T14:33:12Z</time>
      </trkpt>
      <trkpt lat="40.657667" lon="-4.752917">
        <ele>1146.0</ele>
        <time>2015-08-15T14:33:14Z</time>
      </trkpt>
      <trkpt lat="40.657650" lon="-4.752850">
        <ele>1146.0</ele>
        <time>2015-08-15T14:33:16Z</time>
      </trkpt>
      <trkpt lat="40.657617" lon="-4.752883">
        <ele>1146.0</ele>
        <time>2015-08-15T14:33:21Z</time>
      </trkpt>
      <trkpt lat="40.657650" lon="-4.752917">
        <ele>1147.0</ele>
        <time>2015-08-15T14:33:23Z</time>
      </trkpt>
      <trkpt lat="40.657650" lon="-4.752917">
        <ele>1147.0</ele>
        <time>2015-08-15T14:33:25Z</time>
      </trkpt>
      <trkpt lat="40.657667" lon="-4.752933">
        <ele>1147.0</ele>
        <time>2015-08-15T14:33:27Z</time>
      </trkpt>
      <trkpt lat="40.657667" lon="-4.752933">
        <ele>1147.0</ele>
        <time>2015-08-15T14:33:29Z</time>
      </trkpt>
      <trkpt lat="40.657667" lon="-4.752933">
        <ele>1147.0</ele>
        <time>2015-08-15T14:33:31Z</time>
      </trkpt>
      <trkpt lat="40.657667" lon="-4.752950">
        <ele>1147.0</ele>
        <time>2015-08-15T14:33:33Z</time>
      </trkpt>
      <trkpt lat="40.657667" lon="-4.752950">
        <ele>1147.0</ele>
        <time>2015-08-15T14:33:35Z</time>
      </trkpt>
      <trkpt lat="40.657667" lon="-4.752950">
        <ele>1147.0</ele>
        <time>2015-08-15T14:33:37Z</time>
      </trkpt>
      <trkpt lat="40.657667" lon="-4.752933">
        <ele>1147.0</ele>
        <time>2015-08-15T14:33:39Z</time>
      </trkpt>
    </trkseg>
  </trk>
</gpx>
